GFSSE_prec_precacc24_003.txt.gz
Total_Precipitation_Accumulation
0.00 0.00 0.01 0.01 0.00 0.00 0.00 0.00 0.00 0.00 0.00 0.00 0.00 0.01 0.01 0.02 0.02 0.01 0.00 0.00 0.00 0.00 0.00 0.00 0.00 0.00 0.02 0.03 0.02 0.01 0.01 0.00 0.00 0.00 0.00 0.00 0.00 0.00 0.00 0.00 0.00 0.00 0.00
0.00 0.00 0.01 0.01 0.01 0.00 0.00 0.00 0.00 0.00 0.00 0.00 0.01 0.01 0.00 0.01 0.01 0.01 0.00 0.00 0.00 0.00 0.00 0.00 0.00 0.00 0.00 0.00 0.00 0.01 0.01 0.00 0.00 0.00 0.00 0.00 0.00 0.00 0.00 0.00 0.01 0.00 0.00
0.00 0.00 0.00 0.01 0.01 0.00 0.00 0.00 0.00 0.00 0.00 0.00 0.00 0.00 0.00 0.00 0.00 0.01 0.00 0.00 0.00 0.00 0.00 0.00 0.00 0.00 0.00 0.00 0.00 0.00 0.00 0.00 0.00 0.00 0.00 0.00 0.00 0.00 0.00 0.00 0.01 0.00 0.00
0.00 0.00 0.00 0.01 0.00 0.00 0.00 0.00 0.00 0.00 0.00 0.00 0.00 0.00 0.00 0.00 0.01 0.01 0.01 0.00 0.00 0.00 0.00 0.00 0.00 0.00 0.00 0.00 0.00 0.00 0.00 0.00 0.00 0.00 0.00 0.00 0.00 0.00 0.00 0.00 0.00 0.00 0.00
0.00 0.00 0.00 0.01 0.00 0.00 0.00 0.00 0.00 0.00 0.00 0.00 0.00 0.00 0.00 0.00 0.00 0.00 0.00 0.00 0.00 0.00 0.00 0.00 0.00 0.00 0.00 0.00 0.00 0.00 0.00 0.00 0.00 0.00 0.00 0.00 0.00 0.00 0.00 0.00 0.00 0.01 0.00
0.00 0.00 0.01 0.01 0.01 0.00 0.00 0.00 0.00 0.00 0.00 0.00 0.00 0.00 0.00 0.01 0.01 0.01 0.00 0.00 0.00 0.00 0.00 0.00 0.00 0.00 0.00 0.00 0.00 0.00 0.00 0.00 0.00 0.00 0.00 0.00 0.00 0.00 0.00 0.00 0.00 0.00 0.00
0.00 0.00 0.01 0.01 0.01 0.01 0.01 0.01 0.00 0.00 0.00 0.00 0.00 0.00 0.00 0.01 0.01 0.03 0.02 0.00 0.00 0.00 0.00 0.00 0.00 0.00 0.00 0.00 0.00 0.00 0.00 0.00 0.00 0.00 0.00 0.00 0.00 0.00 0.00 0.00 0.00 0.00 0.00
0.00 0.00 0.00 0.01 0.00 0.01 0.01 0.01 0.00 0.00 0.00 0.00 0.00 0.00 0.00 0.00 0.01 0.05 0.05 0.01 0.00 0.00 0.00 0.00 0.00 0.00 0.00 0.00 0.00 0.00 0.00 0.00 0.00 0.00 0.00 0.00 0.00 0.00 0.00 0.00 0.00 0.00 0.00
0.00 0.00 0.00 0.01 0.01 0.01 0.01 0.00 0.00 0.00 0.00 0.00 0.00 0.00 0.00 0.00 0.00 0.01 0.02 0.01 0.01 0.00 0.00 0.00 0.00 0.00 0.00 0.00 0.00 0.00 0.00 0.00 0.00 0.00 0.00 0.00 0.00 0.00 0.00 0.00 0.01 0.01 0.00
0.00 0.00 0.00 0.00 0.01 0.01 0.01 0.00 0.00 0.00 0.00 0.00 0.00 0.00 0.00 0.00 0.00 0.00 0.00 0.01 0.00 0.00 0.00 0.00 0.01 0.02 0.02 0.00 0.00 0.00 0.00 0.00 0.00 0.00 0.00 0.00 0.00 0.00 0.01 0.01 0.02 0.02 0.04
0.00 0.00 0.00 0.00 0.00 0.01 0.01 0.00 0.00 0.00 0.00 0.00 0.00 0.00 0.00 0.00 0.00 0.00 0.00 0.00 0.00 0.00 0.00 0.00 0.01 0.01 0.00 0.00 0.00 0.00 0.00 0.00 0.00 0.00 0.00 0.00 0.00 0.00 0.00 0.00 0.00 0.01 0.02
0.00 0.00 0.00 0.00 0.00 0.00 0.01 0.01 0.00 0.00 0.00 0.00 0.00 0.00 0.00 0.00 0.00 0.00 0.00 0.00 0.00 0.00 0.00 0.00 0.00 0.00 0.00 0.00 0.00 0.00 0.00 0.00 0.00 0.00 0.00 0.00 0.00 0.00 0.00 0.00 0.00 0.00 0.00
0.00 0.00 0.00 0.00 0.00 0.00 0.00 0.00 0.00 0.00 0.00 0.00 0.00 0.00 0.00 0.00 0.00 0.00 0.00 0.00 0.00 0.00 0.00 0.00 0.00 0.00 0.00 0.00 0.00 0.00 0.00 0.00 0.00 0.00 0.00 0.00 0.00 0.00 0.00 0.00 0.00 0.00 0.00
0.00 0.00 0.00 0.00 0.00 0.00 0.00 0.00 0.00 0.00 0.00 0.00 0.00 0.00 0.00 0.00 0.00 0.00 0.00 0.00 0.00 0.00 0.00 0.00 0.00 0.00 0.00 0.00 0.00 0.00 0.00 0.00 0.00 0.00 0.00 0.00 0.00 0.00 0.00 0.00 0.00 0.00 0.00
0.00 0.00 0.00 0.00 0.00 0.00 0.00 0.00 0.00 0.00 0.00 0.00 0.00 0.00 0.00 0.00 0.00 0.00 0.00 0.00 0.00 0.00 0.00 0.00 0.00 0.00 0.00 0.00 0.00 0.00 0.00 0.00 0.00 0.00 0.00 0.00 0.00 0.00 0.00 0.00 0.00 0.00 0.00
0.00 0.00 0.00 0.00 0.00 0.00 0.00 0.00 0.00 0.00 0.00 0.00 0.00 0.00 0.00 0.00 0.00 0.00 0.00 0.00 0.00 0.00 0.00 0.00 0.00 0.00 0.00 0.00 0.00 0.00 0.00 0.00 0.00 0.00 0.00 0.00 0.00 0.00 0.00 0.00 0.00 0.00 0.00
0.00 0.00 0.00 0.00 0.00 0.00 0.00 0.01 0.05 0.00 0.00 0.00 0.00 0.00 0.00 0.00 0.00 0.00 0.00 0.00 0.00 0.00 0.00 0.00 0.00 0.00 0.00 0.00 0.00 0.00 0.00 0.00 0.00 0.00 0.00 0.00 0.00 0.00 0.00 0.00 0.00 0.00 0.00
0.00 0.00 0.00 0.00 0.00 0.00 0.00 0.06 0.06 0.01 0.01 0.01 0.00 0.00 0.00 0.00 0.00 0.00 0.00 0.00 0.00 0.00 0.00 0.00 0.00 0.00 0.00 0.00 0.00 0.00 0.00 0.00 0.00 0.00 0.00 0.00 0.00 0.00 0.00 0.00 0.00 0.00 0.00
0.00 0.00 0.00 0.00 0.00 0.00 0.02 0.03 0.06 0.01 0.01 0.01 0.00 0.00 0.00 0.00 0.00 0.00 0.00 0.00 0.00 0.00 0.00 0.00 0.00 0.00 0.00 0.00 0.00 0.00 0.00 0.00 0.00 0.00 0.00 0.00 0.00 0.00 0.00 0.00 0.00 0.00 0.00
0.00 0.00 0.00 0.00 0.00 0.00 0.01 0.01 0.02 0.01 0.00 0.00 0.00 0.00 0.00 0.00 0.00 0.00 0.00 0.00 0.00 0.00 0.00 0.00 0.00 0.00 0.00 0.00 0.00 0.00 0.00 0.00 0.00 0.00 0.00 0.00 0.00 0.00 0.00 0.00 0.00 0.00 0.00
0.00 0.00 0.00 0.00 0.00 0.02 0.03 0.01 0.00 0.00 0.00 0.00 0.00 0.00 0.00 0.00 0.00 0.00 0.00 0.00 0.00 0.00 0.00 0.00 0.00 0.00 0.00 0.00 0.00 0.00 0.00 0.00 0.00 0.00 0.00 0.00 0.00 0.00 0.00 0.00 0.00 0.00 0.00
0.00 0.00 0.00 0.00 0.00 0.01 0.04 0.02 0.01 0.00 0.00 0.00 0.00 0.00 0.00 0.00 0.00 0.00 0.00 0.00 0.00 0.00 0.00 0.00 0.00 0.00 0.00 0.00 0.00 0.00 0.00 0.00 0.00 0.00 0.00 0.00 0.00 0.00 0.00 0.00 0.00 0.00 0.00
0.00 0.00 0.00 0.00 0.01 0.02 0.04 0.02 0.01 0.00 0.00 0.00 0.00 0.00 0.00 0.00 0.00 0.00 0.00 0.00 0.00 0.00 0.00 0.00 0.00 0.00 0.00 0.00 0.00 0.00 0.00 0.00 0.00 0.00 0.00 0.00 0.00 0.00 0.00 0.00 0.00 0.00 0.00
0.00 0.00 0.00 0.00 0.01 0.02 0.02 0.01 0.00 0.00 0.00 0.00 0.00 0.00 0.00 0.00 0.00 0.00 0.00 0.00 0.00 0.00 0.00 0.00 0.00 0.00 0.00 0.00 0.00 0.00 0.00 0.00 0.00 0.00 0.00 0.00 0.00 0.00 0.00 0.00 0.00 0.00 0.00
0.00 0.00 0.00 0.00 0.00 0.00 0.01 0.01 0.01 0.00 0.00 0.00 0.00 0.00 0.00 0.00 0.00 0.00 0.00 0.00 0.00 0.00 0.00 0.00 0.00 0.00 0.00 0.00 0.00 0.00 0.00 0.00 0.00 0.00 0.00 0.00 0.00 0.00 0.00 0.00 0.00 0.00 0.00
0.00 0.00 0.00 0.00 0.00 0.00 0.00 0.00 0.00 0.00 0.00 0.00 0.00 0.00 0.00 0.00 0.00 0.00 0.00 0.00 0.00 0.00 0.00 0.00 0.00 0.00 0.00 0.00 0.00 0.00 0.00 0.00 0.00 0.00 0.00 0.00 0.00 0.00 0.00 0.00 0.00 0.00 0.00

GFSSE_prec_precacc24_009.txt.gz
Total_Precipitation_Accumulation
0.00 0.00 0.02 0.03 0.01 0.00 0.00 0.00 0.00 0.00 0.00 0.00 0.00 0.01 0.03 0.05 0.03 0.02 0.01 0.00 0.00 0.00 0.00 0.00 0.00 0.01 0.05 0.12 0.11 0.04 0.02 0.01 0.00 0.00 0.00 0.00 0.00 0.00 0.00 0.01 0.01 0.00 0.00
0.00 0.00 0.01 0.02 0.02 0.00 0.00 0.00 0.00 0.00 0.00 0.00 0.02 0.02 0.02 0.04 0.04 0.04 0.01 0.00 0.00 0.00 0.00 0.00 0.00 0.00 0.00 0.00 0.01 0.01 0.02 0.01 0.00 0.00 0.00 0.00 0.00 0.00 0.00 0.00 0.02 0.00 0.00
0.00 0.00 0.01 0.03 0.03 0.01 0.00 0.00 0.00 0.00 0.00 0.00 0.01 0.00 0.00 0.00 0.00 0.02 0.00 0.00 0.00 0.00 0.00 0.00 0.00 0.00 0.00 0.00 0.00 0.00 0.00 0.00 0.00 0.00 0.00 0.00 0.00 0.00 0.00 0.00 0.01 0.00 0.00
0.00 0.00 0.00 0.02 0.02 0.01 0.00 0.00 0.00 0.00 0.00 0.00 0.00 0.00 0.00 0.00 0.02 0.03 0.01 0.00 0.00 0.00 0.00 0.00 0.00 0.00 0.00 0.00 0.00 0.00 0.00 0.00 0.00 0.00 0.00 0.00 0.00 0.00 0.00 0.00 0.00 0.00 0.00
0.00 0.00 0.01 0.02 0.02 0.01 0.00 0.01 0.00 0.00 0.00 0.00 0.00 0.00 0.00 0.00 0.01 0.00 0.00 0.00 0.00 0.00 0.00 0.00 0.00 0.00 0.00 0.00 0.00 0.01 0.01 0.00 0.00 0.00 0.00 0.00 0.00 0.00 0.00 0.00 0.00 0.01 0.01
0.00 0.00 0.01 0.03 0.02 0.01 0.02 0.01 0.01 0.00 0.00 0.00 0.00 0.00 0.00 0.01 0.03 0.03 0.00 0.00 0.00 0.00 0.00 0.00 0.00 0.00 0.00 0.00 0.00 0.00 0.00 0.01 0.00 0.00 0.00 0.00 0.00 0.00 0.00 0.00 0.00 0.00 0.00
0.00 0.00 0.01 0.03 0.03 0.02 0.03 0.03 0.02 0.00 0.00 0.00 0.00 0.00 0.00 0.01 0.02 0.07 0.03 0.00 0.00 0.00 0.00 0.00 0.00 0.02 0.01 0.00 0.01 0.00 0.00 0.00 0.00 0.00 0.00 0.00 0.00 0.00 0.00 0.00 0.00 0.00 0.00
0.00 0.00 0.01 0.03 0.03 0.03 0.04 0.03 0.02 0.00 0.00 0.00 0.00 0.00 0.00 0.01 0.02 0.06 0.08 0.01 0.00 0.00 0.00 0.00 0.01 0.01 0.01 0.01 0.01 0.00 0.00 0.00 0.00 0.00 0.00 0.00 0.00 0.00 0.00 0.01 0.01 0.00 0.00
0.00 0.00 0.00 0.02 0.01 0.04 0.04 0.02 0.01 0.00 0.00 0.00 0.00 0.00 0.00 0.00 0.00 0.02 0.07 0.05 0.02 0.01 0.00 0.00 0.01 0.02 0.02 0.01 0.00 0.00 0.00 0.00 0.00 0.00 0.00 0.00 0.00 0.00 0.00 0.01 0.02 0.04 0.04
0.00 0.00 0.00 0.01 0.01 0.02 0.03 0.02 0.01 0.00 0.00 0.00 0.00 0.00 0.00 0.00 0.00 0.00 0.01 0.02 0.01 0.00 0.00 0.01 0.02 0.03 0.02 0.00 0.00 0.00 0.00 0.00 0.00 0.00 0.00 0.00 0.00 0.00 0.01 0.02 0.03 0.03 0.05
0.00 0.00 0.00 0.00 0.01 0.02 0.03 0.02 0.01 0.00 0.00 0.00 0.00 0.00 0.00 0.00 0.00 0.00 0.00 0.00 0.00 0.00 0.00 0.00 0.01 0.01 0.00 0.00 0.00 0.00 0.00 0.00 0.00 0.00 0.00 0.00 0.00 0.00 0.00 0.00 0.00 0.01 0.03
0.00 0.00 0.00 0.00 0.00 0.01 0.03 0.02 0.01 0.00 0.00 0.00 0.00 0.00 0.00 0.00 0.00 0.00 0.00 0.00 0.00 0.00 0.00 0.00 0.00 0.00 0.00 0.00 0.00 0.00 0.00 0.00 0.00 0.00 0.00 0.00 0.00 0.00 0.00 0.00 0.00 0.00 0.00
0.00 0.00 0.00 0.00 0.01 0.01 0.01 0.01 0.01 0.00 0.00 0.00 0.00 0.00 0.00 0.00 0.00 0.00 0.00 0.00 0.00 0.00 0.00 0.00 0.00 0.00 0.00 0.00 0.00 0.00 0.00 0.00 0.00 0.00 0.00 0.00 0.00 0.00 0.00 0.00 0.00 0.00 0.00
0.00 0.00 0.00 0.00 0.00 0.00 0.01 0.00 0.00 0.00 0.00 0.00 0.00 0.00 0.00 0.00 0.00 0.00 0.00 0.00 0.00 0.00 0.00 0.00 0.00 0.00 0.00 0.00 0.00 0.00 0.00 0.00 0.00 0.00 0.00 0.00 0.00 0.00 0.00 0.00 0.00 0.00 0.00
0.00 0.00 0.00 0.00 0.00 0.00 0.00 0.01 0.00 0.00 0.00 0.00 0.00 0.00 0.00 0.00 0.00 0.00 0.00 0.00 0.00 0.00 0.00 0.00 0.00 0.00 0.00 0.00 0.00 0.00 0.00 0.00 0.00 0.00 0.00 0.00 0.00 0.00 0.00 0.00 0.00 0.00 0.00
0.00 0.00 0.00 0.00 0.00 0.00 0.00 0.00 0.00 0.00 0.00 0.00 0.00 0.00 0.00 0.00 0.00 0.00 0.00 0.00 0.00 0.00 0.00 0.00 0.00 0.00 0.00 0.00 0.00 0.00 0.00 0.00 0.00 0.00 0.00 0.00 0.00 0.00 0.00 0.00 0.00 0.00 0.00
0.00 0.00 0.00 0.00 0.00 0.00 0.01 0.01 0.05 0.00 0.00 0.00 0.00 0.00 0.00 0.00 0.00 0.00 0.00 0.00 0.00 0.00 0.00 0.00 0.00 0.00 0.00 0.00 0.00 0.00 0.00 0.00 0.00 0.00 0.00 0.00 0.00 0.00 0.00 0.00 0.00 0.00 0.00
0.00 0.00 0.00 0.00 0.00 0.00 0.01 0.08 0.07 0.02 0.02 0.02 0.00 0.00 0.00 0.00 0.00 0.00 0.00 0.00 0.00 0.00 0.00 0.00 0.00 0.00 0.00 0.00 0.00 0.00 0.00 0.00 0.00 0.00 0.00 0.00 0.00 0.00 0.00 0.00 0.00 0.00 0.00
0.00 0.00 0.00 0.00 0.00 0.00 0.04 0.05 0.08 0.03 0.01 0.01 0.00 0.00 0.00 0.00 0.00 0.00 0.00 0.00 0.00 0.00 0.00 0.00 0.00 0.00 0.00 0.00 0.00 0.00 0.00 0.00 0.00 0.00 0.00 0.00 0.00 0.00 0.00 0.00 0.00 0.00 0.00
0.00 0.00 0.00 0.00 0.00 0.00 0.02 0.03 0.06 0.03 0.04 0.02 0.00 0.00 0.00 0.00 0.00 0.00 0.00 0.00 0.00 0.00 0.00 0.00 0.00 0.00 0.00 0.00 0.00 0.00 0.00 0.00 0.00 0.00 0.00 0.00 0.00 0.00 0.00 0.00 0.00 0.00 0.00
0.00 0.00 0.00 0.00 0.00 0.02 0.04 0.04 0.06 0.04 0.04 0.01 0.00 0.00 0.00 0.00 0.00 0.00 0.00 0.00 0.00 0.00 0.00 0.00 0.00 0.00 0.00 0.00 0.00 0.00 0.00 0.00 0.00 0.00 0.00 0.00 0.00 0.00 0.00 0.00 0.00 0.00 0.00
0.00 0.00 0.00 0.00 0.00 0.01 0.07 0.08 0.07 0.06 0.03 0.01 0.00 0.00 0.00 0.00 0.00 0.00 0.00 0.00 0.00 0.00 0.00 0.00 0.00 0.00 0.00 0.00 0.00 0.00 0.00 0.00 0.00 0.00 0.00 0.00 0.00 0.00 0.00 0.00 0.00 0.00 0.00
0.00 0.00 0.00 0.00 0.01 0.02 0.06 0.05 0.04 0.02 0.02 0.01 0.00 0.00 0.00 0.00 0.00 0.00 0.00 0.00 0.00 0.00 0.00 0.00 0.00 0.00 0.00 0.00 0.00 0.00 0.00 0.00 0.00 0.00 0.00 0.00 0.00 0.00 0.00 0.00 0.00 0.00 0.00
0.00 0.00 0.00 0.00 0.01 0.02 0.04 0.04 0.03 0.01 0.02 0.01 0.01 0.00 0.00 0.00 0.00 0.00 0.00 0.00 0.00 0.00 0.00 0.00 0.00 0.00 0.00 0.00 0.00 0.00 0.00 0.00 0.00 0.00 0.00 0.00 0.00 0.00 0.00 0.00 0.00 0.00 0.00
0.00 0.00 0.00 0.00 0.00 0.00 0.04 0.05 0.03 0.02 0.01 0.01 0.00 0.00 0.00 0.00 0.00 0.00 0.00 0.00 0.00 0.00 0.00 0.00 0.00 0.00 0.00 0.00 0.00 0.00 0.00 0.00 0.00 0.00 0.00 0.00 0.00 0.00 0.00 0.00 0.00 0.00 0.00
0.00 0.00 0.00 0.00 0.00 0.00 0.01 0.03 0.02 0.02 0.01 0.01 0.00 0.00 0.00 0.00 0.00 0.00 0.00 0.00 0.00 0.00 0.00 0.00 0.00 0.00 0.00 0.00 0.00 0.00 0.00 0.00 0.00 0.00 0.00 0.00 0.00 0.00 0.00 0.00 0.00 0.00 0.00

GFSSE_prec_precacc24_012.txt.gz
Total_Precipitation_Accumulation
0.00 0.00 0.02 0.03 0.01 0.00 0.00 0.00 0.00 0.00 0.00 0.00 0.00 0.01 0.03 0.05 0.03 0.02 0.01 0.00 0.00 0.00 0.00 0.00 0.00 0.01 0.06 0.16 0.16 0.05 0.02 0.01 0.00 0.00 0.00 0.00 0.00 0.00 0.00 0.01 0.01 0.00 0.00
0.00 0.00 0.01 0.02 0.02 0.00 0.00 0.00 0.00 0.00 0.00 0.00 0.03 0.03 0.04 0.05 0.05 0.04 0.01 0.00 0.00 0.00 0.00 0.00 0.00 0.00 0.00 0.00 0.01 0.01 0.02 0.01 0.00 0.00 0.00 0.00 0.00 0.00 0.00 0.00 0.02 0.01 0.00
0.00 0.00 0.01 0.03 0.03 0.01 0.00 0.00 0.00 0.00 0.00 0.01 0.01 0.00 0.00 0.00 0.00 0.02 0.00 0.00 0.00 0.00 0.00 0.00 0.00 0.00 0.00 0.00 0.00 0.00 0.00 0.00 0.00 0.00 0.00 0.00 0.00 0.00 0.00 0.00 0.01 0.00 0.00
0.00 0.00 0.00 0.02 0.03 0.01 0.00 0.00 0.00 0.00 0.00 0.00 0.00 0.00 0.00 0.00 0.02 0.03 0.01 0.00 0.00 0.00 0.00 0.00 0.00 0.00 0.00 0.00 0.00 0.00 0.00 0.00 0.00 0.00 0.00 0.00 0.00 0.00 0.00 0.00 0.00 0.01 0.00
0.00 0.00 0.01 0.02 0.03 0.01 0.00 0.01 0.00 0.00 0.00 0.00 0.00 0.00 0.00 0.00 0.01 0.00 0.00 0.00 0.00 0.00 0.00 0.00 0.00 0.00 0.00 0.00 0.00 0.01 0.01 0.00 0.00 0.00 0.00 0.00 0.00 0.00 0.00 0.00 0.00 0.01 0.01
0.00 0.00 0.01 0.03 0.03 0.02 0.02 0.01 0.01 0.00 0.00 0.00 0.00 0.00 0.00 0.01 0.03 0.03 0.00 0.00 0.00 0.00 0.00 0.00 0.00 0.00 0.00 0.00 0.00 0.00 0.00 0.01 0.00 0.00 0.00 0.00 0.00 0.00 0.00 0.00 0.00 0.00 0.00
0.00 0.00 0.01 0.03 0.03 0.03 0.03 0.03 0.02 0.00 0.00 0.00 0.00 0.00 0.00 0.01 0.03 0.07 0.03 0.00 0.00 0.00 0.00 0.00 0.01 0.02 0.01 0.01 0.01 0.00 0.00 0.00 0.00 0.00 0.00 0.00 0.00 0.00 0.00 0.00 0.00 0.00 0.00
0.00 0.00 0.02 0.03 0.03 0.04 0.04 0.04 0.02 0.00 0.00 0.00 0.00 0.00 0.00 0.01 0.02 0.06 0.08 0.01 0.00 0.00 0.00 0.00 0.01 0.02 0.01 0.01 0.01 0.00 0.00 0.00 0.00 0.00 0.00 0.00 0.00 0.00 0.00 0.01 0.02 0.01 0.01
0.00 0.00 0.01 0.02 0.02 0.04 0.04 0.02 0.01 0.00 0.00 0.00 0.00 0.00 0.00 0.00 0.00 0.02 0.07 0.05 0.03 0.01 0.00 0.00 0.01 0.02 0.02 0.01 0.00 0.00 0.00 0.00 0.00 0.00 0.00 0.00 0.00 0.00 0.00 0.01 0.03 0.04 0.04
0.00 0.00 0.00 0.01 0.01 0.02 0.03 0.02 0.01 0.00 0.00 0.00 0.00 0.00 0.00 0.00 0.00 0.00 0.01 0.03 0.01 0.00 0.00 0.01 0.02 0.03 0.02 0.00 0.00 0.00 0.00 0.00 0.00 0.00 0.00 0.00 0.00 0.00 0.01 0.02 0.03 0.03 0.05
0.00 0.00 0.00 0.00 0.01 0.02 0.03 0.02 0.01 0.00 0.00 0.00 0.00 0.00 0.00 0.00 0.00 0.00 0.00 0.00 0.00 0.00 0.00 0.00 0.01 0.01 0.00 0.00 0.00 0.00 0.00 0.00 0.00 0.00 0.00 0.00 0.00 0.00 0.00 0.00 0.00 0.01 0.03
0.00 0.00 0.00 0.00 0.00 0.01 0.03 0.02 0.01 0.00 0.00 0.00 0.00 0.00 0.00 0.00 0.00 0.00 0.00 0.00 0.00 0.00 0.00 0.00 0.00 0.00 0.00 0.00 0.00 0.00 0.00 0.00 0.00 0.00 0.00 0.00 0.00 0.00 0.00 0.00 0.00 0.00 0.00
0.00 0.00 0.00 0.00 0.01 0.01 0.01 0.01 0.01 0.00 0.00 0.00 0.00 0.00 0.00 0.00 0.00 0.00 0.00 0.00 0.00 0.00 0.00 0.00 0.00 0.00 0.00 0.00 0.00 0.00 0.00 0.00 0.00 0.00 0.00 0.00 0.00 0.00 0.00 0.00 0.00 0.00 0.00
0.00 0.00 0.00 0.00 0.01 0.00 0.01 0.01 0.00 0.00 0.00 0.00 0.00 0.00 0.00 0.00 0.00 0.00 0.00 0.00 0.00 0.00 0.00 0.00 0.00 0.00 0.00 0.00 0.00 0.00 0.00 0.00 0.00 0.00 0.00 0.00 0.00 0.00 0.00 0.00 0.00 0.00 0.00
0.00 0.00 0.00 0.00 0.00 0.00 0.01 0.02 0.00 0.00 0.00 0.00 0.00 0.00 0.00 0.00 0.00 0.00 0.00 0.00 0.00 0.00 0.00 0.00 0.00 0.00 0.00 0.00 0.00 0.00 0.00 0.00 0.00 0.00 0.00 0.00 0.00 0.00 0.00 0.00 0.00 0.00 0.00
0.00 0.00 0.00 0.00 0.00 0.00 0.00 0.02 0.01 0.00 0.00 0.00 0.00 0.00 0.00 0.00 0.00 0.00 0.00 0.00 0.00 0.00 0.00 0.00 0.00 0.00 0.00 0.00 0.00 0.00 0.00 0.00 0.00 0.00 0.00 0.00 0.00 0.00 0.00 0.00 0.00 0.00 0.00
0.00 0.00 0.00 0.00 0.00 0.00 0.01 0.02 0.06 0.00 0.01 0.01 0.00 0.00 0.00 0.00 0.00 0.00 0.00 0.00 0.00 0.00 0.00 0.00 0.00 0.00 0.00 0.00 0.00 0.00 0.00 0.00 0.00 0.00 0.00 0.00 0.00 0.00 0.00 0.00 0.00 0.00 0.00
0.00 0.00 0.00 0.00 0.00 0.00 0.01 0.08 0.08 0.02 0.03 0.02 0.01 0.00 0.00 0.00 0.00 0.00 0.00 0.00 0.00 0.00 0.00 0.00 0.00 0.00 0.00 0.00 0.00 0.00 0.00 0.00 0.00 0.00 0.00 0.00 0.00 0.00 0.00 0.00 0.00 0.00 0.00
0.00 0.00 0.00 0.00 0.00 0.00 0.05 0.06 0.09 0.04 0.04 0.02 0.01 0.00 0.00 0.00 0.00 0.00 0.00 0.00 0.00 0.00 0.00 0.00 0.00 0.00 0.00 0.00 0.00 0.00 0.00 0.00 0.00 0.00 0.00 0.00 0.00 0.00 0.00 0.00 0.00 0.00 0.00
0.00 0.00 0.00 0.00 0.00 0.00 0.04 0.04 0.07 0.04 0.06 0.04 0.01 0.00 0.00 0.00 0.00 0.00 0.00 0.00 0.00 0.00 0.00 0.00 0.00 0.00 0.00 0.00 0.00 0.00 0.00 0.00 0.00 0.00 0.00 0.00 0.00 0.00 0.00 0.00 0.00 0.00 0.00
0.00 0.00 0.00 0.00 0.00 0.02 0.04 0.04 0.06 0.04 0.05 0.03 0.01 0.01 0.00 0.00 0.00 0.00 0.00 0.00 0.00 0.00 0.00 0.00 0.00 0.00 0.00 0.00 0.00 0.00 0.00 0.00 0.00 0.00 0.00 0.00 0.00 0.00 0.00 0.00 0.00 0.00 0.00
0.00 0.00 0.00 0.00 0.00 0.01 0.07 0.09 0.08 0.07 0.04 0.01 0.02 0.00 0.00 0.00 0.00 0.00 0.00 0.00 0.00 0.00 0.00 0.00 0.00 0.00 0.00 0.00 0.00 0.00 0.00 0.00 0.00 0.00 0.00 0.00 0.00 0.00 0.00 0.00 0.00 0.00 0.00
0.00 0.00 0.00 0.00 0.01 0.02 0.07 0.06 0.04 0.03 0.02 0.01 0.00 0.00 0.00 0.00 0.00 0.00 0.00 0.00 0.00 0.00 0.00 0.00 0.00 0.00 0.00 0.00 0.00 0.00 0.00 0.00 0.00 0.00 0.00 0.00 0.00 0.00 0.00 0.00 0.00 0.00 0.00
0.00 0.00 0.00 0.00 0.01 0.02 0.04 0.04 0.03 0.01 0.02 0.02 0.02 0.04 0.01 0.00 0.00 0.00 0.00 0.00 0.00 0.00 0.00 0.00 0.00 0.00 0.00 0.00 0.00 0.00 0.00 0.00 0.00 0.00 0.00 0.00 0.00 0.00 0.00 0.00 0.00 0.00 0.00
0.00 0.00 0.00 0.00 0.00 0.01 0.04 0.05 0.03 0.02 0.01 0.01 0.01 0.01 0.00 0.00 0.00 0.00 0.00 0.00 0.00 0.00 0.00 0.00 0.00 0.00 0.00 0.00 0.00 0.00 0.00 0.00 0.00 0.00 0.00 0.00 0.00 0.00 0.00 0.00 0.00 0.00 0.00
0.00 0.00 0.00 0.00 0.00 0.00 0.01 0.03 0.02 0.02 0.01 0.01 0.01 0.01 0.00 0.00 0.00 0.00 0.00 0.00 0.00 0.00 0.00 0.00 0.00 0.00 0.00 0.00 0.00 0.00 0.00 0.00 0.00 0.00 0.00 0.00 0.00 0.00 0.00 0.00 0.00 0.00 0.00

GFSSE_prec_precacc24_015.txt.gz
Total_Precipitation_Accumulation
0.00 0.00 0.02 0.03 0.01 0.00 0.00 0.00 0.00 0.00 0.00 0.00 0.01 0.02 0.03 0.05 0.03 0.02 0.01 0.00 0.00 0.00 0.00 0.00 0.00 0.01 0.08 0.20 0.19 0.05 0.02 0.01 0.00 0.00 0.00 0.00 0.00 0.00 0.00 0.01 0.02 0.01 0.01
0.00 0.00 0.01 0.02 0.02 0.00 0.00 0.00 0.00 0.00 0.00 0.00 0.03 0.04 0.04 0.06 0.05 0.04 0.01 0.00 0.00 0.00 0.00 0.00 0.00 0.00 0.00 0.00 0.01 0.01 0.02 0.01 0.00 0.00 0.00 0.00 0.00 0.00 0.00 0.00 0.02 0.01 0.00
0.00 0.00 0.01 0.03 0.03 0.01 0.00 0.00 0.00 0.00 0.01 0.01 0.01 0.01 0.01 0.01 0.00 0.02 0.00 0.00 0.00 0.00 0.00 0.00 0.00 0.00 0.00 0.00 0.00 0.00 0.00 0.00 0.00 0.00 0.00 0.00 0.00 0.00 0.00 0.00 0.01 0.00 0.00
0.00 0.00 0.00 0.02 0.03 0.01 0.00 0.00 0.00 0.00 0.00 0.00 0.00 0.00 0.00 0.00 0.02 0.03 0.01 0.00 0.00 0.00 0.00 0.00 0.00 0.00 0.00 0.00 0.00 0.00 0.00 0.00 0.00 0.00 0.00 0.00 0.00 0.00 0.00 0.00 0.00 0.01 0.00
0.00 0.00 0.01 0.02 0.03 0.01 0.00 0.01 0.00 0.00 0.00 0.00 0.00 0.00 0.00 0.00 0.01 0.00 0.00 0.00 0.00 0.00 0.00 0.00 0.00 0.00 0.00 0.00 0.00 0.01 0.01 0.00 0.00 0.00 0.00 0.00 0.00 0.00 0.00 0.00 0.00 0.01 0.01
0.00 0.00 0.01 0.03 0.03 0.02 0.02 0.01 0.01 0.00 0.00 0.00 0.00 0.00 0.00 0.01 0.03 0.03 0.00 0.00 0.00 0.00 0.00 0.00 0.00 0.00 0.00 0.00 0.00 0.00 0.00 0.01 0.00 0.00 0.00 0.00 0.00 0.00 0.00 0.00 0.00 0.00 0.00
0.00 0.00 0.01 0.03 0.04 0.04 0.03 0.03 0.02 0.00 0.00 0.00 0.00 0.00 0.00 0.01 0.03 0.07 0.03 0.00 0.00 0.00 0.00 0.00 0.01 0.02 0.01 0.01 0.01 0.00 0.00 0.00 0.00 0.00 0.00 0.00 0.00 0.00 0.00 0.00 0.00 0.01 0.00
0.00 0.01 0.02 0.03 0.03 0.04 0.04 0.04 0.02 0.00 0.00 0.00 0.00 0.00 0.00 0.01 0.02 0.06 0.08 0.01 0.00 0.00 0.00 0.00 0.01 0.02 0.01 0.01 0.01 0.00 0.00 0.00 0.00 0.00 0.00 0.00 0.00 0.00 0.00 0.01 0.02 0.02 0.02
0.00 0.00 0.01 0.02 0.02 0.04 0.04 0.02 0.01 0.00 0.00 0.00 0.00 0.00 0.00 0.00 0.00 0.02 0.07 0.05 0.03 0.01 0.00 0.00 0.01 0.02 0.02 0.01 0.00 0.00 0.00 0.00 0.00 0.00 0.00 0.00 0.00 0.00 0.00 0.01 0.03 0.04 0.04
0.00 0.00 0.00 0.01 0.01 0.02 0.03 0.02 0.01 0.00 0.00 0.00 0.00 0.00 0.00 0.00 0.00 0.01 0.01 0.03 0.01 0.00 0.00 0.01 0.02 0.03 0.02 0.00 0.00 0.00 0.00 0.00 0.00 0.00 0.00 0.00 0.00 0.00 0.01 0.02 0.03 0.03 0.05
0.00 0.00 0.00 0.01 0.01 0.02 0.03 0.02 0.01 0.00 0.00 0.00 0.00 0.00 0.00 0.00 0.00 0.00 0.00 0.00 0.00 0.00 0.00 0.00 0.01 0.01 0.00 0.00 0.00 0.00 0.00 0.00 0.00 0.00 0.00 0.00 0.00 0.00 0.00 0.00 0.00 0.01 0.03
0.00 0.00 0.00 0.02 0.00 0.01 0.03 0.02 0.01 0.00 0.00 0.00 0.00 0.00 0.00 0.00 0.00 0.00 0.00 0.00 0.00 0.00 0.00 0.00 0.00 0.00 0.00 0.00 0.00 0.00 0.00 0.00 0.00 0.00 0.00 0.00 0.00 0.00 0.00 0.00 0.00 0.00 0.01
0.00 0.01 0.00 0.01 0.01 0.01 0.01 0.01 0.01 0.00 0.00 0.00 0.00 0.00 0.00 0.00 0.00 0.00 0.00 0.00 0.00 0.00 0.00 0.00 0.00 0.00 0.00 0.00 0.00 0.00 0.00 0.00 0.00 0.00 0.00 0.00 0.00 0.00 0.00 0.00 0.00 0.00 0.00
0.00 0.00 0.00 0.00 0.01 0.00 0.01 0.01 0.00 0.00 0.00 0.00 0.00 0.00 0.00 0.00 0.00 0.00 0.00 0.00 0.00 0.00 0.00 0.00 0.00 0.00 0.00 0.00 0.00 0.00 0.00 0.00 0.00 0.00 0.00 0.00 0.00 0.00 0.00 0.00 0.00 0.00 0.00
0.00 0.00 0.00 0.00 0.00 0.00 0.01 0.03 0.00 0.00 0.00 0.00 0.00 0.00 0.00 0.00 0.00 0.00 0.00 0.00 0.00 0.00 0.00 0.00 0.00 0.00 0.00 0.00 0.00 0.00 0.00 0.00 0.00 0.00 0.00 0.00 0.00 0.00 0.00 0.00 0.00 0.00 0.00
0.00 0.00 0.00 0.00 0.00 0.01 0.01 0.02 0.01 0.00 0.00 0.00 0.00 0.00 0.00 0.00 0.00 0.00 0.00 0.00 0.00 0.00 0.00 0.00 0.00 0.00 0.00 0.00 0.00 0.00 0.00 0.00 0.00 0.00 0.00 0.00 0.00 0.00 0.00 0.00 0.00 0.00 0.00
0.00 0.00 0.00 0.00 0.00 0.02 0.03 0.03 0.07 0.01 0.01 0.01 0.00 0.00 0.00 0.00 0.00 0.00 0.00 0.00 0.00 0.00 0.00 0.00 0.00 0.00 0.00 0.00 0.00 0.00 0.00 0.00 0.00 0.00 0.00 0.00 0.00 0.00 0.00 0.00 0.00 0.00 0.00
0.00 0.00 0.00 0.00 0.00 0.01 0.04 0.11 0.09 0.03 0.03 0.03 0.01 0.01 0.00 0.00 0.00 0.00 0.00 0.00 0.00 0.00 0.00 0.00 0.00 0.00 0.00 0.00 0.00 0.00 0.00 0.00 0.00 0.00 0.00 0.00 0.00 0.00 0.00 0.00 0.00 0.00 0.00
0.00 0.00 0.00 0.00 0.00 0.01 0.09 0.08 0.10 0.05 0.04 0.03 0.02 0.00 0.00 0.00 0.00 0.00 0.00 0.00 0.00 0.00 0.00 0.00 0.00 0.00 0.00 0.00 0.00 0.00 0.00 0.00 0.00 0.00 0.00 0.00 0.00 0.00 0.00 0.00 0.00 0.00 0.00
0.00 0.00 0.00 0.00 0.00 0.01 0.07 0.05 0.08 0.04 0.06 0.05 0.01 0.00 0.00 0.00 0.00 0.00 0.00 0.00 0.00 0.00 0.00 0.00 0.00 0.00 0.00 0.00 0.00 0.00 0.00 0.00 0.00 0.00 0.00 0.00 0.00 0.00 0.00 0.00 0.00 0.00 0.00
0.00 0.00 0.00 0.00 0.00 0.03 0.05 0.05 0.06 0.05 0.05 0.04 0.02 0.01 0.00 0.00 0.00 0.00 0.00 0.00 0.00 0.00 0.00 0.00 0.00 0.00 0.00 0.00 0.00 0.00 0.00 0.00 0.00 0.00 0.00 0.00 0.00 0.00 0.00 0.00 0.00 0.00 0.00
0.00 0.00 0.00 0.00 0.00 0.02 0.08 0.10 0.11 0.12 0.05 0.02 0.02 0.01 0.00 0.00 0.00 0.00 0.00 0.00 0.00 0.00 0.00 0.00 0.00 0.00 0.00 0.00 0.00 0.00 0.00 0.00 0.00 0.00 0.00 0.00 0.00 0.00 0.00 0.00 0.00 0.00 0.00
0.00 0.00 0.00 0.00 0.01 0.02 0.09 0.08 0.09 0.10 0.05 0.02 0.01 0.01 0.02 0.00 0.00 0.00 0.00 0.00 0.00 0.00 0.00 0.00 0.00 0.00 0.00 0.00 0.00 0.00 0.00 0.00 0.00 0.00 0.00 0.00 0.00 0.00 0.00 0.00 0.00 0.00 0.00
0.00 0.00 0.00 0.00 0.01 0.02 0.05 0.04 0.05 0.04 0.05 0.04 0.05 0.06 0.03 0.00 0.00 0.00 0.00 0.00 0.00 0.00 0.00 0.00 0.00 0.00 0.00 0.00 0.00 0.00 0.00 0.00 0.00 0.00 0.00 0.00 0.00 0.00 0.00 0.00 0.00 0.00 0.00
0.00 0.00 0.00 0.00 0.00 0.01 0.05 0.05 0.07 0.03 0.02 0.03 0.04 0.04 0.01 0.00 0.00 0.00 0.00 0.00 0.00 0.00 0.00 0.00 0.00 0.00 0.00 0.00 0.00 0.00 0.00 0.00 0.00 0.00 0.00 0.00 0.00 0.00 0.00 0.00 0.00 0.00 0.00
0.00 0.00 0.00 0.00 0.00 0.01 0.02 0.04 0.03 0.02 0.02 0.02 0.02 0.03 0.01 0.01 0.00 0.00 0.00 0.00 0.00 0.00 0.00 0.00 0.00 0.00 0.00 0.00 0.00 0.00 0.00 0.00 0.00 0.00 0.00 0.00 0.00 0.00 0.00 0.00 0.00 0.00 0.00

GFSSE_prec_precacc24_018.txt.gz
Total_Precipitation_Accumulation
0.00 0.00 0.03 0.03 0.01 0.00 0.00 0.00 0.00 0.00 0.00 0.00 0.01 0.02 0.04 0.06 0.03 0.02 0.01 0.00 0.00 0.00 0.00 0.00 0.01 0.02 0.10 0.22 0.19 0.05 0.02 0.01 0.00 0.00 0.00 0.00 0.00 0.00 0.00 0.01 0.02 0.01 0.01
0.00 0.00 0.02 0.02 0.02 0.00 0.00 0.00 0.00 0.00 0.00 0.01 0.03 0.04 0.04 0.06 0.05 0.04 0.01 0.00 0.00 0.00 0.00 0.00 0.00 0.00 0.00 0.00 0.01 0.01 0.02 0.01 0.00 0.00 0.00 0.00 0.00 0.00 0.00 0.00 0.02 0.01 0.00
0.00 0.00 0.01 0.03 0.03 0.01 0.00 0.00 0.00 0.00 0.01 0.01 0.02 0.02 0.02 0.01 0.00 0.02 0.00 0.00 0.00 0.00 0.00 0.00 0.00 0.00 0.00 0.00 0.00 0.00 0.00 0.00 0.00 0.00 0.00 0.00 0.00 0.00 0.00 0.00 0.01 0.00 0.00
0.00 0.00 0.00 0.02 0.03 0.01 0.00 0.00 0.00 0.00 0.00 0.00 0.00 0.01 0.00 0.00 0.02 0.03 0.01 0.00 0.00 0.00 0.00 0.00 0.00 0.00 0.00 0.00 0.00 0.00 0.00 0.00 0.00 0.00 0.00 0.00 0.00 0.00 0.00 0.00 0.00 0.01 0.00
0.00 0.00 0.01 0.02 0.03 0.01 0.00 0.01 0.00 0.00 0.00 0.00 0.00 0.00 0.00 0.00 0.01 0.00 0.00 0.00 0.00 0.00 0.00 0.00 0.00 0.00 0.00 0.00 0.00 0.01 0.01 0.00 0.00 0.00 0.00 0.00 0.00 0.00 0.00 0.00 0.00 0.01 0.01
0.00 0.00 0.01 0.03 0.03 0.02 0.02 0.01 0.01 0.00 0.00 0.00 0.00 0.00 0.00 0.01 0.03 0.03 0.00 0.00 0.00 0.00 0.00 0.00 0.00 0.00 0.00 0.00 0.00 0.00 0.00 0.01 0.00 0.00 0.00 0.00 0.00 0.00 0.00 0.00 0.00 0.00 0.00
0.00 0.00 0.01 0.03 0.04 0.04 0.03 0.03 0.02 0.00 0.00 0.00 0.00 0.00 0.00 0.01 0.03 0.07 0.03 0.00 0.00 0.00 0.00 0.00 0.01 0.02 0.01 0.01 0.01 0.00 0.00 0.00 0.00 0.00 0.00 0.00 0.00 0.00 0.00 0.00 0.00 0.03 0.02
0.00 0.01 0.02 0.03 0.03 0.04 0.04 0.04 0.02 0.00 0.00 0.00 0.00 0.00 0.00 0.01 0.02 0.06 0.08 0.01 0.00 0.00 0.00 0.00 0.01 0.02 0.01 0.01 0.01 0.00 0.00 0.00 0.00 0.00 0.00 0.00 0.00 0.00 0.00 0.01 0.02 0.02 0.02
0.00 0.01 0.03 0.02 0.02 0.04 0.04 0.02 0.01 0.00 0.00 0.00 0.00 0.00 0.00 0.00 0.00 0.02 0.07 0.05 0.03 0.01 0.00 0.00 0.01 0.02 0.02 0.01 0.00 0.00 0.00 0.00 0.00 0.00 0.00 0.00 0.00 0.00 0.00 0.01 0.03 0.04 0.04
0.03 0.05 0.04 0.02 0.01 0.02 0.03 0.02 0.01 0.00 0.00 0.00 0.00 0.00 0.00 0.00 0.00 0.01 0.01 0.03 0.01 0.00 0.00 0.01 0.02 0.03 0.02 0.00 0.00 0.00 0.00 0.00 0.00 0.00 0.00 0.00 0.00 0.00 0.01 0.02 0.03 0.04 0.07
0.02 0.05 0.07 0.03 0.01 0.02 0.03 0.02 0.01 0.00 0.00 0.00 0.00 0.00 0.00 0.00 0.00 0.00 0.00 0.00 0.00 0.00 0.00 0.00 0.01 0.01 0.00 0.00 0.00 0.00 0.00 0.00 0.00 0.00 0.00 0.00 0.00 0.00 0.00 0.01 0.02 0.02 0.04
0.02 0.04 0.07 0.05 0.00 0.01 0.03 0.02 0.01 0.00 0.00 0.00 0.00 0.00 0.00 0.00 0.00 0.00 0.00 0.00 0.00 0.00 0.00 0.00 0.00 0.00 0.00 0.00 0.00 0.00 0.00 0.00 0.00 0.00 0.00 0.00 0.00 0.00 0.01 0.01 0.01 0.01 0.01
0.01 0.02 0.04 0.07 0.02 0.01 0.02 0.01 0.01 0.00 0.00 0.00 0.00 0.00 0.00 0.00 0.00 0.00 0.00 0.00 0.00 0.00 0.00 0.00 0.00 0.00 0.00 0.00 0.00 0.00 0.00 0.00 0.00 0.00 0.00 0.00 0.00 0.00 0.01 0.00 0.00 0.00 0.00
0.00 0.00 0.02 0.04 0.03 0.03 0.03 0.01 0.00 0.00 0.00 0.00 0.00 0.00 0.00 0.00 0.00 0.00 0.00 0.00 0.00 0.00 0.00 0.00 0.00 0.00 0.00 0.00 0.00 0.00 0.00 0.00 0.00 0.00 0.00 0.00 0.00 0.00 0.00 0.00 0.00 0.00 0.00
0.00 0.00 0.01 0.02 0.01 0.01 0.02 0.04 0.00 0.00 0.00 0.00 0.00 0.00 0.00 0.00 0.00 0.00 0.00 0.00 0.00 0.00 0.00 0.00 0.00 0.00 0.00 0.00 0.00 0.00 0.00 0.00 0.00 0.00 0.00 0.00 0.00 0.00 0.00 0.00 0.00 0.00 0.00
0.00 0.00 0.02 0.03 0.01 0.01 0.01 0.02 0.02 0.01 0.00 0.00 0.00 0.00 0.00 0.00 0.00 0.00 0.00 0.00 0.00 0.00 0.00 0.00 0.00 0.00 0.00 0.00 0.00 0.00 0.00 0.00 0.00 0.00 0.00 0.00 0.00 0.00 0.00 0.00 0.00 0.00 0.00
0.00 0.00 0.01 0.02 0.03 0.02 0.03 0.05 0.08 0.02 0.01 0.01 0.00 0.00 0.00 0.00 0.00 0.00 0.00 0.00 0.00 0.00 0.00 0.00 0.00 0.00 0.00 0.00 0.00 0.00 0.00 0.00 0.00 0.00 0.00 0.00 0.00 0.00 0.00 0.00 0.00 0.00 0.00
0.00 0.00 0.00 0.02 0.02 0.02 0.04 0.14 0.11 0.04 0.03 0.03 0.01 0.01 0.00 0.00 0.00 0.00 0.00 0.00 0.00 0.00 0.00 0.00 0.00 0.00 0.00 0.00 0.00 0.00 0.00 0.00 0.00 0.00 0.00 0.00 0.00 0.00 0.00 0.00 0.00 0.00 0.00
0.00 0.00 0.00 0.01 0.01 0.02 0.10 0.11 0.16 0.06 0.04 0.03 0.02 0.00 0.00 0.00 0.00 0.00 0.00 0.00 0.00 0.00 0.00 0.00 0.00 0.00 0.00 0.00 0.00 0.00 0.00 0.00 0.00 0.00 0.00 0.00 0.00 0.00 0.00 0.00 0.00 0.00 0.00
0.00 0.00 0.00 0.00 0.01 0.05 0.16 0.12 0.17 0.07 0.06 0.05 0.01 0.00 0.00 0.00 0.00 0.00 0.00 0.00 0.00 0.00 0.00 0.00 0.00 0.00 0.00 0.00 0.00 0.00 0.00 0.00 0.00 0.00 0.00 0.00 0.00 0.00 0.00 0.00 0.00 0.00 0.00
0.00 0.00 0.00 0.00 0.01 0.07 0.09 0.07 0.11 0.07 0.05 0.05 0.02 0.02 0.00 0.01 0.00 0.00 0.00 0.00 0.00 0.00 0.00 0.00 0.00 0.00 0.00 0.00 0.00 0.00 0.00 0.00 0.00 0.00 0.00 0.00 0.00 0.00 0.00 0.00 0.00 0.00 0.00
0.00 0.00 0.00 0.00 0.00 0.03 0.09 0.13 0.17 0.17 0.08 0.02 0.03 0.02 0.01 0.00 0.00 0.00 0.00 0.00 0.00 0.00 0.00 0.00 0.00 0.00 0.00 0.00 0.00 0.00 0.00 0.00 0.00 0.00 0.00 0.00 0.00 0.00 0.00 0.00 0.00 0.00 0.00
0.00 0.00 0.00 0.00 0.01 0.04 0.10 0.14 0.16 0.19 0.11 0.04 0.02 0.01 0.02 0.00 0.00 0.00 0.00 0.00 0.00 0.00 0.00 0.00 0.00 0.00 0.00 0.00 0.00 0.00 0.00 0.00 0.00 0.00 0.00 0.00 0.00 0.00 0.00 0.00 0.00 0.00 0.00
0.00 0.00 0.00 0.00 0.01 0.04 0.08 0.06 0.06 0.05 0.05 0.06 0.06 0.12 0.07 0.01 0.00 0.00 0.00 0.00 0.00 0.00 0.00 0.00 0.00 0.00 0.00 0.00 0.00 0.00 0.00 0.00 0.00 0.00 0.00 0.00 0.00 0.00 0.00 0.00 0.00 0.00 0.00
0.00 0.00 0.00 0.00 0.00 0.01 0.08 0.07 0.08 0.04 0.04 0.05 0.08 0.11 0.05 0.01 0.00 0.00 0.00 0.00 0.00 0.00 0.00 0.00 0.00 0.00 0.00 0.00 0.00 0.00 0.00 0.00 0.00 0.00 0.00 0.00 0.00 0.00 0.00 0.00 0.00 0.00 0.00
0.00 0.00 0.00 0.00 0.00 0.01 0.02 0.05 0.05 0.03 0.02 0.04 0.04 0.05 0.04 0.02 0.01 0.00 0.00 0.00 0.00 0.00 0.00 0.00 0.00 0.00 0.00 0.00 0.00 0.00 0.00 0.00 0.00 0.00 0.00 0.00 0.00 0.00 0.00 0.00 0.00 0.00 0.00

GFSSE_prec_precacc24_024.txt.gz
Total_Precipitation_Accumulation
0.00 0.01 0.04 0.03 0.02 0.01 0.00 0.00 0.00 0.00 0.01 0.02 0.02 0.04 0.05 0.06 0.03 0.02 0.01 0.00 0.00 0.00 0.00 0.03 0.05 0.09 0.15 0.23 0.19 0.05 0.02 0.01 0.00 0.00 0.00 0.00 0.00 0.00 0.00 0.01 0.02 0.01 0.01
0.00 0.01 0.03 0.03 0.02 0.01 0.00 0.00 0.00 0.01 0.01 0.02 0.05 0.06 0.05 0.06 0.05 0.04 0.01 0.00 0.00 0.00 0.01 0.07 0.06 0.07 0.03 0.01 0.01 0.01 0.02 0.01 0.00 0.00 0.00 0.00 0.00 0.00 0.00 0.00 0.02 0.01 0.00
0.00 0.01 0.02 0.03 0.04 0.01 0.00 0.00 0.01 0.01 0.02 0.02 0.04 0.03 0.03 0.01 0.00 0.02 0.00 0.00 0.00 0.00 0.03 0.03 0.01 0.00 0.00 0.00 0.00 0.00 0.00 0.00 0.00 0.00 0.00 0.00 0.00 0.00 0.00 0.00 0.01 0.00 0.00
0.00 0.00 0.01 0.03 0.03 0.01 0.00 0.00 0.00 0.01 0.01 0.01 0.01 0.02 0.00 0.00 0.02 0.03 0.01 0.00 0.00 0.00 0.01 0.00 0.00 0.00 0.00 0.00 0.00 0.00 0.00 0.00 0.00 0.00 0.00 0.00 0.00 0.00 0.00 0.00 0.00 0.01 0.00
0.00 0.00 0.01 0.02 0.03 0.01 0.00 0.01 0.00 0.00 0.01 0.01 0.01 0.00 0.00 0.00 0.01 0.00 0.00 0.00 0.00 0.00 0.00 0.00 0.00 0.00 0.00 0.00 0.00 0.01 0.01 0.00 0.00 0.00 0.00 0.00 0.00 0.00 0.00 0.00 0.00 0.01 0.01
0.00 0.00 0.01 0.03 0.03 0.02 0.02 0.01 0.01 0.00 0.01 0.01 0.00 0.00 0.00 0.01 0.03 0.03 0.00 0.00 0.00 0.00 0.00 0.00 0.00 0.00 0.00 0.00 0.00 0.00 0.00 0.01 0.00 0.00 0.00 0.00 0.00 0.00 0.00 0.00 0.00 0.01 0.00
0.00 0.00 0.01 0.03 0.04 0.04 0.03 0.03 0.02 0.01 0.01 0.00 0.00 0.00 0.00 0.01 0.03 0.07 0.03 0.00 0.00 0.00 0.01 0.00 0.01 0.02 0.01 0.01 0.01 0.00 0.00 0.00 0.00 0.00 0.00 0.00 0.00 0.00 0.00 0.00 0.01 0.06 0.07
0.00 0.01 0.02 0.03 0.03 0.04 0.04 0.04 0.02 0.00 0.00 0.00 0.00 0.00 0.00 0.01 0.02 0.06 0.08 0.01 0.00 0.01 0.01 0.00 0.03 0.02 0.01 0.01 0.01 0.00 0.00 0.00 0.00 0.00 0.00 0.00 0.00 0.00 0.00 0.01 0.02 0.02 0.02
0.00 0.01 0.03 0.02 0.02 0.04 0.04 0.02 0.01 0.00 0.00 0.00 0.00 0.00 0.00 0.00 0.00 0.02 0.07 0.05 0.03 0.01 0.01 0.02 0.02 0.02 0.02 0.01 0.00 0.00 0.00 0.00 0.00 0.00 0.00 0.00 0.00 0.00 0.00 0.01 0.03 0.04 0.05
0.04 0.07 0.05 0.02 0.01 0.02 0.03 0.02 0.01 0.00 0.01 0.00 0.00 0.00 0.00 0.00 0.01 0.01 0.01 0.04 0.01 0.01 0.00 0.01 0.02 0.03 0.02 0.00 0.00 0.00 0.00 0.00 0.00 0.00 0.00 0.00 0.00 0.00 0.02 0.04 0.06 0.08 0.12
0.04 0.07 0.07 0.03 0.01 0.02 0.03 0.02 0.01 0.00 0.00 0.00 0.00 0.00 0.00 0.00 0.00 0.00 0.00 0.00 0.00 0.00 0.00 0.00 0.01 0.01 0.00 0.00 0.00 0.00 0.00 0.00 0.00 0.00 0.00 0.00 0.00 0.01 0.02 0.04 0.05 0.05 0.07
0.03 0.05 0.08 0.05 0.00 0.01 0.03 0.02 0.01 0.00 0.00 0.00 0.00 0.00 0.00 0.00 0.00 0.00 0.00 0.00 0.00 0.00 0.00 0.00 0.00 0.00 0.00 0.00 0.00 0.00 0.00 0.00 0.00 0.00 0.00 0.00 0.01 0.01 0.02 0.02 0.02 0.02 0.02
0.01 0.03 0.05 0.07 0.02 0.01 0.02 0.01 0.01 0.00 0.00 0.00 0.00 0.00 0.00 0.00 0.00 0.00 0.00 0.00 0.00 0.00 0.00 0.00 0.00 0.00 0.00 0.00 0.00 0.00 0.00 0.00 0.00 0.00 0.00 0.00 0.00 0.00 0.01 0.00 0.00 0.00 0.00
0.00 0.01 0.03 0.04 0.03 0.04 0.03 0.01 0.00 0.00 0.00 0.00 0.00 0.00 0.00 0.00 0.00 0.00 0.00 0.00 0.00 0.00 0.00 0.00 0.00 0.00 0.00 0.00 0.00 0.00 0.00 0.00 0.00 0.00 0.00 0.00 0.00 0.00 0.00 0.00 0.00 0.00 0.00
0.02 0.02 0.03 0.03 0.01 0.02 0.02 0.05 0.00 0.00 0.00 0.00 0.00 0.00 0.00 0.00 0.00 0.00 0.00 0.00 0.00 0.00 0.00 0.00 0.00 0.00 0.00 0.00 0.00 0.00 0.00 0.00 0.00 0.00 0.00 0.00 0.00 0.00 0.00 0.00 0.00 0.00 0.00
0.02 0.02 0.07 0.05 0.03 0.01 0.01 0.02 0.04 0.03 0.01 0.00 0.00 0.00 0.00 0.00 0.00 0.00 0.00 0.00 0.00 0.00 0.00 0.00 0.00 0.00 0.00 0.00 0.00 0.00 0.00 0.00 0.00 0.00 0.00 0.00 0.00 0.00 0.00 0.00 0.00 0.00 0.00
0.00 0.04 0.04 0.08 0.09 0.03 0.04 0.07 0.10 0.04 0.03 0.01 0.00 0.00 0.00 0.00 0.00 0.00 0.00 0.00 0.00 0.00 0.00 0.00 0.00 0.00 0.00 0.00 0.00 0.00 0.00 0.00 0.00 0.00 0.00 0.00 0.00 0.00 0.00 0.00 0.00 0.00 0.00
0.00 0.00 0.02 0.08 0.06 0.04 0.10 0.24 0.17 0.10 0.07 0.04 0.02 0.01 0.00 0.00 0.00 0.00 0.00 0.00 0.00 0.00 0.00 0.00 0.00 0.00 0.00 0.00 0.00 0.00 0.00 0.00 0.00 0.00 0.00 0.00 0.00 0.00 0.00 0.00 0.00 0.00 0.00
0.00 0.00 0.00 0.02 0.02 0.04 0.17 0.18 0.22 0.12 0.07 0.06 0.04 0.01 0.00 0.00 0.00 0.00 0.00 0.00 0.00 0.00 0.00 0.00 0.00 0.00 0.00 0.00 0.00 0.00 0.00 0.00 0.00 0.00 0.00 0.00 0.00 0.00 0.00 0.00 0.00 0.00 0.00
0.00 0.00 0.00 0.00 0.01 0.07 0.24 0.24 0.26 0.11 0.08 0.07 0.04 0.02 0.02 0.00 0.00 0.00 0.00 0.00 0.00 0.00 0.00 0.00 0.00 0.00 0.00 0.00 0.00 0.00 0.00 0.00 0.00 0.00 0.00 0.00 0.00 0.00 0.00 0.00 0.00 0.00 0.00
0.00 0.00 0.00 0.00 0.01 0.08 0.11 0.09 0.13 0.08 0.08 0.09 0.05 0.05 0.04 0.02 0.01 0.02 0.02 0.00 0.00 0.00 0.00 0.00 0.00 0.00 0.00 0.00 0.00 0.00 0.00 0.00 0.00 0.00 0.00 0.00 0.00 0.00 0.00 0.00 0.00 0.00 0.00
0.00 0.00 0.00 0.00 0.00 0.03 0.09 0.13 0.18 0.19 0.11 0.07 0.09 0.04 0.05 0.02 0.01 0.03 0.01 0.01 0.00 0.00 0.00 0.00 0.00 0.00 0.00 0.00 0.00 0.00 0.00 0.00 0.00 0.00 0.00 0.00 0.00 0.00 0.00 0.00 0.00 0.00 0.00
0.00 0.00 0.00 0.00 0.01 0.04 0.10 0.15 0.20 0.24 0.16 0.08 0.05 0.02 0.04 0.04 0.01 0.02 0.05 0.01 0.00 0.00 0.00 0.00 0.00 0.00 0.00 0.00 0.00 0.00 0.00 0.00 0.00 0.00 0.00 0.00 0.00 0.00 0.00 0.00 0.00 0.00 0.00
0.00 0.00 0.00 0.00 0.01 0.04 0.09 0.08 0.08 0.05 0.06 0.06 0.07 0.16 0.19 0.14 0.09 0.05 0.05 0.02 0.01 0.00 0.00 0.00 0.00 0.00 0.00 0.00 0.00 0.00 0.00 0.00 0.00 0.00 0.00 0.00 0.00 0.00 0.00 0.00 0.00 0.00 0.00
0.00 0.00 0.00 0.00 0.00 0.01 0.09 0.09 0.10 0.06 0.06 0.07 0.13 0.19 0.17 0.13 0.14 0.12 0.07 0.04 0.04 0.01 0.01 0.00 0.00 0.00 0.00 0.00 0.00 0.00 0.00 0.00 0.00 0.00 0.00 0.00 0.00 0.00 0.00 0.00 0.00 0.00 0.00
0.00 0.00 0.00 0.00 0.00 0.01 0.02 0.06 0.07 0.06 0.04 0.09 0.09 0.10 0.13 0.12 0.09 0.09 0.07 0.06 0.07 0.04 0.02 0.01 0.01 0.00 0.00 0.00 0.00 0.00 0.00 0.00 0.00 0.00 0.00 0.00 0.00 0.00 0.00 0.00 0.00 0.00 0.00

GFSSE_prec_precacc24_027.txt.gz
Total_Precipitation_Accumulation
0.00 0.01 0.04 0.03 0.02 0.01 0.01 0.01 0.01 0.02 0.03 0.03 0.04 0.04 0.04 0.04 0.01 0.01 0.00 0.00 0.00 0.00 0.00 0.03 0.08 0.10 0.13 0.20 0.17 0.04 0.01 0.01 0.00 0.00 0.00 0.00 0.00 0.00 0.00 0.00 0.01 0.01 0.01
0.00 0.01 0.03 0.03 0.03 0.02 0.01 0.01 0.01 0.02 0.02 0.03 0.04 0.05 0.05 0.05 0.04 0.02 0.01 0.00 0.00 0.00 0.07 0.14 0.15 0.11 0.04 0.01 0.00 0.01 0.01 0.00 0.00 0.00 0.00 0.00 0.00 0.00 0.00 0.00 0.00 0.00 0.00
0.00 0.01 0.01 0.03 0.04 0.01 0.01 0.00 0.01 0.02 0.03 0.03 0.04 0.03 0.03 0.01 0.00 0.01 0.00 0.00 0.00 0.01 0.05 0.04 0.01 0.00 0.00 0.00 0.00 0.00 0.00 0.00 0.00 0.00 0.00 0.00 0.00 0.00 0.00 0.00 0.00 0.00 0.00
0.00 0.00 0.00 0.02 0.03 0.01 0.00 0.00 0.01 0.02 0.02 0.02 0.02 0.02 0.00 0.00 0.01 0.02 0.00 0.00 0.00 0.01 0.01 0.00 0.00 0.00 0.00 0.00 0.00 0.00 0.00 0.00 0.00 0.00 0.00 0.00 0.00 0.00 0.00 0.00 0.00 0.00 0.00
0.00 0.00 0.00 0.02 0.03 0.01 0.00 0.00 0.01 0.01 0.02 0.02 0.02 0.00 0.00 0.00 0.01 0.00 0.00 0.00 0.00 0.00 0.00 0.00 0.00 0.00 0.00 0.00 0.00 0.01 0.01 0.00 0.00 0.00 0.00 0.00 0.00 0.00 0.00 0.00 0.00 0.00 0.01
0.00 0.00 0.00 0.02 0.02 0.02 0.02 0.01 0.01 0.01 0.01 0.02 0.00 0.00 0.00 0.00 0.02 0.01 0.00 0.00 0.00 0.00 0.00 0.00 0.00 0.00 0.00 0.00 0.00 0.00 0.00 0.00 0.00 0.00 0.00 0.00 0.00 0.00 0.00 0.00 0.00 0.02 0.01
0.00 0.00 0.01 0.02 0.03 0.03 0.03 0.02 0.02 0.01 0.02 0.01 0.00 0.00 0.00 0.00 0.02 0.05 0.01 0.00 0.00 0.00 0.01 0.00 0.01 0.02 0.00 0.01 0.01 0.00 0.00 0.00 0.00 0.00 0.00 0.00 0.00 0.00 0.00 0.00 0.01 0.06 0.08
0.00 0.01 0.02 0.02 0.03 0.03 0.03 0.03 0.02 0.00 0.01 0.00 0.00 0.00 0.00 0.00 0.01 0.02 0.03 0.00 0.00 0.01 0.01 0.01 0.04 0.02 0.01 0.01 0.00 0.00 0.00 0.00 0.00 0.00 0.00 0.00 0.00 0.00 0.00 0.01 0.02 0.03 0.03
0.00 0.01 0.03 0.01 0.01 0.03 0.03 0.02 0.01 0.00 0.01 0.01 0.01 0.00 0.00 0.00 0.00 0.01 0.05 0.04 0.02 0.02 0.02 0.05 0.02 0.02 0.01 0.01 0.00 0.00 0.00 0.00 0.00 0.00 0.00 0.00 0.00 0.00 0.00 0.01 0.02 0.04 0.06
0.04 0.07 0.05 0.01 0.00 0.01 0.02 0.01 0.01 0.00 0.00 0.00 0.01 0.01 0.00 0.00 0.01 0.01 0.01 0.03 0.01 0.03 0.02 0.01 0.01 0.01 0.00 0.00 0.00 0.00 0.00 0.00 0.00 0.00 0.00 0.00 0.00 0.01 0.02 0.03 0.06 0.08 0.09
0.05 0.07 0.07 0.02 0.00 0.01 0.02 0.01 0.00 0.00 0.00 0.00 0.00 0.01 0.00 0.00 0.01 0.00 0.00 0.00 0.00 0.01 0.00 0.00 0.00 0.00 0.00 0.00 0.00 0.00 0.00 0.00 0.00 0.00 0.00 0.00 0.01 0.02 0.04 0.05 0.05 0.04 0.04
0.03 0.05 0.08 0.05 0.00 0.01 0.02 0.01 0.00 0.00 0.00 0.00 0.00 0.00 0.00 0.00 0.00 0.00 0.00 0.00 0.00 0.00 0.00 0.00 0.00 0.00 0.00 0.00 0.00 0.00 0.00 0.00 0.00 0.00 0.00 0.00 0.01 0.02 0.03 0.02 0.02 0.02 0.01
0.02 0.03 0.05 0.07 0.02 0.01 0.01 0.01 0.00 0.00 0.00 0.00 0.00 0.00 0.00 0.00 0.00 0.00 0.00 0.00 0.00 0.00 0.00 0.00 0.00 0.00 0.00 0.00 0.00 0.00 0.00 0.00 0.00 0.00 0.00 0.00 0.00 0.00 0.01 0.00 0.00 0.00 0.00
0.01 0.01 0.03 0.04 0.03 0.04 0.04 0.02 0.00 0.00 0.00 0.00 0.00 0.00 0.00 0.00 0.00 0.00 0.00 0.00 0.00 0.00 0.00 0.00 0.00 0.00 0.00 0.00 0.00 0.00 0.00 0.00 0.00 0.00 0.00 0.00 0.00 0.00 0.00 0.00 0.00 0.00 0.00
0.02 0.02 0.03 0.03 0.01 0.02 0.02 0.06 0.02 0.01 0.00 0.00 0.00 0.00 0.00 0.00 0.00 0.00 0.00 0.00 0.00 0.00 0.00 0.00 0.00 0.00 0.00 0.00 0.00 0.00 0.00 0.00 0.00 0.00 0.00 0.00 0.00 0.00 0.00 0.00 0.00 0.00 0.00
0.02 0.02 0.07 0.05 0.04 0.01 0.01 0.04 0.08 0.05 0.04 0.01 0.00 0.00 0.00 0.00 0.00 0.00 0.00 0.00 0.00 0.00 0.00 0.00 0.00 0.00 0.00 0.00 0.00 0.00 0.00 0.00 0.00 0.00 0.00 0.00 0.00 0.00 0.00 0.00 0.00 0.00 0.00
0.00 0.04 0.04 0.08 0.10 0.04 0.05 0.06 0.06 0.08 0.07 0.04 0.01 0.00 0.00 0.00 0.00 0.00 0.00 0.00 0.00 0.00 0.00 0.00 0.00 0.00 0.00 0.00 0.00 0.00 0.00 0.00 0.00 0.00 0.00 0.00 0.00 0.00 0.00 0.00 0.00 0.00 0.00
0.00 0.00 0.02 0.09 0.06 0.04 0.10 0.19 0.16 0.14 0.11 0.04 0.02 0.01 0.00 0.00 0.00 0.00 0.00 0.00 0.00 0.00 0.00 0.00 0.00 0.00 0.00 0.00 0.00 0.00 0.00 0.00 0.00 0.00 0.00 0.00 0.00 0.00 0.00 0.00 0.00 0.00 0.00
0.00 0.00 0.00 0.02 0.02 0.04 0.14 0.17 0.22 0.14 0.08 0.09 0.07 0.02 0.01 0.01 0.00 0.00 0.00 0.00 0.00 0.00 0.00 0.00 0.00 0.00 0.00 0.00 0.00 0.00 0.00 0.00 0.00 0.00 0.00 0.00 0.00 0.00 0.00 0.00 0.00 0.00 0.00
0.00 0.00 0.00 0.00 0.01 0.06 0.23 0.25 0.26 0.11 0.08 0.07 0.06 0.03 0.05 0.04 0.03 0.00 0.00 0.00 0.00 0.00 0.00 0.00 0.00 0.00 0.00 0.00 0.00 0.00 0.00 0.00 0.00 0.00 0.00 0.00 0.00 0.00 0.00 0.00 0.00 0.00 0.00
0.00 0.00 0.00 0.00 0.01 0.06 0.08 0.08 0.13 0.08 0.09 0.09 0.06 0.09 0.12 0.06 0.05 0.03 0.02 0.00 0.00 0.00 0.00 0.00 0.00 0.00 0.00 0.00 0.00 0.00 0.00 0.00 0.00 0.00 0.00 0.00 0.00 0.00 0.00 0.00 0.00 0.00 0.00
0.00 0.00 0.00 0.00 0.00 0.01 0.05 0.11 0.17 0.19 0.12 0.08 0.12 0.05 0.08 0.04 0.05 0.04 0.05 0.02 0.01 0.00 0.00 0.00 0.00 0.00 0.00 0.00 0.00 0.00 0.00 0.00 0.00 0.00 0.00 0.00 0.00 0.00 0.00 0.00 0.00 0.00 0.00
0.00 0.00 0.00 0.00 0.00 0.01 0.06 0.12 0.19 0.24 0.16 0.09 0.05 0.02 0.05 0.06 0.05 0.07 0.16 0.11 0.01 0.00 0.00 0.00 0.00 0.00 0.00 0.00 0.00 0.00 0.00 0.00 0.00 0.00 0.00 0.00 0.00 0.00 0.00 0.00 0.00 0.00 0.00
0.00 0.00 0.00 0.00 0.00 0.03 0.07 0.07 0.07 0.05 0.06 0.06 0.07 0.16 0.20 0.17 0.14 0.10 0.15 0.16 0.06 0.01 0.01 0.00 0.00 0.00 0.00 0.00 0.00 0.00 0.00 0.00 0.00 0.00 0.00 0.00 0.00 0.00 0.00 0.00 0.00 0.00 0.00
0.00 0.00 0.00 0.00 0.00 0.01 0.08 0.08 0.09 0.05 0.06 0.07 0.13 0.19 0.18 0.17 0.19 0.17 0.14 0.14 0.12 0.04 0.04 0.01 0.00 0.00 0.00 0.00 0.00 0.00 0.00 0.00 0.00 0.00 0.00 0.00 0.00 0.00 0.00 0.00 0.00 0.00 0.00
0.00 0.00 0.00 0.00 0.00 0.01 0.02 0.06 0.07 0.06 0.04 0.09 0.09 0.11 0.13 0.14 0.13 0.12 0.11 0.11 0.15 0.13 0.09 0.06 0.03 0.02 0.01 0.00 0.00 0.00 0.00 0.00 0.00 0.00 0.00 0.00 0.00 0.00 0.00 0.00 0.00 0.00 0.00

GFSSE_prec_precacc24_030.txt.gz
Total_Precipitation_Accumulation
0.00 0.01 0.04 0.03 0.03 0.03 0.02 0.01 0.02 0.02 0.04 0.06 0.05 0.04 0.04 0.01 0.00 0.00 0.00 0.00 0.00 0.00 0.00 0.07 0.11 0.10 0.12 0.16 0.13 0.03 0.01 0.00 0.00 0.00 0.00 0.00 0.00 0.00 0.00 0.00 0.01 0.01 0.01
0.00 0.01 0.02 0.03 0.03 0.02 0.02 0.01 0.03 0.03 0.05 0.04 0.04 0.05 0.04 0.03 0.02 0.01 0.00 0.00 0.00 0.02 0.11 0.22 0.18 0.12 0.04 0.00 0.00 0.00 0.00 0.00 0.00 0.00 0.00 0.00 0.00 0.00 0.00 0.00 0.00 0.00 0.00
0.00 0.01 0.01 0.02 0.03 0.02 0.01 0.01 0.02 0.03 0.04 0.03 0.04 0.03 0.03 0.01 0.00 0.00 0.00 0.00 0.00 0.04 0.07 0.05 0.02 0.00 0.00 0.00 0.00 0.00 0.00 0.00 0.00 0.00 0.00 0.00 0.00 0.00 0.00 0.00 0.00 0.00 0.00
0.00 0.00 0.00 0.02 0.02 0.01 0.00 0.01 0.02 0.03 0.04 0.03 0.03 0.02 0.00 0.00 0.01 0.00 0.00 0.00 0.00 0.01 0.01 0.00 0.00 0.00 0.00 0.00 0.00 0.00 0.00 0.00 0.00 0.00 0.00 0.00 0.00 0.00 0.00 0.00 0.00 0.00 0.00
0.00 0.00 0.00 0.02 0.02 0.01 0.00 0.00 0.01 0.02 0.03 0.03 0.02 0.00 0.00 0.00 0.00 0.00 0.00 0.00 0.00 0.00 0.00 0.00 0.00 0.00 0.00 0.00 0.00 0.00 0.00 0.00 0.00 0.00 0.00 0.00 0.00 0.00 0.00 0.00 0.00 0.00 0.00
0.00 0.00 0.00 0.01 0.02 0.01 0.01 0.01 0.01 0.02 0.03 0.02 0.00 0.00 0.00 0.00 0.00 0.00 0.00 0.00 0.00 0.00 0.00 0.00 0.00 0.00 0.00 0.00 0.00 0.00 0.00 0.00 0.00 0.00 0.00 0.00 0.00 0.00 0.00 0.00 0.01 0.03 0.04
0.00 0.00 0.01 0.01 0.02 0.02 0.01 0.01 0.01 0.01 0.03 0.02 0.00 0.00 0.00 0.00 0.01 0.01 0.00 0.00 0.00 0.00 0.01 0.01 0.01 0.02 0.00 0.00 0.00 0.00 0.00 0.00 0.00 0.00 0.00 0.00 0.00 0.00 0.00 0.00 0.01 0.06 0.09
0.00 0.01 0.02 0.01 0.01 0.01 0.01 0.01 0.01 0.01 0.02 0.01 0.00 0.00 0.00 0.00 0.00 0.00 0.01 0.00 0.00 0.01 0.01 0.02 0.04 0.02 0.01 0.01 0.00 0.00 0.00 0.00 0.00 0.00 0.00 0.00 0.00 0.00 0.00 0.00 0.01 0.03 0.03
0.00 0.01 0.03 0.01 0.01 0.01 0.01 0.01 0.01 0.01 0.02 0.02 0.01 0.00 0.00 0.00 0.00 0.00 0.01 0.02 0.02 0.02 0.04 0.07 0.02 0.01 0.00 0.00 0.00 0.00 0.00 0.00 0.00 0.00 0.00 0.00 0.00 0.00 0.00 0.01 0.02 0.04 0.04
0.05 0.07 0.05 0.01 0.00 0.00 0.01 0.00 0.00 0.00 0.01 0.01 0.01 0.01 0.00 0.00 0.01 0.01 0.01 0.02 0.01 0.04 0.03 0.00 0.00 0.00 0.00 0.00 0.00 0.00 0.00 0.00 0.00 0.00 0.00 0.00 0.00 0.03 0.04 0.05 0.07 0.08 0.08
0.05 0.08 0.07 0.02 0.00 0.00 0.00 0.00 0.00 0.00 0.00 0.00 0.01 0.01 0.00 0.00 0.01 0.00 0.00 0.00 0.00 0.01 0.00 0.00 0.00 0.00 0.00 0.00 0.00 0.00 0.00 0.00 0.00 0.00 0.00 0.00 0.02 0.04 0.05 0.05 0.05 0.05 0.04
0.04 0.05 0.08 0.05 0.00 0.00 0.01 0.00 0.00 0.00 0.00 0.00 0.00 0.00 0.00 0.00 0.01 0.00 0.00 0.00 0.00 0.00 0.00 0.00 0.00 0.00 0.00 0.00 0.00 0.00 0.00 0.00 0.00 0.00 0.00 0.02 0.02 0.02 0.03 0.02 0.02 0.02 0.01
0.02 0.03 0.05 0.07 0.02 0.01 0.01 0.01 0.00 0.00 0.00 0.00 0.00 0.00 0.00 0.00 0.00 0.01 0.00 0.01 0.00 0.00 0.00 0.00 0.00 0.00 0.00 0.00 0.00 0.00 0.00 0.00 0.00 0.00 0.00 0.00 0.00 0.00 0.01 0.00 0.00 0.00 0.00
0.01 0.01 0.03 0.04 0.03 0.03 0.03 0.02 0.00 0.00 0.00 0.00 0.00 0.00 0.00 0.00 0.00 0.01 0.01 0.01 0.01 0.00 0.00 0.00 0.00 0.00 0.00 0.00 0.00 0.00 0.00 0.00 0.00 0.00 0.00 0.00 0.00 0.00 0.00 0.00 0.00 0.00 0.00
0.02 0.02 0.03 0.03 0.01 0.02 0.02 0.06 0.02 0.02 0.00 0.00 0.00 0.00 0.00 0.00 0.00 0.00 0.00 0.01 0.01 0.00 0.00 0.00 0.00 0.00 0.00 0.00 0.00 0.00 0.00 0.00 0.00 0.00 0.00 0.00 0.00 0.00 0.00 0.00 0.00 0.00 0.00
0.02 0.02 0.07 0.05 0.04 0.01 0.00 0.05 0.08 0.06 0.06 0.02 0.00 0.00 0.00 0.00 0.00 0.00 0.00 0.00 0.00 0.00 0.00 0.00 0.00 0.00 0.00 0.00 0.00 0.00 0.00 0.00 0.00 0.00 0.00 0.00 0.00 0.00 0.00 0.00 0.00 0.00 0.00
0.00 0.04 0.04 0.08 0.10 0.04 0.05 0.06 0.07 0.10 0.11 0.05 0.01 0.00 0.00 0.00 0.00 0.00 0.00 0.00 0.00 0.00 0.00 0.00 0.00 0.00 0.00 0.00 0.00 0.00 0.00 0.00 0.00 0.00 0.00 0.00 0.00 0.00 0.00 0.00 0.00 0.00 0.00
0.00 0.00 0.02 0.09 0.06 0.04 0.09 0.17 0.16 0.15 0.12 0.05 0.03 0.01 0.02 0.01 0.00 0.00 0.00 0.00 0.00 0.00 0.00 0.00 0.00 0.00 0.00 0.00 0.00 0.00 0.00 0.00 0.00 0.00 0.00 0.00 0.00 0.00 0.00 0.00 0.00 0.00 0.00
0.00 0.00 0.00 0.02 0.02 0.04 0.13 0.16 0.22 0.14 0.08 0.08 0.08 0.03 0.02 0.01 0.01 0.00 0.00 0.00 0.00 0.00 0.00 0.00 0.00 0.00 0.00 0.00 0.00 0.00 0.00 0.00 0.00 0.00 0.00 0.00 0.00 0.00 0.00 0.00 0.00 0.00 0.00
0.00 0.00 0.00 0.00 0.01 0.06 0.22 0.24 0.23 0.11 0.08 0.07 0.06 0.03 0.07 0.07 0.07 0.04 0.01 0.00 0.00 0.00 0.00 0.00 0.00 0.00 0.00 0.00 0.00 0.00 0.00 0.00 0.00 0.00 0.00 0.00 0.00 0.00 0.00 0.00 0.00 0.00 0.00
0.00 0.00 0.00 0.00 0.01 0.06 0.07 0.06 0.09 0.08 0.09 0.09 0.06 0.12 0.15 0.08 0.08 0.07 0.07 0.03 0.00 0.00 0.00 0.00 0.00 0.00 0.00 0.00 0.00 0.00 0.00 0.00 0.00 0.00 0.00 0.00 0.00 0.00 0.00 0.00 0.00 0.00 0.00
0.00 0.00 0.00 0.00 0.00 0.01 0.02 0.06 0.13 0.16 0.12 0.09 0.13 0.07 0.09 0.05 0.05 0.08 0.09 0.06 0.02 0.00 0.00 0.00 0.00 0.00 0.00 0.00 0.00 0.00 0.00 0.00 0.00 0.00 0.00 0.00 0.00 0.00 0.00 0.00 0.00 0.00 0.00
0.00 0.00 0.00 0.00 0.00 0.01 0.04 0.10 0.16 0.23 0.15 0.09 0.05 0.02 0.05 0.06 0.06 0.09 0.21 0.15 0.04 0.01 0.00 0.00 0.00 0.00 0.00 0.00 0.00 0.00 0.00 0.00 0.00 0.00 0.00 0.00 0.00 0.00 0.00 0.00 0.00 0.00 0.00
0.00 0.00 0.00 0.00 0.00 0.02 0.05 0.04 0.05 0.04 0.05 0.06 0.07 0.16 0.20 0.18 0.19 0.15 0.18 0.18 0.11 0.03 0.03 0.01 0.00 0.00 0.00 0.00 0.00 0.00 0.00 0.00 0.00 0.00 0.00 0.00 0.00 0.00 0.00 0.00 0.00 0.00 0.00
0.00 0.00 0.00 0.00 0.00 0.01 0.05 0.04 0.07 0.05 0.06 0.07 0.13 0.19 0.18 0.18 0.21 0.21 0.19 0.19 0.16 0.06 0.06 0.05 0.02 0.00 0.00 0.00 0.00 0.00 0.00 0.00 0.00 0.00 0.00 0.00 0.00 0.00 0.00 0.00 0.00 0.00 0.00
0.00 0.00 0.00 0.00 0.00 0.01 0.01 0.02 0.05 0.05 0.04 0.09 0.09 0.11 0.13 0.14 0.14 0.15 0.15 0.15 0.19 0.18 0.12 0.09 0.09 0.05 0.02 0.00 0.00 0.00 0.00 0.00 0.00 0.00 0.00 0.00 0.00 0.00 0.00 0.00 0.00 0.00 0.00

GFSSE_prec_precacc24_033.txt.gz
Total_Precipitation_Accumulation
0.00 0.01 0.03 0.03 0.03 0.03 0.02 0.02 0.02 0.03 0.05 0.07 0.07 0.06 0.04 0.01 0.00 0.00 0.00 0.00 0.00 0.00 0.02 0.10 0.11 0.10 0.12 0.12 0.08 0.01 0.00 0.00 0.00 0.00 0.00 0.00 0.00 0.00 0.00 0.00 0.00 0.01 0.01
0.00 0.01 0.02 0.03 0.03 0.03 0.03 0.02 0.03 0.03 0.08 0.05 0.05 0.06 0.03 0.02 0.01 0.00 0.00 0.00 0.00 0.02 0.17 0.25 0.18 0.12 0.04 0.00 0.00 0.00 0.00 0.00 0.00 0.00 0.00 0.00 0.00 0.00 0.00 0.00 0.00 0.00 0.00
0.00 0.01 0.01 0.02 0.02 0.02 0.02 0.02 0.03 0.04 0.05 0.04 0.05 0.04 0.03 0.01 0.00 0.00 0.00 0.00 0.03 0.08 0.12 0.07 0.02 0.00 0.00 0.00 0.00 0.00 0.00 0.00 0.00 0.00 0.00 0.00 0.00 0.00 0.00 0.00 0.00 0.00 0.00
0.00 0.00 0.00 0.01 0.02 0.01 0.01 0.01 0.03 0.04 0.05 0.04 0.03 0.02 0.00 0.00 0.00 0.00 0.00 0.01 0.02 0.02 0.01 0.00 0.00 0.00 0.00 0.00 0.00 0.00 0.00 0.00 0.00 0.00 0.00 0.00 0.00 0.00 0.00 0.00 0.00 0.00 0.00
0.00 0.00 0.00 0.01 0.02 0.01 0.00 0.00 0.02 0.03 0.04 0.04 0.02 0.00 0.00 0.00 0.00 0.00 0.00 0.00 0.00 0.00 0.00 0.00 0.00 0.00 0.00 0.00 0.00 0.00 0.00 0.00 0.00 0.00 0.00 0.00 0.00 0.00 0.00 0.00 0.00 0.00 0.00
0.00 0.00 0.00 0.01 0.02 0.01 0.01 0.01 0.01 0.02 0.04 0.03 0.01 0.00 0.00 0.00 0.00 0.00 0.00 0.00 0.00 0.00 0.00 0.00 0.00 0.00 0.00 0.00 0.00 0.00 0.00 0.00 0.00 0.00 0.00 0.00 0.00 0.00 0.00 0.00 0.01 0.05 0.07
0.00 0.00 0.00 0.01 0.01 0.02 0.01 0.00 0.01 0.02 0.04 0.03 0.00 0.00 0.00 0.00 0.00 0.00 0.00 0.00 0.00 0.00 0.01 0.01 0.01 0.00 0.00 0.00 0.00 0.00 0.00 0.00 0.00 0.00 0.00 0.00 0.00 0.00 0.00 0.00 0.01 0.07 0.10
0.00 0.01 0.01 0.01 0.01 0.00 0.00 0.00 0.01 0.02 0.03 0.02 0.00 0.00 0.00 0.00 0.00 0.00 0.00 0.00 0.00 0.01 0.01 0.02 0.04 0.01 0.01 0.00 0.00 0.00 0.00 0.00 0.00 0.00 0.00 0.00 0.00 0.00 0.00 0.00 0.01 0.04 0.03
0.00 0.01 0.03 0.00 0.00 0.00 0.00 0.00 0.00 0.01 0.03 0.02 0.01 0.00 0.00 0.00 0.00 0.00 0.00 0.00 0.01 0.01 0.05 0.07 0.02 0.00 0.00 0.00 0.00 0.00 0.00 0.00 0.00 0.00 0.00 0.00 0.00 0.00 0.00 0.01 0.03 0.03 0.03
0.05 0.07 0.05 0.01 0.00 0.00 0.00 0.00 0.00 0.01 0.02 0.01 0.01 0.01 0.00 0.00 0.01 0.01 0.00 0.01 0.00 0.04 0.03 0.00 0.00 0.00 0.00 0.00 0.00 0.00 0.00 0.00 0.00 0.00 0.00 0.00 0.01 0.04 0.05 0.07 0.09 0.10 0.08
0.05 0.08 0.07 0.02 0.00 0.00 0.00 0.00 0.00 0.00 0.01 0.01 0.01 0.01 0.00 0.00 0.01 0.00 0.00 0.00 0.01 0.02 0.00 0.00 0.00 0.00 0.00 0.00 0.00 0.00 0.00 0.00 0.00 0.00 0.00 0.01 0.03 0.05 0.05 0.06 0.05 0.05 0.04
0.04 0.05 0.08 0.05 0.00 0.00 0.00 0.00 0.00 0.00 0.00 0.00 0.00 0.00 0.00 0.00 0.01 0.00 0.00 0.00 0.01 0.00 0.00 0.00 0.00 0.00 0.00 0.00 0.00 0.00 0.00 0.00 0.00 0.00 0.00 0.03 0.02 0.02 0.03 0.02 0.02 0.02 0.01
0.02 0.03 0.05 0.07 0.02 0.01 0.00 0.00 0.00 0.00 0.00 0.00 0.00 0.00 0.00 0.00 0.01 0.01 0.00 0.01 0.00 0.00 0.00 0.00 0.00 0.00 0.00 0.00 0.00 0.00 0.00 0.00 0.00 0.00 0.00 0.00 0.00 0.00 0.01 0.00 0.00 0.00 0.00
0.01 0.01 0.03 0.04 0.03 0.03 0.03 0.02 0.00 0.00 0.00 0.00 0.00 0.00 0.00 0.00 0.00 0.01 0.01 0.01 0.01 0.00 0.00 0.00 0.00 0.00 0.00 0.00 0.00 0.00 0.00 0.00 0.00 0.00 0.00 0.00 0.00 0.00 0.00 0.00 0.00 0.00 0.00
0.02 0.02 0.03 0.03 0.01 0.02 0.02 0.05 0.02 0.02 0.00 0.00 0.00 0.00 0.00 0.00 0.00 0.00 0.01 0.02 0.01 0.00 0.00 0.00 0.00 0.00 0.00 0.00 0.00 0.00 0.00 0.00 0.00 0.00 0.00 0.00 0.00 0.00 0.00 0.00 0.00 0.00 0.00
0.02 0.02 0.07 0.06 0.04 0.01 0.00 0.05 0.08 0.06 0.06 0.02 0.00 0.00 0.00 0.00 0.00 0.00 0.00 0.00 0.01 0.00 0.00 0.00 0.00 0.00 0.00 0.00 0.00 0.00 0.00 0.00 0.00 0.00 0.00 0.00 0.00 0.00 0.00 0.00 0.00 0.00 0.00
0.00 0.04 0.04 0.08 0.10 0.03 0.05 0.06 0.06 0.10 0.11 0.05 0.01 0.00 0.00 0.00 0.00 0.00 0.00 0.00 0.00 0.00 0.00 0.00 0.00 0.00 0.00 0.00 0.00 0.00 0.00 0.00 0.00 0.00 0.00 0.00 0.00 0.00 0.00 0.00 0.00 0.00 0.00
0.00 0.00 0.02 0.09 0.06 0.04 0.09 0.17 0.16 0.14 0.11 0.04 0.03 0.01 0.02 0.01 0.00 0.00 0.00 0.00 0.00 0.00 0.00 0.00 0.00 0.00 0.00 0.00 0.00 0.00 0.00 0.00 0.00 0.00 0.00 0.00 0.00 0.00 0.00 0.00 0.00 0.00 0.00
0.00 0.00 0.00 0.02 0.02 0.04 0.13 0.16 0.22 0.15 0.08 0.08 0.08 0.03 0.02 0.01 0.01 0.01 0.00 0.00 0.00 0.00 0.00 0.00 0.00 0.00 0.00 0.00 0.00 0.00 0.00 0.00 0.00 0.00 0.00 0.00 0.00 0.00 0.00 0.00 0.00 0.00 0.00
0.00 0.00 0.00 0.00 0.01 0.06 0.22 0.23 0.23 0.11 0.04 0.06 0.06 0.03 0.07 0.07 0.07 0.05 0.01 0.00 0.00 0.00 0.00 0.00 0.00 0.00 0.00 0.00 0.00 0.00 0.00 0.00 0.00 0.00 0.00 0.00 0.00 0.00 0.00 0.00 0.00 0.00 0.00
0.00 0.00 0.00 0.00 0.01 0.06 0.07 0.05 0.08 0.05 0.06 0.09 0.06 0.12 0.15 0.08 0.08 0.07 0.08 0.03 0.00 0.00 0.00 0.00 0.00 0.00 0.00 0.00 0.00 0.00 0.00 0.00 0.00 0.00 0.00 0.00 0.00 0.00 0.00 0.00 0.00 0.00 0.00
0.00 0.00 0.00 0.00 0.00 0.01 0.02 0.05 0.11 0.13 0.09 0.08 0.14 0.08 0.09 0.05 0.05 0.08 0.09 0.06 0.02 0.00 0.00 0.00 0.00 0.00 0.00 0.00 0.00 0.00 0.00 0.00 0.00 0.00 0.00 0.00 0.00 0.00 0.00 0.00 0.00 0.00 0.00
0.00 0.00 0.00 0.00 0.00 0.01 0.04 0.10 0.16 0.22 0.14 0.08 0.05 0.02 0.05 0.07 0.06 0.10 0.21 0.16 0.05 0.02 0.02 0.01 0.00 0.00 0.00 0.00 0.00 0.00 0.00 0.00 0.00 0.00 0.00 0.00 0.00 0.00 0.00 0.00 0.00 0.00 0.00
0.00 0.00 0.00 0.00 0.00 0.02 0.05 0.04 0.05 0.04 0.03 0.05 0.06 0.16 0.20 0.18 0.20 0.18 0.23 0.24 0.14 0.06 0.07 0.03 0.01 0.02 0.00 0.00 0.00 0.00 0.00 0.00 0.00 0.00 0.00 0.00 0.00 0.00 0.00 0.00 0.00 0.00 0.00
0.00 0.00 0.00 0.00 0.00 0.01 0.05 0.04 0.06 0.04 0.05 0.06 0.12 0.19 0.18 0.18 0.21 0.22 0.22 0.21 0.20 0.11 0.15 0.11 0.05 0.03 0.02 0.01 0.01 0.00 0.00 0.00 0.00 0.00 0.00 0.00 0.00 0.00 0.00 0.00 0.00 0.00 0.00
0.00 0.00 0.00 0.00 0.00 0.01 0.01 0.02 0.05 0.04 0.03 0.08 0.09 0.11 0.13 0.14 0.14 0.15 0.17 0.16 0.22 0.23 0.18 0.15 0.14 0.10 0.07 0.03 0.01 0.00 0.00 0.00 0.00 0.00 0.00 0.00 0.00 0.00 0.00 0.00 0.00 0.00 0.00

GFSSE_prec_precacc24_036.txt.gz
Total_Precipitation_Accumulation
0.00 0.01 0.03 0.03 0.03 0.03 0.03 0.03 0.02 0.03 0.06 0.09 0.08 0.06 0.04 0.01 0.00 0.00 0.00 0.00 0.00 0.00 0.04 0.11 0.12 0.10 0.10 0.07 0.03 0.00 0.00 0.00 0.00 0.00 0.00 0.00 0.00 0.00 0.00 0.00 0.00 0.00 0.01
0.00 0.01 0.02 0.03 0.04 0.03 0.04 0.02 0.03 0.03 0.10 0.07 0.06 0.07 0.02 0.00 0.00 0.00 0.00 0.00 0.00 0.04 0.19 0.26 0.18 0.12 0.04 0.00 0.00 0.00 0.00 0.00 0.00 0.00 0.00 0.00 0.00 0.00 0.00 0.00 0.00 0.00 0.00
0.00 0.01 0.01 0.02 0.02 0.03 0.03 0.02 0.03 0.05 0.07 0.05 0.06 0.04 0.02 0.01 0.00 0.00 0.00 0.01 0.05 0.10 0.14 0.07 0.02 0.00 0.00 0.00 0.00 0.00 0.00 0.00 0.00 0.00 0.00 0.00 0.00 0.00 0.00 0.00 0.00 0.00 0.00
0.00 0.00 0.00 0.01 0.02 0.02 0.01 0.02 0.03 0.05 0.07 0.05 0.03 0.02 0.00 0.00 0.00 0.00 0.00 0.02 0.04 0.03 0.01 0.00 0.00 0.00 0.00 0.00 0.00 0.00 0.00 0.00 0.00 0.00 0.00 0.00 0.00 0.00 0.00 0.00 0.00 0.00 0.00
0.00 0.00 0.00 0.01 0.01 0.01 0.00 0.00 0.02 0.04 0.05 0.04 0.02 0.00 0.00 0.00 0.00 0.00 0.01 0.00 0.00 0.00 0.00 0.00 0.00 0.00 0.00 0.00 0.00 0.00 0.00 0.00 0.00 0.00 0.00 0.00 0.00 0.00 0.00 0.00 0.00 0.00 0.00
0.00 0.00 0.00 0.01 0.01 0.01 0.00 0.01 0.02 0.04 0.05 0.04 0.01 0.00 0.00 0.00 0.00 0.00 0.00 0.00 0.00 0.00 0.00 0.00 0.00 0.00 0.00 0.00 0.00 0.00 0.00 0.00 0.00 0.00 0.00 0.00 0.00 0.00 0.00 0.00 0.02 0.07 0.09
0.00 0.00 0.00 0.01 0.01 0.01 0.00 0.00 0.01 0.03 0.05 0.03 0.00 0.00 0.00 0.00 0.00 0.00 0.00 0.00 0.00 0.00 0.01 0.01 0.01 0.00 0.00 0.00 0.00 0.00 0.00 0.00 0.00 0.00 0.00 0.00 0.00 0.00 0.00 0.00 0.01 0.07 0.10
0.00 0.01 0.00 0.01 0.00 0.00 0.00 0.00 0.01 0.02 0.05 0.02 0.00 0.00 0.00 0.00 0.00 0.00 0.00 0.00 0.00 0.01 0.01 0.02 0.04 0.01 0.00 0.00 0.00 0.00 0.00 0.00 0.00 0.00 0.00 0.00 0.00 0.00 0.00 0.00 0.01 0.04 0.02
0.00 0.01 0.02 0.00 0.00 0.00 0.00 0.00 0.00 0.02 0.04 0.03 0.01 0.00 0.00 0.00 0.00 0.00 0.00 0.00 0.00 0.01 0.05 0.07 0.01 0.00 0.00 0.00 0.00 0.00 0.00 0.00 0.00 0.00 0.00 0.00 0.00 0.00 0.00 0.01 0.03 0.03 0.02
0.05 0.07 0.05 0.01 0.00 0.00 0.00 0.00 0.00 0.01 0.02 0.02 0.01 0.01 0.00 0.00 0.01 0.01 0.00 0.00 0.00 0.05 0.03 0.00 0.00 0.00 0.00 0.00 0.00 0.00 0.00 0.00 0.00 0.00 0.00 0.00 0.01 0.04 0.06 0.08 0.09 0.10 0.08
0.05 0.08 0.07 0.02 0.00 0.00 0.00 0.00 0.00 0.01 0.01 0.01 0.01 0.01 0.00 0.00 0.01 0.00 0.00 0.00 0.01 0.02 0.00 0.00 0.00 0.00 0.00 0.00 0.00 0.00 0.00 0.00 0.00 0.00 0.00 0.01 0.04 0.06 0.06 0.07 0.06 0.05 0.04
0.04 0.05 0.08 0.05 0.00 0.00 0.00 0.00 0.00 0.00 0.01 0.00 0.00 0.00 0.00 0.00 0.01 0.00 0.00 0.00 0.01 0.00 0.00 0.00 0.00 0.00 0.00 0.00 0.00 0.00 0.00 0.00 0.00 0.00 0.00 0.03 0.02 0.02 0.03 0.02 0.02 0.02 0.01
0.02 0.03 0.05 0.07 0.02 0.01 0.00 0.00 0.00 0.00 0.00 0.00 0.00 0.00 0.00 0.00 0.01 0.01 0.00 0.01 0.00 0.00 0.00 0.00 0.00 0.00 0.00 0.00 0.00 0.00 0.00 0.00 0.00 0.00 0.00 0.00 0.00 0.00 0.01 0.00 0.00 0.00 0.00
0.01 0.01 0.03 0.04 0.02 0.03 0.03 0.01 0.00 0.00 0.00 0.00 0.00 0.00 0.00 0.00 0.00 0.01 0.01 0.01 0.01 0.00 0.00 0.00 0.00 0.00 0.00 0.00 0.00 0.00 0.00 0.00 0.00 0.00 0.00 0.00 0.00 0.00 0.00 0.00 0.00 0.00 0.00
0.02 0.02 0.03 0.03 0.01 0.02 0.01 0.04 0.02 0.02 0.00 0.00 0.00 0.00 0.00 0.00 0.00 0.00 0.01 0.02 0.01 0.00 0.00 0.00 0.00 0.00 0.00 0.00 0.00 0.00 0.00 0.00 0.00 0.00 0.00 0.00 0.00 0.00 0.00 0.00 0.00 0.00 0.00
0.02 0.02 0.07 0.06 0.04 0.01 0.00 0.04 0.08 0.06 0.06 0.02 0.00 0.00 0.00 0.00 0.00 0.00 0.00 0.01 0.01 0.00 0.00 0.00 0.00 0.00 0.00 0.00 0.00 0.00 0.00 0.00 0.00 0.00 0.00 0.00 0.00 0.00 0.00 0.00 0.00 0.00 0.00
0.00 0.04 0.04 0.08 0.10 0.03 0.04 0.05 0.06 0.10 0.10 0.04 0.01 0.00 0.00 0.00 0.00 0.00 0.00 0.00 0.00 0.00 0.00 0.00 0.00 0.00 0.00 0.00 0.00 0.00 0.00 0.00 0.00 0.00 0.00 0.00 0.00 0.00 0.00 0.00 0.00 0.00 0.00
0.00 0.00 0.02 0.09 0.06 0.04 0.08 0.16 0.15 0.14 0.10 0.03 0.02 0.01 0.02 0.01 0.00 0.00 0.00 0.00 0.00 0.00 0.00 0.00 0.00 0.00 0.00 0.00 0.00 0.00 0.00 0.00 0.00 0.00 0.00 0.00 0.00 0.00 0.00 0.00 0.00 0.00 0.00
0.00 0.00 0.00 0.02 0.02 0.04 0.13 0.15 0.22 0.14 0.06 0.07 0.07 0.03 0.02 0.02 0.01 0.01 0.00 0.00 0.00 0.00 0.00 0.00 0.00 0.00 0.00 0.00 0.00 0.00 0.00 0.00 0.00 0.00 0.00 0.00 0.00 0.00 0.00 0.00 0.00 0.00 0.00
0.00 0.00 0.00 0.00 0.01 0.06 0.20 0.23 0.22 0.10 0.04 0.06 0.06 0.04 0.07 0.08 0.09 0.06 0.02 0.00 0.00 0.00 0.00 0.00 0.00 0.00 0.00 0.00 0.00 0.00 0.00 0.00 0.00 0.00 0.00 0.00 0.00 0.00 0.00 0.00 0.00 0.00 0.00
0.00 0.00 0.00 0.00 0.01 0.06 0.07 0.05 0.08 0.05 0.05 0.07 0.07 0.13 0.16 0.09 0.09 0.10 0.09 0.06 0.00 0.00 0.00 0.00 0.00 0.00 0.00 0.00 0.00 0.00 0.00 0.00 0.00 0.00 0.00 0.00 0.00 0.00 0.00 0.00 0.00 0.00 0.00
0.00 0.00 0.00 0.00 0.00 0.01 0.02 0.05 0.10 0.13 0.08 0.08 0.13 0.09 0.12 0.08 0.06 0.08 0.10 0.11 0.06 0.01 0.01 0.01 0.00 0.00 0.00 0.00 0.00 0.00 0.00 0.00 0.00 0.00 0.00 0.00 0.00 0.00 0.00 0.00 0.00 0.00 0.00
0.00 0.00 0.00 0.00 0.00 0.01 0.03 0.09 0.16 0.21 0.14 0.08 0.05 0.01 0.05 0.11 0.11 0.13 0.25 0.19 0.08 0.05 0.04 0.08 0.03 0.01 0.01 0.00 0.00 0.00 0.00 0.00 0.00 0.00 0.00 0.00 0.00 0.00 0.00 0.00 0.00 0.00 0.00
0.00 0.00 0.00 0.00 0.00 0.02 0.05 0.04 0.04 0.04 0.03 0.05 0.05 0.12 0.19 0.18 0.21 0.21 0.28 0.29 0.18 0.09 0.10 0.12 0.10 0.04 0.01 0.01 0.01 0.00 0.00 0.00 0.00 0.00 0.00 0.00 0.00 0.00 0.00 0.00 0.00 0.00 0.00
0.00 0.00 0.00 0.00 0.00 0.00 0.04 0.04 0.06 0.04 0.05 0.06 0.12 0.17 0.18 0.18 0.21 0.22 0.22 0.22 0.23 0.14 0.18 0.18 0.12 0.06 0.05 0.03 0.03 0.03 0.01 0.00 0.00 0.00 0.00 0.00 0.00 0.00 0.00 0.00 0.00 0.00 0.00
0.00 0.00 0.00 0.00 0.00 0.00 0.01 0.02 0.05 0.04 0.03 0.08 0.08 0.10 0.13 0.14 0.15 0.16 0.17 0.16 0.24 0.26 0.21 0.19 0.21 0.15 0.10 0.06 0.04 0.03 0.03 0.02 0.01 0.01 0.00 0.00 0.00 0.00 0.00 0.00 0.00 0.00 0.00

GFSSE_prec_precacc24_039.txt.gz
Total_Precipitation_Accumulation
0.00 0.01 0.03 0.03 0.03 0.03 0.03 0.03 0.02 0.03 0.07 0.09 0.08 0.06 0.04 0.01 0.00 0.00 0.00 0.00 0.00 0.01 0.05 0.11 0.12 0.10 0.09 0.04 0.01 0.00 0.00 0.00 0.00 0.00 0.00 0.00 0.00 0.00 0.00 0.00 0.00 0.00 0.00
0.00 0.01 0.02 0.03 0.04 0.03 0.04 0.02 0.04 0.04 0.10 0.08 0.06 0.07 0.02 0.00 0.00 0.00 0.00 0.00 0.00 0.06 0.19 0.26 0.18 0.12 0.04 0.00 0.00 0.00 0.00 0.00 0.00 0.00 0.00 0.00 0.00 0.00 0.00 0.00 0.00 0.00 0.00
0.00 0.01 0.01 0.02 0.02 0.03 0.04 0.02 0.03 0.05 0.08 0.06 0.07 0.03 0.01 0.00 0.00 0.00 0.00 0.01 0.06 0.13 0.15 0.07 0.02 0.00 0.00 0.00 0.00 0.00 0.00 0.00 0.00 0.00 0.00 0.00 0.00 0.00 0.00 0.00 0.00 0.00 0.00
0.00 0.00 0.00 0.02 0.02 0.02 0.01 0.02 0.03 0.06 0.08 0.06 0.03 0.02 0.00 0.00 0.00 0.00 0.02 0.04 0.05 0.03 0.01 0.00 0.00 0.00 0.00 0.00 0.00 0.00 0.00 0.00 0.00 0.00 0.00 0.00 0.00 0.00 0.00 0.00 0.00 0.00 0.00
0.00 0.00 0.00 0.01 0.02 0.01 0.01 0.01 0.04 0.06 0.06 0.05 0.02 0.00 0.00 0.00 0.00 0.01 0.01 0.00 0.00 0.00 0.00 0.00 0.00 0.00 0.00 0.00 0.00 0.00 0.00 0.00 0.00 0.00 0.00 0.00 0.00 0.00 0.00 0.01 0.01 0.01 0.02
0.00 0.00 0.00 0.01 0.01 0.00 0.00 0.01 0.03 0.05 0.06 0.04 0.01 0.00 0.00 0.00 0.00 0.00 0.00 0.00 0.00 0.00 0.00 0.00 0.00 0.00 0.00 0.00 0.00 0.00 0.00 0.00 0.00 0.00 0.00 0.00 0.00 0.00 0.00 0.02 0.04 0.08 0.10
0.00 0.00 0.00 0.01 0.01 0.00 0.00 0.00 0.02 0.04 0.06 0.03 0.00 0.00 0.00 0.00 0.00 0.00 0.00 0.00 0.00 0.00 0.01 0.00 0.00 0.00 0.00 0.00 0.00 0.00 0.00 0.00 0.00 0.00 0.00 0.00 0.00 0.00 0.00 0.00 0.02 0.06 0.10
0.00 0.00 0.00 0.01 0.00 0.00 0.00 0.00 0.01 0.03 0.05 0.02 0.00 0.00 0.00 0.00 0.00 0.00 0.00 0.00 0.00 0.01 0.01 0.02 0.04 0.01 0.00 0.00 0.00 0.00 0.00 0.00 0.00 0.00 0.00 0.00 0.00 0.00 0.00 0.00 0.01 0.03 0.01
0.00 0.01 0.02 0.00 0.00 0.00 0.00 0.00 0.01 0.03 0.05 0.03 0.01 0.00 0.00 0.00 0.00 0.00 0.00 0.00 0.00 0.01 0.05 0.07 0.01 0.00 0.00 0.00 0.00 0.00 0.00 0.00 0.00 0.00 0.00 0.00 0.00 0.00 0.00 0.02 0.03 0.03 0.02
0.05 0.07 0.05 0.01 0.00 0.00 0.00 0.00 0.00 0.02 0.03 0.02 0.01 0.01 0.00 0.00 0.01 0.00 0.00 0.00 0.00 0.05 0.03 0.00 0.00 0.00 0.00 0.00 0.00 0.00 0.00 0.00 0.00 0.00 0.00 0.00 0.01 0.04 0.07 0.09 0.10 0.10 0.08
0.05 0.08 0.07 0.02 0.00 0.00 0.00 0.00 0.00 0.01 0.01 0.01 0.01 0.01 0.00 0.00 0.01 0.00 0.00 0.00 0.01 0.03 0.00 0.00 0.00 0.00 0.00 0.00 0.00 0.00 0.00 0.00 0.00 0.00 0.00 0.01 0.04 0.07 0.08 0.07 0.06 0.05 0.03
0.04 0.05 0.08 0.03 0.00 0.00 0.00 0.00 0.00 0.00 0.01 0.00 0.00 0.00 0.00 0.00 0.01 0.00 0.00 0.00 0.01 0.00 0.00 0.00 0.00 0.00 0.00 0.00 0.00 0.00 0.00 0.00 0.00 0.00 0.00 0.03 0.02 0.02 0.03 0.02 0.02 0.01 0.01
0.02 0.02 0.05 0.07 0.02 0.01 0.00 0.00 0.00 0.00 0.00 0.00 0.00 0.00 0.00 0.00 0.01 0.01 0.00 0.01 0.00 0.00 0.00 0.00 0.00 0.00 0.00 0.00 0.00 0.00 0.00 0.00 0.00 0.00 0.00 0.00 0.00 0.00 0.00 0.00 0.00 0.00 0.00
0.01 0.01 0.03 0.03 0.02 0.03 0.03 0.01 0.00 0.00 0.00 0.00 0.00 0.00 0.00 0.00 0.00 0.01 0.01 0.01 0.01 0.00 0.00 0.00 0.00 0.00 0.00 0.00 0.00 0.00 0.00 0.00 0.00 0.00 0.00 0.00 0.00 0.00 0.00 0.00 0.00 0.00 0.00
0.02 0.02 0.04 0.03 0.01 0.02 0.01 0.04 0.02 0.02 0.00 0.00 0.00 0.00 0.00 0.00 0.00 0.00 0.01 0.02 0.01 0.00 0.00 0.00 0.00 0.00 0.00 0.00 0.00 0.00 0.00 0.00 0.00 0.00 0.00 0.00 0.00 0.00 0.00 0.00 0.00 0.00 0.00
0.02 0.02 0.07 0.06 0.04 0.00 0.00 0.04 0.07 0.05 0.06 0.02 0.00 0.00 0.00 0.00 0.00 0.00 0.00 0.01 0.01 0.00 0.00 0.00 0.00 0.00 0.00 0.00 0.00 0.00 0.00 0.00 0.00 0.00 0.00 0.00 0.00 0.00 0.00 0.00 0.00 0.00 0.00
0.00 0.04 0.04 0.08 0.10 0.02 0.02 0.05 0.05 0.09 0.10 0.04 0.01 0.00 0.00 0.00 0.00 0.00 0.00 0.00 0.00 0.00 0.00 0.00 0.00 0.00 0.00 0.00 0.00 0.00 0.00 0.00 0.00 0.00 0.00 0.00 0.00 0.00 0.00 0.00 0.00 0.00 0.00
0.00 0.01 0.02 0.09 0.06 0.03 0.06 0.14 0.14 0.13 0.10 0.03 0.02 0.00 0.02 0.01 0.00 0.00 0.00 0.00 0.00 0.00 0.00 0.00 0.00 0.00 0.00 0.00 0.00 0.00 0.00 0.00 0.00 0.00 0.00 0.00 0.00 0.00 0.00 0.00 0.00 0.00 0.00
0.00 0.00 0.00 0.02 0.02 0.03 0.10 0.13 0.21 0.13 0.06 0.06 0.06 0.03 0.02 0.02 0.01 0.01 0.00 0.00 0.00 0.00 0.00 0.00 0.00 0.00 0.00 0.00 0.00 0.00 0.00 0.00 0.00 0.00 0.00 0.00 0.00 0.00 0.00 0.00 0.00 0.00 0.00
0.00 0.00 0.00 0.00 0.01 0.06 0.17 0.22 0.21 0.10 0.04 0.06 0.08 0.05 0.09 0.09 0.10 0.07 0.02 0.00 0.00 0.00 0.00 0.00 0.00 0.00 0.00 0.00 0.00 0.00 0.00 0.00 0.00 0.00 0.00 0.00 0.00 0.00 0.00 0.00 0.00 0.00 0.00
0.00 0.00 0.00 0.00 0.01 0.05 0.06 0.04 0.08 0.05 0.06 0.09 0.12 0.17 0.20 0.11 0.10 0.15 0.14 0.09 0.01 0.00 0.00 0.01 0.02 0.00 0.00 0.00 0.00 0.00 0.00 0.00 0.00 0.00 0.00 0.00 0.00 0.00 0.00 0.00 0.00 0.00 0.00
0.00 0.00 0.00 0.00 0.00 0.01 0.01 0.03 0.06 0.08 0.06 0.07 0.12 0.09 0.14 0.11 0.10 0.11 0.15 0.16 0.12 0.03 0.03 0.09 0.05 0.02 0.01 0.01 0.01 0.00 0.00 0.00 0.00 0.00 0.00 0.00 0.00 0.00 0.00 0.00 0.00 0.00 0.00
0.00 0.00 0.00 0.00 0.00 0.01 0.01 0.06 0.11 0.14 0.11 0.07 0.04 0.01 0.04 0.11 0.13 0.17 0.31 0.24 0.13 0.12 0.10 0.14 0.11 0.10 0.04 0.02 0.00 0.01 0.00 0.00 0.00 0.00 0.00 0.00 0.00 0.00 0.00 0.00 0.00 0.00 0.00
0.00 0.00 0.00 0.00 0.00 0.02 0.04 0.04 0.02 0.01 0.01 0.02 0.02 0.10 0.16 0.18 0.21 0.21 0.31 0.35 0.26 0.14 0.13 0.15 0.17 0.12 0.08 0.05 0.03 0.02 0.02 0.00 0.00 0.00 0.00 0.00 0.00 0.00 0.00 0.00 0.00 0.00 0.00
0.00 0.00 0.00 0.00 0.00 0.00 0.03 0.03 0.03 0.03 0.03 0.04 0.09 0.15 0.17 0.18 0.21 0.22 0.22 0.23 0.25 0.19 0.24 0.23 0.18 0.14 0.11 0.07 0.07 0.06 0.04 0.02 0.00 0.00 0.01 0.01 0.00 0.00 0.00 0.00 0.00 0.00 0.00
0.00 0.00 0.00 0.00 0.00 0.00 0.00 0.02 0.04 0.03 0.02 0.07 0.07 0.09 0.12 0.13 0.15 0.16 0.18 0.18 0.25 0.28 0.27 0.28 0.29 0.23 0.19 0.13 0.08 0.08 0.08 0.07 0.05 0.03 0.02 0.02 0.02 0.01 0.00 0.00 0.00 0.00 0.00

GFSSE_prec_precacc24_042.txt.gz
Total_Precipitation_Accumulation
0.00 0.01 0.03 0.03 0.04 0.03 0.03 0.03 0.03 0.04 0.07 0.09 0.08 0.06 0.03 0.00 0.00 0.00 0.00 0.00 0.01 0.02 0.06 0.11 0.11 0.09 0.07 0.02 0.00 0.00 0.00 0.00 0.00 0.00 0.00 0.00 0.00 0.00 0.00 0.00 0.00 0.00 0.00
0.00 0.01 0.02 0.03 0.04 0.03 0.05 0.03 0.04 0.04 0.11 0.08 0.06 0.08 0.02 0.00 0.00 0.00 0.00 0.00 0.02 0.06 0.19 0.26 0.18 0.12 0.04 0.00 0.00 0.00 0.00 0.00 0.00 0.00 0.00 0.00 0.00 0.00 0.00 0.00 0.00 0.00 0.00
0.00 0.01 0.01 0.02 0.03 0.03 0.04 0.02 0.04 0.06 0.08 0.07 0.07 0.02 0.00 0.00 0.00 0.00 0.00 0.02 0.08 0.13 0.15 0.07 0.02 0.00 0.00 0.00 0.00 0.00 0.00 0.00 0.00 0.00 0.00 0.00 0.00 0.00 0.00 0.00 0.00 0.00 0.00
0.00 0.00 0.00 0.02 0.02 0.02 0.01 0.02 0.03 0.06 0.09 0.06 0.02 0.01 0.00 0.00 0.00 0.02 0.03 0.05 0.06 0.03 0.01 0.00 0.00 0.00 0.00 0.00 0.00 0.00 0.00 0.00 0.00 0.00 0.00 0.00 0.00 0.00 0.00 0.00 0.00 0.00 0.01
0.00 0.00 0.00 0.02 0.03 0.01 0.01 0.01 0.04 0.07 0.06 0.05 0.02 0.00 0.00 0.00 0.01 0.02 0.02 0.01 0.00 0.00 0.00 0.00 0.00 0.00 0.00 0.00 0.00 0.00 0.00 0.00 0.00 0.00 0.00 0.00 0.00 0.00 0.01 0.01 0.02 0.03 0.05
0.00 0.00 0.00 0.01 0.01 0.00 0.01 0.01 0.04 0.06 0.06 0.04 0.01 0.00 0.00 0.00 0.01 0.01 0.00 0.00 0.00 0.00 0.00 0.00 0.00 0.00 0.00 0.00 0.00 0.00 0.00 0.00 0.00 0.00 0.00 0.00 0.00 0.01 0.01 0.03 0.05 0.09 0.11
0.00 0.00 0.00 0.01 0.01 0.00 0.01 0.01 0.02 0.04 0.06 0.03 0.00 0.00 0.00 0.00 0.00 0.00 0.00 0.00 0.00 0.00 0.01 0.00 0.00 0.00 0.00 0.00 0.00 0.00 0.00 0.00 0.00 0.00 0.00 0.00 0.00 0.00 0.00 0.01 0.02 0.05 0.09
0.00 0.00 0.00 0.00 0.00 0.00 0.00 0.01 0.02 0.03 0.05 0.02 0.00 0.00 0.00 0.00 0.00 0.00 0.00 0.00 0.00 0.01 0.01 0.02 0.04 0.01 0.00 0.00 0.00 0.00 0.00 0.00 0.00 0.00 0.00 0.00 0.00 0.00 0.00 0.01 0.01 0.03 0.01
0.00 0.00 0.00 0.00 0.00 0.00 0.00 0.00 0.02 0.03 0.05 0.03 0.01 0.00 0.00 0.00 0.00 0.00 0.00 0.00 0.00 0.01 0.05 0.07 0.01 0.00 0.00 0.00 0.00 0.00 0.00 0.00 0.00 0.00 0.00 0.00 0.00 0.00 0.01 0.02 0.03 0.03 0.02
0.01 0.02 0.00 0.00 0.00 0.00 0.00 0.00 0.01 0.02 0.03 0.02 0.01 0.01 0.00 0.00 0.00 0.00 0.00 0.00 0.01 0.05 0.03 0.00 0.00 0.00 0.00 0.00 0.00 0.00 0.00 0.00 0.00 0.00 0.00 0.00 0.01 0.05 0.08 0.09 0.10 0.10 0.07
0.03 0.02 0.00 0.00 0.00 0.00 0.00 0.00 0.00 0.01 0.01 0.01 0.01 0.01 0.00 0.00 0.00 0.00 0.00 0.00 0.01 0.03 0.00 0.00 0.00 0.00 0.00 0.00 0.00 0.00 0.00 0.00 0.00 0.00 0.00 0.01 0.05 0.08 0.08 0.07 0.05 0.04 0.02
0.02 0.01 0.01 0.00 0.00 0.00 0.00 0.00 0.00 0.00 0.01 0.00 0.00 0.00 0.00 0.00 0.01 0.00 0.00 0.00 0.01 0.00 0.00 0.00 0.00 0.00 0.00 0.00 0.00 0.00 0.00 0.00 0.00 0.00 0.00 0.03 0.02 0.03 0.03 0.02 0.02 0.01 0.00
0.01 0.01 0.01 0.00 0.00 0.00 0.00 0.00 0.00 0.00 0.00 0.00 0.00 0.00 0.00 0.00 0.01 0.01 0.00 0.01 0.00 0.00 0.00 0.00 0.00 0.00 0.00 0.00 0.00 0.00 0.00 0.00 0.00 0.00 0.00 0.00 0.00 0.00 0.00 0.00 0.00 0.00 0.00
0.01 0.01 0.01 0.00 0.00 0.00 0.01 0.01 0.00 0.00 0.00 0.00 0.00 0.00 0.00 0.00 0.00 0.01 0.01 0.01 0.01 0.00 0.00 0.00 0.00 0.00 0.00 0.00 0.00 0.00 0.00 0.00 0.00 0.00 0.00 0.00 0.00 0.00 0.00 0.00 0.00 0.00 0.00
0.01 0.02 0.02 0.01 0.00 0.00 0.00 0.03 0.02 0.02 0.00 0.00 0.00 0.00 0.00 0.00 0.00 0.00 0.01 0.02 0.01 0.00 0.00 0.00 0.00 0.00 0.00 0.00 0.00 0.00 0.00 0.00 0.00 0.00 0.00 0.00 0.00 0.00 0.00 0.00 0.00 0.00 0.00
0.02 0.02 0.05 0.02 0.03 0.00 0.00 0.03 0.07 0.05 0.06 0.02 0.00 0.00 0.00 0.00 0.00 0.00 0.00 0.01 0.01 0.00 0.00 0.00 0.00 0.00 0.00 0.00 0.00 0.00 0.00 0.00 0.00 0.00 0.00 0.00 0.00 0.00 0.00 0.00 0.00 0.00 0.00
0.00 0.04 0.03 0.06 0.06 0.01 0.02 0.03 0.04 0.08 0.10 0.04 0.01 0.00 0.00 0.00 0.00 0.00 0.00 0.00 0.00 0.00 0.00 0.00 0.00 0.00 0.00 0.00 0.00 0.00 0.00 0.00 0.00 0.00 0.00 0.00 0.00 0.00 0.00 0.00 0.00 0.00 0.00
0.00 0.01 0.02 0.07 0.04 0.02 0.05 0.11 0.12 0.12 0.10 0.03 0.02 0.00 0.02 0.01 0.00 0.00 0.00 0.00 0.00 0.00 0.00 0.00 0.00 0.00 0.00 0.00 0.00 0.00 0.00 0.00 0.00 0.00 0.00 0.00 0.00 0.00 0.00 0.00 0.00 0.00 0.00
0.00 0.00 0.00 0.00 0.01 0.02 0.08 0.10 0.16 0.13 0.06 0.06 0.06 0.03 0.02 0.02 0.01 0.01 0.00 0.00 0.00 0.00 0.00 0.00 0.00 0.00 0.00 0.00 0.00 0.00 0.00 0.00 0.00 0.00 0.00 0.00 0.00 0.00 0.00 0.00 0.00 0.00 0.00
0.00 0.00 0.00 0.00 0.00 0.02 0.09 0.15 0.12 0.08 0.05 0.06 0.08 0.06 0.10 0.10 0.12 0.08 0.02 0.01 0.00 0.00 0.00 0.00 0.00 0.01 0.00 0.00 0.00 0.00 0.00 0.00 0.00 0.00 0.00 0.00 0.00 0.00 0.00 0.00 0.00 0.00 0.00
0.00 0.00 0.00 0.00 0.00 0.01 0.02 0.03 0.03 0.03 0.08 0.12 0.15 0.22 0.24 0.15 0.16 0.20 0.16 0.10 0.01 0.00 0.00 0.02 0.03 0.06 0.05 0.06 0.05 0.00 0.00 0.00 0.00 0.00 0.00 0.00 0.00 0.00 0.00 0.00 0.00 0.00 0.00
0.00 0.00 0.00 0.00 0.00 0.00 0.00 0.00 0.01 0.03 0.04 0.07 0.12 0.09 0.14 0.11 0.12 0.15 0.17 0.17 0.15 0.06 0.06 0.12 0.13 0.12 0.07 0.07 0.08 0.02 0.00 0.00 0.00 0.00 0.00 0.00 0.00 0.00 0.00 0.00 0.00 0.00 0.00
0.00 0.00 0.00 0.00 0.00 0.00 0.00 0.01 0.04 0.05 0.04 0.05 0.04 0.01 0.03 0.11 0.13 0.18 0.32 0.25 0.14 0.14 0.12 0.17 0.18 0.18 0.11 0.08 0.05 0.04 0.00 0.00 0.00 0.00 0.00 0.00 0.00 0.00 0.00 0.00 0.00 0.00 0.00
0.00 0.00 0.00 0.00 0.00 0.00 0.01 0.01 0.01 0.00 0.00 0.00 0.01 0.03 0.13 0.17 0.20 0.21 0.30 0.35 0.27 0.15 0.14 0.15 0.20 0.18 0.14 0.10 0.09 0.05 0.05 0.02 0.01 0.00 0.00 0.00 0.00 0.00 0.00 0.00 0.00 0.00 0.00
0.00 0.00 0.00 0.00 0.00 0.00 0.00 0.01 0.01 0.02 0.02 0.02 0.04 0.08 0.13 0.17 0.21 0.22 0.22 0.23 0.26 0.21 0.25 0.24 0.20 0.17 0.17 0.15 0.13 0.12 0.09 0.06 0.03 0.02 0.01 0.03 0.02 0.01 0.01 0.00 0.00 0.00 0.00
0.00 0.00 0.00 0.00 0.00 0.00 0.00 0.01 0.02 0.03 0.02 0.05 0.05 0.06 0.09 0.12 0.14 0.16 0.18 0.18 0.26 0.31 0.30 0.30 0.33 0.29 0.24 0.19 0.15 0.15 0.15 0.16 0.13 0.09 0.10 0.10 0.09 0.03 0.01 0.00 0.00 0.00 0.01

GFSSE_prec_precacc24_045.txt.gz
Total_Precipitation_Accumulation
0.00 0.00 0.02 0.03 0.04 0.03 0.04 0.03 0.03 0.04 0.07 0.09 0.07 0.05 0.03 0.00 0.00 0.00 0.00 0.01 0.03 0.03 0.06 0.09 0.09 0.05 0.03 0.01 0.00 0.00 0.00 0.00 0.00 0.00 0.00 0.00 0.00 0.00 0.00 0.00 0.00 0.00 0.00
0.00 0.00 0.01 0.03 0.04 0.04 0.05 0.04 0.05 0.04 0.11 0.08 0.07 0.07 0.02 0.00 0.00 0.00 0.01 0.02 0.02 0.06 0.19 0.24 0.17 0.11 0.03 0.00 0.00 0.00 0.00 0.00 0.00 0.00 0.00 0.00 0.00 0.00 0.00 0.00 0.00 0.00 0.00
0.00 0.00 0.01 0.02 0.03 0.04 0.04 0.03 0.05 0.06 0.09 0.07 0.07 0.02 0.00 0.00 0.00 0.00 0.01 0.04 0.08 0.13 0.14 0.07 0.02 0.00 0.00 0.00 0.00 0.00 0.00 0.00 0.00 0.00 0.00 0.00 0.00 0.00 0.00 0.00 0.00 0.00 0.00
0.00 0.00 0.01 0.02 0.03 0.03 0.01 0.02 0.04 0.08 0.09 0.06 0.02 0.00 0.00 0.00 0.01 0.02 0.04 0.07 0.06 0.03 0.01 0.00 0.00 0.00 0.00 0.00 0.00 0.00 0.00 0.00 0.00 0.00 0.00 0.00 0.00 0.00 0.00 0.00 0.00 0.01 0.01
0.00 0.00 0.00 0.02 0.03 0.01 0.01 0.01 0.04 0.08 0.06 0.04 0.01 0.00 0.00 0.00 0.02 0.04 0.03 0.01 0.00 0.00 0.00 0.00 0.00 0.00 0.00 0.00 0.00 0.00 0.00 0.00 0.00 0.00 0.00 0.00 0.00 0.01 0.01 0.01 0.03 0.07 0.07
0.00 0.00 0.01 0.01 0.01 0.00 0.01 0.01 0.04 0.06 0.06 0.04 0.01 0.00 0.00 0.00 0.02 0.01 0.00 0.00 0.00 0.00 0.00 0.00 0.00 0.00 0.00 0.00 0.00 0.00 0.00 0.00 0.00 0.00 0.00 0.00 0.00 0.01 0.03 0.04 0.06 0.10 0.11
0.00 0.00 0.00 0.01 0.01 0.00 0.01 0.01 0.02 0.04 0.06 0.03 0.00 0.00 0.00 0.00 0.01 0.00 0.00 0.00 0.00 0.00 0.00 0.00 0.00 0.00 0.00 0.00 0.00 0.00 0.00 0.00 0.00 0.00 0.00 0.00 0.00 0.00 0.01 0.02 0.02 0.03 0.06
0.00 0.00 0.00 0.01 0.00 0.00 0.01 0.01 0.02 0.03 0.05 0.02 0.00 0.00 0.00 0.00 0.01 0.00 0.00 0.00 0.00 0.01 0.00 0.02 0.03 0.00 0.00 0.00 0.00 0.00 0.00 0.00 0.00 0.00 0.00 0.00 0.00 0.00 0.01 0.01 0.01 0.03 0.01
0.00 0.00 0.00 0.00 0.00 0.00 0.00 0.00 0.02 0.03 0.05 0.03 0.01 0.00 0.00 0.00 0.00 0.00 0.00 0.00 0.00 0.01 0.04 0.06 0.01 0.00 0.00 0.00 0.00 0.00 0.00 0.00 0.00 0.00 0.00 0.00 0.00 0.00 0.01 0.02 0.03 0.04 0.02
0.00 0.00 0.00 0.00 0.00 0.00 0.00 0.00 0.01 0.02 0.03 0.02 0.01 0.01 0.00 0.00 0.00 0.00 0.00 0.00 0.01 0.05 0.03 0.00 0.00 0.00 0.00 0.00 0.00 0.00 0.00 0.00 0.00 0.00 0.00 0.00 0.01 0.05 0.09 0.09 0.09 0.08 0.04
0.01 0.00 0.00 0.00 0.00 0.00 0.00 0.00 0.00 0.01 0.01 0.01 0.01 0.01 0.00 0.00 0.00 0.00 0.00 0.00 0.02 0.03 0.00 0.00 0.00 0.00 0.00 0.00 0.00 0.00 0.00 0.00 0.00 0.00 0.00 0.01 0.05 0.08 0.08 0.06 0.04 0.02 0.01
0.01 0.00 0.00 0.00 0.00 0.00 0.00 0.00 0.00 0.00 0.01 0.00 0.00 0.00 0.00 0.00 0.01 0.00 0.00 0.00 0.01 0.00 0.00 0.00 0.00 0.00 0.00 0.00 0.00 0.00 0.00 0.00 0.00 0.00 0.00 0.03 0.02 0.03 0.02 0.02 0.01 0.00 0.00
0.00 0.00 0.00 0.00 0.00 0.00 0.00 0.00 0.00 0.00 0.00 0.00 0.00 0.00 0.00 0.00 0.01 0.01 0.00 0.01 0.00 0.00 0.00 0.00 0.00 0.00 0.00 0.00 0.00 0.00 0.00 0.00 0.00 0.00 0.00 0.00 0.01 0.00 0.00 0.00 0.00 0.00 0.00
0.00 0.00 0.00 0.00 0.00 0.00 0.01 0.01 0.00 0.00 0.00 0.00 0.00 0.00 0.00 0.00 0.00 0.01 0.01 0.01 0.01 0.00 0.00 0.00 0.00 0.00 0.00 0.00 0.00 0.00 0.00 0.00 0.00 0.00 0.00 0.00 0.00 0.00 0.00 0.00 0.00 0.00 0.00
0.00 0.00 0.01 0.00 0.00 0.00 0.00 0.01 0.02 0.02 0.00 0.00 0.00 0.00 0.00 0.00 0.00 0.00 0.01 0.02 0.01 0.00 0.00 0.00 0.00 0.00 0.00 0.00 0.00 0.00 0.00 0.00 0.00 0.00 0.00 0.00 0.00 0.00 0.00 0.00 0.00 0.00 0.00
0.01 0.00 0.01 0.01 0.01 0.00 0.00 0.03 0.06 0.05 0.06 0.02 0.00 0.00 0.00 0.00 0.00 0.00 0.00 0.01 0.01 0.00 0.00 0.00 0.00 0.00 0.00 0.00 0.00 0.00 0.00 0.00 0.00 0.00 0.00 0.00 0.00 0.00 0.00 0.00 0.00 0.00 0.00
0.00 0.03 0.01 0.02 0.03 0.01 0.01 0.02 0.04 0.07 0.09 0.04 0.01 0.00 0.00 0.00 0.00 0.00 0.00 0.00 0.00 0.00 0.00 0.00 0.00 0.00 0.00 0.00 0.00 0.00 0.00 0.00 0.00 0.00 0.00 0.00 0.00 0.00 0.00 0.00 0.00 0.00 0.00
0.00 0.01 0.02 0.04 0.01 0.00 0.01 0.03 0.09 0.11 0.10 0.02 0.02 0.00 0.02 0.01 0.00 0.00 0.00 0.00 0.00 0.00 0.00 0.00 0.00 0.00 0.00 0.00 0.00 0.00 0.00 0.00 0.00 0.00 0.00 0.00 0.00 0.00 0.00 0.00 0.00 0.00 0.00
0.00 0.00 0.00 0.00 0.00 0.00 0.02 0.04 0.12 0.10 0.05 0.05 0.06 0.03 0.02 0.02 0.01 0.01 0.00 0.00 0.00 0.00 0.00 0.00 0.00 0.00 0.00 0.00 0.00 0.00 0.00 0.00 0.00 0.00 0.00 0.00 0.00 0.00 0.00 0.00 0.00 0.00 0.00
0.00 0.00 0.00 0.00 0.00 0.00 0.02 0.08 0.06 0.04 0.03 0.04 0.08 0.06 0.10 0.10 0.12 0.08 0.02 0.01 0.00 0.00 0.00 0.00 0.00 0.01 0.00 0.00 0.01 0.00 0.00 0.00 0.00 0.00 0.00 0.00 0.00 0.00 0.00 0.00 0.00 0.00 0.00
0.00 0.00 0.00 0.00 0.00 0.00 0.00 0.01 0.01 0.02 0.05 0.10 0.14 0.23 0.27 0.18 0.19 0.21 0.16 0.10 0.02 0.00 0.01 0.03 0.06 0.12 0.12 0.14 0.12 0.01 0.00 0.00 0.00 0.00 0.00 0.00 0.00 0.00 0.00 0.00 0.00 0.00 0.00
0.00 0.00 0.00 0.00 0.00 0.00 0.00 0.00 0.00 0.00 0.00 0.03 0.08 0.09 0.14 0.12 0.14 0.17 0.19 0.20 0.16 0.07 0.06 0.13 0.15 0.15 0.10 0.16 0.16 0.04 0.00 0.00 0.00 0.00 0.00 0.00 0.00 0.00 0.00 0.00 0.00 0.00 0.00
0.00 0.00 0.00 0.00 0.00 0.00 0.00 0.00 0.01 0.02 0.01 0.01 0.01 0.00 0.03 0.11 0.13 0.19 0.32 0.25 0.14 0.14 0.12 0.18 0.18 0.19 0.15 0.13 0.11 0.08 0.01 0.00 0.00 0.00 0.00 0.00 0.00 0.00 0.00 0.01 0.01 0.00 0.00
0.00 0.00 0.00 0.00 0.00 0.00 0.00 0.00 0.00 0.00 0.00 0.00 0.00 0.01 0.06 0.12 0.18 0.21 0.30 0.35 0.26 0.15 0.14 0.15 0.20 0.19 0.15 0.11 0.11 0.08 0.08 0.02 0.01 0.00 0.01 0.01 0.01 0.00 0.01 0.01 0.01 0.00 0.00
0.00 0.00 0.00 0.00 0.00 0.00 0.00 0.00 0.00 0.01 0.01 0.01 0.01 0.01 0.06 0.12 0.16 0.19 0.22 0.22 0.25 0.20 0.25 0.24 0.20 0.17 0.17 0.17 0.14 0.14 0.13 0.11 0.05 0.04 0.05 0.05 0.04 0.03 0.02 0.01 0.01 0.01 0.01
0.00 0.00 0.00 0.00 0.00 0.00 0.00 0.00 0.00 0.00 0.00 0.01 0.02 0.03 0.05 0.08 0.11 0.13 0.16 0.17 0.25 0.30 0.30 0.31 0.33 0.30 0.25 0.19 0.16 0.17 0.17 0.18 0.15 0.12 0.14 0.11 0.11 0.10 0.08 0.07 0.05 0.04 0.03

GFSSE_prec_precacc24_048.txt.gz
Total_Precipitation_Accumulation
0.00 0.00 0.02 0.02 0.03 0.03 0.03 0.03 0.03 0.04 0.07 0.08 0.07 0.05 0.03 0.00 0.00 0.00 0.00 0.02 0.04 0.03 0.05 0.08 0.07 0.02 0.02 0.01 0.00 0.00 0.00 0.00 0.00 0.00 0.00 0.00 0.00 0.00 0.00 0.00 0.00 0.00 0.00
0.00 0.00 0.01 0.03 0.03 0.04 0.05 0.04 0.05 0.04 0.11 0.08 0.06 0.06 0.01 0.00 0.00 0.00 0.02 0.02 0.02 0.06 0.18 0.19 0.12 0.05 0.01 0.00 0.00 0.00 0.00 0.00 0.00 0.00 0.00 0.00 0.00 0.00 0.00 0.00 0.00 0.00 0.00
0.00 0.00 0.01 0.02 0.03 0.04 0.05 0.03 0.04 0.06 0.08 0.06 0.05 0.01 0.00 0.00 0.00 0.00 0.02 0.04 0.08 0.13 0.12 0.05 0.01 0.00 0.00 0.00 0.00 0.00 0.00 0.00 0.00 0.00 0.00 0.00 0.00 0.00 0.00 0.00 0.00 0.00 0.00
0.00 0.00 0.01 0.02 0.03 0.03 0.01 0.02 0.04 0.08 0.09 0.05 0.01 0.00 0.00 0.00 0.01 0.02 0.05 0.07 0.06 0.03 0.00 0.00 0.00 0.00 0.00 0.00 0.00 0.00 0.00 0.00 0.00 0.00 0.00 0.00 0.00 0.00 0.00 0.00 0.01 0.02 0.02
0.00 0.00 0.01 0.02 0.04 0.01 0.01 0.01 0.05 0.08 0.06 0.03 0.01 0.00 0.00 0.01 0.02 0.04 0.04 0.01 0.00 0.00 0.00 0.00 0.00 0.00 0.00 0.00 0.00 0.00 0.00 0.00 0.00 0.00 0.00 0.00 0.00 0.01 0.02 0.02 0.05 0.09 0.08
0.00 0.00 0.01 0.02 0.01 0.00 0.01 0.02 0.05 0.05 0.05 0.03 0.00 0.00 0.00 0.01 0.03 0.02 0.00 0.00 0.00 0.00 0.00 0.00 0.00 0.00 0.00 0.00 0.00 0.00 0.00 0.00 0.00 0.00 0.00 0.00 0.00 0.02 0.04 0.05 0.07 0.10 0.11
0.00 0.00 0.01 0.02 0.01 0.00 0.01 0.03 0.02 0.04 0.05 0.02 0.00 0.00 0.00 0.01 0.02 0.00 0.00 0.00 0.00 0.00 0.00 0.00 0.00 0.00 0.00 0.00 0.00 0.00 0.00 0.00 0.00 0.00 0.00 0.00 0.00 0.01 0.02 0.02 0.02 0.02 0.04
0.00 0.00 0.00 0.01 0.01 0.00 0.02 0.02 0.02 0.03 0.05 0.02 0.00 0.00 0.00 0.01 0.01 0.00 0.00 0.00 0.00 0.01 0.00 0.02 0.02 0.00 0.00 0.00 0.00 0.00 0.00 0.00 0.00 0.00 0.00 0.00 0.00 0.00 0.01 0.01 0.01 0.03 0.01
0.00 0.00 0.00 0.00 0.00 0.00 0.01 0.00 0.02 0.03 0.05 0.02 0.00 0.00 0.00 0.00 0.00 0.00 0.00 0.00 0.00 0.01 0.04 0.04 0.00 0.00 0.00 0.00 0.00 0.00 0.00 0.00 0.00 0.00 0.00 0.00 0.00 0.00 0.02 0.02 0.03 0.03 0.02
0.00 0.00 0.00 0.00 0.00 0.00 0.00 0.00 0.01 0.02 0.02 0.01 0.01 0.00 0.00 0.00 0.00 0.00 0.00 0.00 0.01 0.04 0.03 0.00 0.00 0.00 0.00 0.00 0.00 0.00 0.00 0.00 0.00 0.00 0.00 0.00 0.01 0.06 0.09 0.08 0.08 0.06 0.02
0.01 0.00 0.00 0.00 0.00 0.00 0.00 0.00 0.00 0.01 0.01 0.00 0.00 0.01 0.00 0.00 0.00 0.00 0.00 0.00 0.02 0.03 0.00 0.00 0.00 0.00 0.00 0.00 0.00 0.00 0.00 0.00 0.00 0.00 0.00 0.01 0.04 0.08 0.08 0.06 0.03 0.02 0.00
0.01 0.00 0.00 0.00 0.00 0.00 0.00 0.00 0.00 0.00 0.01 0.00 0.00 0.00 0.00 0.00 0.01 0.00 0.00 0.00 0.01 0.00 0.00 0.00 0.00 0.00 0.00 0.00 0.00 0.00 0.00 0.00 0.00 0.00 0.00 0.02 0.02 0.03 0.02 0.02 0.00 0.00 0.00
0.00 0.00 0.00 0.00 0.00 0.00 0.00 0.00 0.00 0.00 0.00 0.00 0.00 0.00 0.00 0.00 0.01 0.01 0.00 0.01 0.00 0.00 0.00 0.00 0.00 0.00 0.00 0.00 0.00 0.00 0.00 0.00 0.00 0.00 0.00 0.00 0.01 0.01 0.01 0.00 0.00 0.00 0.00
0.00 0.00 0.00 0.00 0.00 0.00 0.01 0.01 0.00 0.00 0.00 0.00 0.00 0.00 0.00 0.00 0.00 0.01 0.01 0.01 0.01 0.00 0.00 0.00 0.00 0.00 0.00 0.00 0.00 0.00 0.00 0.00 0.00 0.00 0.00 0.00 0.00 0.00 0.00 0.00 0.00 0.00 0.00
0.00 0.00 0.01 0.00 0.00 0.00 0.00 0.01 0.02 0.02 0.00 0.00 0.00 0.00 0.00 0.00 0.00 0.00 0.01 0.02 0.01 0.00 0.00 0.00 0.00 0.00 0.00 0.00 0.00 0.00 0.00 0.00 0.00 0.00 0.00 0.00 0.00 0.00 0.00 0.00 0.00 0.00 0.00
0.00 0.00 0.00 0.01 0.01 0.00 0.00 0.03 0.05 0.03 0.05 0.02 0.00 0.00 0.00 0.00 0.00 0.00 0.00 0.01 0.01 0.00 0.00 0.00 0.00 0.00 0.00 0.00 0.00 0.00 0.00 0.00 0.00 0.00 0.00 0.00 0.00 0.00 0.00 0.00 0.00 0.00 0.00
0.00 0.00 0.00 0.00 0.01 0.00 0.01 0.01 0.02 0.06 0.08 0.04 0.01 0.00 0.00 0.00 0.00 0.00 0.00 0.00 0.00 0.00 0.00 0.00 0.00 0.00 0.00 0.00 0.00 0.00 0.00 0.00 0.00 0.00 0.00 0.00 0.00 0.00 0.00 0.00 0.00 0.00 0.00
0.00 0.01 0.01 0.01 0.00 0.00 0.00 0.01 0.05 0.07 0.06 0.01 0.01 0.00 0.02 0.01 0.00 0.00 0.00 0.00 0.00 0.00 0.00 0.00 0.00 0.00 0.00 0.00 0.00 0.00 0.00 0.00 0.00 0.00 0.00 0.00 0.00 0.00 0.00 0.00 0.00 0.00 0.00
0.00 0.00 0.00 0.00 0.00 0.00 0.04 0.03 0.09 0.06 0.03 0.03 0.04 0.02 0.01 0.02 0.01 0.01 0.00 0.00 0.00 0.00 0.00 0.00 0.00 0.00 0.00 0.00 0.00 0.00 0.00 0.00 0.00 0.00 0.00 0.00 0.00 0.00 0.00 0.00 0.00 0.00 0.00
0.00 0.00 0.00 0.00 0.00 0.00 0.02 0.03 0.04 0.04 0.03 0.04 0.06 0.05 0.09 0.10 0.12 0.08 0.02 0.01 0.00 0.00 0.00 0.00 0.00 0.01 0.00 0.01 0.01 0.00 0.01 0.01 0.00 0.00 0.00 0.01 0.00 0.00 0.00 0.00 0.00 0.00 0.00
0.00 0.00 0.00 0.00 0.00 0.00 0.00 0.00 0.01 0.02 0.05 0.08 0.12 0.20 0.24 0.18 0.18 0.19 0.15 0.10 0.02 0.00 0.01 0.03 0.06 0.12 0.14 0.18 0.15 0.01 0.01 0.00 0.00 0.00 0.00 0.00 0.00 0.00 0.00 0.00 0.00 0.00 0.00
0.00 0.00 0.00 0.00 0.00 0.00 0.00 0.00 0.00 0.00 0.00 0.02 0.06 0.07 0.10 0.11 0.12 0.15 0.18 0.19 0.16 0.07 0.06 0.13 0.15 0.15 0.10 0.17 0.17 0.05 0.00 0.00 0.00 0.00 0.00 0.00 0.00 0.00 0.00 0.00 0.00 0.00 0.00
0.00 0.00 0.00 0.00 0.00 0.00 0.00 0.00 0.00 0.00 0.00 0.01 0.00 0.00 0.01 0.08 0.13 0.18 0.28 0.24 0.13 0.13 0.12 0.18 0.18 0.20 0.15 0.13 0.11 0.10 0.01 0.00 0.00 0.00 0.00 0.00 0.00 0.00 0.00 0.01 0.01 0.00 0.00
0.00 0.00 0.00 0.00 0.00 0.00 0.00 0.00 0.00 0.00 0.00 0.00 0.00 0.00 0.01 0.04 0.12 0.16 0.26 0.34 0.26 0.15 0.13 0.15 0.20 0.19 0.16 0.12 0.12 0.08 0.08 0.03 0.02 0.01 0.01 0.01 0.01 0.00 0.01 0.01 0.01 0.00 0.00
0.00 0.00 0.00 0.00 0.00 0.00 0.00 0.00 0.00 0.00 0.00 0.00 0.00 0.00 0.01 0.05 0.07 0.10 0.16 0.19 0.22 0.19 0.24 0.24 0.20 0.17 0.18 0.18 0.15 0.15 0.13 0.11 0.06 0.05 0.06 0.05 0.04 0.03 0.02 0.01 0.01 0.01 0.01
0.00 0.00 0.00 0.00 0.00 0.00 0.00 0.00 0.00 0.00 0.00 0.00 0.00 0.01 0.01 0.02 0.06 0.08 0.12 0.13 0.20 0.26 0.29 0.30 0.32 0.30 0.26 0.21 0.16 0.17 0.18 0.18 0.15 0.12 0.14 0.11 0.11 0.10 0.08 0.07 0.05 0.04 0.03

GFSSE_prec_precacc24_051.txt.gz
Total_Precipitation_Accumulation
0.00 0.00 0.01 0.02 0.03 0.03 0.03 0.03 0.02 0.03 0.05 0.07 0.05 0.03 0.02 0.00 0.00 0.00 0.00 0.02 0.04 0.03 0.05 0.08 0.03 0.01 0.02 0.00 0.00 0.00 0.00 0.00 0.00 0.00 0.00 0.00 0.00 0.00 0.00 0.00 0.00 0.00 0.01
0.00 0.00 0.00 0.03 0.02 0.03 0.05 0.04 0.05 0.03 0.09 0.07 0.05 0.05 0.01 0.00 0.00 0.01 0.02 0.02 0.02 0.06 0.12 0.12 0.04 0.01 0.00 0.00 0.00 0.00 0.00 0.00 0.00 0.00 0.00 0.00 0.00 0.00 0.00 0.00 0.00 0.00 0.01
0.00 0.00 0.00 0.02 0.02 0.03 0.05 0.03 0.04 0.05 0.07 0.06 0.04 0.01 0.00 0.00 0.00 0.01 0.02 0.04 0.08 0.12 0.10 0.04 0.01 0.00 0.00 0.00 0.00 0.00 0.00 0.00 0.00 0.00 0.00 0.00 0.00 0.00 0.00 0.00 0.00 0.00 0.00
0.00 0.00 0.01 0.01 0.03 0.03 0.01 0.01 0.03 0.07 0.07 0.04 0.01 0.00 0.00 0.00 0.01 0.03 0.05 0.07 0.06 0.02 0.00 0.00 0.00 0.00 0.00 0.00 0.00 0.00 0.00 0.00 0.00 0.00 0.00 0.00 0.00 0.00 0.01 0.02 0.02 0.03 0.03
0.00 0.00 0.01 0.02 0.04 0.02 0.01 0.01 0.04 0.07 0.04 0.02 0.00 0.00 0.00 0.01 0.03 0.06 0.05 0.01 0.00 0.00 0.00 0.00 0.00 0.00 0.00 0.00 0.00 0.00 0.00 0.00 0.00 0.00 0.00 0.00 0.00 0.01 0.03 0.03 0.06 0.10 0.09
0.00 0.00 0.02 0.03 0.02 0.01 0.01 0.02 0.05 0.05 0.04 0.02 0.00 0.00 0.01 0.02 0.04 0.03 0.00 0.00 0.00 0.00 0.00 0.00 0.00 0.00 0.00 0.00 0.00 0.00 0.00 0.00 0.00 0.00 0.00 0.00 0.00 0.05 0.05 0.05 0.07 0.09 0.10
0.00 0.00 0.01 0.03 0.01 0.00 0.01 0.03 0.02 0.04 0.04 0.01 0.00 0.00 0.01 0.03 0.03 0.00 0.00 0.00 0.00 0.00 0.00 0.00 0.00 0.00 0.00 0.00 0.00 0.00 0.00 0.00 0.00 0.00 0.00 0.00 0.00 0.03 0.03 0.02 0.02 0.02 0.03
0.00 0.00 0.00 0.02 0.01 0.00 0.02 0.03 0.01 0.03 0.04 0.02 0.00 0.00 0.01 0.02 0.02 0.00 0.00 0.00 0.00 0.00 0.00 0.02 0.00 0.00 0.00 0.00 0.00 0.00 0.00 0.00 0.00 0.00 0.00 0.00 0.00 0.01 0.02 0.01 0.01 0.03 0.01
0.00 0.00 0.00 0.01 0.00 0.00 0.02 0.01 0.02 0.03 0.04 0.02 0.00 0.00 0.00 0.00 0.01 0.01 0.00 0.00 0.00 0.00 0.03 0.02 0.00 0.00 0.00 0.00 0.00 0.00 0.00 0.00 0.00 0.00 0.00 0.00 0.00 0.00 0.02 0.02 0.03 0.03 0.01
0.00 0.00 0.00 0.00 0.00 0.00 0.02 0.01 0.02 0.02 0.02 0.01 0.00 0.00 0.00 0.00 0.00 0.00 0.00 0.00 0.01 0.03 0.02 0.00 0.00 0.00 0.00 0.00 0.00 0.00 0.00 0.00 0.00 0.00 0.00 0.00 0.01 0.05 0.08 0.07 0.06 0.04 0.00
0.00 0.00 0.00 0.00 0.00 0.00 0.00 0.01 0.01 0.01 0.01 0.00 0.00 0.00 0.00 0.00 0.00 0.00 0.00 0.00 0.02 0.02 0.00 0.00 0.00 0.00 0.00 0.00 0.00 0.00 0.00 0.00 0.00 0.00 0.00 0.01 0.03 0.08 0.08 0.05 0.02 0.01 0.00
0.00 0.00 0.00 0.00 0.00 0.00 0.00 0.00 0.00 0.00 0.01 0.00 0.00 0.00 0.00 0.00 0.01 0.00 0.00 0.00 0.01 0.00 0.00 0.00 0.00 0.00 0.00 0.00 0.00 0.00 0.00 0.00 0.00 0.00 0.00 0.02 0.01 0.04 0.04 0.02 0.00 0.00 0.00
0.00 0.00 0.00 0.00 0.00 0.00 0.00 0.00 0.00 0.00 0.00 0.00 0.00 0.00 0.00 0.00 0.01 0.01 0.00 0.00 0.00 0.00 0.00 0.00 0.00 0.00 0.00 0.00 0.00 0.00 0.00 0.00 0.00 0.00 0.00 0.00 0.01 0.03 0.03 0.01 0.00 0.00 0.00
0.00 0.00 0.00 0.00 0.00 0.00 0.00 0.00 0.00 0.00 0.00 0.00 0.00 0.00 0.00 0.00 0.00 0.01 0.01 0.01 0.01 0.00 0.00 0.00 0.00 0.00 0.00 0.00 0.00 0.00 0.00 0.00 0.00 0.00 0.00 0.00 0.00 0.00 0.00 0.00 0.00 0.00 0.00
0.00 0.00 0.00 0.00 0.00 0.00 0.00 0.00 0.01 0.01 0.00 0.00 0.00 0.00 0.00 0.00 0.00 0.00 0.01 0.02 0.01 0.00 0.00 0.00 0.00 0.00 0.00 0.00 0.00 0.00 0.00 0.00 0.00 0.00 0.00 0.00 0.00 0.00 0.00 0.00 0.00 0.00 0.00
0.02 0.00 0.00 0.00 0.00 0.00 0.00 0.01 0.00 0.01 0.02 0.00 0.00 0.00 0.00 0.00 0.00 0.00 0.00 0.01 0.01 0.00 0.00 0.00 0.00 0.00 0.00 0.00 0.00 0.00 0.00 0.00 0.00 0.00 0.00 0.00 0.00 0.00 0.00 0.00 0.00 0.00 0.00
0.04 0.00 0.00 0.00 0.00 0.00 0.00 0.00 0.00 0.03 0.04 0.01 0.00 0.00 0.00 0.00 0.00 0.00 0.00 0.00 0.00 0.00 0.00 0.00 0.00 0.00 0.00 0.00 0.00 0.00 0.00 0.00 0.00 0.00 0.00 0.00 0.00 0.00 0.00 0.00 0.00 0.00 0.00
0.04 0.02 0.00 0.00 0.00 0.00 0.00 0.00 0.01 0.01 0.00 0.00 0.01 0.00 0.02 0.01 0.00 0.00 0.00 0.00 0.00 0.00 0.00 0.00 0.00 0.00 0.00 0.00 0.00 0.00 0.00 0.00 0.00 0.00 0.00 0.00 0.00 0.00 0.00 0.00 0.00 0.00 0.00
0.03 0.01 0.00 0.00 0.00 0.00 0.04 0.01 0.03 0.03 0.01 0.00 0.01 0.01 0.00 0.01 0.01 0.01 0.00 0.00 0.00 0.00 0.00 0.00 0.00 0.00 0.00 0.00 0.00 0.00 0.01 0.01 0.00 0.00 0.00 0.02 0.00 0.00 0.00 0.00 0.00 0.00 0.00
0.00 0.00 0.00 0.00 0.00 0.00 0.01 0.01 0.03 0.03 0.03 0.03 0.03 0.03 0.06 0.07 0.09 0.08 0.02 0.01 0.00 0.00 0.00 0.00 0.00 0.01 0.00 0.01 0.01 0.00 0.02 0.01 0.00 0.00 0.01 0.01 0.01 0.00 0.00 0.00 0.00 0.00 0.00
0.00 0.00 0.00 0.00 0.00 0.00 0.00 0.00 0.00 0.01 0.04 0.08 0.11 0.16 0.16 0.14 0.14 0.19 0.15 0.10 0.02 0.00 0.01 0.03 0.06 0.12 0.14 0.18 0.15 0.01 0.01 0.00 0.00 0.00 0.00 0.00 0.00 0.00 0.00 0.00 0.00 0.00 0.00
0.00 0.00 0.00 0.00 0.00 0.00 0.00 0.00 0.00 0.00 0.00 0.01 0.03 0.06 0.07 0.09 0.09 0.14 0.14 0.17 0.16 0.07 0.06 0.13 0.15 0.15 0.10 0.17 0.17 0.05 0.00 0.00 0.00 0.00 0.00 0.00 0.00 0.00 0.00 0.00 0.00 0.00 0.00
0.00 0.00 0.00 0.00 0.00 0.00 0.00 0.00 0.00 0.00 0.00 0.00 0.00 0.00 0.01 0.05 0.09 0.13 0.17 0.15 0.13 0.14 0.12 0.18 0.19 0.20 0.16 0.13 0.11 0.10 0.02 0.00 0.00 0.00 0.00 0.00 0.00 0.00 0.00 0.01 0.01 0.00 0.00
0.00 0.00 0.00 0.00 0.00 0.00 0.00 0.00 0.00 0.00 0.00 0.00 0.00 0.00 0.00 0.01 0.06 0.12 0.16 0.20 0.21 0.14 0.13 0.15 0.20 0.19 0.16 0.12 0.12 0.08 0.08 0.03 0.03 0.01 0.01 0.01 0.01 0.00 0.01 0.01 0.01 0.00 0.00
0.00 0.00 0.00 0.00 0.00 0.00 0.00 0.00 0.00 0.00 0.00 0.00 0.00 0.00 0.00 0.01 0.03 0.06 0.08 0.09 0.14 0.16 0.21 0.23 0.20 0.17 0.18 0.18 0.15 0.15 0.13 0.11 0.06 0.05 0.06 0.05 0.04 0.03 0.02 0.01 0.01 0.01 0.01
0.00 0.00 0.00 0.00 0.00 0.00 0.00 0.00 0.00 0.00 0.00 0.00 0.00 0.00 0.00 0.00 0.02 0.04 0.08 0.07 0.12 0.18 0.22 0.25 0.30 0.29 0.26 0.22 0.17 0.17 0.18 0.18 0.15 0.12 0.14 0.11 0.11 0.10 0.08 0.07 0.05 0.04 0.03

GFSSE_prec_precacc24_054.txt.gz
Total_Precipitation_Accumulation
0.00 0.00 0.01 0.02 0.02 0.02 0.03 0.04 0.03 0.04 0.05 0.05 0.04 0.03 0.01 0.00 0.00 0.00 0.01 0.02 0.04 0.03 0.06 0.04 0.01 0.01 0.01 0.00 0.00 0.00 0.00 0.00 0.00 0.00 0.00 0.00 0.00 0.00 0.00 0.00 0.00 0.01 0.01
0.00 0.00 0.00 0.03 0.03 0.03 0.05 0.05 0.04 0.03 0.07 0.06 0.04 0.05 0.01 0.00 0.00 0.01 0.02 0.02 0.02 0.05 0.08 0.04 0.00 0.00 0.00 0.00 0.00 0.00 0.00 0.00 0.00 0.00 0.00 0.00 0.00 0.00 0.00 0.00 0.00 0.00 0.02
0.00 0.00 0.01 0.02 0.03 0.04 0.05 0.04 0.04 0.05 0.06 0.05 0.04 0.01 0.00 0.00 0.01 0.01 0.02 0.04 0.08 0.09 0.07 0.02 0.00 0.00 0.00 0.00 0.00 0.00 0.00 0.00 0.00 0.00 0.00 0.00 0.00 0.00 0.00 0.00 0.00 0.00 0.01
0.00 0.00 0.01 0.02 0.03 0.04 0.01 0.01 0.03 0.06 0.06 0.03 0.00 0.00 0.00 0.00 0.02 0.03 0.05 0.07 0.05 0.02 0.00 0.00 0.00 0.00 0.00 0.00 0.00 0.00 0.00 0.00 0.00 0.00 0.00 0.00 0.00 0.01 0.02 0.03 0.03 0.05 0.05
0.00 0.00 0.01 0.02 0.04 0.02 0.01 0.01 0.04 0.06 0.03 0.01 0.00 0.00 0.00 0.01 0.04 0.06 0.05 0.01 0.00 0.00 0.00 0.00 0.00 0.00 0.00 0.00 0.00 0.00 0.00 0.00 0.00 0.00 0.00 0.00 0.01 0.02 0.04 0.04 0.07 0.10 0.09
0.00 0.00 0.02 0.03 0.02 0.01 0.01 0.02 0.05 0.04 0.03 0.02 0.00 0.00 0.01 0.02 0.05 0.03 0.00 0.00 0.00 0.00 0.00 0.00 0.00 0.00 0.00 0.00 0.00 0.00 0.00 0.00 0.00 0.00 0.00 0.00 0.01 0.06 0.06 0.05 0.07 0.07 0.08
0.00 0.00 0.02 0.04 0.01 0.01 0.02 0.04 0.02 0.03 0.03 0.01 0.00 0.00 0.02 0.04 0.04 0.01 0.00 0.00 0.00 0.00 0.00 0.00 0.00 0.00 0.00 0.00 0.00 0.00 0.00 0.00 0.00 0.00 0.00 0.00 0.00 0.04 0.04 0.02 0.02 0.01 0.01
0.00 0.01 0.01 0.03 0.01 0.00 0.03 0.03 0.01 0.02 0.03 0.01 0.00 0.01 0.03 0.03 0.02 0.00 0.00 0.00 0.00 0.00 0.00 0.00 0.00 0.00 0.00 0.00 0.00 0.00 0.00 0.00 0.00 0.00 0.00 0.00 0.00 0.01 0.02 0.01 0.01 0.02 0.00
0.00 0.01 0.00 0.01 0.00 0.00 0.03 0.01 0.02 0.03 0.03 0.01 0.00 0.00 0.00 0.00 0.01 0.01 0.00 0.00 0.00 0.00 0.01 0.00 0.00 0.00 0.00 0.00 0.00 0.00 0.00 0.00 0.00 0.00 0.00 0.00 0.00 0.00 0.03 0.02 0.02 0.01 0.00
0.00 0.01 0.00 0.01 0.00 0.00 0.03 0.02 0.02 0.02 0.02 0.01 0.00 0.00 0.00 0.00 0.00 0.00 0.00 0.00 0.00 0.01 0.01 0.00 0.00 0.00 0.00 0.00 0.00 0.00 0.00 0.00 0.00 0.00 0.00 0.00 0.01 0.03 0.08 0.05 0.03 0.02 0.00
0.00 0.00 0.00 0.00 0.00 0.00 0.02 0.01 0.01 0.01 0.01 0.00 0.00 0.00 0.00 0.00 0.00 0.00 0.00 0.00 0.01 0.02 0.00 0.00 0.00 0.00 0.00 0.00 0.00 0.00 0.00 0.00 0.00 0.00 0.00 0.01 0.02 0.07 0.09 0.05 0.02 0.01 0.00
0.00 0.00 0.00 0.00 0.00 0.00 0.01 0.00 0.00 0.00 0.01 0.00 0.00 0.00 0.00 0.00 0.00 0.00 0.00 0.00 0.01 0.00 0.00 0.00 0.00 0.00 0.00 0.00 0.00 0.00 0.00 0.00 0.00 0.00 0.00 0.01 0.01 0.04 0.07 0.03 0.00 0.00 0.00
0.00 0.00 0.00 0.00 0.00 0.00 0.00 0.00 0.00 0.00 0.00 0.00 0.00 0.00 0.00 0.00 0.00 0.00 0.00 0.00 0.00 0.00 0.00 0.00 0.00 0.00 0.00 0.00 0.00 0.00 0.00 0.00 0.00 0.00 0.00 0.00 0.01 0.03 0.05 0.01 0.00 0.00 0.00
0.00 0.00 0.00 0.00 0.00 0.00 0.00 0.00 0.00 0.00 0.00 0.00 0.00 0.00 0.00 0.00 0.00 0.00 0.00 0.00 0.00 0.00 0.00 0.00 0.00 0.00 0.00 0.00 0.00 0.00 0.00 0.00 0.00 0.00 0.00 0.00 0.00 0.00 0.01 0.00 0.00 0.00 0.00
0.00 0.00 0.00 0.00 0.00 0.00 0.00 0.00 0.00 0.00 0.00 0.00 0.00 0.00 0.00 0.00 0.00 0.00 0.01 0.01 0.00 0.00 0.00 0.00 0.00 0.00 0.00 0.00 0.00 0.00 0.00 0.00 0.00 0.00 0.00 0.00 0.00 0.00 0.00 0.00 0.00 0.00 0.00
0.05 0.01 0.00 0.00 0.00 0.00 0.00 0.00 0.00 0.00 0.00 0.00 0.00 0.00 0.00 0.00 0.00 0.00 0.00 0.00 0.01 0.00 0.00 0.00 0.00 0.00 0.00 0.00 0.00 0.00 0.00 0.00 0.00 0.00 0.00 0.00 0.00 0.00 0.00 0.00 0.00 0.00 0.00
0.10 0.03 0.00 0.00 0.00 0.00 0.00 0.00 0.00 0.00 0.00 0.00 0.00 0.00 0.00 0.00 0.00 0.00 0.00 0.00 0.00 0.00 0.00 0.00 0.00 0.00 0.00 0.00 0.00 0.00 0.00 0.00 0.00 0.00 0.00 0.00 0.00 0.00 0.00 0.00 0.00 0.00 0.00
0.07 0.07 0.04 0.00 0.00 0.00 0.00 0.00 0.00 0.00 0.00 0.00 0.00 0.00 0.00 0.00 0.00 0.00 0.00 0.00 0.00 0.00 0.00 0.00 0.00 0.00 0.00 0.00 0.00 0.00 0.00 0.00 0.00 0.00 0.00 0.00 0.00 0.00 0.00 0.00 0.00 0.00 0.00
0.06 0.07 0.06 0.05 0.02 0.01 0.04 0.01 0.02 0.02 0.01 0.00 0.00 0.00 0.00 0.00 0.00 0.00 0.00 0.00 0.00 0.00 0.00 0.00 0.00 0.00 0.00 0.00 0.00 0.00 0.01 0.01 0.00 0.00 0.00 0.02 0.01 0.00 0.00 0.00 0.00 0.00 0.00
0.01 0.02 0.04 0.03 0.03 0.04 0.02 0.01 0.02 0.02 0.03 0.03 0.03 0.03 0.03 0.03 0.05 0.04 0.01 0.01 0.00 0.00 0.00 0.00 0.01 0.01 0.00 0.01 0.01 0.00 0.02 0.01 0.00 0.00 0.01 0.01 0.01 0.01 0.00 0.00 0.00 0.00 0.00
0.00 0.00 0.00 0.01 0.01 0.00 0.00 0.00 0.00 0.00 0.04 0.08 0.11 0.13 0.13 0.12 0.11 0.15 0.09 0.07 0.02 0.00 0.01 0.03 0.06 0.12 0.14 0.18 0.15 0.01 0.01 0.00 0.00 0.00 0.00 0.00 0.00 0.00 0.00 0.00 0.00 0.00 0.00
0.00 0.00 0.00 0.00 0.00 0.00 0.00 0.00 0.00 0.00 0.00 0.00 0.02 0.04 0.07 0.08 0.08 0.10 0.11 0.14 0.14 0.06 0.07 0.13 0.15 0.15 0.10 0.17 0.17 0.05 0.00 0.00 0.00 0.00 0.00 0.00 0.00 0.00 0.00 0.00 0.00 0.00 0.00
0.00 0.00 0.00 0.00 0.00 0.00 0.00 0.00 0.00 0.00 0.00 0.00 0.00 0.00 0.01 0.05 0.08 0.11 0.12 0.10 0.10 0.13 0.12 0.19 0.19 0.21 0.17 0.13 0.11 0.10 0.02 0.00 0.00 0.00 0.00 0.00 0.00 0.00 0.00 0.01 0.01 0.00 0.00
0.00 0.00 0.00 0.00 0.00 0.00 0.00 0.00 0.00 0.00 0.00 0.00 0.00 0.00 0.00 0.00 0.01 0.07 0.13 0.17 0.16 0.12 0.11 0.14 0.20 0.19 0.16 0.12 0.12 0.08 0.08 0.03 0.03 0.01 0.01 0.01 0.01 0.00 0.01 0.01 0.01 0.00 0.00
0.00 0.00 0.00 0.00 0.00 0.00 0.00 0.00 0.00 0.00 0.00 0.00 0.00 0.00 0.00 0.00 0.00 0.01 0.04 0.04 0.10 0.14 0.19 0.20 0.18 0.17 0.18 0.18 0.15 0.15 0.13 0.11 0.06 0.06 0.06 0.05 0.04 0.03 0.02 0.01 0.01 0.01 0.01
0.00 0.00 0.00 0.00 0.00 0.00 0.00 0.00 0.00 0.00 0.00 0.00 0.00 0.00 0.00 0.00 0.01 0.02 0.03 0.04 0.07 0.12 0.19 0.22 0.24 0.25 0.24 0.22 0.18 0.17 0.18 0.18 0.15 0.12 0.14 0.11 0.11 0.10 0.08 0.07 0.05 0.04 0.03

GFSSE_prec_precacc24_057.txt.gz
Total_Precipitation_Accumulation
0.00 0.00 0.01 0.01 0.02 0.02 0.03 0.04 0.05 0.06 0.06 0.04 0.02 0.01 0.01 0.01 0.01 0.00 0.01 0.02 0.04 0.03 0.04 0.04 0.03 0.01 0.00 0.00 0.00 0.00 0.00 0.00 0.00 0.00 0.00 0.00 0.00 0.00 0.00 0.00 0.00 0.01 0.01
0.00 0.00 0.01 0.02 0.02 0.03 0.05 0.06 0.05 0.04 0.06 0.05 0.03 0.03 0.02 0.02 0.00 0.01 0.02 0.02 0.02 0.04 0.03 0.01 0.00 0.00 0.00 0.00 0.00 0.00 0.00 0.00 0.00 0.00 0.00 0.00 0.00 0.00 0.00 0.00 0.00 0.01 0.03
0.00 0.00 0.01 0.02 0.03 0.04 0.06 0.04 0.03 0.04 0.06 0.04 0.03 0.01 0.02 0.01 0.01 0.01 0.02 0.03 0.05 0.05 0.03 0.00 0.00 0.00 0.00 0.00 0.00 0.00 0.00 0.00 0.00 0.00 0.00 0.00 0.00 0.00 0.00 0.00 0.01 0.02 0.05
0.00 0.00 0.01 0.02 0.03 0.04 0.01 0.02 0.02 0.05 0.05 0.02 0.00 0.00 0.01 0.01 0.02 0.03 0.05 0.06 0.04 0.01 0.00 0.00 0.00 0.00 0.00 0.00 0.00 0.00 0.00 0.00 0.00 0.00 0.00 0.00 0.00 0.02 0.03 0.04 0.05 0.06 0.05
0.00 0.00 0.01 0.02 0.04 0.02 0.00 0.01 0.03 0.05 0.02 0.01 0.00 0.00 0.01 0.02 0.04 0.06 0.05 0.01 0.00 0.00 0.00 0.00 0.00 0.00 0.00 0.00 0.00 0.00 0.00 0.00 0.00 0.00 0.00 0.00 0.01 0.03 0.05 0.04 0.07 0.10 0.09
0.00 0.00 0.02 0.03 0.03 0.01 0.01 0.02 0.05 0.03 0.02 0.01 0.00 0.00 0.02 0.05 0.06 0.03 0.00 0.00 0.00 0.00 0.00 0.00 0.00 0.00 0.00 0.00 0.00 0.00 0.00 0.00 0.00 0.00 0.00 0.00 0.02 0.07 0.06 0.05 0.06 0.06 0.05
0.00 0.00 0.02 0.04 0.02 0.00 0.01 0.04 0.01 0.02 0.02 0.00 0.00 0.00 0.03 0.06 0.04 0.01 0.00 0.00 0.00 0.00 0.00 0.00 0.00 0.00 0.00 0.00 0.00 0.00 0.00 0.00 0.00 0.00 0.00 0.00 0.00 0.05 0.04 0.02 0.02 0.00 0.00
0.00 0.01 0.01 0.04 0.02 0.01 0.03 0.03 0.01 0.01 0.02 0.00 0.00 0.02 0.06 0.04 0.03 0.00 0.00 0.00 0.00 0.00 0.00 0.00 0.00 0.00 0.00 0.00 0.00 0.00 0.00 0.00 0.00 0.00 0.00 0.00 0.00 0.01 0.02 0.01 0.01 0.00 0.00
0.00 0.01 0.01 0.02 0.01 0.01 0.04 0.01 0.02 0.02 0.02 0.00 0.00 0.01 0.01 0.00 0.01 0.01 0.00 0.00 0.00 0.00 0.00 0.00 0.00 0.00 0.00 0.00 0.00 0.00 0.00 0.00 0.00 0.00 0.00 0.00 0.00 0.00 0.03 0.02 0.01 0.01 0.00
0.01 0.01 0.01 0.01 0.00 0.01 0.04 0.02 0.02 0.02 0.01 0.00 0.00 0.00 0.00 0.00 0.00 0.00 0.00 0.00 0.00 0.01 0.00 0.00 0.00 0.00 0.00 0.00 0.00 0.00 0.00 0.00 0.00 0.00 0.00 0.00 0.00 0.02 0.07 0.03 0.02 0.01 0.00
0.01 0.01 0.01 0.01 0.00 0.01 0.03 0.01 0.02 0.01 0.00 0.00 0.00 0.00 0.00 0.00 0.00 0.00 0.00 0.00 0.01 0.01 0.00 0.00 0.00 0.00 0.00 0.00 0.00 0.00 0.00 0.00 0.00 0.00 0.00 0.00 0.01 0.06 0.09 0.04 0.02 0.01 0.00
0.00 0.01 0.01 0.01 0.00 0.01 0.02 0.00 0.01 0.00 0.00 0.00 0.00 0.00 0.00 0.00 0.00 0.00 0.00 0.00 0.00 0.00 0.00 0.00 0.00 0.00 0.00 0.00 0.00 0.00 0.00 0.00 0.00 0.00 0.00 0.00 0.01 0.04 0.08 0.03 0.00 0.00 0.00
0.00 0.00 0.00 0.01 0.00 0.01 0.01 0.00 0.00 0.00 0.00 0.00 0.00 0.00 0.00 0.00 0.00 0.00 0.00 0.00 0.00 0.00 0.00 0.00 0.00 0.00 0.00 0.00 0.00 0.00 0.00 0.00 0.00 0.00 0.00 0.00 0.01 0.03 0.05 0.01 0.00 0.00 0.00
0.00 0.00 0.00 0.00 0.00 0.01 0.01 0.00 0.00 0.00 0.00 0.00 0.00 0.00 0.00 0.00 0.00 0.00 0.00 0.00 0.00 0.00 0.00 0.00 0.00 0.00 0.00 0.00 0.00 0.00 0.00 0.00 0.00 0.00 0.00 0.00 0.00 0.00 0.01 0.00 0.00 0.00 0.00
0.01 0.00 0.00 0.00 0.00 0.00 0.00 0.00 0.00 0.00 0.00 0.00 0.00 0.00 0.00 0.00 0.00 0.00 0.00 0.00 0.00 0.00 0.00 0.00 0.00 0.00 0.00 0.00 0.00 0.00 0.00 0.00 0.00 0.00 0.00 0.00 0.00 0.00 0.00 0.00 0.00 0.00 0.00
0.06 0.03 0.01 0.00 0.00 0.00 0.00 0.00 0.00 0.00 0.00 0.00 0.00 0.00 0.00 0.00 0.00 0.00 0.00 0.00 0.00 0.00 0.00 0.00 0.00 0.00 0.00 0.00 0.00 0.00 0.00 0.00 0.00 0.00 0.00 0.00 0.00 0.00 0.00 0.00 0.00 0.00 0.00
0.10 0.07 0.02 0.00 0.00 0.00 0.00 0.00 0.00 0.00 0.00 0.00 0.00 0.00 0.00 0.00 0.00 0.00 0.00 0.00 0.00 0.00 0.00 0.00 0.00 0.00 0.00 0.00 0.00 0.00 0.00 0.00 0.00 0.00 0.00 0.00 0.00 0.00 0.00 0.00 0.00 0.00 0.00
0.07 0.07 0.04 0.00 0.00 0.00 0.00 0.00 0.00 0.00 0.00 0.00 0.00 0.00 0.00 0.00 0.00 0.00 0.00 0.00 0.00 0.00 0.00 0.00 0.00 0.00 0.00 0.00 0.00 0.00 0.00 0.00 0.00 0.00 0.00 0.00 0.00 0.00 0.00 0.00 0.00 0.00 0.00
0.06 0.07 0.06 0.05 0.02 0.01 0.04 0.00 0.01 0.00 0.01 0.00 0.00 0.00 0.00 0.00 0.00 0.00 0.00 0.00 0.00 0.00 0.00 0.00 0.00 0.00 0.00 0.00 0.00 0.00 0.01 0.01 0.00 0.00 0.00 0.02 0.01 0.00 0.00 0.00 0.00 0.00 0.00
0.01 0.02 0.04 0.03 0.03 0.04 0.02 0.01 0.02 0.01 0.02 0.03 0.03 0.03 0.03 0.03 0.05 0.03 0.01 0.01 0.01 0.00 0.00 0.01 0.01 0.03 0.01 0.01 0.02 0.00 0.02 0.01 0.00 0.00 0.01 0.01 0.01 0.01 0.00 0.00 0.00 0.00 0.00
0.00 0.00 0.00 0.01 0.01 0.00 0.00 0.00 0.00 0.00 0.04 0.07 0.11 0.12 0.13 0.12 0.11 0.14 0.09 0.07 0.02 0.01 0.01 0.04 0.07 0.12 0.14 0.18 0.15 0.01 0.01 0.00 0.00 0.00 0.00 0.00 0.00 0.00 0.00 0.00 0.00 0.00 0.00
0.00 0.00 0.00 0.00 0.00 0.00 0.00 0.00 0.00 0.00 0.00 0.00 0.01 0.03 0.06 0.08 0.08 0.10 0.11 0.14 0.14 0.07 0.07 0.14 0.16 0.16 0.11 0.17 0.18 0.05 0.00 0.00 0.00 0.00 0.00 0.00 0.00 0.00 0.00 0.00 0.00 0.00 0.00
0.00 0.00 0.00 0.00 0.00 0.00 0.00 0.00 0.00 0.00 0.00 0.00 0.00 0.00 0.00 0.05 0.08 0.10 0.12 0.09 0.09 0.12 0.10 0.19 0.21 0.23 0.19 0.14 0.12 0.10 0.02 0.00 0.00 0.00 0.00 0.00 0.00 0.00 0.00 0.01 0.01 0.00 0.00
0.00 0.00 0.00 0.00 0.00 0.00 0.00 0.00 0.00 0.00 0.00 0.00 0.00 0.00 0.00 0.00 0.01 0.03 0.07 0.11 0.13 0.09 0.07 0.12 0.19 0.17 0.16 0.12 0.11 0.08 0.08 0.03 0.03 0.02 0.01 0.01 0.01 0.00 0.01 0.01 0.01 0.00 0.00
0.00 0.00 0.00 0.00 0.00 0.00 0.00 0.00 0.00 0.00 0.00 0.00 0.00 0.00 0.00 0.00 0.00 0.00 0.00 0.02 0.06 0.10 0.10 0.14 0.16 0.14 0.15 0.17 0.14 0.15 0.13 0.12 0.06 0.06 0.06 0.05 0.04 0.03 0.02 0.01 0.01 0.01 0.01
0.00 0.00 0.00 0.00 0.00 0.00 0.00 0.00 0.00 0.00 0.00 0.00 0.00 0.00 0.00 0.00 0.01 0.01 0.02 0.03 0.04 0.07 0.13 0.16 0.20 0.20 0.19 0.19 0.17 0.18 0.18 0.18 0.15 0.12 0.14 0.11 0.11 0.10 0.08 0.07 0.05 0.04 0.03

GFSSE_prec_precacc24_060.txt.gz
Total_Precipitation_Accumulation
0.00 0.00 0.01 0.01 0.02 0.02 0.03 0.04 0.06 0.07 0.05 0.02 0.01 0.01 0.03 0.03 0.01 0.00 0.01 0.02 0.04 0.05 0.08 0.04 0.03 0.01 0.00 0.00 0.00 0.00 0.00 0.00 0.00 0.00 0.00 0.00 0.00 0.00 0.00 0.00 0.01 0.01 0.01
0.00 0.00 0.01 0.02 0.02 0.04 0.04 0.05 0.05 0.04 0.05 0.04 0.02 0.05 0.05 0.02 0.01 0.01 0.02 0.02 0.02 0.02 0.01 0.01 0.00 0.00 0.00 0.00 0.00 0.00 0.00 0.00 0.00 0.00 0.00 0.00 0.00 0.00 0.00 0.00 0.01 0.03 0.05
0.00 0.00 0.01 0.02 0.03 0.05 0.05 0.04 0.03 0.04 0.04 0.02 0.02 0.03 0.02 0.01 0.01 0.01 0.02 0.02 0.04 0.03 0.01 0.01 0.00 0.00 0.00 0.00 0.00 0.00 0.00 0.00 0.00 0.00 0.00 0.00 0.00 0.00 0.00 0.01 0.02 0.03 0.06
0.00 0.00 0.01 0.02 0.04 0.04 0.02 0.01 0.02 0.04 0.03 0.01 0.00 0.02 0.02 0.01 0.02 0.03 0.05 0.04 0.02 0.01 0.00 0.00 0.00 0.00 0.00 0.00 0.00 0.00 0.00 0.00 0.00 0.00 0.00 0.00 0.00 0.03 0.04 0.04 0.05 0.06 0.05
0.00 0.00 0.01 0.03 0.05 0.02 0.00 0.01 0.03 0.04 0.01 0.00 0.00 0.01 0.02 0.02 0.04 0.06 0.04 0.01 0.00 0.00 0.00 0.00 0.00 0.00 0.00 0.00 0.00 0.00 0.00 0.00 0.00 0.00 0.00 0.01 0.01 0.03 0.05 0.04 0.07 0.10 0.09
0.00 0.00 0.02 0.03 0.03 0.01 0.01 0.02 0.03 0.02 0.01 0.00 0.00 0.01 0.04 0.05 0.06 0.03 0.00 0.00 0.00 0.00 0.00 0.00 0.00 0.00 0.00 0.00 0.00 0.00 0.00 0.00 0.00 0.00 0.00 0.00 0.02 0.07 0.06 0.05 0.05 0.04 0.03
0.00 0.00 0.02 0.04 0.02 0.00 0.01 0.04 0.01 0.01 0.01 0.00 0.00 0.01 0.05 0.06 0.04 0.01 0.00 0.00 0.00 0.00 0.00 0.00 0.00 0.00 0.00 0.00 0.00 0.00 0.00 0.00 0.00 0.00 0.00 0.00 0.00 0.05 0.04 0.02 0.01 0.00 0.00
0.00 0.01 0.01 0.04 0.02 0.01 0.03 0.03 0.01 0.01 0.01 0.00 0.00 0.03 0.07 0.04 0.03 0.00 0.00 0.00 0.00 0.00 0.00 0.00 0.00 0.00 0.00 0.00 0.00 0.00 0.00 0.00 0.00 0.00 0.00 0.00 0.00 0.01 0.02 0.01 0.00 0.00 0.00
0.00 0.01 0.01 0.02 0.01 0.01 0.04 0.01 0.02 0.01 0.01 0.00 0.00 0.02 0.02 0.00 0.01 0.01 0.00 0.00 0.00 0.00 0.00 0.00 0.00 0.00 0.00 0.00 0.00 0.00 0.00 0.00 0.00 0.00 0.00 0.00 0.00 0.00 0.03 0.01 0.00 0.00 0.00
0.01 0.01 0.01 0.01 0.00 0.01 0.04 0.03 0.02 0.01 0.00 0.00 0.00 0.00 0.00 0.00 0.00 0.00 0.00 0.00 0.00 0.01 0.00 0.00 0.00 0.00 0.00 0.00 0.00 0.00 0.00 0.00 0.00 0.00 0.00 0.00 0.00 0.01 0.06 0.02 0.01 0.01 0.00
0.01 0.01 0.02 0.01 0.00 0.01 0.03 0.01 0.02 0.00 0.00 0.00 0.00 0.00 0.00 0.00 0.00 0.00 0.00 0.00 0.01 0.01 0.00 0.00 0.00 0.00 0.00 0.00 0.00 0.00 0.00 0.00 0.00 0.00 0.00 0.00 0.01 0.05 0.09 0.03 0.01 0.01 0.00
0.01 0.02 0.02 0.01 0.00 0.01 0.02 0.00 0.01 0.00 0.00 0.00 0.00 0.00 0.00 0.00 0.00 0.00 0.00 0.00 0.00 0.00 0.00 0.00 0.00 0.00 0.00 0.00 0.00 0.00 0.00 0.00 0.00 0.00 0.00 0.00 0.01 0.04 0.08 0.04 0.00 0.00 0.00
0.01 0.02 0.01 0.01 0.01 0.02 0.02 0.00 0.00 0.00 0.00 0.00 0.00 0.00 0.00 0.00 0.00 0.00 0.00 0.00 0.00 0.00 0.00 0.00 0.00 0.00 0.00 0.00 0.00 0.00 0.00 0.00 0.00 0.00 0.00 0.00 0.01 0.03 0.05 0.01 0.00 0.00 0.00
0.00 0.00 0.01 0.01 0.01 0.02 0.01 0.00 0.00 0.00 0.00 0.00 0.00 0.00 0.00 0.00 0.00 0.00 0.00 0.00 0.00 0.00 0.00 0.00 0.00 0.00 0.00 0.00 0.00 0.00 0.00 0.00 0.00 0.00 0.00 0.00 0.00 0.00 0.01 0.00 0.00 0.00 0.00
0.04 0.02 0.01 0.00 0.00 0.00 0.01 0.01 0.00 0.00 0.00 0.00 0.00 0.00 0.00 0.00 0.00 0.00 0.00 0.00 0.00 0.00 0.00 0.00 0.00 0.00 0.00 0.00 0.00 0.00 0.00 0.00 0.00 0.00 0.00 0.00 0.00 0.00 0.00 0.00 0.00 0.00 0.00
0.10 0.09 0.04 0.00 0.00 0.00 0.01 0.00 0.00 0.00 0.00 0.00 0.00 0.00 0.00 0.00 0.00 0.00 0.00 0.00 0.00 0.00 0.00 0.00 0.00 0.00 0.00 0.00 0.00 0.00 0.00 0.00 0.00 0.00 0.00 0.00 0.00 0.00 0.00 0.00 0.00 0.00 0.00
0.11 0.10 0.07 0.02 0.01 0.00 0.00 0.00 0.00 0.00 0.00 0.00 0.00 0.00 0.00 0.00 0.00 0.00 0.00 0.00 0.00 0.00 0.00 0.00 0.00 0.00 0.00 0.00 0.00 0.00 0.00 0.00 0.00 0.00 0.00 0.00 0.00 0.00 0.00 0.00 0.00 0.00 0.00
0.09 0.07 0.05 0.02 0.01 0.01 0.00 0.00 0.00 0.00 0.00 0.00 0.00 0.00 0.00 0.00 0.00 0.00 0.00 0.00 0.00 0.00 0.00 0.00 0.00 0.00 0.00 0.00 0.00 0.00 0.00 0.00 0.00 0.00 0.00 0.00 0.00 0.00 0.00 0.00 0.00 0.00 0.00
0.06 0.07 0.06 0.05 0.02 0.01 0.03 0.00 0.00 0.00 0.00 0.00 0.00 0.00 0.00 0.00 0.00 0.00 0.00 0.00 0.00 0.00 0.00 0.00 0.00 0.00 0.00 0.01 0.01 0.00 0.01 0.01 0.00 0.00 0.00 0.02 0.01 0.00 0.00 0.00 0.00 0.00 0.00
0.01 0.03 0.04 0.03 0.03 0.04 0.02 0.01 0.01 0.01 0.01 0.02 0.03 0.02 0.03 0.03 0.03 0.02 0.00 0.00 0.01 0.00 0.00 0.01 0.02 0.03 0.01 0.01 0.02 0.00 0.02 0.01 0.00 0.00 0.01 0.01 0.01 0.01 0.00 0.00 0.00 0.00 0.00
0.01 0.01 0.00 0.02 0.01 0.00 0.00 0.00 0.00 0.00 0.04 0.06 0.08 0.10 0.12 0.11 0.11 0.12 0.07 0.04 0.02 0.01 0.01 0.04 0.07 0.13 0.14 0.19 0.15 0.01 0.01 0.00 0.00 0.00 0.00 0.00 0.00 0.00 0.00 0.00 0.00 0.00 0.00
0.01 0.05 0.00 0.00 0.00 0.00 0.00 0.00 0.00 0.00 0.01 0.00 0.01 0.02 0.03 0.05 0.07 0.09 0.09 0.09 0.11 0.06 0.06 0.13 0.16 0.16 0.12 0.18 0.19 0.06 0.00 0.00 0.00 0.00 0.00 0.00 0.00 0.00 0.00 0.00 0.00 0.00 0.00
0.00 0.02 0.06 0.02 0.00 0.00 0.00 0.00 0.00 0.03 0.02 0.02 0.01 0.00 0.00 0.01 0.03 0.07 0.09 0.07 0.06 0.10 0.08 0.12 0.19 0.23 0.19 0.14 0.12 0.10 0.02 0.00 0.00 0.00 0.00 0.00 0.00 0.00 0.00 0.01 0.01 0.00 0.00
0.00 0.00 0.02 0.08 0.06 0.03 0.02 0.03 0.09 0.09 0.04 0.02 0.00 0.00 0.00 0.00 0.00 0.00 0.02 0.06 0.08 0.07 0.04 0.03 0.11 0.15 0.15 0.11 0.11 0.08 0.08 0.04 0.03 0.02 0.01 0.01 0.01 0.00 0.01 0.01 0.01 0.00 0.00
0.00 0.00 0.00 0.01 0.02 0.03 0.02 0.01 0.02 0.02 0.01 0.00 0.00 0.00 0.00 0.00 0.00 0.00 0.00 0.01 0.03 0.07 0.07 0.07 0.08 0.11 0.13 0.16 0.12 0.13 0.12 0.12 0.06 0.07 0.07 0.05 0.04 0.03 0.02 0.01 0.01 0.01 0.01
0.00 0.00 0.00 0.00 0.00 0.00 0.00 0.00 0.00 0.00 0.00 0.00 0.00 0.00 0.00 0.00 0.00 0.01 0.01 0.02 0.03 0.05 0.09 0.12 0.13 0.16 0.16 0.17 0.15 0.15 0.16 0.16 0.14 0.11 0.14 0.11 0.11 0.10 0.08 0.07 0.05 0.04 0.03

GFSSE_prec_precacc24_063.txt.gz
Total_Precipitation_Accumulation
0.00 0.00 0.01 0.01 0.02 0.02 0.03 0.05 0.06 0.08 0.04 0.02 0.01 0.05 0.04 0.03 0.01 0.00 0.01 0.03 0.08 0.07 0.07 0.04 0.03 0.01 0.00 0.00 0.00 0.00 0.00 0.00 0.00 0.00 0.00 0.00 0.00 0.00 0.00 0.01 0.02 0.02 0.02
0.00 0.00 0.01 0.02 0.02 0.04 0.05 0.05 0.05 0.04 0.04 0.03 0.04 0.05 0.04 0.02 0.01 0.01 0.02 0.02 0.02 0.01 0.01 0.01 0.00 0.00 0.00 0.00 0.00 0.00 0.00 0.00 0.00 0.00 0.00 0.00 0.00 0.00 0.01 0.01 0.02 0.04 0.05
0.00 0.00 0.01 0.02 0.03 0.05 0.05 0.04 0.04 0.03 0.03 0.02 0.01 0.02 0.02 0.01 0.01 0.01 0.01 0.02 0.03 0.02 0.01 0.01 0.00 0.00 0.00 0.00 0.00 0.00 0.00 0.00 0.00 0.00 0.00 0.00 0.00 0.02 0.01 0.01 0.02 0.03 0.06
0.00 0.00 0.01 0.02 0.04 0.04 0.02 0.01 0.02 0.03 0.02 0.00 0.01 0.02 0.02 0.01 0.02 0.03 0.03 0.03 0.01 0.00 0.00 0.00 0.00 0.00 0.00 0.00 0.00 0.00 0.00 0.00 0.00 0.00 0.00 0.00 0.01 0.04 0.04 0.04 0.05 0.06 0.05
0.00 0.00 0.01 0.03 0.05 0.02 0.00 0.00 0.01 0.02 0.00 0.00 0.01 0.02 0.02 0.02 0.04 0.05 0.03 0.01 0.00 0.00 0.00 0.00 0.00 0.00 0.00 0.00 0.00 0.00 0.00 0.00 0.00 0.00 0.00 0.01 0.01 0.03 0.04 0.03 0.06 0.09 0.07
0.00 0.00 0.02 0.04 0.03 0.01 0.01 0.01 0.02 0.00 0.00 0.00 0.01 0.02 0.04 0.05 0.05 0.03 0.00 0.00 0.00 0.00 0.00 0.00 0.00 0.00 0.00 0.00 0.00 0.00 0.00 0.00 0.00 0.00 0.00 0.00 0.02 0.07 0.05 0.04 0.03 0.03 0.02
0.00 0.00 0.02 0.05 0.02 0.00 0.01 0.03 0.01 0.00 0.00 0.00 0.00 0.03 0.05 0.06 0.04 0.01 0.00 0.00 0.00 0.00 0.00 0.00 0.00 0.00 0.00 0.00 0.00 0.00 0.00 0.00 0.00 0.00 0.00 0.00 0.00 0.05 0.04 0.02 0.01 0.00 0.00
0.00 0.01 0.01 0.04 0.02 0.01 0.03 0.03 0.00 0.00 0.00 0.00 0.01 0.05 0.07 0.04 0.03 0.00 0.00 0.00 0.00 0.00 0.00 0.00 0.00 0.00 0.00 0.00 0.00 0.00 0.00 0.00 0.00 0.00 0.00 0.00 0.00 0.01 0.02 0.00 0.00 0.00 0.00
0.00 0.01 0.01 0.02 0.01 0.01 0.04 0.01 0.01 0.01 0.00 0.00 0.00 0.03 0.02 0.00 0.01 0.01 0.00 0.00 0.00 0.00 0.00 0.00 0.00 0.00 0.00 0.00 0.00 0.00 0.00 0.00 0.00 0.00 0.00 0.00 0.00 0.00 0.02 0.01 0.00 0.00 0.00
0.01 0.01 0.01 0.01 0.00 0.01 0.04 0.03 0.02 0.01 0.00 0.00 0.00 0.00 0.00 0.00 0.00 0.00 0.00 0.00 0.00 0.00 0.00 0.00 0.00 0.00 0.00 0.00 0.00 0.00 0.00 0.00 0.00 0.00 0.00 0.00 0.00 0.01 0.05 0.01 0.01 0.01 0.00
0.01 0.01 0.02 0.01 0.00 0.01 0.03 0.01 0.02 0.00 0.00 0.00 0.00 0.00 0.00 0.00 0.00 0.00 0.00 0.00 0.01 0.00 0.00 0.00 0.00 0.00 0.00 0.00 0.00 0.00 0.00 0.00 0.00 0.00 0.00 0.00 0.00 0.04 0.08 0.02 0.01 0.01 0.00
0.05 0.04 0.02 0.02 0.00 0.01 0.02 0.00 0.01 0.00 0.00 0.00 0.00 0.00 0.00 0.00 0.00 0.00 0.00 0.00 0.00 0.00 0.00 0.00 0.00 0.00 0.00 0.00 0.00 0.00 0.00 0.00 0.00 0.00 0.00 0.00 0.01 0.03 0.08 0.04 0.00 0.00 0.00
0.16 0.09 0.03 0.02 0.01 0.02 0.02 0.00 0.00 0.00 0.00 0.00 0.00 0.00 0.00 0.00 0.00 0.00 0.00 0.00 0.00 0.00 0.00 0.00 0.00 0.00 0.00 0.00 0.00 0.00 0.00 0.00 0.00 0.00 0.00 0.00 0.01 0.03 0.05 0.01 0.00 0.00 0.00
0.07 0.04 0.03 0.02 0.02 0.02 0.01 0.00 0.00 0.00 0.00 0.00 0.00 0.00 0.00 0.00 0.00 0.00 0.00 0.00 0.00 0.00 0.00 0.00 0.00 0.00 0.00 0.00 0.00 0.00 0.00 0.00 0.00 0.00 0.00 0.00 0.00 0.00 0.01 0.00 0.00 0.00 0.00
0.14 0.04 0.02 0.01 0.02 0.01 0.01 0.01 0.00 0.00 0.00 0.00 0.00 0.00 0.00 0.00 0.00 0.00 0.00 0.00 0.00 0.00 0.00 0.00 0.00 0.00 0.00 0.00 0.00 0.00 0.00 0.00 0.00 0.00 0.00 0.00 0.00 0.00 0.00 0.00 0.00 0.00 0.00
0.22 0.11 0.04 0.01 0.01 0.01 0.01 0.01 0.00 0.00 0.00 0.00 0.00 0.00 0.00 0.00 0.00 0.00 0.00 0.00 0.00 0.00 0.00 0.00 0.00 0.00 0.00 0.00 0.00 0.00 0.00 0.00 0.00 0.00 0.00 0.00 0.00 0.00 0.00 0.00 0.00 0.00 0.01
0.18 0.18 0.08 0.02 0.02 0.01 0.01 0.00 0.00 0.00 0.00 0.00 0.00 0.00 0.00 0.00 0.00 0.00 0.00 0.00 0.00 0.00 0.00 0.00 0.00 0.00 0.00 0.00 0.00 0.00 0.00 0.00 0.00 0.00 0.00 0.00 0.00 0.00 0.00 0.00 0.00 0.00 0.00
0.18 0.11 0.09 0.04 0.08 0.02 0.01 0.00 0.00 0.00 0.00 0.00 0.00 0.00 0.00 0.00 0.00 0.00 0.00 0.00 0.00 0.00 0.00 0.00 0.00 0.00 0.00 0.00 0.00 0.00 0.00 0.00 0.00 0.00 0.00 0.00 0.00 0.00 0.00 0.00 0.00 0.00 0.00
0.08 0.08 0.09 0.06 0.07 0.02 0.03 0.00 0.01 0.01 0.00 0.01 0.00 0.00 0.00 0.00 0.00 0.00 0.00 0.00 0.00 0.00 0.00 0.00 0.00 0.00 0.00 0.01 0.01 0.00 0.01 0.01 0.00 0.00 0.00 0.02 0.01 0.00 0.00 0.00 0.00 0.00 0.00
0.08 0.05 0.09 0.03 0.03 0.04 0.02 0.01 0.01 0.01 0.01 0.00 0.00 0.01 0.02 0.02 0.02 0.01 0.00 0.00 0.01 0.00 0.00 0.01 0.02 0.03 0.01 0.01 0.02 0.00 0.02 0.01 0.00 0.00 0.01 0.01 0.01 0.01 0.00 0.00 0.00 0.00 0.00
0.07 0.15 0.12 0.09 0.03 0.00 0.00 0.00 0.00 0.00 0.02 0.03 0.03 0.06 0.08 0.09 0.09 0.06 0.03 0.01 0.01 0.01 0.01 0.03 0.05 0.13 0.14 0.19 0.16 0.02 0.01 0.00 0.00 0.00 0.00 0.00 0.00 0.00 0.00 0.00 0.00 0.00 0.00
0.05 0.12 0.10 0.12 0.07 0.01 0.00 0.00 0.00 0.00 0.01 0.00 0.01 0.01 0.01 0.02 0.04 0.06 0.05 0.04 0.05 0.04 0.04 0.06 0.12 0.15 0.11 0.17 0.19 0.06 0.01 0.00 0.00 0.00 0.00 0.00 0.00 0.00 0.00 0.00 0.00 0.00 0.00
0.00 0.03 0.07 0.09 0.05 0.07 0.00 0.01 0.02 0.03 0.03 0.04 0.04 0.00 0.00 0.01 0.02 0.03 0.03 0.01 0.01 0.03 0.03 0.06 0.10 0.15 0.16 0.13 0.12 0.10 0.03 0.00 0.00 0.00 0.00 0.00 0.00 0.00 0.00 0.01 0.01 0.00 0.00
0.00 0.00 0.02 0.16 0.18 0.08 0.06 0.09 0.21 0.19 0.12 0.08 0.04 0.00 0.00 0.00 0.00 0.00 0.00 0.00 0.01 0.01 0.01 0.01 0.03 0.07 0.09 0.07 0.09 0.06 0.07 0.05 0.04 0.02 0.00 0.00 0.00 0.00 0.01 0.01 0.01 0.00 0.00
0.00 0.00 0.00 0.06 0.11 0.19 0.24 0.24 0.18 0.13 0.09 0.05 0.03 0.01 0.01 0.00 0.00 0.00 0.00 0.00 0.01 0.02 0.02 0.02 0.02 0.04 0.06 0.11 0.08 0.09 0.09 0.10 0.06 0.07 0.06 0.03 0.03 0.03 0.02 0.01 0.01 0.01 0.01
0.00 0.00 0.00 0.00 0.01 0.05 0.07 0.09 0.10 0.08 0.05 0.04 0.03 0.02 0.00 0.00 0.00 0.00 0.00 0.00 0.01 0.03 0.04 0.04 0.05 0.07 0.08 0.10 0.10 0.10 0.11 0.12 0.10 0.09 0.12 0.10 0.09 0.09 0.08 0.07 0.05 0.04 0.03

GFSSE_prec_precacc24_066.txt.gz
Total_Precipitation_Accumulation
0.00 0.00 0.01 0.01 0.01 0.02 0.03 0.05 0.06 0.07 0.04 0.03 0.04 0.05 0.04 0.03 0.01 0.03 0.06 0.05 0.08 0.06 0.06 0.04 0.03 0.01 0.00 0.00 0.00 0.00 0.00 0.00 0.00 0.00 0.00 0.00 0.00 0.01 0.01 0.01 0.03 0.02 0.02
0.00 0.00 0.01 0.02 0.02 0.05 0.04 0.05 0.04 0.04 0.05 0.07 0.05 0.05 0.04 0.02 0.01 0.02 0.03 0.02 0.00 0.01 0.01 0.01 0.00 0.00 0.00 0.00 0.00 0.00 0.00 0.00 0.00 0.00 0.00 0.00 0.01 0.01 0.01 0.01 0.03 0.04 0.05
0.00 0.00 0.01 0.02 0.03 0.05 0.05 0.04 0.03 0.04 0.05 0.02 0.01 0.02 0.02 0.01 0.01 0.01 0.01 0.02 0.01 0.01 0.01 0.01 0.00 0.00 0.00 0.00 0.00 0.00 0.00 0.00 0.00 0.00 0.00 0.00 0.01 0.02 0.01 0.01 0.02 0.03 0.06
0.00 0.00 0.01 0.02 0.04 0.04 0.02 0.01 0.02 0.03 0.01 0.00 0.01 0.02 0.02 0.01 0.01 0.01 0.02 0.01 0.00 0.01 0.00 0.00 0.00 0.00 0.00 0.00 0.00 0.00 0.00 0.00 0.00 0.00 0.00 0.00 0.01 0.03 0.04 0.04 0.05 0.06 0.05
0.00 0.00 0.02 0.03 0.05 0.02 0.00 0.00 0.01 0.02 0.00 0.00 0.01 0.02 0.02 0.02 0.04 0.04 0.02 0.00 0.00 0.00 0.00 0.00 0.00 0.00 0.00 0.00 0.00 0.00 0.00 0.00 0.00 0.00 0.00 0.01 0.01 0.03 0.04 0.03 0.05 0.07 0.04
0.00 0.00 0.02 0.05 0.03 0.01 0.01 0.01 0.02 0.00 0.00 0.00 0.01 0.02 0.04 0.05 0.05 0.03 0.00 0.00 0.00 0.00 0.00 0.00 0.00 0.00 0.00 0.00 0.00 0.00 0.00 0.00 0.00 0.00 0.00 0.00 0.02 0.07 0.04 0.02 0.02 0.01 0.01
0.00 0.00 0.03 0.06 0.03 0.01 0.01 0.03 0.00 0.00 0.00 0.01 0.01 0.03 0.05 0.06 0.04 0.01 0.00 0.00 0.00 0.00 0.00 0.00 0.00 0.00 0.00 0.00 0.00 0.00 0.00 0.00 0.00 0.00 0.00 0.00 0.00 0.05 0.03 0.01 0.00 0.00 0.00
0.00 0.01 0.02 0.05 0.02 0.01 0.03 0.02 0.00 0.00 0.00 0.01 0.02 0.05 0.07 0.04 0.02 0.00 0.00 0.00 0.00 0.00 0.00 0.00 0.00 0.00 0.00 0.00 0.00 0.00 0.00 0.00 0.00 0.00 0.00 0.00 0.00 0.01 0.02 0.00 0.00 0.00 0.00
0.00 0.01 0.02 0.02 0.01 0.01 0.04 0.01 0.00 0.00 0.00 0.01 0.01 0.03 0.02 0.00 0.01 0.01 0.00 0.00 0.00 0.00 0.00 0.00 0.00 0.00 0.00 0.00 0.00 0.00 0.00 0.00 0.00 0.00 0.00 0.00 0.00 0.00 0.02 0.00 0.00 0.00 0.00
0.01 0.01 0.01 0.02 0.00 0.01 0.04 0.03 0.01 0.01 0.00 0.00 0.00 0.00 0.00 0.00 0.00 0.00 0.00 0.00 0.00 0.00 0.00 0.00 0.00 0.00 0.00 0.00 0.00 0.00 0.00 0.00 0.00 0.00 0.00 0.00 0.00 0.01 0.04 0.01 0.00 0.00 0.00
0.04 0.02 0.02 0.01 0.00 0.01 0.03 0.01 0.02 0.00 0.00 0.00 0.00 0.00 0.00 0.00 0.00 0.00 0.00 0.00 0.00 0.00 0.00 0.00 0.00 0.00 0.00 0.00 0.00 0.00 0.00 0.00 0.00 0.00 0.00 0.00 0.00 0.03 0.07 0.02 0.01 0.01 0.00
0.08 0.05 0.03 0.02 0.00 0.01 0.02 0.00 0.01 0.00 0.00 0.00 0.00 0.00 0.00 0.00 0.00 0.00 0.00 0.00 0.00 0.00 0.00 0.00 0.00 0.00 0.00 0.00 0.00 0.00 0.00 0.00 0.00 0.00 0.00 0.00 0.00 0.03 0.08 0.04 0.00 0.00 0.00
0.44 0.15 0.03 0.02 0.01 0.02 0.02 0.00 0.00 0.00 0.00 0.00 0.00 0.00 0.00 0.00 0.00 0.00 0.00 0.00 0.00 0.00 0.00 0.00 0.00 0.00 0.00 0.00 0.00 0.00 0.00 0.00 0.00 0.00 0.00 0.00 0.01 0.03 0.05 0.01 0.00 0.00 0.00
0.46 0.27 0.10 0.02 0.03 0.02 0.01 0.00 0.00 0.00 0.00 0.00 0.00 0.00 0.00 0.00 0.00 0.00 0.00 0.00 0.00 0.00 0.00 0.00 0.00 0.00 0.00 0.00 0.00 0.00 0.00 0.00 0.00 0.00 0.00 0.00 0.00 0.00 0.01 0.00 0.00 0.00 0.00
0.44 0.37 0.19 0.08 0.02 0.01 0.01 0.02 0.01 0.00 0.00 0.00 0.00 0.00 0.00 0.00 0.00 0.00 0.00 0.00 0.00 0.00 0.00 0.00 0.00 0.00 0.00 0.00 0.00 0.00 0.00 0.00 0.00 0.00 0.00 0.00 0.00 0.00 0.00 0.00 0.01 0.01 0.01
0.31 0.30 0.23 0.12 0.07 0.02 0.02 0.02 0.00 0.00 0.00 0.00 0.00 0.00 0.00 0.00 0.00 0.00 0.00 0.00 0.00 0.00 0.00 0.00 0.00 0.00 0.00 0.00 0.00 0.00 0.00 0.00 0.00 0.00 0.00 0.00 0.00 0.00 0.00 0.00 0.00 0.00 0.01
0.29 0.31 0.20 0.13 0.15 0.10 0.03 0.01 0.00 0.00 0.00 0.00 0.00 0.00 0.00 0.00 0.00 0.00 0.00 0.00 0.00 0.00 0.00 0.00 0.00 0.00 0.00 0.00 0.00 0.00 0.00 0.00 0.00 0.00 0.00 0.00 0.00 0.00 0.00 0.00 0.00 0.00 0.00
0.30 0.20 0.14 0.06 0.09 0.06 0.03 0.01 0.01 0.01 0.00 0.00 0.00 0.00 0.00 0.00 0.00 0.00 0.00 0.00 0.00 0.00 0.00 0.00 0.00 0.00 0.00 0.00 0.00 0.00 0.00 0.00 0.00 0.00 0.00 0.00 0.00 0.00 0.00 0.00 0.00 0.00 0.00
0.13 0.18 0.15 0.14 0.13 0.04 0.03 0.01 0.02 0.03 0.01 0.01 0.01 0.00 0.00 0.00 0.00 0.00 0.00 0.00 0.00 0.00 0.00 0.00 0.00 0.00 0.00 0.01 0.01 0.00 0.01 0.01 0.00 0.00 0.00 0.02 0.01 0.00 0.00 0.00 0.00 0.00 0.00
0.14 0.18 0.27 0.11 0.07 0.08 0.04 0.01 0.02 0.02 0.03 0.01 0.01 0.00 0.00 0.01 0.00 0.00 0.00 0.00 0.00 0.00 0.00 0.01 0.02 0.02 0.01 0.01 0.02 0.01 0.02 0.01 0.00 0.00 0.01 0.01 0.01 0.01 0.00 0.00 0.00 0.00 0.00
0.13 0.26 0.25 0.21 0.10 0.02 0.00 0.00 0.00 0.00 0.00 0.00 0.00 0.01 0.03 0.04 0.04 0.01 0.00 0.00 0.01 0.01 0.01 0.02 0.04 0.07 0.09 0.14 0.11 0.02 0.01 0.00 0.00 0.00 0.00 0.00 0.00 0.00 0.00 0.00 0.00 0.00 0.00
0.08 0.15 0.18 0.18 0.20 0.02 0.00 0.00 0.00 0.00 0.01 0.00 0.00 0.00 0.01 0.01 0.03 0.03 0.03 0.03 0.02 0.01 0.01 0.03 0.04 0.05 0.05 0.12 0.13 0.05 0.01 0.00 0.00 0.00 0.00 0.00 0.00 0.00 0.00 0.00 0.00 0.00 0.00
0.00 0.03 0.07 0.09 0.07 0.12 0.09 0.15 0.05 0.04 0.03 0.04 0.04 0.00 0.01 0.02 0.02 0.02 0.02 0.01 0.00 0.02 0.01 0.02 0.04 0.06 0.09 0.07 0.07 0.08 0.02 0.00 0.00 0.00 0.00 0.00 0.00 0.00 0.00 0.00 0.00 0.00 0.00
0.00 0.00 0.03 0.20 0.23 0.21 0.18 0.32 0.44 0.43 0.35 0.27 0.20 0.06 0.02 0.03 0.03 0.02 0.00 0.00 0.00 0.00 0.00 0.00 0.00 0.01 0.03 0.02 0.03 0.03 0.04 0.03 0.04 0.02 0.00 0.00 0.00 0.00 0.01 0.01 0.00 0.00 0.00
0.00 0.00 0.02 0.16 0.19 0.25 0.34 0.37 0.37 0.25 0.18 0.18 0.17 0.21 0.21 0.19 0.14 0.09 0.05 0.01 0.00 0.00 0.00 0.00 0.00 0.00 0.01 0.04 0.02 0.03 0.04 0.06 0.04 0.06 0.05 0.02 0.01 0.01 0.01 0.01 0.01 0.00 0.01
0.00 0.00 0.00 0.05 0.08 0.10 0.14 0.18 0.23 0.19 0.16 0.13 0.14 0.14 0.11 0.07 0.05 0.04 0.02 0.00 0.00 0.00 0.01 0.01 0.01 0.02 0.03 0.04 0.03 0.04 0.04 0.03 0.02 0.03 0.04 0.02 0.02 0.06 0.07 0.07 0.05 0.03 0.02

GFSSE_prec_precacc24_069.txt.gz
Total_Precipitation_Accumulation
0.00 0.00 0.02 0.02 0.01 0.03 0.03 0.05 0.06 0.07 0.05 0.05 0.04 0.05 0.04 0.05 0.03 0.06 0.08 0.04 0.06 0.05 0.06 0.04 0.03 0.01 0.00 0.00 0.00 0.00 0.00 0.00 0.00 0.00 0.00 0.01 0.01 0.01 0.01 0.02 0.03 0.03 0.04
0.00 0.00 0.01 0.03 0.03 0.05 0.05 0.04 0.03 0.04 0.07 0.07 0.04 0.04 0.05 0.03 0.03 0.05 0.03 0.00 0.00 0.01 0.01 0.01 0.00 0.00 0.00 0.00 0.00 0.00 0.00 0.00 0.00 0.00 0.00 0.00 0.01 0.01 0.01 0.01 0.03 0.05 0.07
0.00 0.01 0.01 0.03 0.04 0.05 0.04 0.03 0.02 0.04 0.05 0.01 0.01 0.02 0.02 0.01 0.02 0.01 0.01 0.00 0.01 0.01 0.01 0.01 0.00 0.00 0.00 0.00 0.00 0.00 0.00 0.00 0.00 0.00 0.00 0.00 0.01 0.02 0.01 0.01 0.02 0.03 0.06
0.00 0.01 0.01 0.03 0.04 0.04 0.02 0.01 0.01 0.02 0.01 0.00 0.01 0.02 0.02 0.01 0.01 0.01 0.01 0.00 0.00 0.01 0.00 0.00 0.00 0.00 0.00 0.00 0.00 0.00 0.00 0.00 0.00 0.00 0.00 0.00 0.01 0.03 0.04 0.04 0.05 0.05 0.04
0.00 0.01 0.02 0.03 0.05 0.02 0.00 0.00 0.01 0.01 0.00 0.00 0.01 0.02 0.02 0.02 0.02 0.02 0.01 0.00 0.00 0.00 0.00 0.00 0.00 0.00 0.00 0.00 0.00 0.00 0.00 0.00 0.00 0.00 0.00 0.01 0.01 0.02 0.03 0.03 0.04 0.03 0.02
0.01 0.02 0.03 0.05 0.03 0.01 0.01 0.01 0.02 0.00 0.00 0.00 0.01 0.02 0.04 0.04 0.04 0.02 0.00 0.00 0.00 0.00 0.00 0.00 0.00 0.00 0.00 0.00 0.00 0.00 0.00 0.00 0.00 0.00 0.00 0.00 0.02 0.06 0.03 0.01 0.01 0.00 0.00
0.01 0.03 0.03 0.06 0.03 0.01 0.01 0.03 0.01 0.01 0.01 0.01 0.01 0.03 0.05 0.05 0.03 0.01 0.00 0.00 0.00 0.00 0.00 0.00 0.00 0.00 0.00 0.00 0.00 0.00 0.00 0.00 0.00 0.00 0.00 0.00 0.00 0.05 0.02 0.01 0.00 0.00 0.00
0.01 0.04 0.04 0.06 0.02 0.01 0.03 0.02 0.00 0.01 0.02 0.01 0.02 0.05 0.07 0.04 0.02 0.00 0.00 0.00 0.00 0.00 0.00 0.00 0.00 0.00 0.00 0.00 0.00 0.00 0.00 0.00 0.00 0.00 0.00 0.00 0.00 0.01 0.01 0.00 0.00 0.00 0.00
0.01 0.03 0.04 0.04 0.01 0.01 0.04 0.01 0.00 0.01 0.02 0.02 0.01 0.03 0.02 0.00 0.01 0.01 0.00 0.00 0.00 0.00 0.00 0.00 0.00 0.00 0.00 0.00 0.00 0.00 0.00 0.00 0.00 0.00 0.00 0.00 0.00 0.00 0.01 0.00 0.00 0.00 0.00
0.02 0.01 0.02 0.02 0.01 0.01 0.04 0.02 0.01 0.00 0.01 0.01 0.00 0.00 0.00 0.00 0.00 0.00 0.00 0.00 0.00 0.00 0.00 0.00 0.00 0.00 0.00 0.00 0.00 0.00 0.00 0.00 0.00 0.00 0.00 0.00 0.00 0.00 0.03 0.00 0.00 0.00 0.00
0.07 0.03 0.02 0.02 0.00 0.01 0.03 0.01 0.01 0.00 0.00 0.00 0.00 0.00 0.00 0.00 0.00 0.00 0.00 0.00 0.00 0.00 0.00 0.00 0.00 0.00 0.00 0.00 0.00 0.00 0.00 0.00 0.00 0.00 0.00 0.00 0.00 0.02 0.06 0.01 0.00 0.00 0.00
0.11 0.05 0.03 0.02 0.00 0.01 0.02 0.00 0.01 0.00 0.00 0.00 0.00 0.00 0.00 0.00 0.00 0.00 0.00 0.00 0.00 0.00 0.00 0.00 0.00 0.00 0.00 0.00 0.00 0.00 0.00 0.00 0.00 0.00 0.00 0.00 0.00 0.02 0.07 0.03 0.00 0.00 0.00
0.75 0.19 0.04 0.02 0.01 0.02 0.02 0.00 0.00 0.00 0.00 0.00 0.00 0.00 0.00 0.00 0.00 0.00 0.00 0.00 0.00 0.00 0.00 0.00 0.00 0.00 0.00 0.00 0.00 0.00 0.00 0.00 0.00 0.00 0.00 0.00 0.00 0.03 0.05 0.01 0.01 0.00 0.00
0.84 0.60 0.29 0.04 0.03 0.02 0.01 0.00 0.00 0.00 0.00 0.00 0.00 0.00 0.00 0.00 0.00 0.00 0.00 0.00 0.00 0.00 0.00 0.00 0.00 0.00 0.00 0.00 0.00 0.00 0.00 0.00 0.00 0.00 0.00 0.00 0.00 0.00 0.01 0.00 0.01 0.01 0.00
0.66 0.75 0.55 0.35 0.08 0.03 0.01 0.02 0.01 0.00 0.00 0.00 0.00 0.00 0.00 0.00 0.00 0.00 0.00 0.00 0.00 0.00 0.00 0.00 0.00 0.00 0.00 0.00 0.00 0.00 0.00 0.00 0.00 0.00 0.00 0.00 0.00 0.00 0.00 0.00 0.01 0.02 0.03
0.32 0.38 0.54 0.47 0.37 0.13 0.05 0.09 0.06 0.01 0.00 0.00 0.00 0.00 0.00 0.00 0.00 0.00 0.00 0.00 0.00 0.00 0.00 0.00 0.00 0.00 0.00 0.00 0.00 0.00 0.00 0.00 0.00 0.00 0.00 0.00 0.00 0.00 0.00 0.00 0.00 0.00 0.02
0.29 0.34 0.28 0.35 0.42 0.34 0.24 0.20 0.12 0.06 0.01 0.00 0.00 0.00 0.00 0.00 0.00 0.00 0.00 0.00 0.00 0.00 0.00 0.00 0.00 0.00 0.00 0.00 0.00 0.00 0.00 0.00 0.00 0.00 0.00 0.00 0.00 0.00 0.00 0.00 0.00 0.00 0.00
0.35 0.23 0.17 0.09 0.17 0.18 0.28 0.22 0.15 0.08 0.01 0.00 0.00 0.00 0.00 0.00 0.00 0.00 0.00 0.00 0.00 0.00 0.00 0.00 0.00 0.00 0.00 0.00 0.00 0.00 0.00 0.00 0.00 0.00 0.00 0.00 0.00 0.00 0.00 0.00 0.00 0.00 0.00
0.18 0.27 0.26 0.16 0.19 0.12 0.18 0.14 0.11 0.13 0.04 0.01 0.01 0.00 0.00 0.00 0.00 0.00 0.00 0.00 0.00 0.00 0.00 0.00 0.00 0.00 0.00 0.01 0.01 0.00 0.01 0.01 0.00 0.00 0.00 0.02 0.01 0.00 0.00 0.00 0.00 0.00 0.00
0.16 0.25 0.33 0.16 0.17 0.21 0.22 0.19 0.14 0.08 0.08 0.05 0.01 0.03 0.02 0.00 0.00 0.00 0.00 0.00 0.00 0.00 0.00 0.01 0.02 0.02 0.01 0.01 0.02 0.01 0.02 0.01 0.00 0.00 0.01 0.01 0.01 0.01 0.00 0.00 0.00 0.00 0.00
0.18 0.40 0.32 0.31 0.23 0.16 0.16 0.12 0.08 0.07 0.04 0.03 0.04 0.02 0.01 0.00 0.00 0.00 0.00 0.00 0.00 0.01 0.00 0.01 0.01 0.01 0.02 0.06 0.04 0.00 0.00 0.00 0.00 0.00 0.00 0.00 0.00 0.00 0.00 0.00 0.00 0.00 0.00
0.13 0.25 0.19 0.20 0.23 0.04 0.03 0.03 0.04 0.10 0.08 0.01 0.01 0.00 0.01 0.00 0.01 0.01 0.01 0.01 0.01 0.01 0.01 0.01 0.02 0.03 0.02 0.03 0.05 0.02 0.01 0.00 0.00 0.00 0.00 0.00 0.00 0.00 0.00 0.00 0.00 0.00 0.00
0.02 0.08 0.12 0.10 0.07 0.12 0.10 0.21 0.14 0.16 0.07 0.06 0.05 0.00 0.01 0.02 0.04 0.04 0.03 0.03 0.03 0.04 0.02 0.02 0.03 0.05 0.06 0.02 0.02 0.03 0.02 0.00 0.00 0.00 0.00 0.00 0.00 0.00 0.00 0.00 0.00 0.00 0.00
0.00 0.01 0.07 0.30 0.37 0.38 0.40 0.56 0.62 0.65 0.54 0.39 0.34 0.19 0.13 0.15 0.19 0.18 0.14 0.11 0.08 0.04 0.01 0.00 0.00 0.00 0.01 0.01 0.01 0.00 0.01 0.03 0.04 0.01 0.00 0.00 0.00 0.00 0.00 0.00 0.00 0.00 0.00
0.00 0.00 0.04 0.20 0.26 0.31 0.40 0.48 0.57 0.49 0.40 0.29 0.24 0.30 0.32 0.35 0.33 0.29 0.26 0.13 0.07 0.03 0.02 0.01 0.00 0.00 0.00 0.01 0.01 0.01 0.01 0.01 0.01 0.03 0.01 0.00 0.00 0.00 0.00 0.00 0.00 0.00 0.00
0.00 0.00 0.00 0.05 0.08 0.11 0.16 0.22 0.31 0.25 0.28 0.25 0.23 0.23 0.20 0.17 0.13 0.10 0.06 0.02 0.00 0.00 0.00 0.00 0.00 0.00 0.01 0.03 0.02 0.02 0.02 0.01 0.00 0.00 0.01 0.00 0.00 0.00 0.00 0.00 0.00 0.00 0.00

GFSSE_prec_precacc24_072.txt.gz
Total_Precipitation_Accumulation
0.00 0.00 0.03 0.03 0.01 0.03 0.03 0.05 0.06 0.07 0.06 0.05 0.04 0.06 0.07 0.08 0.04 0.06 0.08 0.04 0.05 0.05 0.06 0.04 0.03 0.01 0.00 0.00 0.00 0.00 0.00 0.00 0.00 0.00 0.01 0.01 0.01 0.01 0.01 0.02 0.04 0.04 0.07
0.00 0.00 0.01 0.03 0.03 0.06 0.05 0.04 0.03 0.05 0.08 0.07 0.04 0.07 0.09 0.09 0.08 0.06 0.02 0.00 0.00 0.01 0.01 0.01 0.00 0.00 0.00 0.00 0.00 0.00 0.00 0.00 0.00 0.00 0.00 0.00 0.01 0.01 0.01 0.01 0.03 0.05 0.07
0.00 0.00 0.01 0.04 0.05 0.07 0.04 0.03 0.03 0.04 0.04 0.01 0.01 0.03 0.05 0.06 0.04 0.01 0.00 0.00 0.01 0.01 0.01 0.01 0.00 0.00 0.00 0.00 0.00 0.00 0.00 0.00 0.00 0.00 0.00 0.00 0.01 0.02 0.01 0.01 0.02 0.03 0.06
0.00 0.01 0.01 0.04 0.04 0.04 0.02 0.01 0.02 0.01 0.00 0.00 0.01 0.02 0.03 0.04 0.01 0.01 0.00 0.00 0.00 0.01 0.00 0.00 0.00 0.00 0.00 0.00 0.00 0.00 0.00 0.00 0.00 0.00 0.00 0.00 0.01 0.03 0.04 0.04 0.05 0.04 0.03
0.00 0.01 0.02 0.05 0.06 0.03 0.00 0.01 0.01 0.01 0.00 0.00 0.01 0.02 0.02 0.03 0.02 0.02 0.00 0.00 0.00 0.00 0.00 0.00 0.00 0.00 0.00 0.00 0.00 0.00 0.00 0.00 0.00 0.00 0.00 0.01 0.01 0.02 0.03 0.02 0.02 0.01 0.01
0.01 0.03 0.04 0.08 0.04 0.02 0.01 0.02 0.01 0.00 0.00 0.00 0.01 0.02 0.04 0.03 0.02 0.01 0.00 0.00 0.00 0.00 0.00 0.00 0.00 0.00 0.00 0.00 0.00 0.00 0.00 0.00 0.00 0.00 0.00 0.00 0.02 0.05 0.01 0.00 0.00 0.00 0.00
0.02 0.05 0.04 0.09 0.04 0.01 0.00 0.02 0.02 0.01 0.01 0.01 0.01 0.03 0.05 0.05 0.02 0.00 0.00 0.00 0.00 0.00 0.00 0.00 0.00 0.00 0.00 0.00 0.00 0.00 0.00 0.00 0.00 0.00 0.00 0.00 0.00 0.04 0.01 0.00 0.00 0.00 0.00
0.02 0.05 0.05 0.09 0.03 0.01 0.02 0.02 0.02 0.02 0.02 0.01 0.02 0.05 0.07 0.03 0.01 0.00 0.00 0.00 0.00 0.00 0.00 0.00 0.00 0.00 0.00 0.00 0.00 0.00 0.00 0.00 0.00 0.00 0.00 0.00 0.00 0.01 0.01 0.00 0.00 0.00 0.00
0.04 0.05 0.06 0.05 0.01 0.01 0.03 0.01 0.02 0.02 0.02 0.02 0.01 0.03 0.02 0.00 0.00 0.00 0.00 0.00 0.00 0.00 0.00 0.00 0.00 0.00 0.00 0.00 0.00 0.00 0.00 0.00 0.00 0.00 0.00 0.00 0.00 0.00 0.01 0.00 0.00 0.00 0.00
0.10 0.05 0.04 0.03 0.01 0.01 0.03 0.02 0.02 0.03 0.02 0.01 0.00 0.00 0.00 0.00 0.00 0.00 0.00 0.00 0.00 0.00 0.00 0.00 0.00 0.00 0.00 0.00 0.00 0.00 0.00 0.00 0.00 0.00 0.00 0.00 0.00 0.00 0.02 0.00 0.00 0.00 0.00
0.13 0.07 0.04 0.02 0.00 0.01 0.03 0.01 0.01 0.02 0.02 0.00 0.00 0.00 0.00 0.00 0.00 0.00 0.00 0.00 0.00 0.00 0.00 0.00 0.00 0.00 0.00 0.00 0.00 0.00 0.00 0.00 0.00 0.00 0.00 0.00 0.00 0.01 0.05 0.01 0.00 0.00 0.00
0.14 0.07 0.04 0.02 0.00 0.01 0.02 0.00 0.01 0.00 0.01 0.00 0.00 0.00 0.00 0.00 0.00 0.00 0.00 0.00 0.00 0.00 0.00 0.00 0.00 0.00 0.00 0.00 0.00 0.00 0.00 0.00 0.00 0.00 0.00 0.00 0.00 0.01 0.07 0.02 0.00 0.00 0.00
0.86 0.25 0.06 0.03 0.01 0.02 0.02 0.00 0.00 0.00 0.00 0.00 0.00 0.00 0.00 0.00 0.00 0.00 0.00 0.00 0.00 0.00 0.00 0.00 0.00 0.00 0.00 0.00 0.00 0.00 0.00 0.00 0.00 0.00 0.00 0.00 0.00 0.02 0.04 0.01 0.01 0.01 0.00
1.20 0.91 0.39 0.08 0.03 0.02 0.01 0.00 0.00 0.00 0.00 0.00 0.00 0.00 0.00 0.00 0.00 0.00 0.00 0.00 0.00 0.00 0.00 0.00 0.00 0.00 0.00 0.00 0.00 0.00 0.00 0.00 0.00 0.00 0.00 0.00 0.00 0.00 0.00 0.00 0.02 0.01 0.01
0.82 1.01 0.90 0.61 0.22 0.06 0.02 0.02 0.01 0.00 0.00 0.00 0.00 0.00 0.00 0.00 0.00 0.00 0.00 0.00 0.00 0.00 0.00 0.00 0.00 0.00 0.00 0.00 0.00 0.00 0.00 0.00 0.00 0.00 0.00 0.00 0.00 0.00 0.00 0.00 0.01 0.03 0.05
0.41 0.43 0.60 0.57 0.58 0.33 0.20 0.13 0.07 0.01 0.00 0.00 0.00 0.00 0.00 0.00 0.00 0.00 0.00 0.00 0.00 0.00 0.00 0.00 0.00 0.00 0.00 0.00 0.00 0.00 0.00 0.00 0.00 0.00 0.00 0.00 0.00 0.00 0.00 0.00 0.00 0.00 0.02
0.32 0.37 0.28 0.36 0.48 0.46 0.47 0.39 0.23 0.15 0.07 0.01 0.00 0.00 0.00 0.00 0.00 0.00 0.00 0.00 0.00 0.00 0.00 0.00 0.00 0.00 0.00 0.00 0.00 0.00 0.00 0.00 0.00 0.00 0.00 0.00 0.00 0.00 0.00 0.00 0.00 0.00 0.00
0.35 0.23 0.19 0.09 0.18 0.19 0.43 0.51 0.24 0.20 0.21 0.09 0.03 0.00 0.00 0.00 0.00 0.00 0.00 0.00 0.00 0.00 0.00 0.00 0.00 0.00 0.00 0.00 0.00 0.00 0.00 0.00 0.00 0.00 0.00 0.00 0.00 0.00 0.00 0.00 0.00 0.00 0.00
0.18 0.27 0.33 0.32 0.25 0.15 0.25 0.26 0.27 0.28 0.31 0.21 0.16 0.04 0.00 0.00 0.00 0.00 0.00 0.00 0.00 0.00 0.00 0.00 0.00 0.00 0.00 0.01 0.01 0.00 0.01 0.01 0.00 0.00 0.00 0.02 0.01 0.00 0.00 0.00 0.00 0.00 0.00
0.19 0.27 0.37 0.22 0.24 0.23 0.31 0.26 0.24 0.17 0.17 0.11 0.09 0.05 0.03 0.01 0.00 0.00 0.00 0.00 0.00 0.00 0.00 0.01 0.01 0.02 0.01 0.01 0.01 0.00 0.00 0.00 0.00 0.00 0.00 0.01 0.01 0.01 0.00 0.00 0.00 0.00 0.00
0.24 0.50 0.37 0.33 0.26 0.20 0.22 0.15 0.17 0.12 0.13 0.09 0.07 0.04 0.04 0.02 0.02 0.00 0.00 0.00 0.00 0.01 0.00 0.01 0.01 0.01 0.01 0.02 0.01 0.00 0.00 0.00 0.00 0.00 0.00 0.00 0.00 0.00 0.00 0.00 0.00 0.00 0.00
0.22 0.66 0.53 0.40 0.35 0.10 0.03 0.04 0.07 0.16 0.17 0.12 0.11 0.07 0.02 0.02 0.02 0.02 0.01 0.01 0.01 0.01 0.01 0.02 0.02 0.04 0.02 0.02 0.04 0.02 0.01 0.00 0.00 0.00 0.00 0.00 0.00 0.00 0.00 0.00 0.00 0.00 0.00
0.05 0.21 0.25 0.21 0.32 0.49 0.47 0.58 0.45 0.42 0.31 0.26 0.17 0.08 0.03 0.03 0.07 0.09 0.07 0.07 0.06 0.11 0.11 0.08 0.04 0.06 0.05 0.02 0.01 0.02 0.01 0.00 0.00 0.00 0.00 0.00 0.00 0.00 0.00 0.00 0.00 0.00 0.00
0.00 0.02 0.10 0.41 0.56 0.69 0.72 0.98 1.07 1.04 0.90 0.77 0.66 0.41 0.24 0.20 0.22 0.29 0.33 0.35 0.32 0.30 0.17 0.08 0.02 0.00 0.01 0.00 0.00 0.00 0.01 0.02 0.02 0.01 0.00 0.00 0.00 0.00 0.00 0.00 0.00 0.00 0.00
0.00 0.00 0.04 0.21 0.30 0.35 0.44 0.51 0.64 0.59 0.49 0.46 0.44 0.53 0.53 0.52 0.47 0.45 0.46 0.36 0.23 0.10 0.05 0.03 0.02 0.00 0.00 0.01 0.01 0.00 0.01 0.01 0.01 0.02 0.01 0.00 0.00 0.00 0.00 0.00 0.00 0.00 0.00
0.00 0.00 0.00 0.05 0.08 0.15 0.24 0.30 0.37 0.36 0.42 0.37 0.31 0.31 0.29 0.24 0.22 0.22 0.16 0.10 0.04 0.02 0.01 0.00 0.00 0.00 0.00 0.02 0.02 0.02 0.01 0.00 0.00 0.00 0.01 0.00 0.00 0.00 0.00 0.00 0.00 0.00 0.00

GFSSE_prec_precacc24_075.txt.gz
Total_Precipitation_Accumulation
0.00 0.00 0.05 0.04 0.01 0.02 0.03 0.04 0.05 0.07 0.05 0.05 0.05 0.07 0.08 0.08 0.04 0.06 0.08 0.04 0.05 0.05 0.06 0.04 0.03 0.01 0.01 0.00 0.00 0.00 0.00 0.00 0.00 0.00 0.01 0.01 0.01 0.01 0.01 0.02 0.04 0.05 0.06
0.00 0.00 0.03 0.04 0.03 0.06 0.04 0.03 0.03 0.05 0.08 0.07 0.07 0.12 0.11 0.10 0.08 0.05 0.02 0.00 0.00 0.01 0.01 0.01 0.00 0.00 0.00 0.00 0.00 0.00 0.00 0.00 0.00 0.00 0.00 0.00 0.01 0.01 0.01 0.01 0.03 0.05 0.07
0.00 0.00 0.02 0.05 0.06 0.07 0.03 0.03 0.03 0.03 0.04 0.02 0.07 0.10 0.11 0.11 0.04 0.01 0.00 0.00 0.01 0.01 0.01 0.01 0.00 0.00 0.00 0.00 0.00 0.00 0.00 0.00 0.00 0.00 0.00 0.00 0.01 0.02 0.01 0.01 0.02 0.03 0.06
0.00 0.01 0.01 0.05 0.05 0.04 0.02 0.01 0.02 0.01 0.00 0.00 0.04 0.08 0.11 0.08 0.01 0.01 0.00 0.00 0.00 0.01 0.00 0.00 0.00 0.00 0.00 0.00 0.00 0.00 0.00 0.00 0.00 0.00 0.00 0.00 0.01 0.03 0.03 0.02 0.03 0.03 0.02
0.00 0.01 0.02 0.07 0.08 0.03 0.00 0.01 0.01 0.00 0.00 0.00 0.03 0.08 0.10 0.05 0.02 0.01 0.00 0.00 0.00 0.00 0.00 0.00 0.00 0.00 0.00 0.00 0.00 0.00 0.00 0.00 0.00 0.00 0.00 0.01 0.01 0.02 0.02 0.01 0.01 0.00 0.00
0.01 0.03 0.04 0.10 0.06 0.01 0.01 0.03 0.01 0.00 0.00 0.00 0.01 0.03 0.06 0.04 0.02 0.00 0.00 0.00 0.00 0.00 0.00 0.00 0.00 0.00 0.00 0.00 0.00 0.00 0.00 0.00 0.00 0.00 0.00 0.00 0.02 0.02 0.00 0.00 0.00 0.00 0.00
0.03 0.06 0.04 0.13 0.05 0.01 0.01 0.02 0.01 0.01 0.01 0.01 0.01 0.03 0.04 0.03 0.01 0.00 0.00 0.00 0.00 0.00 0.00 0.00 0.00 0.00 0.00 0.00 0.00 0.00 0.00 0.00 0.00 0.00 0.00 0.00 0.00 0.02 0.00 0.00 0.00 0.00 0.00
0.03 0.07 0.06 0.13 0.04 0.01 0.02 0.02 0.02 0.02 0.02 0.01 0.02 0.05 0.06 0.02 0.01 0.00 0.00 0.00 0.00 0.00 0.00 0.00 0.00 0.00 0.00 0.00 0.00 0.00 0.00 0.00 0.00 0.00 0.00 0.00 0.00 0.01 0.00 0.00 0.00 0.00 0.00
0.07 0.06 0.07 0.08 0.02 0.01 0.02 0.02 0.02 0.02 0.02 0.02 0.01 0.03 0.02 0.00 0.00 0.00 0.00 0.00 0.00 0.00 0.00 0.00 0.00 0.00 0.00 0.00 0.00 0.00 0.00 0.00 0.00 0.00 0.00 0.00 0.00 0.00 0.00 0.00 0.00 0.00 0.00
0.16 0.10 0.05 0.05 0.01 0.01 0.02 0.02 0.03 0.03 0.02 0.01 0.00 0.00 0.00 0.00 0.00 0.00 0.00 0.00 0.00 0.00 0.00 0.00 0.00 0.00 0.00 0.00 0.00 0.00 0.00 0.00 0.00 0.00 0.00 0.00 0.00 0.00 0.01 0.00 0.00 0.00 0.00
0.22 0.15 0.06 0.03 0.00 0.01 0.03 0.01 0.03 0.03 0.03 0.00 0.00 0.00 0.00 0.00 0.00 0.00 0.00 0.00 0.00 0.00 0.00 0.00 0.00 0.00 0.00 0.00 0.00 0.00 0.00 0.00 0.00 0.00 0.00 0.00 0.00 0.00 0.04 0.00 0.00 0.00 0.00
0.21 0.13 0.09 0.02 0.00 0.01 0.02 0.00 0.01 0.02 0.02 0.00 0.00 0.00 0.00 0.00 0.00 0.00 0.00 0.00 0.00 0.00 0.00 0.00 0.00 0.00 0.00 0.00 0.00 0.00 0.00 0.00 0.00 0.00 0.00 0.00 0.00 0.00 0.05 0.02 0.00 0.00 0.00
1.02 0.30 0.10 0.04 0.01 0.02 0.02 0.00 0.00 0.00 0.01 0.00 0.00 0.00 0.00 0.00 0.00 0.00 0.00 0.00 0.00 0.00 0.00 0.00 0.00 0.00 0.00 0.00 0.00 0.00 0.00 0.00 0.00 0.00 0.00 0.00 0.00 0.00 0.02 0.01 0.01 0.01 0.00
1.48 1.13 0.44 0.09 0.03 0.02 0.01 0.00 0.00 0.00 0.00 0.00 0.00 0.00 0.00 0.00 0.00 0.00 0.00 0.00 0.00 0.00 0.00 0.00 0.00 0.00 0.00 0.00 0.00 0.00 0.00 0.00 0.00 0.00 0.00 0.00 0.00 0.00 0.00 0.00 0.02 0.02 0.03
1.07 1.40 1.20 0.75 0.27 0.06 0.02 0.02 0.01 0.00 0.00 0.00 0.00 0.00 0.00 0.00 0.00 0.00 0.00 0.00 0.00 0.00 0.00 0.00 0.00 0.00 0.00 0.00 0.00 0.00 0.00 0.00 0.00 0.00 0.00 0.00 0.00 0.00 0.00 0.00 0.01 0.03 0.08
0.67 0.56 0.78 0.79 0.76 0.39 0.24 0.13 0.07 0.01 0.00 0.00 0.00 0.00 0.00 0.00 0.00 0.00 0.00 0.00 0.00 0.00 0.00 0.00 0.00 0.00 0.00 0.00 0.00 0.00 0.00 0.00 0.00 0.00 0.00 0.00 0.00 0.00 0.00 0.00 0.00 0.00 0.02
0.44 0.49 0.33 0.38 0.53 0.51 0.54 0.43 0.24 0.16 0.07 0.01 0.00 0.00 0.00 0.00 0.00 0.00 0.00 0.00 0.00 0.00 0.00 0.00 0.00 0.00 0.00 0.00 0.00 0.00 0.00 0.00 0.00 0.00 0.00 0.00 0.00 0.00 0.00 0.00 0.00 0.00 0.00
0.35 0.28 0.23 0.10 0.19 0.21 0.47 0.68 0.30 0.23 0.23 0.11 0.04 0.00 0.00 0.00 0.00 0.00 0.00 0.00 0.00 0.00 0.00 0.00 0.00 0.00 0.00 0.00 0.00 0.00 0.00 0.00 0.00 0.00 0.00 0.00 0.00 0.00 0.00 0.00 0.00 0.00 0.00
0.18 0.27 0.35 0.34 0.26 0.17 0.27 0.34 0.30 0.29 0.40 0.27 0.20 0.10 0.06 0.02 0.00 0.00 0.00 0.00 0.00 0.00 0.00 0.00 0.00 0.00 0.00 0.01 0.01 0.00 0.00 0.00 0.00 0.00 0.00 0.01 0.01 0.00 0.00 0.00 0.00 0.00 0.00
0.24 0.29 0.37 0.23 0.24 0.24 0.33 0.29 0.26 0.18 0.19 0.16 0.14 0.12 0.12 0.07 0.02 0.00 0.00 0.00 0.00 0.00 0.00 0.01 0.01 0.02 0.01 0.01 0.01 0.00 0.00 0.00 0.00 0.00 0.00 0.00 0.00 0.00 0.00 0.00 0.00 0.00 0.00
0.37 0.53 0.40 0.35 0.27 0.20 0.23 0.16 0.18 0.14 0.14 0.11 0.08 0.10 0.16 0.20 0.12 0.03 0.00 0.00 0.00 0.01 0.00 0.01 0.01 0.01 0.01 0.02 0.02 0.00 0.00 0.00 0.00 0.00 0.00 0.00 0.00 0.00 0.00 0.00 0.00 0.00 0.00
0.40 0.87 0.76 0.51 0.45 0.18 0.14 0.09 0.08 0.17 0.20 0.13 0.13 0.12 0.17 0.24 0.21 0.07 0.02 0.02 0.01 0.01 0.02 0.02 0.03 0.04 0.03 0.02 0.04 0.02 0.01 0.00 0.00 0.00 0.00 0.00 0.00 0.00 0.00 0.00 0.00 0.00 0.00
0.14 0.32 0.34 0.25 0.41 0.66 0.56 0.79 0.63 0.57 0.44 0.42 0.34 0.25 0.25 0.22 0.23 0.19 0.14 0.14 0.10 0.16 0.17 0.18 0.14 0.14 0.08 0.02 0.01 0.02 0.01 0.00 0.00 0.00 0.00 0.00 0.00 0.00 0.00 0.00 0.00 0.00 0.00
0.01 0.06 0.20 0.57 0.80 0.90 0.97 1.34 1.77 1.93 1.69 1.34 1.19 0.86 0.64 0.52 0.51 0.54 0.58 0.59 0.56 0.53 0.37 0.22 0.13 0.09 0.06 0.02 0.00 0.00 0.01 0.02 0.02 0.00 0.00 0.00 0.00 0.00 0.00 0.00 0.00 0.00 0.00
0.00 0.00 0.04 0.22 0.34 0.53 0.69 0.73 0.89 0.83 0.76 0.72 0.63 0.66 0.67 0.70 0.71 0.74 0.77 0.67 0.49 0.31 0.16 0.07 0.03 0.01 0.00 0.01 0.00 0.00 0.01 0.01 0.01 0.02 0.01 0.00 0.00 0.00 0.00 0.00 0.00 0.00 0.00
0.00 0.00 0.00 0.05 0.09 0.19 0.29 0.36 0.52 0.57 0.61 0.55 0.45 0.40 0.40 0.34 0.29 0.31 0.31 0.30 0.22 0.15 0.08 0.03 0.01 0.01 0.00 0.01 0.01 0.02 0.01 0.00 0.00 0.00 0.01 0.00 0.00 0.00 0.00 0.00 0.00 0.00 0.00

GFSSE_prec_precacc24_078.txt.gz
Total_Precipitation_Accumulation
0.00 0.00 0.04 0.05 0.01 0.01 0.02 0.03 0.04 0.06 0.05 0.05 0.05 0.07 0.08 0.08 0.06 0.07 0.08 0.04 0.05 0.05 0.06 0.04 0.03 0.01 0.01 0.01 0.00 0.01 0.00 0.00 0.00 0.00 0.01 0.01 0.01 0.01 0.01 0.02 0.04 0.04 0.07
0.00 0.00 0.03 0.06 0.02 0.04 0.03 0.02 0.02 0.04 0.08 0.07 0.08 0.12 0.11 0.10 0.09 0.05 0.02 0.00 0.00 0.01 0.01 0.01 0.01 0.00 0.00 0.00 0.00 0.00 0.00 0.00 0.00 0.00 0.00 0.00 0.01 0.01 0.01 0.01 0.03 0.05 0.07
0.00 0.00 0.02 0.07 0.05 0.06 0.02 0.02 0.02 0.03 0.04 0.04 0.09 0.12 0.12 0.12 0.04 0.01 0.00 0.00 0.01 0.01 0.02 0.01 0.01 0.00 0.00 0.00 0.00 0.00 0.00 0.00 0.00 0.00 0.00 0.00 0.01 0.02 0.01 0.01 0.02 0.03 0.05
0.00 0.01 0.02 0.06 0.05 0.03 0.01 0.01 0.02 0.01 0.01 0.07 0.12 0.13 0.17 0.11 0.01 0.01 0.00 0.00 0.00 0.01 0.00 0.00 0.00 0.00 0.00 0.00 0.00 0.00 0.00 0.00 0.00 0.00 0.00 0.00 0.01 0.03 0.02 0.01 0.02 0.01 0.00
0.01 0.02 0.03 0.08 0.09 0.02 0.00 0.02 0.01 0.00 0.01 0.06 0.16 0.23 0.19 0.07 0.01 0.00 0.00 0.00 0.00 0.00 0.00 0.00 0.00 0.00 0.00 0.00 0.00 0.00 0.00 0.00 0.00 0.00 0.00 0.01 0.01 0.01 0.00 0.00 0.00 0.00 0.00
0.03 0.04 0.05 0.12 0.07 0.01 0.01 0.02 0.01 0.00 0.01 0.04 0.09 0.16 0.12 0.04 0.01 0.00 0.00 0.00 0.00 0.00 0.00 0.00 0.00 0.00 0.00 0.00 0.00 0.00 0.00 0.00 0.00 0.00 0.00 0.00 0.01 0.01 0.00 0.00 0.00 0.00 0.00
0.04 0.08 0.05 0.16 0.06 0.01 0.02 0.02 0.01 0.01 0.01 0.02 0.06 0.11 0.08 0.02 0.00 0.00 0.00 0.00 0.00 0.00 0.00 0.00 0.00 0.00 0.00 0.00 0.00 0.00 0.00 0.00 0.00 0.00 0.00 0.00 0.00 0.01 0.00 0.00 0.00 0.00 0.00
0.05 0.09 0.07 0.20 0.10 0.01 0.02 0.02 0.02 0.02 0.02 0.01 0.03 0.08 0.05 0.01 0.00 0.00 0.00 0.00 0.00 0.00 0.00 0.00 0.00 0.00 0.00 0.00 0.00 0.00 0.00 0.00 0.00 0.00 0.00 0.00 0.00 0.00 0.00 0.00 0.00 0.00 0.00
0.12 0.10 0.10 0.12 0.04 0.02 0.01 0.01 0.02 0.02 0.02 0.02 0.02 0.04 0.02 0.01 0.00 0.00 0.00 0.00 0.00 0.00 0.00 0.00 0.00 0.00 0.00 0.00 0.00 0.00 0.00 0.00 0.00 0.00 0.00 0.00 0.00 0.00 0.00 0.00 0.00 0.00 0.00
0.29 0.16 0.08 0.10 0.02 0.01 0.02 0.01 0.02 0.02 0.02 0.01 0.01 0.00 0.00 0.00 0.00 0.00 0.00 0.00 0.00 0.00 0.00 0.00 0.00 0.00 0.00 0.00 0.00 0.00 0.00 0.00 0.00 0.00 0.00 0.00 0.00 0.00 0.01 0.00 0.00 0.00 0.00
0.40 0.26 0.12 0.06 0.02 0.00 0.03 0.02 0.03 0.03 0.03 0.00 0.00 0.00 0.00 0.00 0.00 0.00 0.00 0.00 0.00 0.00 0.00 0.00 0.00 0.00 0.00 0.00 0.00 0.00 0.00 0.00 0.00 0.00 0.00 0.00 0.00 0.00 0.02 0.00 0.00 0.00 0.00
0.48 0.25 0.17 0.06 0.01 0.01 0.02 0.03 0.03 0.03 0.02 0.00 0.00 0.00 0.00 0.00 0.00 0.00 0.00 0.00 0.00 0.00 0.00 0.00 0.00 0.00 0.00 0.00 0.00 0.00 0.00 0.00 0.00 0.00 0.00 0.00 0.00 0.00 0.02 0.01 0.00 0.00 0.00
1.72 0.64 0.19 0.09 0.01 0.01 0.01 0.02 0.04 0.03 0.02 0.00 0.00 0.00 0.00 0.00 0.00 0.00 0.00 0.00 0.00 0.00 0.00 0.00 0.00 0.00 0.00 0.00 0.00 0.00 0.00 0.00 0.00 0.00 0.00 0.00 0.00 0.00 0.00 0.00 0.01 0.02 0.02
2.07 1.74 0.60 0.13 0.04 0.02 0.01 0.01 0.01 0.02 0.01 0.00 0.00 0.00 0.00 0.00 0.00 0.00 0.00 0.00 0.00 0.00 0.00 0.00 0.00 0.00 0.00 0.00 0.00 0.00 0.00 0.00 0.00 0.00 0.00 0.00 0.00 0.00 0.00 0.00 0.02 0.03 0.04
1.44 2.26 1.72 0.84 0.28 0.06 0.02 0.02 0.01 0.01 0.01 0.00 0.00 0.00 0.00 0.00 0.00 0.00 0.00 0.00 0.00 0.00 0.00 0.00 0.00 0.00 0.00 0.00 0.00 0.00 0.00 0.00 0.00 0.00 0.00 0.00 0.00 0.00 0.00 0.00 0.01 0.03 0.09
0.82 1.04 1.54 1.26 0.86 0.40 0.24 0.13 0.07 0.01 0.01 0.02 0.01 0.01 0.00 0.00 0.00 0.00 0.00 0.00 0.00 0.00 0.00 0.00 0.00 0.00 0.00 0.00 0.00 0.00 0.00 0.00 0.00 0.00 0.00 0.00 0.00 0.00 0.00 0.00 0.00 0.00 0.02
0.45 0.59 0.66 0.58 0.70 0.68 0.57 0.43 0.25 0.16 0.07 0.02 0.01 0.01 0.00 0.00 0.00 0.00 0.00 0.00 0.00 0.00 0.00 0.00 0.00 0.00 0.00 0.00 0.00 0.00 0.00 0.00 0.00 0.00 0.00 0.00 0.00 0.00 0.00 0.00 0.01 0.01 0.01
0.33 0.29 0.29 0.19 0.23 0.27 0.56 0.70 0.31 0.23 0.23 0.11 0.04 0.00 0.00 0.01 0.00 0.00 0.00 0.00 0.00 0.00 0.00 0.00 0.00 0.00 0.00 0.00 0.00 0.00 0.00 0.00 0.00 0.00 0.00 0.00 0.00 0.00 0.00 0.00 0.00 0.01 0.01
0.16 0.23 0.33 0.35 0.26 0.16 0.28 0.35 0.30 0.29 0.40 0.27 0.20 0.10 0.06 0.02 0.00 0.00 0.00 0.00 0.00 0.00 0.00 0.00 0.00 0.00 0.00 0.01 0.01 0.00 0.00 0.00 0.00 0.00 0.00 0.00 0.00 0.00 0.00 0.00 0.00 0.00 0.00
0.23 0.28 0.35 0.23 0.23 0.21 0.39 0.39 0.33 0.26 0.21 0.16 0.14 0.12 0.12 0.07 0.03 0.01 0.01 0.00 0.00 0.00 0.00 0.01 0.01 0.01 0.01 0.01 0.01 0.01 0.00 0.00 0.00 0.00 0.00 0.00 0.00 0.00 0.00 0.00 0.00 0.00 0.00
0.41 0.55 0.39 0.35 0.27 0.21 0.26 0.22 0.25 0.17 0.15 0.11 0.08 0.10 0.16 0.21 0.17 0.13 0.07 0.01 0.00 0.00 0.00 0.01 0.01 0.01 0.01 0.02 0.03 0.01 0.00 0.00 0.00 0.00 0.00 0.00 0.00 0.00 0.00 0.00 0.00 0.00 0.00
0.95 1.24 0.91 0.62 0.53 0.24 0.16 0.11 0.12 0.20 0.21 0.13 0.13 0.12 0.17 0.24 0.25 0.20 0.15 0.14 0.06 0.02 0.01 0.02 0.04 0.06 0.05 0.05 0.05 0.02 0.01 0.00 0.00 0.00 0.00 0.00 0.00 0.00 0.00 0.00 0.00 0.00 0.00
0.64 0.87 0.64 0.45 0.45 0.68 0.58 0.87 0.69 0.63 0.48 0.49 0.41 0.27 0.27 0.23 0.28 0.40 0.41 0.37 0.31 0.26 0.22 0.23 0.23 0.23 0.17 0.08 0.03 0.03 0.02 0.00 0.00 0.00 0.00 0.00 0.00 0.00 0.00 0.00 0.00 0.00 0.00
0.05 0.14 0.37 0.77 0.88 1.03 1.08 1.51 1.94 2.20 2.03 1.68 1.48 1.09 0.80 0.68 0.73 0.96 1.15 1.20 1.07 0.77 0.54 0.38 0.30 0.20 0.16 0.12 0.07 0.03 0.02 0.02 0.02 0.00 0.00 0.00 0.00 0.00 0.00 0.00 0.00 0.00 0.00
0.00 0.00 0.08 0.28 0.42 0.64 0.85 0.86 1.09 1.19 1.15 1.04 0.91 0.94 0.99 0.99 0.91 0.93 1.09 1.07 0.83 0.63 0.63 0.53 0.22 0.07 0.03 0.02 0.01 0.01 0.01 0.01 0.01 0.02 0.01 0.00 0.00 0.00 0.00 0.00 0.00 0.00 0.00
0.00 0.00 0.00 0.05 0.09 0.23 0.35 0.42 0.64 0.77 0.84 0.76 0.66 0.62 0.60 0.48 0.47 0.52 0.51 0.48 0.43 0.32 0.28 0.32 0.31 0.16 0.04 0.02 0.01 0.01 0.01 0.00 0.00 0.00 0.01 0.00 0.00 0.00 0.00 0.00 0.00 0.00 0.00

GFSSE_prec_precacc24_081.txt.gz
Total_Precipitation_Accumulation
0.00 0.00 0.05 0.05 0.01 0.01 0.01 0.01 0.02 0.03 0.03 0.04 0.05 0.07 0.08 0.06 0.05 0.07 0.08 0.04 0.05 0.05 0.06 0.01 0.00 0.01 0.01 0.01 0.01 0.01 0.00 0.00 0.00 0.00 0.01 0.01 0.01 0.01 0.01 0.02 0.05 0.05 0.10
0.00 0.00 0.03 0.07 0.02 0.03 0.02 0.01 0.01 0.03 0.06 0.06 0.08 0.12 0.09 0.09 0.10 0.06 0.02 0.00 0.00 0.00 0.01 0.01 0.01 0.00 0.00 0.00 0.00 0.00 0.00 0.00 0.00 0.00 0.00 0.00 0.01 0.01 0.01 0.01 0.03 0.04 0.06
0.00 0.00 0.02 0.08 0.05 0.05 0.01 0.01 0.01 0.02 0.04 0.04 0.10 0.12 0.10 0.12 0.06 0.01 0.00 0.00 0.01 0.02 0.02 0.01 0.00 0.00 0.00 0.00 0.00 0.00 0.00 0.00 0.00 0.00 0.00 0.00 0.01 0.01 0.01 0.01 0.01 0.01 0.01
0.00 0.01 0.02 0.07 0.05 0.03 0.00 0.01 0.01 0.01 0.02 0.07 0.13 0.14 0.18 0.13 0.02 0.01 0.00 0.00 0.00 0.01 0.01 0.00 0.00 0.00 0.00 0.00 0.00 0.00 0.00 0.00 0.00 0.00 0.00 0.00 0.00 0.01 0.01 0.00 0.00 0.00 0.00
0.01 0.02 0.03 0.08 0.09 0.02 0.00 0.02 0.00 0.00 0.03 0.10 0.20 0.25 0.24 0.11 0.00 0.00 0.00 0.00 0.00 0.00 0.00 0.00 0.00 0.00 0.00 0.00 0.00 0.00 0.00 0.00 0.00 0.00 0.00 0.01 0.00 0.00 0.00 0.00 0.00 0.00 0.00
0.03 0.05 0.07 0.13 0.07 0.01 0.01 0.02 0.01 0.00 0.03 0.11 0.17 0.28 0.28 0.08 0.00 0.00 0.00 0.00 0.00 0.00 0.00 0.00 0.00 0.00 0.00 0.00 0.00 0.00 0.00 0.00 0.00 0.00 0.00 0.00 0.00 0.00 0.00 0.00 0.00 0.00 0.00
0.05 0.11 0.09 0.20 0.07 0.01 0.02 0.02 0.01 0.01 0.02 0.07 0.18 0.30 0.19 0.02 0.00 0.00 0.00 0.00 0.00 0.00 0.00 0.00 0.00 0.00 0.00 0.00 0.00 0.00 0.00 0.00 0.00 0.00 0.00 0.00 0.00 0.00 0.00 0.00 0.00 0.00 0.00
0.07 0.16 0.13 0.26 0.19 0.03 0.02 0.02 0.02 0.02 0.02 0.04 0.14 0.29 0.13 0.00 0.00 0.00 0.00 0.00 0.00 0.00 0.00 0.00 0.00 0.00 0.00 0.00 0.00 0.00 0.00 0.00 0.00 0.00 0.00 0.00 0.00 0.00 0.00 0.00 0.00 0.00 0.00
0.19 0.15 0.17 0.16 0.11 0.05 0.01 0.01 0.02 0.02 0.02 0.03 0.06 0.13 0.04 0.00 0.00 0.00 0.00 0.00 0.00 0.00 0.00 0.00 0.00 0.00 0.00 0.00 0.00 0.00 0.00 0.00 0.00 0.00 0.00 0.00 0.00 0.00 0.00 0.00 0.00 0.00 0.00
0.46 0.26 0.19 0.16 0.04 0.02 0.03 0.01 0.02 0.02 0.02 0.01 0.01 0.01 0.00 0.00 0.00 0.00 0.00 0.00 0.00 0.00 0.00 0.00 0.00 0.00 0.00 0.00 0.00 0.00 0.00 0.00 0.00 0.00 0.00 0.00 0.00 0.00 0.00 0.00 0.00 0.00 0.00
0.52 0.39 0.30 0.17 0.05 0.01 0.07 0.03 0.03 0.03 0.03 0.00 0.00 0.00 0.00 0.00 0.00 0.00 0.00 0.00 0.00 0.00 0.00 0.00 0.00 0.00 0.00 0.00 0.00 0.00 0.00 0.00 0.00 0.00 0.00 0.00 0.00 0.00 0.01 0.00 0.00 0.00 0.00
0.81 0.47 0.48 0.32 0.10 0.01 0.06 0.08 0.03 0.03 0.02 0.00 0.00 0.00 0.00 0.00 0.00 0.00 0.00 0.00 0.00 0.00 0.00 0.00 0.00 0.00 0.00 0.00 0.00 0.00 0.00 0.00 0.00 0.00 0.00 0.00 0.00 0.00 0.00 0.01 0.00 0.00 0.00
2.05 1.05 0.61 0.48 0.24 0.02 0.02 0.08 0.07 0.03 0.02 0.00 0.00 0.00 0.00 0.00 0.00 0.00 0.00 0.00 0.00 0.00 0.00 0.00 0.00 0.00 0.00 0.00 0.00 0.00 0.00 0.00 0.00 0.00 0.00 0.00 0.00 0.00 0.00 0.00 0.01 0.03 0.03
2.30 2.03 1.27 0.68 0.42 0.05 0.01 0.04 0.05 0.04 0.01 0.00 0.00 0.00 0.00 0.00 0.00 0.00 0.00 0.00 0.00 0.00 0.00 0.00 0.00 0.00 0.00 0.00 0.00 0.00 0.00 0.00 0.00 0.00 0.00 0.00 0.00 0.00 0.00 0.00 0.02 0.03 0.05
1.57 2.50 2.26 1.52 0.83 0.17 0.02 0.04 0.05 0.04 0.03 0.01 0.00 0.00 0.00 0.00 0.00 0.00 0.00 0.00 0.00 0.00 0.00 0.00 0.00 0.00 0.00 0.00 0.00 0.00 0.00 0.00 0.00 0.00 0.00 0.00 0.00 0.00 0.00 0.00 0.01 0.03 0.09
0.86 1.16 1.96 1.96 1.76 0.75 0.24 0.14 0.11 0.06 0.05 0.03 0.02 0.01 0.00 0.00 0.00 0.00 0.00 0.00 0.00 0.00 0.00 0.00 0.00 0.00 0.00 0.00 0.00 0.00 0.00 0.00 0.00 0.00 0.00 0.00 0.00 0.00 0.00 0.00 0.01 0.02 0.04
0.46 0.65 0.83 1.18 1.88 1.36 0.59 0.43 0.27 0.19 0.11 0.05 0.01 0.01 0.00 0.00 0.00 0.00 0.00 0.00 0.00 0.00 0.00 0.00 0.00 0.00 0.00 0.00 0.00 0.00 0.00 0.00 0.00 0.00 0.00 0.00 0.00 0.00 0.00 0.00 0.01 0.02 0.03
0.33 0.32 0.40 0.49 0.87 0.73 0.67 0.72 0.31 0.23 0.25 0.15 0.06 0.01 0.00 0.01 0.00 0.00 0.00 0.00 0.00 0.00 0.00 0.00 0.00 0.00 0.00 0.00 0.00 0.00 0.00 0.00 0.00 0.00 0.00 0.00 0.00 0.00 0.00 0.00 0.00 0.01 0.02
0.16 0.24 0.36 0.50 0.51 0.31 0.33 0.43 0.32 0.29 0.40 0.27 0.20 0.10 0.06 0.02 0.00 0.00 0.00 0.00 0.00 0.00 0.00 0.00 0.00 0.00 0.00 0.00 0.00 0.00 0.00 0.00 0.00 0.00 0.00 0.00 0.00 0.00 0.00 0.00 0.00 0.00 0.00
0.23 0.29 0.36 0.27 0.32 0.25 0.43 0.54 0.47 0.36 0.25 0.16 0.14 0.12 0.12 0.07 0.03 0.01 0.01 0.00 0.00 0.00 0.00 0.00 0.00 0.00 0.00 0.00 0.01 0.01 0.00 0.00 0.00 0.00 0.00 0.00 0.00 0.00 0.00 0.00 0.00 0.00 0.00
0.43 0.56 0.43 0.37 0.31 0.25 0.30 0.30 0.36 0.31 0.33 0.24 0.14 0.15 0.19 0.28 0.23 0.16 0.10 0.05 0.01 0.00 0.00 0.00 0.00 0.01 0.01 0.01 0.03 0.01 0.00 0.00 0.00 0.00 0.00 0.00 0.00 0.00 0.00 0.00 0.00 0.00 0.00
1.07 1.34 1.01 0.72 0.66 0.33 0.27 0.24 0.18 0.31 0.31 0.18 0.15 0.13 0.18 0.26 0.30 0.24 0.18 0.17 0.11 0.05 0.03 0.03 0.03 0.05 0.05 0.06 0.05 0.03 0.01 0.00 0.00 0.00 0.00 0.00 0.00 0.00 0.00 0.00 0.00 0.00 0.00
1.12 1.30 0.93 0.81 0.78 0.83 0.62 0.97 0.81 0.77 0.62 0.58 0.43 0.27 0.28 0.24 0.28 0.40 0.41 0.38 0.35 0.40 0.45 0.41 0.30 0.28 0.21 0.16 0.10 0.06 0.02 0.00 0.00 0.00 0.00 0.00 0.00 0.00 0.00 0.00 0.00 0.00 0.00
0.32 0.36 0.63 1.20 1.23 1.17 1.15 1.66 2.10 2.34 2.16 1.80 1.55 1.11 0.82 0.70 0.73 0.97 1.16 1.22 1.19 1.05 0.78 0.77 0.68 0.45 0.33 0.24 0.18 0.09 0.04 0.03 0.02 0.00 0.00 0.00 0.00 0.00 0.00 0.00 0.00 0.00 0.00
0.07 0.09 0.17 0.41 0.55 0.82 1.04 1.13 1.40 1.36 1.30 1.18 1.04 1.03 1.05 1.12 1.03 1.00 1.12 1.12 0.95 0.87 0.94 0.92 0.86 0.85 0.56 0.21 0.11 0.04 0.02 0.01 0.01 0.02 0.01 0.00 0.00 0.00 0.00 0.00 0.00 0.00 0.00
0.00 0.00 0.01 0.08 0.15 0.35 0.46 0.52 0.91 1.15 1.22 1.11 0.85 0.77 0.71 0.61 0.61 0.67 0.62 0.59 0.54 0.47 0.47 0.62 0.74 0.68 0.54 0.27 0.13 0.08 0.03 0.01 0.00 0.00 0.01 0.00 0.00 0.00 0.00 0.00 0.00 0.00 0.00

GFSSE_prec_precacc24_084.txt.gz
Total_Precipitation_Accumulation
0.00 0.00 0.05 0.05 0.01 0.01 0.01 0.01 0.01 0.01 0.02 0.05 0.05 0.07 0.05 0.05 0.05 0.07 0.08 0.04 0.05 0.03 0.00 0.00 0.01 0.02 0.02 0.02 0.01 0.01 0.00 0.00 0.00 0.00 0.01 0.01 0.01 0.01 0.01 0.02 0.05 0.05 0.10
0.00 0.00 0.03 0.07 0.02 0.03 0.02 0.00 0.01 0.02 0.06 0.07 0.08 0.09 0.06 0.09 0.10 0.06 0.02 0.00 0.00 0.00 0.01 0.01 0.01 0.01 0.01 0.00 0.00 0.00 0.00 0.00 0.00 0.00 0.00 0.00 0.01 0.01 0.01 0.01 0.02 0.02 0.04
0.00 0.00 0.02 0.09 0.05 0.04 0.00 0.00 0.01 0.02 0.04 0.04 0.10 0.10 0.10 0.13 0.06 0.01 0.00 0.00 0.01 0.01 0.01 0.01 0.01 0.01 0.00 0.00 0.00 0.00 0.00 0.00 0.00 0.00 0.00 0.00 0.00 0.01 0.00 0.00 0.00 0.00 0.00
0.00 0.01 0.02 0.09 0.05 0.02 0.00 0.00 0.01 0.01 0.02 0.07 0.14 0.13 0.18 0.15 0.02 0.01 0.00 0.00 0.01 0.01 0.01 0.00 0.00 0.00 0.01 0.00 0.00 0.00 0.00 0.00 0.00 0.00 0.00 0.00 0.00 0.00 0.00 0.00 0.00 0.00 0.00
0.02 0.02 0.03 0.10 0.10 0.02 0.01 0.02 0.00 0.00 0.03 0.10 0.22 0.26 0.25 0.14 0.01 0.00 0.00 0.00 0.01 0.01 0.00 0.00 0.00 0.00 0.00 0.00 0.00 0.00 0.00 0.00 0.00 0.00 0.00 0.00 0.00 0.00 0.00 0.00 0.00 0.00 0.00
0.04 0.05 0.08 0.16 0.10 0.01 0.02 0.02 0.01 0.01 0.04 0.11 0.19 0.29 0.31 0.13 0.01 0.00 0.00 0.00 0.01 0.00 0.00 0.01 0.01 0.00 0.00 0.00 0.00 0.00 0.00 0.00 0.00 0.00 0.00 0.00 0.00 0.00 0.00 0.00 0.00 0.00 0.00
0.07 0.12 0.13 0.27 0.10 0.01 0.03 0.02 0.01 0.01 0.05 0.09 0.22 0.35 0.31 0.07 0.00 0.00 0.00 0.00 0.00 0.00 0.00 0.00 0.00 0.00 0.00 0.00 0.00 0.00 0.00 0.00 0.00 0.00 0.00 0.00 0.00 0.00 0.00 0.00 0.00 0.00 0.00
0.19 0.27 0.23 0.34 0.31 0.06 0.03 0.02 0.02 0.02 0.04 0.08 0.20 0.40 0.26 0.03 0.00 0.00 0.00 0.00 0.00 0.00 0.00 0.00 0.00 0.00 0.00 0.00 0.00 0.00 0.00 0.00 0.00 0.00 0.00 0.00 0.00 0.00 0.00 0.00 0.00 0.00 0.00
0.52 0.31 0.38 0.24 0.19 0.13 0.06 0.01 0.02 0.02 0.03 0.10 0.14 0.24 0.10 0.01 0.00 0.00 0.01 0.00 0.00 0.00 0.00 0.00 0.00 0.00 0.00 0.00 0.00 0.00 0.00 0.00 0.00 0.00 0.00 0.00 0.00 0.00 0.00 0.00 0.00 0.00 0.00
0.93 0.86 0.56 0.33 0.09 0.04 0.06 0.01 0.02 0.02 0.02 0.07 0.09 0.07 0.01 0.00 0.00 0.01 0.01 0.01 0.00 0.00 0.00 0.00 0.00 0.00 0.00 0.00 0.00 0.00 0.00 0.00 0.00 0.00 0.00 0.00 0.00 0.00 0.00 0.00 0.00 0.00 0.00
1.12 1.07 1.08 0.57 0.16 0.08 0.12 0.03 0.03 0.03 0.03 0.03 0.06 0.03 0.00 0.00 0.00 0.00 0.00 0.00 0.00 0.00 0.00 0.00 0.00 0.00 0.00 0.00 0.00 0.00 0.00 0.00 0.00 0.00 0.00 0.00 0.00 0.00 0.00 0.00 0.00 0.00 0.00
1.23 0.95 0.82 0.89 0.45 0.17 0.19 0.11 0.03 0.03 0.02 0.00 0.02 0.01 0.00 0.00 0.00 0.00 0.00 0.00 0.00 0.00 0.00 0.00 0.00 0.00 0.00 0.00 0.00 0.00 0.00 0.00 0.00 0.00 0.00 0.00 0.00 0.00 0.00 0.00 0.00 0.00 0.00
2.20 1.28 0.77 0.74 0.80 0.26 0.40 0.23 0.08 0.03 0.02 0.00 0.00 0.01 0.00 0.00 0.00 0.00 0.00 0.00 0.00 0.00 0.00 0.00 0.00 0.00 0.00 0.00 0.00 0.00 0.00 0.00 0.00 0.00 0.00 0.00 0.00 0.00 0.00 0.00 0.01 0.03 0.04
2.32 2.09 1.33 0.75 0.81 0.49 0.52 0.42 0.11 0.04 0.01 0.00 0.00 0.00 0.00 0.00 0.00 0.00 0.00 0.00 0.00 0.00 0.00 0.00 0.00 0.00 0.00 0.00 0.00 0.00 0.00 0.00 0.00 0.00 0.00 0.00 0.00 0.00 0.00 0.00 0.02 0.03 0.06
1.54 2.49 2.27 1.54 0.94 0.71 0.42 0.58 0.18 0.05 0.03 0.01 0.00 0.00 0.00 0.00 0.00 0.00 0.00 0.00 0.00 0.00 0.00 0.00 0.00 0.00 0.00 0.00 0.00 0.00 0.00 0.00 0.00 0.00 0.00 0.00 0.00 0.00 0.00 0.00 0.01 0.05 0.10
0.81 1.10 1.94 1.97 1.83 1.29 0.83 0.83 0.38 0.15 0.07 0.03 0.02 0.01 0.00 0.00 0.00 0.00 0.00 0.00 0.00 0.00 0.00 0.00 0.00 0.00 0.00 0.00 0.00 0.00 0.00 0.00 0.00 0.00 0.00 0.00 0.00 0.00 0.00 0.00 0.01 0.03 0.05
0.45 0.62 0.79 1.19 1.96 1.95 1.19 0.86 0.58 0.37 0.21 0.07 0.01 0.01 0.00 0.00 0.00 0.00 0.00 0.00 0.00 0.00 0.00 0.00 0.00 0.00 0.00 0.00 0.00 0.00 0.00 0.00 0.00 0.00 0.00 0.00 0.00 0.00 0.00 0.00 0.01 0.02 0.03
0.31 0.31 0.39 0.48 0.99 1.43 1.06 0.85 0.47 0.44 0.46 0.30 0.08 0.01 0.00 0.01 0.00 0.00 0.00 0.00 0.00 0.00 0.00 0.00 0.00 0.00 0.00 0.00 0.00 0.00 0.00 0.00 0.00 0.00 0.00 0.00 0.00 0.00 0.00 0.00 0.00 0.01 0.02
0.17 0.23 0.36 0.50 0.56 0.63 0.59 0.55 0.44 0.35 0.51 0.35 0.32 0.13 0.06 0.02 0.00 0.00 0.00 0.00 0.00 0.00 0.00 0.00 0.00 0.00 0.00 0.00 0.00 0.00 0.00 0.00 0.00 0.00 0.00 0.00 0.00 0.00 0.00 0.00 0.00 0.00 0.00
0.26 0.29 0.36 0.27 0.34 0.32 0.61 0.67 0.57 0.42 0.30 0.24 0.17 0.15 0.14 0.09 0.06 0.02 0.01 0.00 0.00 0.00 0.00 0.00 0.00 0.00 0.00 0.00 0.01 0.01 0.00 0.00 0.00 0.00 0.00 0.00 0.00 0.00 0.00 0.00 0.00 0.00 0.00
0.48 0.57 0.44 0.38 0.33 0.30 0.42 0.41 0.44 0.49 0.50 0.34 0.21 0.24 0.24 0.33 0.29 0.17 0.10 0.05 0.02 0.00 0.00 0.00 0.00 0.00 0.01 0.00 0.03 0.01 0.00 0.00 0.00 0.00 0.00 0.00 0.00 0.00 0.00 0.00 0.00 0.00 0.00
1.18 1.35 1.06 0.78 0.73 0.45 0.45 0.40 0.27 0.42 0.46 0.37 0.35 0.24 0.26 0.31 0.33 0.26 0.21 0.20 0.13 0.11 0.04 0.03 0.03 0.05 0.04 0.05 0.05 0.04 0.01 0.00 0.00 0.00 0.00 0.00 0.00 0.00 0.00 0.00 0.00 0.00 0.00
1.36 1.44 1.05 1.03 0.94 0.97 0.80 1.07 0.88 0.79 0.66 0.65 0.53 0.47 0.43 0.32 0.34 0.41 0.41 0.38 0.36 0.45 0.53 0.47 0.38 0.35 0.27 0.21 0.16 0.11 0.03 0.00 0.00 0.00 0.00 0.00 0.00 0.00 0.00 0.00 0.00 0.00 0.00
0.52 0.49 0.86 1.44 1.50 1.26 1.29 1.78 2.13 2.34 2.25 1.92 1.70 1.23 0.91 0.74 0.74 0.97 1.16 1.22 1.19 1.05 0.79 0.79 0.74 0.59 0.61 0.54 0.47 0.27 0.15 0.08 0.02 0.00 0.00 0.00 0.00 0.00 0.00 0.00 0.00 0.00 0.00
0.27 0.27 0.33 0.56 0.70 0.89 1.15 1.23 1.51 1.47 1.42 1.28 1.14 1.14 1.13 1.17 1.04 1.00 1.12 1.12 0.95 0.87 0.94 0.92 0.87 0.92 0.89 0.70 0.61 0.46 0.28 0.12 0.05 0.02 0.00 0.00 0.00 0.00 0.00 0.00 0.00 0.00 0.00
0.16 0.16 0.13 0.18 0.30 0.58 0.65 0.70 1.01 1.29 1.49 1.34 1.02 0.90 0.82 0.66 0.62 0.68 0.63 0.60 0.56 0.48 0.48 0.62 0.75 0.76 0.69 0.71 0.72 0.63 0.43 0.25 0.15 0.08 0.08 0.05 0.01 0.00 0.00 0.00 0.00 0.00 0.00

GFSSE_prec_precacc24_087.txt.gz
Total_Precipitation_Accumulation
0.00 0.00 0.05 0.05 0.01 0.01 0.01 0.00 0.00 0.01 0.02 0.05 0.04 0.03 0.04 0.05 0.05 0.07 0.08 0.02 0.01 0.00 0.01 0.01 0.03 0.04 0.03 0.02 0.01 0.01 0.00 0.00 0.00 0.00 0.01 0.01 0.02 0.02 0.02 0.02 0.04 0.05 0.11
0.00 0.00 0.03 0.07 0.02 0.02 0.01 0.00 0.01 0.02 0.06 0.06 0.06 0.08 0.06 0.09 0.10 0.06 0.02 0.00 0.00 0.00 0.01 0.02 0.02 0.02 0.01 0.00 0.00 0.00 0.00 0.00 0.00 0.00 0.00 0.00 0.01 0.00 0.00 0.00 0.01 0.02 0.04
0.00 0.00 0.02 0.09 0.05 0.04 0.00 0.00 0.01 0.02 0.04 0.04 0.10 0.11 0.10 0.13 0.06 0.01 0.00 0.00 0.00 0.00 0.01 0.01 0.01 0.01 0.00 0.00 0.00 0.00 0.00 0.00 0.00 0.00 0.00 0.00 0.00 0.00 0.00 0.00 0.00 0.00 0.00
0.00 0.01 0.02 0.09 0.05 0.02 0.00 0.00 0.01 0.01 0.02 0.08 0.13 0.14 0.19 0.16 0.02 0.01 0.00 0.00 0.01 0.01 0.01 0.00 0.01 0.01 0.01 0.00 0.00 0.00 0.00 0.00 0.00 0.00 0.00 0.00 0.00 0.00 0.00 0.00 0.00 0.00 0.00
0.02 0.02 0.03 0.09 0.10 0.02 0.01 0.02 0.00 0.00 0.03 0.11 0.22 0.26 0.26 0.17 0.01 0.01 0.00 0.01 0.01 0.01 0.01 0.00 0.01 0.01 0.00 0.00 0.00 0.00 0.00 0.00 0.00 0.00 0.00 0.00 0.00 0.00 0.00 0.00 0.00 0.00 0.00
0.04 0.05 0.08 0.15 0.12 0.02 0.04 0.03 0.01 0.01 0.04 0.11 0.19 0.28 0.32 0.17 0.02 0.00 0.00 0.01 0.01 0.00 0.00 0.01 0.01 0.01 0.00 0.00 0.00 0.00 0.00 0.00 0.00 0.00 0.00 0.00 0.00 0.00 0.00 0.00 0.00 0.00 0.00
0.10 0.13 0.16 0.28 0.16 0.04 0.04 0.02 0.01 0.02 0.08 0.09 0.22 0.34 0.33 0.13 0.04 0.01 0.00 0.00 0.00 0.01 0.01 0.01 0.00 0.01 0.00 0.00 0.00 0.00 0.00 0.00 0.00 0.00 0.00 0.00 0.00 0.00 0.00 0.00 0.00 0.00 0.00
0.25 0.29 0.26 0.37 0.41 0.12 0.05 0.03 0.02 0.02 0.09 0.09 0.22 0.42 0.32 0.12 0.02 0.01 0.00 0.00 0.01 0.01 0.01 0.00 0.00 0.00 0.00 0.00 0.00 0.00 0.00 0.00 0.00 0.00 0.00 0.00 0.00 0.00 0.00 0.00 0.00 0.00 0.00
0.69 0.47 0.41 0.34 0.33 0.24 0.12 0.04 0.02 0.02 0.07 0.15 0.16 0.28 0.18 0.07 0.01 0.00 0.01 0.01 0.01 0.00 0.00 0.00 0.00 0.00 0.00 0.00 0.00 0.00 0.00 0.00 0.00 0.00 0.00 0.00 0.00 0.00 0.00 0.00 0.00 0.00 0.00
1.12 1.10 0.71 0.58 0.27 0.16 0.18 0.11 0.05 0.03 0.03 0.16 0.13 0.11 0.04 0.01 0.00 0.01 0.01 0.02 0.01 0.00 0.00 0.00 0.00 0.00 0.00 0.00 0.00 0.00 0.00 0.00 0.00 0.00 0.00 0.00 0.00 0.00 0.00 0.00 0.00 0.00 0.00
1.17 1.25 1.50 0.97 0.42 0.18 0.28 0.16 0.09 0.07 0.03 0.12 0.15 0.08 0.03 0.00 0.00 0.00 0.00 0.01 0.00 0.00 0.00 0.00 0.00 0.00 0.00 0.00 0.00 0.00 0.00 0.00 0.00 0.00 0.00 0.00 0.00 0.00 0.00 0.00 0.00 0.00 0.00
1.20 0.96 1.29 1.50 0.76 0.36 0.33 0.23 0.13 0.10 0.05 0.04 0.11 0.08 0.03 0.00 0.00 0.00 0.00 0.01 0.00 0.00 0.00 0.00 0.00 0.00 0.00 0.00 0.00 0.00 0.00 0.00 0.00 0.00 0.00 0.00 0.00 0.00 0.00 0.00 0.00 0.00 0.00
2.04 1.22 0.81 1.09 1.11 0.49 0.65 0.39 0.21 0.09 0.07 0.01 0.07 0.07 0.03 0.00 0.00 0.00 0.00 0.00 0.00 0.00 0.00 0.00 0.00 0.00 0.00 0.00 0.00 0.00 0.00 0.00 0.00 0.00 0.00 0.00 0.00 0.00 0.00 0.00 0.01 0.03 0.05
2.25 2.06 1.31 0.80 0.96 0.63 0.67 0.54 0.19 0.08 0.06 0.01 0.01 0.08 0.03 0.00 0.00 0.00 0.00 0.00 0.00 0.00 0.00 0.00 0.00 0.00 0.00 0.00 0.00 0.00 0.00 0.00 0.00 0.00 0.00 0.00 0.00 0.00 0.00 0.00 0.02 0.03 0.06
1.44 2.46 2.26 1.53 0.97 0.78 0.50 0.69 0.29 0.08 0.04 0.02 0.00 0.03 0.04 0.01 0.00 0.00 0.00 0.00 0.00 0.00 0.00 0.00 0.00 0.00 0.00 0.00 0.00 0.00 0.00 0.00 0.00 0.00 0.00 0.00 0.00 0.00 0.00 0.00 0.01 0.05 0.10
0.69 1.09 1.94 1.96 1.83 1.32 0.89 1.03 0.68 0.21 0.07 0.04 0.02 0.01 0.01 0.01 0.00 0.00 0.00 0.00 0.00 0.00 0.00 0.00 0.00 0.00 0.00 0.00 0.00 0.00 0.00 0.00 0.00 0.00 0.00 0.00 0.00 0.00 0.00 0.00 0.01 0.03 0.05
0.40 0.54 0.78 1.19 1.96 1.96 1.21 1.10 1.31 0.72 0.23 0.07 0.01 0.01 0.00 0.00 0.00 0.00 0.00 0.00 0.00 0.00 0.00 0.00 0.00 0.00 0.00 0.00 0.00 0.00 0.00 0.00 0.00 0.00 0.00 0.00 0.00 0.00 0.00 0.00 0.01 0.02 0.03
0.31 0.29 0.35 0.47 0.93 1.44 1.09 0.94 1.05 1.06 0.69 0.31 0.08 0.01 0.00 0.01 0.00 0.00 0.00 0.00 0.00 0.00 0.00 0.00 0.00 0.00 0.00 0.00 0.00 0.00 0.00 0.00 0.00 0.00 0.00 0.00 0.00 0.00 0.00 0.00 0.00 0.01 0.02
0.24 0.27 0.34 0.49 0.51 0.63 0.62 0.59 0.61 0.79 0.89 0.51 0.34 0.13 0.06 0.02 0.00 0.00 0.00 0.00 0.00 0.00 0.00 0.00 0.00 0.00 0.00 0.00 0.00 0.00 0.00 0.00 0.00 0.00 0.00 0.00 0.00 0.00 0.00 0.00 0.00 0.00 0.00
0.30 0.35 0.34 0.27 0.34 0.32 0.62 0.70 0.65 0.71 0.72 0.64 0.27 0.19 0.14 0.09 0.06 0.02 0.01 0.00 0.00 0.00 0.00 0.00 0.00 0.00 0.00 0.00 0.01 0.01 0.00 0.00 0.00 0.00 0.00 0.00 0.00 0.00 0.00 0.00 0.00 0.00 0.00
0.61 0.56 0.38 0.31 0.31 0.31 0.44 0.43 0.47 0.64 0.94 0.84 0.68 0.44 0.31 0.39 0.33 0.20 0.10 0.05 0.02 0.00 0.00 0.00 0.00 0.00 0.01 0.00 0.03 0.01 0.00 0.00 0.00 0.00 0.00 0.00 0.00 0.00 0.00 0.00 0.00 0.00 0.00
1.25 1.40 1.03 0.70 0.68 0.47 0.53 0.48 0.32 0.47 0.62 0.66 0.70 0.65 0.54 0.50 0.44 0.33 0.25 0.21 0.13 0.13 0.05 0.03 0.02 0.04 0.04 0.04 0.04 0.03 0.01 0.00 0.00 0.00 0.00 0.00 0.00 0.00 0.00 0.00 0.00 0.00 0.00
1.48 1.53 1.21 1.11 0.96 0.94 0.85 1.14 0.90 0.80 0.72 0.73 0.61 0.72 0.81 0.63 0.50 0.57 0.53 0.44 0.38 0.51 0.65 0.60 0.47 0.38 0.28 0.22 0.17 0.13 0.05 0.01 0.00 0.00 0.00 0.00 0.00 0.00 0.00 0.00 0.00 0.00 0.00
0.78 0.70 1.15 1.96 2.04 1.30 1.34 1.82 2.15 2.27 2.22 1.93 1.76 1.29 1.02 0.92 0.89 1.07 1.24 1.29 1.24 1.06 0.80 0.80 0.78 0.65 0.66 0.63 0.57 0.37 0.27 0.19 0.12 0.05 0.01 0.00 0.00 0.00 0.00 0.00 0.00 0.00 0.00
0.38 0.40 0.54 0.95 1.37 1.13 1.24 1.29 1.53 1.49 1.39 1.32 1.21 1.21 1.16 1.22 1.12 1.04 1.13 1.16 1.01 0.90 0.94 0.92 0.87 0.92 0.89 0.70 0.62 0.50 0.40 0.34 0.39 0.31 0.11 0.01 0.00 0.00 0.00 0.00 0.00 0.00 0.00
0.38 0.44 0.36 0.45 0.59 0.87 0.95 0.87 1.06 1.31 1.51 1.37 1.02 0.93 0.86 0.69 0.64 0.69 0.64 0.61 0.57 0.48 0.48 0.63 0.75 0.76 0.69 0.71 0.72 0.64 0.51 0.44 0.43 0.48 0.36 0.18 0.08 0.03 0.02 0.00 0.00 0.00 0.00

GFSSE_prec_precacc24_090.txt.gz
Total_Precipitation_Accumulation
0.00 0.00 0.05 0.05 0.01 0.01 0.00 0.00 0.01 0.01 0.02 0.03 0.01 0.02 0.04 0.05 0.05 0.05 0.02 0.00 0.00 0.00 0.01 0.03 0.04 0.04 0.03 0.02 0.01 0.01 0.01 0.00 0.01 0.00 0.01 0.02 0.02 0.01 0.01 0.02 0.04 0.05 0.11
0.00 0.00 0.03 0.06 0.02 0.02 0.01 0.00 0.01 0.03 0.05 0.03 0.05 0.08 0.07 0.09 0.10 0.05 0.01 0.00 0.00 0.00 0.02 0.04 0.03 0.02 0.01 0.00 0.00 0.00 0.00 0.00 0.00 0.00 0.00 0.00 0.00 0.00 0.00 0.00 0.01 0.02 0.04
0.00 0.00 0.02 0.08 0.04 0.03 0.00 0.00 0.01 0.02 0.03 0.04 0.10 0.11 0.10 0.14 0.06 0.01 0.00 0.00 0.00 0.01 0.02 0.02 0.01 0.01 0.00 0.00 0.00 0.00 0.00 0.00 0.00 0.00 0.00 0.00 0.00 0.00 0.00 0.00 0.00 0.00 0.00
0.00 0.01 0.02 0.08 0.04 0.01 0.00 0.00 0.01 0.01 0.03 0.09 0.14 0.15 0.20 0.17 0.02 0.01 0.00 0.00 0.01 0.01 0.02 0.01 0.01 0.01 0.01 0.00 0.00 0.00 0.00 0.00 0.00 0.00 0.00 0.00 0.00 0.00 0.00 0.00 0.00 0.00 0.00
0.02 0.02 0.03 0.09 0.09 0.02 0.01 0.02 0.00 0.00 0.03 0.11 0.22 0.28 0.28 0.20 0.02 0.00 0.00 0.01 0.02 0.02 0.01 0.01 0.01 0.01 0.00 0.00 0.00 0.00 0.00 0.00 0.00 0.00 0.00 0.00 0.00 0.00 0.00 0.00 0.00 0.00 0.00
0.05 0.05 0.10 0.21 0.15 0.02 0.05 0.03 0.01 0.01 0.04 0.11 0.20 0.31 0.35 0.21 0.04 0.01 0.00 0.01 0.01 0.00 0.01 0.01 0.02 0.01 0.00 0.00 0.00 0.00 0.00 0.00 0.00 0.00 0.00 0.00 0.00 0.00 0.00 0.00 0.00 0.00 0.00
0.11 0.13 0.21 0.46 0.31 0.05 0.06 0.05 0.02 0.02 0.09 0.09 0.23 0.37 0.36 0.17 0.09 0.01 0.01 0.00 0.00 0.01 0.01 0.02 0.01 0.01 0.00 0.00 0.00 0.00 0.00 0.00 0.00 0.00 0.00 0.00 0.00 0.00 0.00 0.00 0.00 0.00 0.00
0.29 0.33 0.37 0.57 0.58 0.26 0.14 0.08 0.02 0.02 0.12 0.10 0.22 0.45 0.37 0.17 0.11 0.01 0.01 0.00 0.01 0.01 0.01 0.01 0.00 0.00 0.00 0.00 0.00 0.00 0.00 0.00 0.00 0.00 0.00 0.00 0.00 0.00 0.00 0.00 0.00 0.00 0.00
0.79 0.61 0.44 0.36 0.36 0.31 0.18 0.09 0.03 0.02 0.09 0.17 0.17 0.32 0.25 0.15 0.09 0.01 0.01 0.01 0.02 0.01 0.01 0.00 0.00 0.00 0.00 0.00 0.00 0.00 0.00 0.00 0.00 0.00 0.00 0.00 0.00 0.00 0.00 0.00 0.00 0.00 0.00
1.18 1.22 0.87 0.60 0.31 0.21 0.19 0.11 0.06 0.04 0.05 0.27 0.16 0.17 0.12 0.08 0.04 0.01 0.01 0.03 0.02 0.01 0.01 0.00 0.00 0.00 0.00 0.00 0.00 0.00 0.00 0.00 0.00 0.00 0.00 0.00 0.00 0.00 0.00 0.00 0.00 0.00 0.00
1.18 1.31 1.67 1.17 0.54 0.24 0.29 0.16 0.09 0.08 0.03 0.22 0.23 0.13 0.09 0.03 0.00 0.00 0.00 0.02 0.01 0.00 0.00 0.00 0.00 0.00 0.00 0.00 0.00 0.00 0.00 0.00 0.00 0.00 0.00 0.00 0.00 0.00 0.00 0.00 0.00 0.00 0.00
1.18 0.98 1.33 1.63 0.94 0.49 0.41 0.25 0.13 0.11 0.08 0.09 0.23 0.15 0.08 0.05 0.00 0.00 0.00 0.01 0.01 0.00 0.00 0.00 0.00 0.00 0.00 0.00 0.00 0.00 0.00 0.00 0.00 0.00 0.00 0.00 0.00 0.00 0.00 0.00 0.00 0.00 0.00
1.77 1.15 0.81 1.10 1.14 0.54 0.73 0.48 0.23 0.09 0.09 0.07 0.17 0.26 0.10 0.06 0.06 0.00 0.00 0.00 0.00 0.00 0.00 0.00 0.00 0.00 0.00 0.00 0.00 0.00 0.00 0.00 0.00 0.00 0.00 0.00 0.00 0.00 0.00 0.00 0.01 0.03 0.05
1.86 1.83 1.24 0.80 0.96 0.63 0.69 0.66 0.24 0.09 0.06 0.05 0.07 0.31 0.24 0.08 0.12 0.09 0.00 0.00 0.00 0.00 0.00 0.00 0.00 0.00 0.00 0.00 0.00 0.00 0.00 0.00 0.00 0.00 0.00 0.00 0.00 0.00 0.00 0.00 0.01 0.03 0.06
1.14 2.13 2.09 1.47 0.97 0.78 0.51 0.76 0.35 0.10 0.05 0.03 0.05 0.09 0.39 0.19 0.12 0.04 0.00 0.00 0.00 0.00 0.00 0.00 0.00 0.00 0.00 0.00 0.00 0.00 0.00 0.00 0.00 0.00 0.00 0.00 0.00 0.00 0.00 0.00 0.01 0.04 0.09
0.60 0.89 1.75 1.86 1.77 1.32 0.89 1.03 0.73 0.24 0.08 0.04 0.03 0.03 0.06 0.33 0.11 0.08 0.00 0.00 0.00 0.00 0.00 0.00 0.00 0.00 0.00 0.00 0.00 0.00 0.00 0.00 0.00 0.00 0.00 0.00 0.00 0.00 0.00 0.00 0.01 0.03 0.04
0.30 0.41 0.66 1.08 1.83 1.87 1.19 1.10 1.33 0.77 0.26 0.07 0.02 0.02 0.02 0.07 0.13 0.01 0.00 0.00 0.00 0.00 0.00 0.00 0.00 0.00 0.00 0.00 0.00 0.00 0.00 0.00 0.00 0.00 0.00 0.00 0.00 0.00 0.00 0.00 0.01 0.02 0.03
0.19 0.19 0.31 0.45 0.91 1.39 1.07 0.94 1.06 1.14 0.81 0.32 0.08 0.01 0.01 0.01 0.02 0.02 0.00 0.00 0.00 0.00 0.00 0.00 0.00 0.00 0.00 0.00 0.00 0.00 0.00 0.00 0.00 0.00 0.00 0.00 0.00 0.00 0.00 0.00 0.00 0.01 0.02
0.18 0.19 0.29 0.42 0.45 0.61 0.64 0.62 0.64 0.94 1.15 0.70 0.39 0.14 0.06 0.02 0.00 0.02 0.02 0.00 0.00 0.00 0.00 0.00 0.00 0.00 0.00 0.00 0.00 0.00 0.00 0.00 0.00 0.00 0.00 0.00 0.00 0.00 0.00 0.00 0.00 0.00 0.00
0.25 0.23 0.19 0.20 0.30 0.29 0.64 0.81 0.80 0.85 0.91 0.88 0.45 0.25 0.15 0.09 0.06 0.02 0.01 0.00 0.00 0.00 0.00 0.00 0.00 0.00 0.00 0.00 0.00 0.00 0.00 0.00 0.00 0.00 0.00 0.00 0.00 0.00 0.00 0.00 0.00 0.00 0.00
0.57 0.46 0.25 0.20 0.25 0.30 0.46 0.46 0.59 0.78 1.03 1.15 0.86 0.55 0.35 0.41 0.34 0.20 0.10 0.05 0.02 0.00 0.00 0.00 0.00 0.00 0.00 0.00 0.02 0.01 0.00 0.00 0.00 0.00 0.00 0.00 0.00 0.00 0.00 0.00 0.00 0.00 0.00
1.25 1.39 0.95 0.63 0.56 0.48 0.56 0.50 0.37 0.58 0.80 1.00 1.14 0.92 0.80 0.62 0.45 0.33 0.24 0.20 0.13 0.13 0.06 0.03 0.03 0.04 0.04 0.04 0.03 0.03 0.01 0.00 0.00 0.00 0.00 0.00 0.00 0.00 0.00 0.00 0.00 0.00 0.00
1.53 1.53 1.22 1.11 0.97 0.97 0.86 1.06 0.91 0.87 0.82 1.08 1.23 1.16 1.19 1.04 0.82 0.75 0.64 0.48 0.40 0.53 0.69 0.63 0.54 0.46 0.36 0.27 0.18 0.13 0.05 0.01 0.01 0.00 0.00 0.00 0.00 0.00 0.00 0.00 0.00 0.00 0.00
0.81 0.71 1.14 2.02 2.24 1.32 1.30 1.94 2.19 2.12 2.06 1.81 1.89 1.56 1.29 1.20 1.17 1.34 1.52 1.54 1.45 1.24 0.97 0.93 0.89 0.75 0.77 0.75 0.68 0.43 0.31 0.21 0.13 0.06 0.02 0.01 0.01 0.00 0.00 0.00 0.00 0.00 0.00
0.40 0.41 0.53 0.91 1.67 1.68 1.41 1.79 1.94 1.77 1.49 1.30 1.19 1.20 1.15 1.25 1.25 1.24 1.27 1.29 1.14 1.05 1.10 1.06 0.96 0.98 0.92 0.71 0.63 0.52 0.44 0.38 0.43 0.34 0.16 0.08 0.05 0.03 0.01 0.00 0.00 0.00 0.00
0.38 0.46 0.41 0.51 0.81 1.58 1.44 1.37 1.39 1.62 1.84 1.55 1.11 1.02 0.98 0.80 0.78 0.87 0.78 0.71 0.68 0.63 0.61 0.75 0.88 0.83 0.73 0.72 0.73 0.64 0.51 0.44 0.43 0.49 0.41 0.25 0.17 0.11 0.06 0.03 0.02 0.01 0.00

GFSSE_prec_precacc24_093.txt.gz
Total_Precipitation_Accumulation
0.00 0.00 0.04 0.04 0.02 0.00 0.00 0.00 0.01 0.01 0.01 0.01 0.01 0.02 0.04 0.03 0.03 0.02 0.00 0.00 0.00 0.00 0.01 0.04 0.04 0.04 0.03 0.02 0.01 0.01 0.01 0.00 0.01 0.00 0.01 0.01 0.01 0.01 0.01 0.01 0.03 0.05 0.10
0.00 0.00 0.03 0.06 0.02 0.01 0.01 0.01 0.01 0.03 0.02 0.02 0.05 0.08 0.07 0.09 0.08 0.02 0.00 0.00 0.00 0.01 0.04 0.04 0.03 0.02 0.01 0.00 0.00 0.00 0.00 0.00 0.00 0.00 0.00 0.00 0.00 0.00 0.00 0.00 0.00 0.01 0.04
0.00 0.00 0.01 0.07 0.03 0.03 0.01 0.01 0.01 0.02 0.02 0.04 0.10 0.11 0.11 0.14 0.05 0.00 0.00 0.00 0.00 0.02 0.04 0.02 0.01 0.01 0.00 0.00 0.00 0.00 0.00 0.00 0.00 0.00 0.00 0.00 0.00 0.00 0.00 0.00 0.00 0.00 0.00
0.00 0.00 0.02 0.08 0.04 0.01 0.00 0.01 0.02 0.01 0.03 0.10 0.15 0.15 0.21 0.17 0.02 0.00 0.00 0.00 0.01 0.03 0.03 0.01 0.01 0.01 0.01 0.00 0.00 0.00 0.00 0.00 0.00 0.00 0.00 0.00 0.00 0.00 0.00 0.00 0.00 0.00 0.00
0.01 0.01 0.02 0.09 0.08 0.01 0.01 0.02 0.00 0.00 0.03 0.12 0.23 0.29 0.30 0.23 0.02 0.00 0.00 0.01 0.02 0.03 0.02 0.01 0.01 0.01 0.00 0.00 0.00 0.00 0.00 0.00 0.00 0.00 0.00 0.00 0.00 0.00 0.00 0.00 0.00 0.00 0.00
0.04 0.04 0.09 0.22 0.16 0.03 0.08 0.04 0.00 0.01 0.04 0.11 0.21 0.31 0.36 0.24 0.07 0.01 0.00 0.01 0.01 0.01 0.01 0.02 0.02 0.01 0.00 0.00 0.00 0.00 0.00 0.00 0.00 0.00 0.00 0.00 0.00 0.00 0.00 0.00 0.00 0.00 0.00
0.11 0.11 0.25 0.52 0.39 0.07 0.07 0.07 0.01 0.00 0.08 0.09 0.23 0.37 0.39 0.18 0.16 0.02 0.01 0.00 0.00 0.01 0.02 0.02 0.01 0.01 0.00 0.00 0.00 0.00 0.00 0.00 0.00 0.00 0.00 0.00 0.00 0.00 0.00 0.00 0.00 0.00 0.00
0.34 0.31 0.38 0.58 0.63 0.39 0.24 0.13 0.04 0.01 0.11 0.11 0.23 0.47 0.41 0.24 0.15 0.06 0.02 0.00 0.01 0.01 0.02 0.02 0.00 0.00 0.00 0.00 0.00 0.00 0.00 0.00 0.00 0.00 0.00 0.00 0.00 0.00 0.00 0.00 0.00 0.00 0.00
0.95 0.69 0.44 0.34 0.36 0.32 0.18 0.09 0.03 0.03 0.09 0.18 0.18 0.34 0.30 0.25 0.13 0.07 0.03 0.01 0.02 0.01 0.02 0.01 0.00 0.00 0.00 0.00 0.00 0.00 0.00 0.00 0.00 0.00 0.00 0.00 0.00 0.00 0.00 0.00 0.00 0.00 0.00
1.28 1.40 1.07 0.73 0.35 0.25 0.20 0.12 0.06 0.04 0.04 0.27 0.18 0.18 0.14 0.11 0.07 0.05 0.02 0.03 0.02 0.02 0.01 0.00 0.00 0.00 0.00 0.00 0.00 0.00 0.00 0.00 0.00 0.00 0.00 0.00 0.00 0.00 0.00 0.00 0.00 0.00 0.00
1.16 1.33 1.74 1.36 0.75 0.39 0.33 0.17 0.10 0.08 0.03 0.21 0.24 0.13 0.11 0.05 0.01 0.00 0.00 0.02 0.02 0.01 0.01 0.00 0.00 0.00 0.00 0.00 0.00 0.00 0.00 0.00 0.00 0.00 0.00 0.00 0.00 0.00 0.00 0.00 0.00 0.00 0.00
1.16 0.97 1.34 1.65 1.01 0.58 0.49 0.30 0.14 0.11 0.08 0.09 0.23 0.17 0.10 0.07 0.01 0.00 0.00 0.01 0.01 0.01 0.01 0.00 0.00 0.00 0.00 0.00 0.00 0.00 0.00 0.00 0.00 0.00 0.00 0.00 0.00 0.00 0.00 0.00 0.00 0.00 0.00
1.46 1.11 0.80 1.11 1.16 0.55 0.75 0.50 0.25 0.10 0.09 0.07 0.17 0.28 0.14 0.10 0.07 0.00 0.00 0.00 0.00 0.00 0.00 0.00 0.00 0.00 0.00 0.00 0.00 0.00 0.00 0.00 0.00 0.00 0.00 0.00 0.00 0.00 0.00 0.00 0.00 0.03 0.05
1.48 1.50 1.06 0.78 0.96 0.63 0.69 0.66 0.24 0.09 0.06 0.05 0.07 0.32 0.28 0.15 0.15 0.14 0.01 0.00 0.00 0.00 0.00 0.00 0.00 0.00 0.00 0.00 0.00 0.00 0.00 0.00 0.00 0.00 0.00 0.00 0.00 0.00 0.00 0.00 0.00 0.02 0.06
0.92 1.76 1.73 1.20 0.92 0.77 0.51 0.76 0.35 0.10 0.05 0.03 0.05 0.09 0.41 0.29 0.21 0.16 0.20 0.06 0.00 0.00 0.00 0.00 0.00 0.00 0.00 0.00 0.00 0.00 0.00 0.00 0.00 0.00 0.00 0.00 0.00 0.00 0.00 0.00 0.01 0.03 0.07
0.60 0.81 1.43 1.50 1.48 1.21 0.85 0.96 0.67 0.23 0.08 0.04 0.03 0.03 0.07 0.36 0.33 0.37 0.21 0.16 0.05 0.00 0.00 0.00 0.00 0.00 0.00 0.00 0.00 0.00 0.00 0.00 0.00 0.00 0.00 0.00 0.00 0.00 0.00 0.00 0.01 0.03 0.04
0.29 0.38 0.59 0.86 1.55 1.63 0.98 0.90 1.22 0.72 0.25 0.07 0.02 0.02 0.02 0.08 0.35 0.32 0.56 0.25 0.03 0.00 0.00 0.00 0.00 0.00 0.00 0.00 0.00 0.00 0.00 0.00 0.00 0.00 0.00 0.00 0.00 0.00 0.00 0.00 0.01 0.02 0.03
0.14 0.16 0.28 0.42 0.83 1.28 0.82 0.73 0.93 1.07 0.81 0.33 0.09 0.01 0.01 0.01 0.05 0.25 0.27 0.35 0.11 0.01 0.00 0.00 0.00 0.00 0.00 0.00 0.00 0.00 0.00 0.00 0.00 0.00 0.00 0.00 0.00 0.00 0.00 0.00 0.00 0.01 0.02
0.13 0.10 0.17 0.39 0.39 0.53 0.49 0.49 0.55 0.85 1.14 0.71 0.40 0.15 0.06 0.02 0.00 0.05 0.13 0.14 0.08 0.03 0.00 0.00 0.00 0.00 0.00 0.00 0.00 0.00 0.00 0.00 0.00 0.00 0.00 0.00 0.00 0.00 0.00 0.00 0.00 0.00 0.00
0.23 0.17 0.13 0.15 0.19 0.16 0.46 0.63 0.68 0.82 0.89 0.86 0.47 0.25 0.14 0.10 0.07 0.03 0.06 0.08 0.03 0.00 0.00 0.00 0.00 0.00 0.00 0.00 0.00 0.00 0.00 0.00 0.00 0.00 0.00 0.00 0.00 0.00 0.00 0.00 0.00 0.00 0.00
0.54 0.33 0.20 0.11 0.12 0.16 0.30 0.34 0.51 0.74 1.03 1.15 0.85 0.61 0.42 0.43 0.35 0.22 0.14 0.08 0.07 0.01 0.00 0.00 0.00 0.00 0.00 0.00 0.02 0.01 0.00 0.00 0.00 0.00 0.00 0.00 0.00 0.00 0.00 0.00 0.00 0.00 0.00
1.23 1.29 0.95 0.63 0.54 0.47 0.53 0.47 0.33 0.50 0.80 1.08 1.19 0.96 0.87 0.69 0.52 0.37 0.27 0.22 0.14 0.14 0.06 0.03 0.03 0.03 0.04 0.04 0.03 0.03 0.01 0.00 0.00 0.00 0.00 0.00 0.00 0.00 0.00 0.00 0.00 0.00 0.00
1.52 1.49 1.18 1.11 0.97 0.98 0.85 1.00 0.83 0.75 0.83 1.24 1.40 1.26 1.22 1.06 0.87 0.80 0.66 0.50 0.39 0.52 0.69 0.64 0.54 0.46 0.37 0.27 0.19 0.13 0.05 0.01 0.01 0.01 0.01 0.00 0.00 0.00 0.00 0.00 0.00 0.00 0.00
0.81 0.70 1.10 1.93 2.11 1.15 1.09 1.70 2.03 1.92 1.90 1.78 2.14 1.83 1.33 1.15 1.06 1.26 1.45 1.52 1.47 1.28 1.03 1.00 0.95 0.82 0.84 0.81 0.74 0.48 0.33 0.22 0.13 0.07 0.03 0.02 0.01 0.00 0.01 0.00 0.00 0.00 0.00
0.42 0.43 0.53 0.90 1.63 1.63 1.39 1.77 2.06 1.76 1.38 1.28 1.38 1.64 1.42 1.42 1.20 1.13 1.18 1.30 1.22 1.16 1.24 1.20 1.12 1.15 1.09 0.85 0.74 0.59 0.48 0.41 0.45 0.34 0.16 0.08 0.05 0.03 0.01 0.00 0.00 0.00 0.00
0.39 0.48 0.43 0.54 0.89 1.65 1.72 1.60 1.82 2.15 2.23 1.80 1.44 1.55 1.30 1.09 1.09 1.06 0.95 0.87 0.82 0.76 0.73 0.87 0.98 0.93 0.84 0.84 0.82 0.70 0.55 0.47 0.44 0.51 0.42 0.26 0.17 0.11 0.06 0.04 0.04 0.02 0.01

GFSSE_prec_precacc24_096.txt.gz
Total_Precipitation_Accumulation
0.00 0.00 0.03 0.04 0.02 0.01 0.01 0.00 0.01 0.00 0.00 0.01 0.01 0.01 0.01 0.01 0.02 0.01 0.00 0.00 0.00 0.00 0.03 0.05 0.05 0.04 0.03 0.02 0.01 0.01 0.01 0.00 0.01 0.00 0.01 0.01 0.01 0.01 0.01 0.01 0.03 0.04 0.09
0.00 0.00 0.03 0.05 0.03 0.03 0.02 0.02 0.01 0.01 0.01 0.02 0.05 0.06 0.03 0.03 0.03 0.01 0.00 0.00 0.00 0.01 0.05 0.05 0.03 0.02 0.01 0.01 0.00 0.00 0.00 0.00 0.00 0.00 0.00 0.00 0.00 0.00 0.00 0.00 0.00 0.01 0.03
0.00 0.00 0.01 0.06 0.02 0.03 0.02 0.03 0.02 0.01 0.03 0.05 0.10 0.10 0.08 0.10 0.04 0.00 0.00 0.00 0.01 0.04 0.05 0.03 0.02 0.01 0.01 0.00 0.00 0.00 0.00 0.00 0.00 0.00 0.00 0.00 0.00 0.00 0.00 0.00 0.00 0.00 0.00
0.00 0.00 0.01 0.07 0.03 0.01 0.01 0.03 0.04 0.02 0.05 0.11 0.15 0.15 0.20 0.15 0.02 0.00 0.00 0.00 0.03 0.04 0.04 0.01 0.01 0.01 0.01 0.00 0.00 0.00 0.00 0.00 0.00 0.00 0.00 0.00 0.00 0.00 0.00 0.00 0.00 0.00 0.00
0.01 0.00 0.01 0.07 0.07 0.01 0.01 0.01 0.01 0.01 0.04 0.13 0.25 0.30 0.31 0.22 0.02 0.00 0.00 0.01 0.05 0.05 0.02 0.01 0.01 0.01 0.00 0.00 0.00 0.00 0.00 0.00 0.00 0.00 0.00 0.00 0.00 0.00 0.00 0.00 0.00 0.00 0.00
0.03 0.02 0.08 0.21 0.15 0.03 0.08 0.03 0.00 0.01 0.04 0.11 0.22 0.34 0.39 0.25 0.10 0.01 0.00 0.01 0.03 0.02 0.01 0.02 0.02 0.01 0.00 0.00 0.00 0.00 0.00 0.00 0.00 0.00 0.00 0.00 0.00 0.00 0.00 0.00 0.00 0.00 0.00
0.10 0.11 0.25 0.50 0.39 0.07 0.07 0.06 0.01 0.00 0.08 0.09 0.23 0.37 0.40 0.19 0.19 0.03 0.01 0.01 0.01 0.01 0.02 0.02 0.01 0.01 0.00 0.00 0.00 0.00 0.00 0.00 0.00 0.00 0.00 0.00 0.00 0.00 0.00 0.00 0.00 0.00 0.00
0.47 0.42 0.41 0.59 0.68 0.43 0.26 0.13 0.05 0.02 0.11 0.12 0.25 0.47 0.41 0.28 0.17 0.08 0.03 0.00 0.01 0.02 0.02 0.02 0.00 0.00 0.00 0.00 0.00 0.00 0.00 0.00 0.00 0.00 0.00 0.00 0.00 0.00 0.00 0.00 0.00 0.00 0.00
1.09 0.82 0.46 0.34 0.37 0.33 0.19 0.09 0.02 0.02 0.09 0.18 0.19 0.35 0.32 0.28 0.17 0.10 0.06 0.01 0.02 0.02 0.03 0.02 0.00 0.00 0.00 0.00 0.00 0.00 0.00 0.00 0.00 0.00 0.00 0.00 0.00 0.00 0.00 0.00 0.00 0.00 0.00
1.26 1.49 1.19 0.91 0.46 0.28 0.21 0.12 0.05 0.02 0.03 0.27 0.18 0.18 0.16 0.14 0.10 0.08 0.04 0.03 0.02 0.02 0.02 0.02 0.00 0.00 0.00 0.00 0.00 0.00 0.00 0.00 0.00 0.00 0.00 0.00 0.00 0.00 0.00 0.00 0.00 0.00 0.00
1.11 1.33 1.83 1.50 0.90 0.54 0.42 0.21 0.11 0.07 0.01 0.21 0.24 0.13 0.12 0.07 0.04 0.02 0.01 0.02 0.02 0.01 0.02 0.01 0.00 0.00 0.00 0.00 0.00 0.00 0.00 0.00 0.00 0.00 0.00 0.00 0.00 0.00 0.00 0.00 0.00 0.00 0.00
1.13 0.97 1.33 1.68 1.06 0.65 0.54 0.33 0.16 0.11 0.07 0.09 0.23 0.17 0.10 0.09 0.03 0.02 0.00 0.01 0.01 0.01 0.01 0.01 0.00 0.00 0.00 0.00 0.00 0.00 0.00 0.00 0.00 0.00 0.00 0.00 0.00 0.00 0.00 0.00 0.00 0.00 0.00
1.36 1.07 0.79 1.11 1.18 0.58 0.76 0.51 0.25 0.10 0.09 0.07 0.17 0.28 0.14 0.12 0.11 0.03 0.00 0.00 0.00 0.01 0.01 0.01 0.00 0.00 0.00 0.00 0.00 0.00 0.00 0.00 0.00 0.00 0.00 0.00 0.00 0.00 0.00 0.00 0.00 0.02 0.05
1.12 1.20 0.98 0.77 0.98 0.64 0.70 0.66 0.24 0.09 0.06 0.05 0.07 0.32 0.28 0.16 0.17 0.17 0.03 0.01 0.00 0.00 0.00 0.00 0.00 0.00 0.00 0.00 0.00 0.00 0.00 0.00 0.00 0.00 0.00 0.00 0.00 0.00 0.00 0.00 0.00 0.02 0.05
0.76 1.50 1.38 0.94 0.78 0.75 0.50 0.76 0.35 0.10 0.05 0.03 0.05 0.09 0.41 0.30 0.23 0.20 0.23 0.07 0.01 0.01 0.00 0.00 0.00 0.00 0.00 0.00 0.00 0.00 0.00 0.00 0.00 0.00 0.00 0.00 0.00 0.00 0.00 0.00 0.01 0.02 0.05
0.51 0.76 1.38 1.41 1.26 1.00 0.70 0.92 0.66 0.22 0.08 0.04 0.03 0.03 0.07 0.36 0.33 0.40 0.26 0.17 0.09 0.03 0.02 0.00 0.00 0.00 0.00 0.00 0.00 0.00 0.00 0.00 0.00 0.00 0.00 0.00 0.00 0.00 0.00 0.01 0.02 0.03 0.04
0.25 0.35 0.58 0.85 1.49 1.51 0.75 0.72 1.10 0.62 0.20 0.06 0.01 0.02 0.02 0.08 0.35 0.33 0.66 0.44 0.13 0.09 0.06 0.02 0.00 0.00 0.00 0.00 0.00 0.00 0.00 0.00 0.00 0.00 0.00 0.00 0.00 0.00 0.00 0.00 0.01 0.03 0.03
0.14 0.16 0.26 0.41 0.82 1.27 0.67 0.44 0.83 0.94 0.61 0.24 0.05 0.01 0.01 0.01 0.05 0.25 0.28 0.58 0.53 0.35 0.22 0.07 0.04 0.01 0.00 0.00 0.00 0.00 0.00 0.00 0.00 0.00 0.00 0.00 0.00 0.00 0.00 0.00 0.00 0.01 0.03
0.13 0.09 0.11 0.23 0.33 0.50 0.40 0.37 0.39 0.70 0.87 0.50 0.25 0.11 0.07 0.03 0.01 0.05 0.14 0.16 0.28 0.30 0.25 0.13 0.06 0.01 0.00 0.00 0.00 0.00 0.00 0.00 0.00 0.00 0.00 0.00 0.00 0.00 0.00 0.00 0.00 0.00 0.00
0.20 0.15 0.09 0.09 0.13 0.13 0.36 0.56 0.57 0.73 0.80 0.80 0.39 0.23 0.13 0.09 0.08 0.06 0.09 0.12 0.10 0.12 0.13 0.09 0.04 0.01 0.00 0.00 0.00 0.00 0.00 0.00 0.00 0.00 0.00 0.00 0.00 0.00 0.00 0.00 0.00 0.00 0.00
0.48 0.24 0.15 0.09 0.09 0.12 0.25 0.31 0.43 0.69 0.95 1.09 0.81 0.59 0.42 0.43 0.34 0.25 0.18 0.14 0.13 0.05 0.04 0.06 0.04 0.02 0.00 0.00 0.02 0.01 0.00 0.00 0.00 0.00 0.00 0.00 0.00 0.00 0.00 0.00 0.00 0.00 0.00
1.16 0.90 0.62 0.43 0.41 0.40 0.52 0.47 0.31 0.44 0.71 0.98 1.09 0.90 0.90 0.86 0.71 0.44 0.33 0.28 0.19 0.18 0.07 0.05 0.05 0.05 0.04 0.04 0.03 0.03 0.01 0.00 0.00 0.00 0.00 0.00 0.00 0.00 0.00 0.00 0.00 0.00 0.00
1.51 1.40 1.06 1.00 0.73 0.61 0.48 0.62 0.51 0.49 0.59 1.03 1.29 1.20 1.21 1.09 0.96 1.04 0.92 0.66 0.47 0.49 0.62 0.60 0.54 0.46 0.37 0.27 0.19 0.13 0.05 0.01 0.01 0.01 0.01 0.00 0.00 0.00 0.00 0.00 0.00 0.00 0.00
0.83 0.70 1.08 1.82 1.93 0.84 0.76 1.28 1.58 1.54 1.54 1.40 1.83 1.66 1.25 1.12 1.09 1.25 1.42 1.57 1.51 1.19 0.91 0.95 0.95 0.82 0.84 0.81 0.74 0.48 0.33 0.22 0.14 0.07 0.03 0.02 0.01 0.01 0.01 0.00 0.00 0.00 0.00
0.43 0.43 0.54 0.90 1.59 1.59 1.36 1.75 2.00 1.68 1.30 1.12 1.18 1.54 1.51 1.43 1.18 1.11 1.15 1.28 1.31 1.34 1.43 1.33 1.17 1.19 1.13 0.89 0.77 0.61 0.50 0.43 0.45 0.35 0.16 0.08 0.05 0.03 0.02 0.00 0.00 0.00 0.00
0.40 0.49 0.44 0.56 0.91 1.65 1.68 1.58 1.79 2.07 2.19 1.80 1.45 1.64 1.60 1.27 1.23 1.15 1.04 0.98 0.98 0.96 0.97 1.15 1.21 1.07 0.97 0.97 0.96 0.82 0.63 0.55 0.49 0.55 0.44 0.26 0.17 0.11 0.07 0.04 0.04 0.02 0.01

GFSSE_prec_precacc24_099.txt.gz
Total_Precipitation_Accumulation
0.00 0.01 0.02 0.02 0.02 0.01 0.02 0.00 0.00 0.01 0.01 0.01 0.01 0.02 0.01 0.01 0.02 0.01 0.00 0.00 0.00 0.00 0.04 0.06 0.05 0.06 0.05 0.02 0.01 0.01 0.01 0.01 0.01 0.01 0.01 0.01 0.01 0.01 0.01 0.01 0.03 0.04 0.10
0.00 0.00 0.02 0.04 0.03 0.03 0.03 0.02 0.01 0.01 0.01 0.01 0.02 0.02 0.03 0.03 0.03 0.01 0.00 0.00 0.00 0.02 0.06 0.05 0.03 0.03 0.01 0.01 0.00 0.00 0.00 0.00 0.00 0.00 0.00 0.00 0.00 0.00 0.00 0.00 0.00 0.01 0.02
0.00 0.00 0.01 0.06 0.03 0.04 0.04 0.04 0.02 0.01 0.03 0.04 0.05 0.04 0.04 0.06 0.03 0.00 0.00 0.00 0.01 0.05 0.05 0.03 0.02 0.01 0.01 0.00 0.00 0.00 0.00 0.00 0.00 0.00 0.00 0.00 0.00 0.00 0.00 0.00 0.00 0.00 0.00
0.00 0.01 0.02 0.06 0.03 0.02 0.03 0.03 0.04 0.02 0.05 0.12 0.11 0.09 0.12 0.11 0.02 0.00 0.00 0.00 0.04 0.06 0.04 0.01 0.01 0.01 0.01 0.00 0.00 0.00 0.00 0.00 0.00 0.00 0.00 0.00 0.00 0.00 0.00 0.00 0.00 0.00 0.00
0.01 0.00 0.01 0.05 0.07 0.03 0.03 0.01 0.01 0.02 0.04 0.14 0.24 0.23 0.24 0.21 0.02 0.00 0.01 0.03 0.10 0.06 0.02 0.01 0.01 0.01 0.00 0.00 0.00 0.00 0.00 0.00 0.00 0.00 0.00 0.00 0.00 0.00 0.00 0.00 0.00 0.00 0.00
0.04 0.02 0.08 0.18 0.16 0.06 0.09 0.04 0.02 0.02 0.04 0.12 0.22 0.34 0.39 0.27 0.10 0.01 0.02 0.05 0.04 0.02 0.01 0.02 0.02 0.01 0.00 0.00 0.00 0.00 0.00 0.00 0.00 0.00 0.00 0.00 0.00 0.00 0.00 0.00 0.00 0.00 0.00
0.13 0.11 0.26 0.48 0.40 0.10 0.09 0.09 0.04 0.05 0.10 0.11 0.24 0.37 0.40 0.24 0.21 0.03 0.02 0.03 0.03 0.02 0.02 0.02 0.01 0.01 0.00 0.00 0.00 0.00 0.00 0.00 0.00 0.00 0.00 0.00 0.00 0.00 0.00 0.00 0.00 0.00 0.00
0.61 0.58 0.50 0.58 0.71 0.46 0.25 0.12 0.05 0.03 0.13 0.15 0.26 0.48 0.42 0.31 0.24 0.12 0.04 0.02 0.04 0.03 0.02 0.02 0.00 0.00 0.00 0.00 0.00 0.00 0.00 0.00 0.00 0.00 0.00 0.00 0.00 0.00 0.00 0.00 0.00 0.00 0.00
1.11 0.92 0.55 0.35 0.37 0.35 0.21 0.09 0.02 0.02 0.09 0.18 0.19 0.36 0.33 0.31 0.22 0.16 0.11 0.03 0.04 0.04 0.03 0.02 0.00 0.00 0.00 0.00 0.00 0.00 0.00 0.00 0.00 0.00 0.00 0.00 0.00 0.00 0.00 0.00 0.00 0.00 0.00
1.20 1.49 1.27 0.99 0.54 0.29 0.22 0.11 0.03 0.02 0.03 0.27 0.18 0.18 0.16 0.14 0.10 0.13 0.08 0.05 0.05 0.04 0.03 0.02 0.00 0.00 0.00 0.00 0.00 0.00 0.00 0.00 0.00 0.00 0.00 0.00 0.00 0.00 0.00 0.00 0.00 0.00 0.00
1.02 1.26 1.81 1.56 0.98 0.66 0.50 0.23 0.11 0.05 0.01 0.21 0.24 0.13 0.12 0.07 0.04 0.03 0.02 0.02 0.02 0.02 0.03 0.03 0.00 0.00 0.00 0.00 0.00 0.00 0.00 0.00 0.00 0.00 0.00 0.00 0.00 0.00 0.00 0.00 0.00 0.00 0.00
1.06 0.91 1.29 1.68 1.06 0.70 0.64 0.44 0.23 0.12 0.07 0.09 0.23 0.17 0.10 0.09 0.03 0.03 0.00 0.01 0.01 0.01 0.01 0.03 0.02 0.00 0.00 0.00 0.00 0.00 0.00 0.00 0.00 0.00 0.00 0.00 0.00 0.00 0.00 0.00 0.00 0.00 0.00
1.19 1.01 0.76 1.11 1.18 0.58 0.77 0.52 0.26 0.10 0.08 0.07 0.17 0.28 0.14 0.12 0.11 0.03 0.01 0.01 0.00 0.01 0.01 0.01 0.02 0.00 0.00 0.00 0.00 0.00 0.00 0.00 0.00 0.00 0.00 0.00 0.00 0.00 0.00 0.00 0.00 0.02 0.04
0.85 0.98 0.94 0.77 0.99 0.65 0.70 0.67 0.24 0.09 0.06 0.05 0.07 0.32 0.28 0.16 0.17 0.17 0.03 0.01 0.00 0.00 0.01 0.01 0.00 0.00 0.00 0.00 0.00 0.00 0.00 0.00 0.00 0.00 0.00 0.00 0.00 0.00 0.00 0.00 0.00 0.00 0.03
0.51 1.12 1.09 0.80 0.73 0.75 0.50 0.76 0.35 0.10 0.05 0.03 0.05 0.09 0.41 0.30 0.23 0.20 0.24 0.07 0.01 0.01 0.01 0.02 0.00 0.00 0.00 0.00 0.00 0.00 0.00 0.00 0.00 0.00 0.00 0.00 0.00 0.00 0.01 0.02 0.01 0.01 0.02
0.23 0.63 1.20 1.19 1.09 0.94 0.67 0.92 0.66 0.22 0.08 0.04 0.03 0.03 0.07 0.36 0.33 0.40 0.26 0.17 0.11 0.03 0.03 0.02 0.03 0.02 0.00 0.00 0.00 0.00 0.00 0.00 0.00 0.00 0.00 0.00 0.00 0.00 0.00 0.03 0.06 0.05 0.04
0.09 0.23 0.54 0.83 1.44 1.46 0.68 0.68 1.09 0.62 0.19 0.06 0.01 0.02 0.02 0.08 0.35 0.33 0.66 0.44 0.14 0.10 0.08 0.05 0.05 0.04 0.02 0.00 0.00 0.00 0.00 0.00 0.00 0.00 0.00 0.00 0.00 0.00 0.00 0.00 0.02 0.05 0.04
0.10 0.10 0.21 0.41 0.82 1.25 0.63 0.27 0.78 0.92 0.58 0.23 0.04 0.01 0.01 0.01 0.05 0.25 0.28 0.58 0.54 0.36 0.25 0.17 0.14 0.13 0.07 0.01 0.00 0.00 0.00 0.00 0.00 0.00 0.00 0.00 0.00 0.00 0.00 0.00 0.00 0.01 0.04
0.11 0.08 0.08 0.21 0.32 0.48 0.38 0.29 0.36 0.69 0.78 0.45 0.21 0.05 0.00 0.01 0.01 0.05 0.14 0.17 0.29 0.31 0.29 0.29 0.22 0.15 0.11 0.05 0.01 0.00 0.00 0.00 0.00 0.00 0.00 0.00 0.00 0.00 0.00 0.00 0.00 0.00 0.01
0.15 0.13 0.09 0.08 0.13 0.12 0.34 0.53 0.56 0.72 0.78 0.76 0.34 0.16 0.04 0.03 0.06 0.05 0.09 0.12 0.11 0.14 0.15 0.11 0.11 0.12 0.07 0.03 0.02 0.01 0.00 0.00 0.00 0.00 0.00 0.00 0.00 0.00 0.00 0.00 0.00 0.00 0.00
0.36 0.21 0.12 0.07 0.08 0.12 0.23 0.30 0.41 0.67 0.94 1.07 0.80 0.52 0.30 0.25 0.24 0.22 0.18 0.15 0.16 0.07 0.05 0.07 0.06 0.04 0.02 0.02 0.04 0.03 0.01 0.00 0.00 0.00 0.00 0.00 0.00 0.00 0.00 0.00 0.00 0.00 0.00
0.98 0.71 0.41 0.32 0.32 0.34 0.42 0.41 0.30 0.43 0.68 0.97 1.07 0.84 0.75 0.64 0.51 0.40 0.33 0.28 0.21 0.20 0.09 0.06 0.07 0.07 0.04 0.05 0.03 0.04 0.02 0.00 0.00 0.00 0.00 0.00 0.00 0.00 0.00 0.00 0.00 0.00 0.00
1.46 1.33 1.04 1.02 0.68 0.46 0.39 0.42 0.33 0.35 0.47 0.87 1.12 1.04 1.00 0.90 0.80 0.95 1.01 0.75 0.47 0.46 0.56 0.50 0.46 0.40 0.35 0.28 0.19 0.13 0.05 0.01 0.01 0.01 0.01 0.00 0.00 0.00 0.00 0.00 0.00 0.00 0.00
0.86 0.71 1.02 1.67 1.69 0.63 0.52 0.92 0.88 0.65 0.76 0.83 1.30 1.21 0.85 0.80 0.80 0.99 1.19 1.50 1.79 1.53 1.00 0.87 0.87 0.77 0.83 0.84 0.75 0.49 0.34 0.24 0.14 0.07 0.03 0.02 0.01 0.01 0.01 0.01 0.01 0.01 0.01
0.46 0.46 0.57 0.90 1.55 1.41 1.10 1.53 1.76 1.44 1.04 0.86 0.99 1.41 1.37 1.25 0.94 0.82 0.85 0.99 1.10 1.47 1.93 1.67 1.34 1.30 1.20 0.92 0.80 0.62 0.51 0.47 0.49 0.37 0.17 0.08 0.05 0.04 0.04 0.04 0.04 0.03 0.02
0.41 0.49 0.45 0.56 0.90 1.62 1.64 1.53 1.67 1.88 2.01 1.63 1.34 1.61 1.53 1.20 1.19 1.11 0.95 0.85 0.88 0.94 1.09 1.50 1.48 1.19 1.06 1.05 1.03 0.89 0.69 0.62 0.53 0.61 0.48 0.31 0.22 0.14 0.09 0.06 0.06 0.04 0.02

GFSSE_prec_precacc24_102.txt.gz
Total_Precipitation_Accumulation
0.00 0.02 0.04 0.01 0.02 0.01 0.02 0.00 0.00 0.02 0.03 0.05 0.02 0.04 0.03 0.01 0.00 0.00 0.00 0.00 0.00 0.01 0.05 0.07 0.05 0.07 0.06 0.03 0.02 0.01 0.01 0.03 0.03 0.01 0.01 0.01 0.01 0.01 0.01 0.01 0.03 0.06 0.11
0.00 0.02 0.04 0.03 0.03 0.04 0.03 0.02 0.01 0.01 0.01 0.01 0.03 0.03 0.05 0.03 0.02 0.00 0.00 0.00 0.00 0.04 0.07 0.05 0.04 0.04 0.02 0.01 0.01 0.00 0.00 0.00 0.00 0.00 0.00 0.00 0.00 0.00 0.00 0.00 0.00 0.01 0.02
0.01 0.02 0.02 0.08 0.06 0.06 0.05 0.05 0.02 0.01 0.02 0.02 0.03 0.03 0.04 0.05 0.03 0.00 0.00 0.00 0.01 0.08 0.05 0.03 0.02 0.01 0.01 0.01 0.00 0.00 0.00 0.00 0.00 0.00 0.00 0.00 0.00 0.00 0.00 0.00 0.00 0.00 0.00
0.02 0.04 0.04 0.09 0.09 0.09 0.06 0.04 0.04 0.02 0.04 0.05 0.04 0.04 0.07 0.08 0.02 0.00 0.00 0.00 0.05 0.10 0.04 0.01 0.01 0.01 0.01 0.00 0.00 0.00 0.00 0.00 0.00 0.00 0.00 0.00 0.00 0.00 0.00 0.00 0.00 0.00 0.00
0.02 0.07 0.04 0.08 0.09 0.08 0.07 0.03 0.02 0.02 0.03 0.09 0.10 0.09 0.16 0.19 0.02 0.01 0.02 0.03 0.12 0.10 0.03 0.01 0.01 0.01 0.00 0.00 0.00 0.00 0.00 0.00 0.00 0.00 0.00 0.00 0.00 0.00 0.00 0.00 0.00 0.00 0.00
0.04 0.09 0.11 0.22 0.19 0.13 0.15 0.08 0.04 0.02 0.04 0.09 0.16 0.22 0.33 0.27 0.10 0.02 0.05 0.07 0.06 0.02 0.01 0.02 0.02 0.01 0.00 0.00 0.00 0.00 0.00 0.00 0.00 0.00 0.00 0.00 0.00 0.00 0.00 0.00 0.00 0.00 0.00
0.13 0.16 0.33 0.52 0.45 0.18 0.19 0.17 0.09 0.09 0.13 0.12 0.21 0.30 0.36 0.24 0.22 0.05 0.06 0.06 0.05 0.02 0.02 0.02 0.01 0.01 0.00 0.00 0.00 0.00 0.00 0.00 0.00 0.00 0.00 0.00 0.00 0.00 0.00 0.00 0.00 0.00 0.00
0.60 0.59 0.59 0.60 0.72 0.52 0.31 0.17 0.12 0.09 0.23 0.24 0.31 0.47 0.42 0.32 0.26 0.15 0.08 0.05 0.07 0.03 0.02 0.02 0.00 0.00 0.00 0.00 0.00 0.00 0.00 0.00 0.00 0.00 0.00 0.00 0.00 0.00 0.00 0.00 0.00 0.00 0.00
1.06 0.87 0.55 0.37 0.42 0.37 0.23 0.10 0.02 0.02 0.09 0.20 0.24 0.40 0.35 0.33 0.26 0.20 0.15 0.09 0.12 0.08 0.03 0.02 0.00 0.00 0.00 0.00 0.00 0.00 0.00 0.00 0.00 0.00 0.00 0.00 0.00 0.00 0.00 0.00 0.00 0.00 0.00
1.07 1.42 1.23 0.95 0.59 0.31 0.21 0.11 0.03 0.02 0.03 0.27 0.17 0.19 0.16 0.14 0.11 0.14 0.10 0.07 0.14 0.11 0.04 0.02 0.00 0.00 0.00 0.00 0.00 0.00 0.00 0.00 0.00 0.00 0.00 0.00 0.00 0.00 0.00 0.00 0.00 0.00 0.00
0.84 1.15 1.76 1.52 0.96 0.69 0.52 0.26 0.12 0.06 0.01 0.21 0.24 0.13 0.12 0.07 0.04 0.03 0.02 0.02 0.04 0.07 0.06 0.03 0.00 0.00 0.00 0.00 0.00 0.00 0.00 0.00 0.00 0.00 0.00 0.00 0.00 0.00 0.00 0.00 0.00 0.00 0.00
0.79 0.79 1.21 1.64 1.06 0.70 0.64 0.45 0.24 0.15 0.08 0.09 0.23 0.17 0.11 0.09 0.03 0.03 0.01 0.01 0.02 0.02 0.04 0.06 0.04 0.00 0.00 0.00 0.00 0.00 0.00 0.00 0.00 0.00 0.00 0.00 0.00 0.00 0.00 0.00 0.00 0.00 0.00
0.49 0.67 0.66 1.06 1.18 0.58 0.77 0.51 0.23 0.08 0.07 0.07 0.17 0.29 0.16 0.12 0.11 0.04 0.01 0.01 0.01 0.01 0.01 0.01 0.03 0.01 0.00 0.00 0.00 0.00 0.00 0.00 0.00 0.00 0.00 0.00 0.00 0.00 0.00 0.00 0.00 0.01 0.02
0.25 0.37 0.78 0.72 0.98 0.65 0.70 0.66 0.23 0.07 0.05 0.05 0.07 0.32 0.28 0.16 0.17 0.17 0.03 0.03 0.02 0.00 0.01 0.01 0.00 0.01 0.00 0.00 0.00 0.00 0.00 0.00 0.00 0.00 0.00 0.00 0.00 0.00 0.01 0.00 0.00 0.00 0.02
0.14 0.25 0.57 0.71 0.73 0.76 0.51 0.76 0.34 0.09 0.04 0.03 0.05 0.09 0.41 0.30 0.23 0.20 0.24 0.07 0.03 0.03 0.01 0.02 0.00 0.00 0.00 0.00 0.00 0.00 0.00 0.00 0.00 0.00 0.00 0.00 0.00 0.00 0.02 0.05 0.02 0.01 0.02
0.06 0.15 0.44 0.72 0.98 0.94 0.67 0.92 0.66 0.22 0.07 0.02 0.02 0.02 0.07 0.36 0.33 0.40 0.26 0.17 0.11 0.03 0.03 0.02 0.03 0.02 0.00 0.00 0.00 0.00 0.00 0.00 0.00 0.00 0.00 0.00 0.00 0.00 0.00 0.06 0.10 0.08 0.05
0.04 0.09 0.20 0.62 1.27 1.28 0.65 0.67 1.09 0.62 0.20 0.06 0.01 0.01 0.01 0.08 0.35 0.33 0.67 0.44 0.14 0.12 0.12 0.08 0.07 0.06 0.05 0.02 0.00 0.00 0.00 0.00 0.00 0.00 0.00 0.00 0.00 0.00 0.00 0.00 0.02 0.08 0.08
0.09 0.05 0.13 0.31 0.77 1.18 0.53 0.25 0.77 0.92 0.59 0.23 0.04 0.01 0.01 0.00 0.05 0.25 0.28 0.59 0.54 0.37 0.28 0.20 0.16 0.15 0.14 0.09 0.04 0.01 0.00 0.00 0.00 0.00 0.00 0.00 0.00 0.00 0.00 0.00 0.00 0.01 0.05
0.10 0.07 0.05 0.16 0.30 0.48 0.37 0.28 0.36 0.69 0.78 0.45 0.21 0.05 0.00 0.01 0.01 0.05 0.14 0.17 0.29 0.32 0.30 0.31 0.25 0.18 0.15 0.10 0.04 0.01 0.00 0.00 0.00 0.00 0.00 0.00 0.00 0.00 0.00 0.00 0.00 0.00 0.01
0.15 0.12 0.06 0.05 0.11 0.11 0.27 0.43 0.48 0.63 0.77 0.76 0.34 0.16 0.04 0.03 0.04 0.04 0.08 0.12 0.12 0.15 0.16 0.12 0.14 0.14 0.10 0.06 0.05 0.03 0.01 0.00 0.00 0.00 0.00 0.00 0.00 0.00 0.00 0.00 0.00 0.00 0.00
0.31 0.19 0.12 0.06 0.07 0.10 0.20 0.24 0.34 0.64 0.93 1.07 0.80 0.52 0.30 0.24 0.19 0.12 0.12 0.15 0.16 0.08 0.06 0.08 0.08 0.05 0.04 0.04 0.05 0.03 0.01 0.00 0.00 0.00 0.00 0.00 0.00 0.00 0.00 0.00 0.00 0.00 0.00
0.44 0.34 0.27 0.22 0.25 0.28 0.41 0.40 0.26 0.40 0.67 0.97 1.07 0.84 0.75 0.64 0.47 0.27 0.20 0.17 0.16 0.20 0.09 0.07 0.08 0.07 0.05 0.03 0.03 0.04 0.02 0.01 0.01 0.00 0.00 0.00 0.00 0.00 0.00 0.00 0.00 0.00 0.00
0.97 0.81 0.76 0.86 0.68 0.50 0.42 0.35 0.27 0.29 0.42 0.81 1.06 1.01 0.97 0.88 0.76 0.75 0.74 0.53 0.28 0.37 0.52 0.44 0.38 0.31 0.27 0.24 0.20 0.14 0.06 0.02 0.01 0.01 0.01 0.00 0.00 0.00 0.00 0.00 0.00 0.00 0.00
0.85 0.69 0.93 1.56 1.70 0.57 0.44 0.76 0.72 0.38 0.41 0.49 1.01 0.98 0.70 0.64 0.59 0.57 0.63 0.90 1.31 1.33 0.87 0.76 0.74 0.69 0.76 0.77 0.71 0.48 0.34 0.24 0.15 0.08 0.03 0.02 0.01 0.01 0.01 0.01 0.01 0.03 0.07
0.48 0.50 0.58 0.91 1.54 1.35 0.96 1.40 1.56 1.09 0.65 0.55 0.72 1.14 1.06 0.95 0.75 0.63 0.54 0.61 0.79 1.17 1.48 1.29 1.26 1.40 1.32 0.99 0.81 0.62 0.53 0.48 0.51 0.42 0.21 0.11 0.08 0.06 0.06 0.07 0.09 0.11 0.11
0.42 0.50 0.48 0.59 0.93 1.59 1.59 1.47 1.55 1.70 1.80 1.43 1.14 1.40 1.33 1.05 1.01 0.90 0.77 0.69 0.69 0.78 0.92 1.22 1.22 1.12 1.16 1.25 1.21 1.03 0.79 0.69 0.57 0.65 0.54 0.35 0.29 0.21 0.16 0.15 0.12 0.10 0.07

GFSSE_prec_precacc24_105.txt.gz
Total_Precipitation_Accumulation
0.00 0.02 0.03 0.02 0.02 0.01 0.02 0.00 0.01 0.02 0.06 0.09 0.02 0.04 0.04 0.01 0.00 0.00 0.00 0.00 0.00 0.01 0.05 0.07 0.06 0.09 0.07 0.04 0.01 0.01 0.02 0.07 0.05 0.01 0.01 0.01 0.01 0.01 0.01 0.02 0.05 0.07 0.13
0.01 0.02 0.04 0.03 0.03 0.04 0.03 0.02 0.01 0.01 0.01 0.03 0.04 0.06 0.07 0.04 0.01 0.00 0.00 0.00 0.00 0.04 0.08 0.05 0.08 0.06 0.03 0.02 0.01 0.00 0.01 0.00 0.00 0.00 0.00 0.00 0.00 0.00 0.00 0.00 0.01 0.01 0.02
0.01 0.04 0.04 0.07 0.08 0.07 0.05 0.05 0.02 0.02 0.03 0.02 0.03 0.04 0.04 0.06 0.02 0.00 0.00 0.00 0.02 0.13 0.11 0.04 0.03 0.02 0.01 0.00 0.00 0.00 0.00 0.00 0.00 0.00 0.00 0.00 0.00 0.00 0.00 0.00 0.00 0.00 0.00
0.03 0.07 0.09 0.10 0.12 0.13 0.09 0.05 0.04 0.03 0.04 0.05 0.04 0.04 0.06 0.07 0.03 0.00 0.00 0.00 0.07 0.16 0.11 0.02 0.01 0.01 0.01 0.00 0.00 0.00 0.00 0.00 0.00 0.00 0.00 0.00 0.00 0.00 0.00 0.00 0.00 0.00 0.00
0.02 0.10 0.11 0.11 0.14 0.15 0.14 0.09 0.04 0.04 0.02 0.04 0.06 0.07 0.10 0.15 0.03 0.01 0.02 0.03 0.14 0.14 0.07 0.01 0.01 0.01 0.00 0.00 0.00 0.00 0.00 0.00 0.00 0.00 0.00 0.00 0.00 0.00 0.00 0.00 0.00 0.00 0.00
0.04 0.10 0.16 0.23 0.22 0.22 0.25 0.15 0.09 0.04 0.02 0.03 0.07 0.11 0.17 0.21 0.10 0.03 0.06 0.08 0.06 0.06 0.04 0.02 0.01 0.00 0.00 0.00 0.00 0.00 0.00 0.00 0.00 0.00 0.00 0.00 0.00 0.00 0.00 0.00 0.00 0.00 0.00
0.12 0.14 0.31 0.49 0.46 0.22 0.27 0.26 0.17 0.14 0.16 0.11 0.13 0.15 0.25 0.23 0.23 0.08 0.08 0.08 0.06 0.03 0.03 0.02 0.01 0.00 0.00 0.00 0.00 0.00 0.00 0.00 0.00 0.00 0.00 0.00 0.00 0.00 0.00 0.00 0.00 0.00 0.00
0.57 0.52 0.54 0.54 0.62 0.51 0.33 0.22 0.16 0.15 0.27 0.25 0.23 0.29 0.35 0.34 0.29 0.21 0.11 0.08 0.08 0.03 0.02 0.02 0.00 0.00 0.00 0.00 0.00 0.00 0.00 0.00 0.00 0.00 0.00 0.00 0.00 0.00 0.00 0.00 0.00 0.00 0.00
0.99 0.82 0.47 0.35 0.36 0.34 0.23 0.11 0.03 0.02 0.09 0.21 0.23 0.35 0.37 0.36 0.28 0.23 0.18 0.14 0.21 0.12 0.04 0.02 0.00 0.00 0.00 0.00 0.00 0.00 0.00 0.00 0.00 0.00 0.00 0.00 0.00 0.00 0.00 0.00 0.00 0.00 0.00
0.90 1.31 1.12 0.90 0.61 0.34 0.22 0.12 0.04 0.03 0.03 0.27 0.17 0.21 0.19 0.16 0.11 0.14 0.11 0.07 0.18 0.20 0.09 0.02 0.00 0.00 0.00 0.00 0.00 0.00 0.00 0.00 0.00 0.00 0.00 0.00 0.00 0.00 0.00 0.00 0.00 0.00 0.00
0.72 1.01 1.57 1.41 0.94 0.70 0.52 0.27 0.13 0.07 0.02 0.22 0.24 0.13 0.13 0.07 0.04 0.03 0.02 0.02 0.04 0.09 0.12 0.05 0.01 0.00 0.00 0.00 0.00 0.00 0.00 0.00 0.00 0.00 0.00 0.00 0.00 0.00 0.00 0.00 0.00 0.00 0.00
0.46 0.57 0.89 1.37 0.96 0.70 0.61 0.41 0.24 0.15 0.08 0.09 0.23 0.17 0.11 0.09 0.03 0.04 0.02 0.02 0.02 0.03 0.05 0.08 0.06 0.01 0.00 0.00 0.00 0.00 0.00 0.00 0.00 0.00 0.00 0.00 0.00 0.00 0.00 0.00 0.00 0.00 0.00
0.16 0.26 0.25 0.66 0.95 0.56 0.75 0.45 0.20 0.08 0.07 0.07 0.17 0.30 0.20 0.13 0.13 0.06 0.02 0.03 0.01 0.01 0.01 0.02 0.04 0.02 0.00 0.00 0.00 0.00 0.00 0.00 0.00 0.00 0.00 0.00 0.00 0.01 0.01 0.00 0.00 0.01 0.02
0.02 0.07 0.11 0.17 0.60 0.61 0.70 0.62 0.20 0.05 0.05 0.05 0.07 0.32 0.29 0.16 0.17 0.17 0.03 0.03 0.06 0.04 0.01 0.01 0.00 0.01 0.00 0.00 0.00 0.00 0.00 0.00 0.00 0.00 0.00 0.00 0.00 0.00 0.01 0.02 0.00 0.00 0.01
0.00 0.01 0.02 0.04 0.18 0.64 0.51 0.73 0.31 0.07 0.02 0.03 0.05 0.09 0.41 0.30 0.23 0.20 0.24 0.10 0.09 0.10 0.04 0.06 0.02 0.00 0.01 0.00 0.00 0.00 0.00 0.00 0.00 0.00 0.00 0.00 0.00 0.00 0.02 0.06 0.04 0.02 0.01
0.00 0.00 0.01 0.02 0.08 0.59 0.66 0.92 0.64 0.18 0.03 0.01 0.02 0.02 0.07 0.36 0.33 0.40 0.26 0.17 0.12 0.08 0.06 0.03 0.03 0.02 0.01 0.01 0.00 0.00 0.00 0.00 0.00 0.00 0.00 0.00 0.00 0.00 0.00 0.07 0.11 0.09 0.05
0.03 0.00 0.02 0.03 0.09 0.61 0.63 0.67 1.07 0.59 0.17 0.03 0.00 0.01 0.01 0.08 0.35 0.33 0.67 0.44 0.14 0.12 0.15 0.14 0.10 0.10 0.10 0.06 0.01 0.00 0.00 0.00 0.00 0.00 0.00 0.00 0.00 0.00 0.00 0.00 0.02 0.09 0.14
0.09 0.01 0.01 0.01 0.14 0.73 0.43 0.23 0.77 0.92 0.57 0.20 0.03 0.00 0.00 0.00 0.05 0.25 0.28 0.59 0.54 0.37 0.29 0.22 0.20 0.21 0.20 0.17 0.11 0.04 0.00 0.00 0.00 0.00 0.00 0.00 0.00 0.00 0.00 0.00 0.00 0.01 0.06
0.10 0.06 0.02 0.00 0.06 0.33 0.31 0.20 0.35 0.70 0.78 0.45 0.21 0.04 0.00 0.01 0.01 0.05 0.14 0.17 0.29 0.32 0.30 0.31 0.28 0.22 0.19 0.12 0.07 0.05 0.02 0.01 0.00 0.00 0.00 0.00 0.00 0.00 0.00 0.00 0.00 0.00 0.00
0.15 0.11 0.06 0.02 0.02 0.07 0.23 0.27 0.34 0.54 0.72 0.76 0.34 0.16 0.04 0.03 0.04 0.04 0.08 0.12 0.12 0.15 0.16 0.13 0.15 0.16 0.13 0.08 0.07 0.06 0.04 0.03 0.01 0.00 0.00 0.00 0.00 0.00 0.00 0.00 0.00 0.00 0.00
0.30 0.17 0.08 0.03 0.03 0.07 0.16 0.16 0.24 0.49 0.75 0.94 0.74 0.47 0.26 0.16 0.13 0.09 0.09 0.11 0.15 0.08 0.06 0.08 0.08 0.07 0.06 0.06 0.11 0.09 0.04 0.02 0.01 0.00 0.00 0.00 0.00 0.00 0.00 0.00 0.00 0.00 0.00
0.32 0.25 0.17 0.13 0.12 0.19 0.30 0.28 0.20 0.31 0.58 0.92 1.05 0.83 0.75 0.62 0.43 0.22 0.17 0.14 0.11 0.17 0.07 0.06 0.09 0.09 0.06 0.05 0.06 0.06 0.04 0.03 0.02 0.00 0.00 0.00 0.00 0.00 0.00 0.00 0.00 0.00 0.00
0.50 0.38 0.50 0.51 0.37 0.37 0.42 0.30 0.19 0.20 0.32 0.72 1.04 1.01 0.97 0.88 0.76 0.75 0.74 0.52 0.24 0.22 0.30 0.28 0.32 0.27 0.23 0.17 0.16 0.14 0.07 0.02 0.01 0.01 0.01 0.00 0.00 0.00 0.00 0.00 0.00 0.00 0.00
0.59 0.48 0.69 1.18 1.40 0.48 0.46 0.73 0.68 0.31 0.29 0.37 0.94 0.96 0.68 0.63 0.58 0.57 0.62 0.89 1.20 1.07 0.65 0.40 0.40 0.49 0.63 0.67 0.63 0.46 0.35 0.25 0.17 0.08 0.03 0.02 0.01 0.01 0.01 0.01 0.01 0.03 0.07
0.42 0.44 0.54 0.84 1.48 1.25 0.88 1.23 1.31 0.96 0.53 0.42 0.60 1.06 1.00 0.83 0.62 0.57 0.52 0.58 0.70 0.99 1.23 0.95 0.65 0.65 0.82 0.87 0.78 0.62 0.54 0.51 0.55 0.43 0.22 0.12 0.08 0.06 0.06 0.07 0.09 0.11 0.13
0.42 0.50 0.48 0.60 0.91 1.51 1.52 1.40 1.32 1.36 1.45 1.09 0.95 1.25 1.22 0.93 0.88 0.76 0.65 0.58 0.61 0.68 0.77 0.97 0.84 0.63 0.68 1.01 1.12 1.00 0.80 0.72 0.63 0.70 0.59 0.38 0.32 0.24 0.18 0.16 0.14 0.12 0.13

GFSSE_prec_precacc24_108.txt.gz
Total_Precipitation_Accumulation
0.00 0.02 0.03 0.03 0.02 0.01 0.02 0.00 0.03 0.05 0.07 0.09 0.02 0.04 0.04 0.01 0.00 0.00 0.00 0.00 0.00 0.01 0.05 0.06 0.05 0.08 0.06 0.04 0.01 0.04 0.06 0.11 0.05 0.01 0.01 0.01 0.01 0.01 0.01 0.03 0.08 0.10 0.19
0.01 0.03 0.05 0.03 0.03 0.04 0.03 0.02 0.02 0.02 0.01 0.05 0.07 0.06 0.07 0.04 0.01 0.00 0.00 0.00 0.00 0.04 0.08 0.06 0.12 0.07 0.04 0.02 0.01 0.01 0.02 0.00 0.00 0.00 0.00 0.00 0.00 0.00 0.00 0.00 0.01 0.02 0.03
0.02 0.05 0.04 0.08 0.10 0.07 0.05 0.07 0.04 0.04 0.05 0.04 0.07 0.06 0.05 0.06 0.02 0.00 0.00 0.00 0.02 0.17 0.21 0.06 0.04 0.02 0.01 0.00 0.01 0.00 0.00 0.00 0.00 0.00 0.00 0.00 0.00 0.00 0.00 0.00 0.00 0.00 0.00
0.03 0.08 0.10 0.09 0.16 0.18 0.12 0.08 0.07 0.05 0.06 0.07 0.04 0.08 0.09 0.08 0.03 0.00 0.00 0.00 0.08 0.22 0.27 0.07 0.02 0.01 0.00 0.00 0.00 0.00 0.00 0.00 0.00 0.00 0.00 0.00 0.00 0.00 0.00 0.00 0.00 0.00 0.00
0.02 0.11 0.11 0.09 0.15 0.19 0.20 0.14 0.08 0.08 0.05 0.06 0.05 0.08 0.12 0.14 0.05 0.01 0.02 0.03 0.14 0.16 0.12 0.04 0.01 0.00 0.00 0.00 0.00 0.00 0.00 0.00 0.00 0.00 0.00 0.00 0.00 0.00 0.00 0.00 0.00 0.00 0.00
0.03 0.10 0.15 0.21 0.21 0.23 0.27 0.17 0.12 0.08 0.06 0.04 0.06 0.10 0.14 0.17 0.12 0.03 0.07 0.08 0.06 0.07 0.07 0.02 0.01 0.00 0.00 0.00 0.00 0.00 0.00 0.00 0.00 0.00 0.00 0.00 0.00 0.00 0.00 0.00 0.00 0.00 0.00
0.11 0.12 0.28 0.44 0.43 0.22 0.28 0.28 0.21 0.20 0.18 0.11 0.10 0.09 0.11 0.17 0.23 0.10 0.09 0.09 0.07 0.04 0.05 0.03 0.00 0.00 0.00 0.00 0.00 0.00 0.00 0.00 0.00 0.00 0.00 0.00 0.00 0.00 0.00 0.00 0.00 0.00 0.00
0.46 0.41 0.44 0.48 0.51 0.48 0.33 0.23 0.17 0.16 0.26 0.21 0.17 0.16 0.21 0.32 0.29 0.21 0.11 0.08 0.09 0.06 0.04 0.02 0.00 0.00 0.00 0.00 0.00 0.00 0.00 0.00 0.00 0.00 0.00 0.00 0.00 0.00 0.00 0.00 0.00 0.00 0.00
0.65 0.65 0.27 0.28 0.29 0.26 0.19 0.11 0.04 0.03 0.09 0.15 0.18 0.24 0.31 0.39 0.29 0.23 0.18 0.13 0.22 0.17 0.07 0.03 0.00 0.00 0.00 0.00 0.00 0.00 0.00 0.00 0.00 0.00 0.00 0.00 0.00 0.00 0.00 0.00 0.00 0.00 0.00
0.42 0.71 0.74 0.72 0.57 0.35 0.24 0.13 0.06 0.06 0.09 0.26 0.12 0.15 0.18 0.16 0.11 0.14 0.10 0.07 0.18 0.21 0.11 0.03 0.01 0.00 0.00 0.00 0.00 0.00 0.00 0.00 0.00 0.00 0.00 0.00 0.00 0.00 0.00 0.00 0.00 0.00 0.00
0.11 0.33 0.78 1.01 0.83 0.64 0.48 0.30 0.15 0.07 0.02 0.20 0.17 0.10 0.13 0.07 0.04 0.03 0.02 0.02 0.04 0.10 0.13 0.06 0.03 0.01 0.00 0.00 0.00 0.00 0.00 0.00 0.00 0.00 0.00 0.00 0.00 0.00 0.00 0.00 0.00 0.00 0.00
0.03 0.06 0.54 0.80 0.62 0.53 0.48 0.40 0.28 0.16 0.09 0.09 0.21 0.16 0.11 0.09 0.03 0.04 0.02 0.02 0.01 0.03 0.06 0.08 0.08 0.03 0.00 0.00 0.00 0.00 0.00 0.00 0.00 0.00 0.00 0.00 0.00 0.00 0.00 0.00 0.00 0.00 0.00
0.01 0.01 0.08 0.40 0.39 0.32 0.37 0.30 0.20 0.10 0.09 0.07 0.17 0.29 0.19 0.14 0.13 0.06 0.02 0.03 0.01 0.01 0.02 0.02 0.04 0.02 0.00 0.00 0.00 0.00 0.00 0.00 0.00 0.00 0.00 0.00 0.00 0.01 0.01 0.00 0.00 0.00 0.00
0.01 0.01 0.04 0.10 0.20 0.16 0.18 0.25 0.15 0.06 0.06 0.06 0.07 0.32 0.29 0.16 0.17 0.17 0.03 0.05 0.11 0.06 0.01 0.02 0.00 0.01 0.00 0.00 0.00 0.00 0.00 0.00 0.00 0.00 0.00 0.00 0.00 0.00 0.01 0.02 0.00 0.00 0.00
0.00 0.00 0.00 0.01 0.06 0.10 0.10 0.19 0.18 0.06 0.05 0.03 0.05 0.09 0.41 0.30 0.23 0.20 0.24 0.10 0.10 0.12 0.08 0.11 0.06 0.03 0.04 0.01 0.00 0.00 0.00 0.00 0.00 0.00 0.00 0.00 0.00 0.00 0.02 0.06 0.05 0.01 0.00
0.00 0.00 0.00 0.01 0.01 0.05 0.07 0.22 0.36 0.09 0.02 0.01 0.02 0.02 0.07 0.36 0.33 0.40 0.26 0.17 0.12 0.09 0.08 0.11 0.10 0.07 0.04 0.06 0.04 0.04 0.00 0.00 0.00 0.00 0.00 0.00 0.00 0.00 0.00 0.07 0.12 0.10 0.06
0.03 0.00 0.00 0.00 0.00 0.01 0.03 0.24 0.76 0.42 0.07 0.02 0.01 0.01 0.01 0.08 0.35 0.33 0.67 0.44 0.14 0.12 0.15 0.17 0.15 0.17 0.15 0.08 0.04 0.03 0.04 0.00 0.00 0.00 0.00 0.00 0.00 0.00 0.00 0.00 0.02 0.09 0.15
0.08 0.01 0.00 0.00 0.00 0.02 0.03 0.09 0.61 0.72 0.37 0.06 0.02 0.02 0.01 0.00 0.05 0.25 0.28 0.59 0.54 0.37 0.29 0.22 0.21 0.23 0.21 0.21 0.19 0.12 0.07 0.04 0.01 0.00 0.00 0.00 0.00 0.00 0.00 0.00 0.00 0.01 0.06
0.08 0.06 0.02 0.00 0.00 0.01 0.06 0.08 0.24 0.65 0.70 0.39 0.12 0.04 0.01 0.01 0.01 0.05 0.14 0.17 0.29 0.32 0.30 0.31 0.29 0.23 0.21 0.15 0.10 0.11 0.13 0.10 0.03 0.01 0.00 0.00 0.00 0.00 0.00 0.00 0.00 0.00 0.00
0.12 0.11 0.05 0.01 0.00 0.00 0.05 0.14 0.24 0.51 0.73 0.74 0.35 0.17 0.07 0.04 0.04 0.05 0.08 0.12 0.12 0.15 0.16 0.13 0.15 0.16 0.14 0.09 0.08 0.06 0.05 0.04 0.03 0.02 0.01 0.01 0.00 0.00 0.00 0.00 0.00 0.00 0.00
0.23 0.16 0.07 0.02 0.01 0.01 0.05 0.05 0.16 0.31 0.59 0.87 0.73 0.45 0.28 0.18 0.10 0.09 0.09 0.11 0.14 0.08 0.06 0.08 0.08 0.07 0.06 0.07 0.13 0.10 0.05 0.03 0.02 0.01 0.01 0.00 0.00 0.00 0.00 0.00 0.00 0.00 0.00
0.19 0.19 0.12 0.06 0.05 0.07 0.12 0.11 0.12 0.21 0.45 0.78 0.92 0.79 0.72 0.60 0.43 0.22 0.14 0.10 0.08 0.11 0.06 0.05 0.08 0.09 0.06 0.07 0.07 0.08 0.06 0.04 0.02 0.01 0.00 0.00 0.00 0.00 0.00 0.00 0.00 0.00 0.00
0.26 0.22 0.31 0.28 0.21 0.24 0.26 0.23 0.19 0.25 0.40 0.80 1.10 0.98 0.93 0.85 0.73 0.74 0.74 0.52 0.23 0.17 0.22 0.21 0.23 0.20 0.17 0.13 0.13 0.14 0.09 0.03 0.02 0.01 0.01 0.00 0.00 0.00 0.00 0.00 0.00 0.00 0.00
0.39 0.35 0.45 0.85 1.08 0.36 0.31 0.62 0.65 0.36 0.35 0.45 0.95 0.98 0.66 0.61 0.59 0.57 0.62 0.89 1.20 1.07 0.65 0.41 0.37 0.39 0.44 0.39 0.38 0.32 0.27 0.22 0.18 0.09 0.03 0.02 0.01 0.01 0.01 0.01 0.01 0.03 0.07
0.22 0.27 0.39 0.69 1.35 1.20 0.78 1.17 1.29 1.02 0.54 0.47 0.62 1.02 0.95 0.79 0.62 0.57 0.52 0.57 0.70 1.00 1.25 0.99 0.68 0.64 0.56 0.44 0.33 0.25 0.32 0.43 0.56 0.49 0.25 0.13 0.09 0.06 0.06 0.07 0.09 0.11 0.13
0.27 0.35 0.37 0.51 0.78 1.30 1.38 1.31 1.30 1.27 1.25 0.95 0.82 1.13 1.11 0.88 0.87 0.75 0.65 0.58 0.59 0.67 0.78 0.99 0.86 0.61 0.60 0.63 0.58 0.48 0.43 0.51 0.52 0.70 0.61 0.39 0.36 0.27 0.18 0.16 0.14 0.13 0.14

GFSSE_prec_precacc24_111.txt.gz
Total_Precipitation_Accumulation
0.01 0.03 0.04 0.04 0.02 0.01 0.02 0.00 0.04 0.07 0.08 0.09 0.02 0.04 0.04 0.01 0.00 0.00 0.00 0.00 0.00 0.01 0.04 0.05 0.03 0.07 0.06 0.04 0.02 0.09 0.13 0.12 0.05 0.01 0.01 0.01 0.01 0.01 0.02 0.05 0.10 0.14 0.24
0.01 0.04 0.06 0.04 0.03 0.04 0.03 0.02 0.03 0.04 0.04 0.06 0.08 0.07 0.07 0.05 0.01 0.00 0.00 0.00 0.00 0.04 0.07 0.06 0.15 0.09 0.04 0.02 0.01 0.04 0.04 0.00 0.00 0.00 0.00 0.00 0.00 0.00 0.00 0.00 0.01 0.02 0.03
0.02 0.05 0.05 0.10 0.12 0.08 0.05 0.08 0.06 0.05 0.08 0.06 0.10 0.12 0.08 0.06 0.01 0.00 0.00 0.00 0.02 0.17 0.25 0.08 0.07 0.04 0.01 0.00 0.01 0.01 0.00 0.00 0.00 0.00 0.00 0.00 0.00 0.00 0.00 0.00 0.00 0.00 0.00
0.03 0.08 0.10 0.11 0.18 0.21 0.13 0.09 0.09 0.07 0.07 0.08 0.06 0.10 0.12 0.09 0.03 0.00 0.00 0.00 0.08 0.28 0.35 0.12 0.04 0.01 0.00 0.00 0.00 0.00 0.00 0.00 0.00 0.00 0.00 0.00 0.00 0.00 0.00 0.00 0.00 0.00 0.00
0.02 0.11 0.12 0.11 0.18 0.26 0.24 0.15 0.08 0.08 0.08 0.08 0.06 0.07 0.11 0.11 0.06 0.02 0.02 0.03 0.13 0.16 0.13 0.11 0.03 0.00 0.00 0.00 0.00 0.00 0.00 0.00 0.00 0.00 0.00 0.00 0.00 0.00 0.00 0.00 0.00 0.00 0.00
0.03 0.10 0.16 0.23 0.21 0.27 0.29 0.20 0.14 0.10 0.07 0.05 0.05 0.08 0.12 0.12 0.11 0.04 0.07 0.08 0.06 0.07 0.07 0.06 0.01 0.00 0.00 0.00 0.00 0.00 0.00 0.00 0.00 0.00 0.00 0.00 0.00 0.00 0.00 0.00 0.00 0.00 0.00
0.07 0.12 0.26 0.43 0.39 0.22 0.29 0.30 0.24 0.24 0.20 0.14 0.09 0.08 0.08 0.12 0.20 0.10 0.09 0.09 0.07 0.04 0.05 0.05 0.01 0.00 0.00 0.00 0.00 0.00 0.00 0.00 0.00 0.00 0.00 0.00 0.00 0.00 0.00 0.00 0.00 0.00 0.00
0.39 0.39 0.41 0.46 0.41 0.43 0.32 0.25 0.20 0.19 0.23 0.21 0.15 0.15 0.14 0.24 0.29 0.22 0.11 0.08 0.09 0.05 0.04 0.02 0.00 0.00 0.00 0.00 0.00 0.00 0.00 0.00 0.00 0.00 0.00 0.00 0.00 0.00 0.00 0.00 0.00 0.00 0.00
0.48 0.49 0.24 0.18 0.16 0.16 0.14 0.10 0.07 0.06 0.09 0.13 0.19 0.21 0.23 0.35 0.30 0.25 0.18 0.13 0.21 0.17 0.07 0.04 0.00 0.00 0.00 0.00 0.00 0.00 0.00 0.00 0.00 0.00 0.00 0.00 0.00 0.00 0.00 0.00 0.00 0.00 0.00
0.24 0.47 0.59 0.48 0.38 0.24 0.11 0.04 0.04 0.09 0.12 0.20 0.09 0.12 0.15 0.16 0.11 0.15 0.10 0.06 0.17 0.21 0.11 0.03 0.02 0.00 0.00 0.00 0.00 0.00 0.00 0.00 0.00 0.00 0.00 0.00 0.00 0.00 0.00 0.00 0.00 0.00 0.00
0.06 0.14 0.36 0.60 0.58 0.54 0.33 0.16 0.09 0.04 0.03 0.11 0.09 0.06 0.10 0.07 0.04 0.03 0.02 0.01 0.04 0.10 0.13 0.06 0.03 0.01 0.00 0.00 0.00 0.00 0.00 0.00 0.00 0.00 0.00 0.00 0.00 0.00 0.00 0.00 0.00 0.00 0.00
0.02 0.04 0.07 0.19 0.31 0.35 0.34 0.28 0.17 0.09 0.06 0.05 0.12 0.09 0.08 0.08 0.03 0.04 0.02 0.01 0.01 0.03 0.06 0.09 0.09 0.04 0.00 0.00 0.00 0.00 0.00 0.00 0.00 0.00 0.00 0.00 0.00 0.00 0.00 0.00 0.00 0.00 0.00
0.01 0.01 0.02 0.03 0.07 0.09 0.12 0.14 0.07 0.05 0.04 0.07 0.11 0.24 0.18 0.14 0.13 0.06 0.02 0.03 0.02 0.01 0.02 0.02 0.04 0.02 0.00 0.00 0.00 0.00 0.00 0.00 0.00 0.00 0.00 0.00 0.00 0.01 0.01 0.00 0.00 0.00 0.00
0.01 0.01 0.03 0.03 0.03 0.02 0.04 0.13 0.06 0.02 0.01 0.05 0.08 0.27 0.29 0.18 0.18 0.17 0.03 0.05 0.11 0.06 0.01 0.02 0.00 0.01 0.00 0.00 0.00 0.00 0.00 0.00 0.00 0.00 0.00 0.00 0.00 0.00 0.01 0.02 0.00 0.00 0.00
0.00 0.00 0.00 0.01 0.01 0.02 0.02 0.08 0.07 0.03 0.03 0.02 0.05 0.06 0.37 0.29 0.23 0.20 0.24 0.11 0.10 0.13 0.09 0.11 0.06 0.03 0.04 0.01 0.00 0.00 0.00 0.00 0.00 0.00 0.00 0.00 0.00 0.00 0.02 0.06 0.05 0.01 0.00
0.00 0.00 0.00 0.00 0.00 0.00 0.00 0.02 0.06 0.03 0.02 0.01 0.03 0.02 0.06 0.36 0.33 0.40 0.26 0.18 0.13 0.09 0.11 0.20 0.17 0.11 0.08 0.10 0.07 0.05 0.01 0.00 0.00 0.00 0.00 0.00 0.00 0.00 0.00 0.07 0.12 0.11 0.06
0.00 0.00 0.00 0.00 0.00 0.00 0.00 0.00 0.02 0.07 0.05 0.02 0.03 0.04 0.01 0.08 0.35 0.33 0.67 0.44 0.14 0.12 0.16 0.18 0.19 0.21 0.20 0.16 0.08 0.09 0.14 0.09 0.02 0.00 0.00 0.00 0.00 0.00 0.00 0.00 0.02 0.09 0.15
0.00 0.00 0.00 0.00 0.00 0.00 0.00 0.00 0.03 0.10 0.15 0.05 0.03 0.06 0.05 0.02 0.07 0.25 0.28 0.59 0.54 0.37 0.29 0.22 0.21 0.23 0.22 0.22 0.20 0.14 0.13 0.14 0.11 0.05 0.02 0.00 0.00 0.00 0.00 0.00 0.00 0.01 0.06
0.00 0.01 0.01 0.00 0.00 0.00 0.02 0.04 0.06 0.20 0.31 0.23 0.10 0.07 0.05 0.06 0.04 0.06 0.14 0.18 0.30 0.32 0.30 0.31 0.29 0.23 0.21 0.16 0.11 0.11 0.13 0.14 0.08 0.06 0.03 0.02 0.01 0.00 0.00 0.00 0.00 0.00 0.00
0.01 0.02 0.03 0.01 0.00 0.00 0.04 0.12 0.16 0.21 0.31 0.35 0.28 0.16 0.13 0.16 0.17 0.12 0.14 0.19 0.14 0.15 0.16 0.13 0.15 0.16 0.14 0.09 0.08 0.06 0.05 0.05 0.04 0.04 0.03 0.02 0.01 0.01 0.00 0.00 0.00 0.00 0.00
0.04 0.02 0.02 0.01 0.01 0.01 0.02 0.03 0.12 0.17 0.14 0.37 0.28 0.29 0.36 0.26 0.23 0.21 0.15 0.13 0.14 0.08 0.06 0.08 0.08 0.07 0.06 0.07 0.13 0.10 0.05 0.03 0.02 0.01 0.01 0.00 0.00 0.00 0.00 0.00 0.00 0.00 0.00
0.09 0.07 0.05 0.03 0.03 0.05 0.04 0.03 0.06 0.16 0.30 0.50 0.60 0.50 0.63 0.64 0.49 0.28 0.17 0.14 0.12 0.10 0.05 0.05 0.08 0.09 0.06 0.07 0.08 0.10 0.06 0.04 0.03 0.01 0.00 0.00 0.00 0.00 0.00 0.00 0.00 0.00 0.00
0.13 0.13 0.15 0.13 0.14 0.20 0.19 0.15 0.16 0.24 0.35 0.73 1.10 0.86 0.68 0.71 0.72 0.65 0.67 0.49 0.23 0.12 0.10 0.08 0.15 0.16 0.16 0.12 0.13 0.16 0.09 0.03 0.02 0.01 0.01 0.00 0.00 0.00 0.00 0.00 0.00 0.00 0.00
0.14 0.14 0.16 0.26 0.42 0.28 0.22 0.52 0.51 0.34 0.36 0.46 0.98 1.02 0.68 0.55 0.53 0.51 0.56 0.82 1.15 1.06 0.64 0.40 0.33 0.35 0.41 0.30 0.30 0.24 0.18 0.12 0.09 0.05 0.02 0.01 0.01 0.01 0.01 0.01 0.01 0.03 0.07
0.11 0.13 0.18 0.25 0.59 0.79 0.47 0.89 1.11 0.91 0.56 0.49 0.67 1.17 1.22 0.94 0.64 0.57 0.52 0.54 0.64 0.97 1.25 0.99 0.68 0.64 0.57 0.47 0.33 0.24 0.24 0.26 0.27 0.25 0.17 0.12 0.09 0.06 0.06 0.07 0.09 0.11 0.13
0.04 0.06 0.13 0.23 0.49 0.96 1.01 1.07 1.18 1.19 1.21 0.91 0.82 1.14 1.11 0.90 0.89 0.75 0.64 0.57 0.58 0.66 0.78 0.98 0.86 0.61 0.61 0.66 0.62 0.52 0.41 0.38 0.28 0.36 0.37 0.28 0.31 0.23 0.16 0.16 0.14 0.13 0.14

GFSSE_prec_precacc24_114.txt.gz
Total_Precipitation_Accumulation
0.02 0.04 0.05 0.07 0.05 0.02 0.02 0.01 0.08 0.15 0.14 0.10 0.02 0.04 0.04 0.01 0.00 0.00 0.00 0.00 0.00 0.01 0.04 0.04 0.02 0.07 0.06 0.04 0.02 0.12 0.16 0.12 0.05 0.01 0.02 0.01 0.01 0.02 0.05 0.08 0.12 0.17 0.26
0.01 0.05 0.07 0.07 0.11 0.07 0.04 0.02 0.03 0.04 0.08 0.11 0.08 0.07 0.07 0.05 0.01 0.00 0.00 0.00 0.00 0.04 0.06 0.04 0.16 0.09 0.04 0.02 0.02 0.08 0.04 0.00 0.00 0.00 0.00 0.00 0.00 0.00 0.01 0.03 0.03 0.02 0.03
0.02 0.06 0.06 0.13 0.17 0.14 0.09 0.09 0.07 0.06 0.09 0.08 0.12 0.17 0.10 0.07 0.01 0.00 0.00 0.00 0.02 0.16 0.25 0.11 0.10 0.06 0.01 0.00 0.01 0.01 0.00 0.00 0.00 0.00 0.00 0.00 0.00 0.00 0.00 0.00 0.00 0.00 0.00
0.02 0.08 0.11 0.13 0.22 0.26 0.15 0.09 0.09 0.07 0.08 0.08 0.06 0.09 0.12 0.09 0.03 0.00 0.00 0.00 0.08 0.30 0.39 0.18 0.09 0.01 0.00 0.00 0.00 0.00 0.00 0.00 0.00 0.00 0.00 0.00 0.00 0.00 0.00 0.00 0.00 0.00 0.00
0.02 0.11 0.13 0.20 0.21 0.28 0.27 0.16 0.08 0.09 0.08 0.07 0.05 0.05 0.10 0.09 0.06 0.03 0.02 0.03 0.13 0.15 0.13 0.13 0.08 0.00 0.00 0.00 0.00 0.00 0.00 0.00 0.00 0.00 0.00 0.00 0.00 0.00 0.00 0.00 0.00 0.00 0.00
0.02 0.10 0.15 0.20 0.18 0.27 0.30 0.22 0.15 0.10 0.07 0.05 0.04 0.07 0.09 0.09 0.10 0.04 0.07 0.07 0.06 0.07 0.07 0.06 0.03 0.00 0.00 0.00 0.00 0.00 0.00 0.00 0.00 0.00 0.00 0.00 0.00 0.00 0.00 0.00 0.00 0.00 0.00
0.06 0.11 0.21 0.28 0.24 0.22 0.30 0.31 0.26 0.26 0.20 0.14 0.09 0.06 0.05 0.08 0.15 0.11 0.11 0.09 0.07 0.04 0.05 0.04 0.01 0.00 0.00 0.00 0.00 0.00 0.00 0.00 0.00 0.00 0.00 0.00 0.00 0.00 0.00 0.00 0.00 0.00 0.00
0.35 0.34 0.29 0.25 0.25 0.30 0.24 0.21 0.23 0.21 0.22 0.22 0.17 0.15 0.12 0.19 0.21 0.23 0.12 0.08 0.09 0.05 0.03 0.02 0.00 0.00 0.00 0.00 0.00 0.00 0.00 0.00 0.00 0.00 0.00 0.00 0.00 0.00 0.00 0.00 0.00 0.00 0.00
0.38 0.35 0.19 0.16 0.13 0.09 0.07 0.05 0.06 0.07 0.09 0.14 0.24 0.21 0.18 0.28 0.24 0.29 0.20 0.13 0.21 0.17 0.07 0.04 0.01 0.00 0.00 0.00 0.00 0.00 0.00 0.00 0.00 0.00 0.00 0.00 0.00 0.00 0.00 0.00 0.00 0.00 0.00
0.17 0.35 0.43 0.45 0.35 0.19 0.10 0.03 0.04 0.08 0.11 0.10 0.06 0.05 0.07 0.09 0.08 0.16 0.12 0.06 0.16 0.20 0.11 0.05 0.02 0.00 0.00 0.00 0.00 0.00 0.00 0.00 0.00 0.00 0.00 0.00 0.00 0.00 0.00 0.00 0.00 0.00 0.00
0.03 0.08 0.19 0.40 0.45 0.48 0.32 0.16 0.09 0.04 0.03 0.01 0.01 0.01 0.04 0.04 0.04 0.03 0.02 0.01 0.03 0.09 0.13 0.08 0.05 0.04 0.00 0.00 0.00 0.00 0.00 0.00 0.00 0.00 0.00 0.00 0.00 0.00 0.00 0.00 0.00 0.00 0.00
0.01 0.01 0.02 0.05 0.13 0.21 0.27 0.26 0.17 0.09 0.03 0.00 0.01 0.02 0.03 0.04 0.03 0.04 0.02 0.01 0.01 0.03 0.06 0.09 0.10 0.05 0.00 0.00 0.00 0.00 0.00 0.00 0.00 0.00 0.00 0.00 0.00 0.00 0.00 0.00 0.00 0.00 0.00
0.01 0.01 0.02 0.03 0.04 0.04 0.04 0.05 0.05 0.05 0.02 0.01 0.01 0.05 0.11 0.08 0.07 0.06 0.02 0.03 0.02 0.01 0.02 0.03 0.07 0.02 0.00 0.00 0.00 0.00 0.00 0.00 0.00 0.00 0.00 0.00 0.00 0.01 0.01 0.00 0.00 0.00 0.00
0.01 0.01 0.03 0.03 0.03 0.02 0.01 0.01 0.02 0.02 0.01 0.01 0.02 0.04 0.08 0.11 0.07 0.08 0.03 0.05 0.11 0.06 0.02 0.03 0.02 0.02 0.01 0.00 0.00 0.00 0.00 0.00 0.00 0.00 0.00 0.00 0.00 0.00 0.01 0.02 0.00 0.00 0.00
0.00 0.00 0.00 0.01 0.01 0.02 0.01 0.00 0.00 0.01 0.03 0.01 0.00 0.00 0.02 0.11 0.11 0.17 0.25 0.11 0.10 0.13 0.11 0.15 0.13 0.09 0.04 0.02 0.00 0.00 0.00 0.00 0.00 0.00 0.00 0.00 0.00 0.00 0.02 0.06 0.05 0.01 0.00
0.00 0.00 0.00 0.00 0.00 0.00 0.00 0.01 0.01 0.01 0.01 0.01 0.01 0.00 0.01 0.03 0.23 0.32 0.25 0.18 0.13 0.09 0.14 0.28 0.29 0.27 0.22 0.21 0.13 0.09 0.02 0.01 0.01 0.00 0.00 0.00 0.00 0.00 0.00 0.07 0.12 0.11 0.06
0.00 0.00 0.00 0.00 0.00 0.00 0.00 0.00 0.01 0.01 0.02 0.02 0.03 0.03 0.00 0.02 0.23 0.33 0.67 0.44 0.14 0.13 0.16 0.19 0.21 0.24 0.25 0.28 0.16 0.17 0.21 0.14 0.06 0.03 0.03 0.00 0.00 0.00 0.00 0.01 0.04 0.12 0.16
0.00 0.00 0.00 0.00 0.00 0.00 0.00 0.00 0.00 0.01 0.02 0.04 0.03 0.06 0.05 0.03 0.07 0.25 0.29 0.59 0.54 0.37 0.29 0.22 0.21 0.23 0.22 0.22 0.21 0.15 0.15 0.20 0.16 0.10 0.06 0.03 0.01 0.00 0.00 0.01 0.02 0.03 0.08
0.00 0.00 0.00 0.00 0.00 0.00 0.00 0.00 0.02 0.02 0.04 0.04 0.05 0.06 0.06 0.09 0.10 0.09 0.15 0.24 0.39 0.39 0.32 0.32 0.29 0.23 0.21 0.16 0.12 0.12 0.14 0.14 0.08 0.07 0.05 0.05 0.02 0.00 0.00 0.00 0.00 0.01 0.02
0.00 0.01 0.00 0.00 0.00 0.00 0.00 0.00 0.01 0.06 0.10 0.09 0.09 0.10 0.12 0.19 0.26 0.23 0.22 0.31 0.25 0.23 0.19 0.15 0.16 0.16 0.14 0.09 0.08 0.06 0.05 0.05 0.04 0.04 0.03 0.03 0.01 0.01 0.00 0.00 0.00 0.00 0.00
0.02 0.01 0.01 0.00 0.00 0.00 0.00 0.00 0.00 0.03 0.05 0.06 0.09 0.19 0.33 0.29 0.28 0.31 0.26 0.24 0.25 0.13 0.08 0.09 0.09 0.07 0.06 0.07 0.13 0.10 0.05 0.03 0.02 0.01 0.01 0.01 0.00 0.01 0.00 0.00 0.00 0.00 0.00
0.06 0.05 0.04 0.02 0.02 0.02 0.01 0.01 0.01 0.05 0.11 0.16 0.16 0.25 0.38 0.55 0.53 0.34 0.26 0.27 0.24 0.22 0.15 0.12 0.11 0.10 0.07 0.07 0.08 0.10 0.07 0.04 0.03 0.01 0.00 0.00 0.00 0.00 0.00 0.00 0.00 0.00 0.00
0.08 0.12 0.14 0.12 0.11 0.12 0.10 0.10 0.12 0.17 0.24 0.38 0.49 0.43 0.30 0.32 0.46 0.60 0.87 0.75 0.42 0.28 0.14 0.07 0.09 0.09 0.08 0.07 0.12 0.16 0.09 0.03 0.01 0.00 0.00 0.00 0.00 0.00 0.00 0.00 0.00 0.00 0.00
0.10 0.13 0.16 0.16 0.16 0.13 0.14 0.17 0.24 0.26 0.29 0.40 0.70 0.72 0.41 0.28 0.27 0.28 0.32 0.79 1.24 1.09 0.64 0.33 0.24 0.25 0.30 0.19 0.19 0.18 0.16 0.12 0.10 0.04 0.01 0.00 0.01 0.00 0.01 0.01 0.01 0.03 0.07
0.09 0.13 0.16 0.19 0.20 0.19 0.21 0.27 0.51 0.51 0.38 0.39 0.58 1.09 1.15 0.81 0.41 0.31 0.34 0.43 0.57 0.86 1.14 0.91 0.61 0.58 0.54 0.45 0.33 0.23 0.21 0.23 0.27 0.27 0.13 0.06 0.05 0.03 0.05 0.07 0.09 0.11 0.13
0.04 0.05 0.08 0.13 0.20 0.21 0.45 0.47 0.72 0.78 0.77 0.64 0.65 0.99 0.97 0.81 0.81 0.61 0.53 0.48 0.47 0.52 0.64 0.86 0.73 0.54 0.58 0.66 0.62 0.53 0.44 0.45 0.33 0.41 0.37 0.22 0.23 0.16 0.12 0.13 0.12 0.12 0.14

GFSSE_prec_precacc24_117.txt.gz
Total_Precipitation_Accumulation
0.02 0.06 0.05 0.10 0.10 0.06 0.02 0.03 0.11 0.18 0.18 0.14 0.02 0.04 0.04 0.01 0.00 0.00 0.00 0.00 0.00 0.01 0.03 0.03 0.02 0.06 0.06 0.04 0.02 0.12 0.16 0.13 0.05 0.01 0.01 0.01 0.00 0.04 0.09 0.10 0.16 0.20 0.27
0.01 0.06 0.06 0.08 0.13 0.11 0.07 0.05 0.06 0.08 0.10 0.15 0.09 0.07 0.07 0.04 0.01 0.00 0.00 0.00 0.00 0.03 0.05 0.04 0.16 0.09 0.04 0.02 0.01 0.08 0.04 0.00 0.00 0.00 0.00 0.00 0.00 0.00 0.03 0.04 0.05 0.02 0.03
0.02 0.06 0.07 0.14 0.18 0.14 0.09 0.10 0.08 0.08 0.11 0.10 0.13 0.18 0.11 0.08 0.01 0.00 0.00 0.00 0.02 0.16 0.24 0.19 0.17 0.07 0.01 0.01 0.01 0.01 0.00 0.00 0.00 0.00 0.00 0.00 0.00 0.00 0.00 0.00 0.00 0.00 0.00
0.02 0.09 0.12 0.17 0.24 0.28 0.16 0.09 0.09 0.08 0.08 0.08 0.06 0.09 0.12 0.11 0.02 0.00 0.00 0.00 0.08 0.29 0.39 0.23 0.13 0.02 0.00 0.00 0.00 0.00 0.00 0.00 0.00 0.00 0.00 0.00 0.00 0.00 0.00 0.00 0.00 0.00 0.00
0.02 0.11 0.15 0.25 0.25 0.31 0.28 0.16 0.10 0.12 0.10 0.08 0.05 0.04 0.07 0.07 0.09 0.06 0.02 0.03 0.12 0.14 0.14 0.18 0.14 0.01 0.00 0.00 0.00 0.00 0.00 0.00 0.00 0.00 0.00 0.00 0.00 0.00 0.00 0.00 0.00 0.00 0.00
0.02 0.10 0.15 0.24 0.25 0.28 0.27 0.22 0.17 0.12 0.09 0.08 0.07 0.09 0.09 0.06 0.06 0.06 0.10 0.07 0.06 0.06 0.07 0.09 0.08 0.00 0.00 0.00 0.00 0.00 0.00 0.00 0.00 0.00 0.00 0.00 0.00 0.00 0.00 0.00 0.00 0.00 0.00
0.06 0.11 0.16 0.21 0.20 0.24 0.30 0.30 0.27 0.28 0.22 0.16 0.13 0.11 0.05 0.07 0.09 0.12 0.12 0.09 0.07 0.03 0.04 0.04 0.05 0.00 0.00 0.00 0.00 0.00 0.00 0.00 0.00 0.00 0.00 0.00 0.00 0.00 0.00 0.00 0.00 0.00 0.00
0.30 0.34 0.27 0.23 0.19 0.17 0.17 0.20 0.24 0.24 0.24 0.22 0.19 0.17 0.10 0.15 0.21 0.25 0.13 0.10 0.10 0.05 0.03 0.01 0.03 0.02 0.00 0.00 0.00 0.00 0.00 0.00 0.00 0.00 0.00 0.00 0.00 0.00 0.00 0.00 0.00 0.00 0.00
0.21 0.26 0.18 0.16 0.13 0.08 0.07 0.05 0.07 0.08 0.08 0.14 0.25 0.20 0.14 0.20 0.22 0.26 0.20 0.14 0.22 0.18 0.09 0.04 0.03 0.03 0.01 0.00 0.00 0.00 0.00 0.00 0.00 0.00 0.00 0.00 0.00 0.00 0.00 0.00 0.00 0.00 0.00
0.06 0.17 0.23 0.31 0.30 0.15 0.09 0.03 0.04 0.09 0.11 0.09 0.05 0.04 0.05 0.05 0.05 0.13 0.11 0.09 0.17 0.20 0.11 0.07 0.05 0.04 0.03 0.00 0.00 0.00 0.00 0.00 0.00 0.00 0.00 0.00 0.00 0.00 0.00 0.00 0.00 0.00 0.00
0.01 0.05 0.12 0.21 0.24 0.33 0.28 0.15 0.09 0.04 0.03 0.01 0.00 0.00 0.02 0.02 0.03 0.03 0.02 0.02 0.04 0.09 0.12 0.08 0.07 0.08 0.07 0.01 0.00 0.00 0.00 0.00 0.00 0.00 0.00 0.00 0.00 0.00 0.00 0.00 0.00 0.00 0.00
0.01 0.01 0.02 0.03 0.06 0.13 0.18 0.21 0.16 0.09 0.03 0.01 0.00 0.00 0.01 0.02 0.02 0.04 0.02 0.01 0.00 0.02 0.06 0.09 0.11 0.06 0.02 0.00 0.00 0.00 0.00 0.00 0.00 0.00 0.00 0.00 0.00 0.00 0.00 0.00 0.00 0.00 0.00
0.00 0.01 0.02 0.02 0.02 0.02 0.02 0.03 0.04 0.04 0.02 0.01 0.01 0.03 0.07 0.04 0.06 0.06 0.02 0.03 0.02 0.01 0.01 0.03 0.07 0.02 0.00 0.00 0.00 0.00 0.00 0.00 0.00 0.00 0.00 0.00 0.00 0.01 0.01 0.00 0.00 0.00 0.00
0.00 0.01 0.03 0.03 0.03 0.01 0.01 0.00 0.01 0.02 0.01 0.01 0.02 0.03 0.03 0.04 0.04 0.03 0.01 0.05 0.11 0.07 0.03 0.05 0.03 0.03 0.01 0.00 0.00 0.00 0.00 0.00 0.00 0.00 0.00 0.00 0.00 0.00 0.01 0.03 0.01 0.00 0.00
0.00 0.00 0.00 0.01 0.01 0.02 0.01 0.00 0.00 0.01 0.03 0.01 0.00 0.00 0.00 0.00 0.02 0.05 0.05 0.06 0.11 0.17 0.13 0.16 0.15 0.17 0.12 0.05 0.00 0.00 0.00 0.00 0.00 0.00 0.00 0.00 0.00 0.00 0.02 0.07 0.06 0.02 0.00
0.00 0.00 0.00 0.00 0.00 0.00 0.00 0.01 0.01 0.01 0.01 0.01 0.01 0.00 0.00 0.00 0.01 0.02 0.05 0.03 0.08 0.10 0.17 0.31 0.34 0.36 0.29 0.24 0.16 0.13 0.05 0.05 0.05 0.04 0.02 0.00 0.00 0.00 0.01 0.09 0.14 0.14 0.08
0.00 0.00 0.00 0.00 0.00 0.00 0.00 0.00 0.01 0.01 0.02 0.01 0.03 0.03 0.00 0.01 0.01 0.01 0.12 0.20 0.11 0.12 0.17 0.22 0.25 0.30 0.29 0.34 0.18 0.21 0.25 0.19 0.10 0.08 0.09 0.05 0.02 0.01 0.00 0.04 0.09 0.15 0.18
0.00 0.00 0.00 0.00 0.00 0.00 0.00 0.00 0.00 0.01 0.02 0.03 0.02 0.06 0.05 0.03 0.04 0.03 0.03 0.25 0.46 0.36 0.29 0.23 0.25 0.30 0.25 0.26 0.22 0.15 0.15 0.20 0.16 0.10 0.06 0.03 0.02 0.01 0.01 0.01 0.05 0.07 0.12
0.00 0.00 0.00 0.00 0.00 0.00 0.00 0.00 0.02 0.02 0.03 0.03 0.03 0.05 0.06 0.09 0.10 0.07 0.05 0.12 0.35 0.41 0.38 0.36 0.30 0.24 0.22 0.17 0.12 0.12 0.14 0.14 0.08 0.07 0.05 0.05 0.02 0.00 0.00 0.00 0.00 0.02 0.04
0.00 0.00 0.00 0.00 0.00 0.00 0.00 0.00 0.00 0.03 0.07 0.07 0.07 0.07 0.12 0.18 0.26 0.23 0.20 0.30 0.29 0.28 0.28 0.20 0.18 0.18 0.15 0.09 0.08 0.06 0.05 0.05 0.04 0.04 0.03 0.03 0.01 0.01 0.00 0.00 0.00 0.00 0.00
0.00 0.00 0.00 0.00 0.00 0.00 0.00 0.00 0.00 0.00 0.01 0.04 0.08 0.11 0.25 0.26 0.27 0.29 0.23 0.24 0.26 0.21 0.17 0.15 0.13 0.11 0.10 0.10 0.14 0.10 0.05 0.03 0.02 0.01 0.01 0.01 0.00 0.01 0.00 0.00 0.00 0.00 0.00
0.04 0.04 0.03 0.02 0.02 0.02 0.01 0.01 0.01 0.03 0.04 0.07 0.11 0.20 0.31 0.47 0.46 0.30 0.24 0.26 0.26 0.32 0.31 0.28 0.21 0.18 0.15 0.10 0.08 0.10 0.07 0.04 0.03 0.01 0.00 0.00 0.00 0.00 0.00 0.00 0.00 0.00 0.00
0.08 0.11 0.13 0.12 0.11 0.11 0.10 0.10 0.11 0.16 0.20 0.22 0.31 0.34 0.26 0.28 0.38 0.52 0.83 0.77 0.44 0.32 0.32 0.38 0.47 0.42 0.29 0.14 0.13 0.17 0.10 0.04 0.01 0.00 0.00 0.00 0.00 0.00 0.00 0.00 0.00 0.00 0.00
0.10 0.12 0.15 0.15 0.15 0.13 0.14 0.16 0.21 0.23 0.27 0.31 0.31 0.32 0.27 0.21 0.22 0.20 0.26 0.75 1.39 1.28 0.74 0.46 0.37 0.36 0.41 0.28 0.21 0.18 0.14 0.11 0.10 0.05 0.01 0.00 0.01 0.01 0.01 0.01 0.01 0.03 0.07
0.07 0.11 0.15 0.16 0.18 0.18 0.17 0.17 0.19 0.28 0.27 0.30 0.32 0.56 0.77 0.48 0.26 0.21 0.23 0.30 0.43 0.77 1.11 0.89 0.58 0.49 0.43 0.37 0.27 0.18 0.18 0.21 0.25 0.27 0.14 0.06 0.05 0.03 0.05 0.07 0.09 0.11 0.12
0.03 0.03 0.06 0.09 0.12 0.13 0.15 0.19 0.20 0.18 0.25 0.27 0.23 0.37 0.56 0.43 0.43 0.38 0.32 0.31 0.32 0.39 0.52 0.75 0.63 0.45 0.47 0.54 0.53 0.47 0.40 0.42 0.32 0.40 0.38 0.22 0.23 0.16 0.13 0.12 0.11 0.10 0.13

GFSSE_prec_precacc24_120.txt.gz
Total_Precipitation_Accumulation
0.02 0.06 0.09 0.12 0.11 0.08 0.02 0.05 0.15 0.24 0.26 0.19 0.04 0.04 0.03 0.01 0.00 0.00 0.00 0.00 0.00 0.01 0.02 0.02 0.01 0.06 0.05 0.04 0.03 0.11 0.16 0.13 0.05 0.01 0.01 0.00 0.01 0.06 0.10 0.10 0.16 0.19 0.25
0.01 0.06 0.10 0.11 0.12 0.10 0.06 0.04 0.07 0.09 0.14 0.19 0.10 0.06 0.06 0.04 0.00 0.00 0.00 0.00 0.00 0.03 0.04 0.05 0.17 0.09 0.04 0.03 0.03 0.08 0.04 0.00 0.00 0.00 0.00 0.00 0.00 0.02 0.04 0.06 0.06 0.02 0.03
0.02 0.07 0.10 0.18 0.19 0.13 0.08 0.08 0.08 0.11 0.15 0.12 0.17 0.21 0.12 0.08 0.01 0.00 0.00 0.00 0.02 0.14 0.24 0.33 0.31 0.07 0.01 0.01 0.02 0.01 0.00 0.00 0.00 0.00 0.00 0.00 0.00 0.00 0.00 0.00 0.00 0.00 0.00
0.02 0.09 0.14 0.21 0.27 0.29 0.16 0.07 0.08 0.10 0.10 0.08 0.07 0.10 0.14 0.12 0.03 0.00 0.00 0.00 0.06 0.27 0.40 0.35 0.22 0.03 0.00 0.00 0.00 0.00 0.00 0.00 0.00 0.00 0.00 0.00 0.00 0.00 0.00 0.00 0.00 0.00 0.00
0.02 0.11 0.16 0.27 0.29 0.33 0.30 0.17 0.09 0.12 0.13 0.09 0.06 0.08 0.10 0.09 0.11 0.07 0.02 0.02 0.09 0.12 0.14 0.24 0.26 0.11 0.00 0.00 0.00 0.00 0.00 0.00 0.00 0.00 0.00 0.00 0.00 0.00 0.00 0.00 0.00 0.00 0.00
0.02 0.10 0.15 0.24 0.29 0.34 0.31 0.23 0.18 0.13 0.11 0.09 0.08 0.11 0.09 0.07 0.07 0.11 0.12 0.09 0.04 0.05 0.07 0.10 0.11 0.02 0.00 0.00 0.00 0.00 0.00 0.00 0.00 0.00 0.00 0.00 0.00 0.00 0.00 0.00 0.00 0.00 0.00
0.05 0.09 0.15 0.20 0.19 0.24 0.31 0.31 0.31 0.31 0.23 0.17 0.14 0.14 0.08 0.07 0.07 0.14 0.15 0.11 0.06 0.03 0.04 0.04 0.07 0.01 0.00 0.00 0.00 0.00 0.00 0.00 0.00 0.00 0.00 0.00 0.00 0.00 0.00 0.00 0.00 0.00 0.00
0.16 0.22 0.22 0.19 0.14 0.14 0.15 0.18 0.23 0.26 0.27 0.25 0.20 0.18 0.12 0.13 0.19 0.23 0.13 0.11 0.10 0.04 0.02 0.02 0.06 0.05 0.01 0.00 0.00 0.00 0.00 0.00 0.00 0.00 0.00 0.00 0.00 0.00 0.00 0.00 0.00 0.00 0.00
0.04 0.11 0.13 0.15 0.11 0.07 0.06 0.04 0.07 0.08 0.09 0.17 0.27 0.21 0.14 0.19 0.20 0.24 0.19 0.15 0.22 0.18 0.09 0.06 0.05 0.06 0.05 0.04 0.00 0.00 0.00 0.00 0.00 0.00 0.00 0.00 0.00 0.00 0.00 0.00 0.00 0.00 0.00
0.00 0.04 0.09 0.12 0.19 0.12 0.08 0.03 0.04 0.09 0.11 0.09 0.05 0.05 0.04 0.03 0.02 0.11 0.11 0.09 0.18 0.22 0.12 0.06 0.06 0.06 0.06 0.04 0.01 0.00 0.00 0.00 0.00 0.00 0.00 0.00 0.00 0.00 0.00 0.00 0.00 0.00 0.00
0.00 0.00 0.01 0.07 0.09 0.18 0.19 0.12 0.07 0.03 0.03 0.02 0.00 0.00 0.01 0.00 0.00 0.01 0.01 0.02 0.04 0.10 0.15 0.10 0.08 0.10 0.10 0.03 0.00 0.00 0.00 0.00 0.00 0.00 0.00 0.00 0.00 0.00 0.00 0.01 0.00 0.00 0.00
0.00 0.00 0.00 0.00 0.01 0.05 0.13 0.18 0.15 0.08 0.03 0.01 0.00 0.00 0.00 0.00 0.00 0.01 0.02 0.01 0.00 0.02 0.05 0.10 0.12 0.08 0.02 0.00 0.00 0.00 0.00 0.00 0.00 0.00 0.00 0.00 0.00 0.00 0.00 0.01 0.01 0.00 0.00
0.00 0.00 0.01 0.01 0.01 0.00 0.01 0.02 0.04 0.04 0.02 0.01 0.01 0.03 0.07 0.02 0.03 0.03 0.02 0.03 0.02 0.00 0.00 0.02 0.07 0.03 0.01 0.00 0.00 0.00 0.00 0.00 0.00 0.00 0.00 0.00 0.00 0.01 0.01 0.01 0.02 0.01 0.00
0.00 0.00 0.00 0.01 0.01 0.00 0.01 0.00 0.01 0.02 0.01 0.01 0.02 0.03 0.03 0.03 0.02 0.00 0.00 0.05 0.11 0.08 0.03 0.05 0.04 0.05 0.09 0.04 0.02 0.01 0.00 0.00 0.00 0.00 0.00 0.00 0.00 0.00 0.01 0.03 0.03 0.02 0.01
0.00 0.00 0.00 0.00 0.01 0.01 0.01 0.00 0.00 0.01 0.03 0.01 0.00 0.00 0.00 0.00 0.00 0.01 0.01 0.05 0.10 0.18 0.16 0.21 0.18 0.20 0.17 0.17 0.12 0.04 0.01 0.01 0.00 0.00 0.00 0.00 0.00 0.00 0.01 0.07 0.07 0.04 0.03
0.00 0.00 0.00 0.00 0.00 0.00 0.00 0.01 0.01 0.01 0.01 0.01 0.01 0.00 0.00 0.00 0.00 0.00 0.00 0.01 0.04 0.07 0.16 0.37 0.40 0.40 0.36 0.32 0.20 0.17 0.08 0.08 0.08 0.08 0.04 0.02 0.01 0.00 0.00 0.08 0.14 0.15 0.11
0.00 0.00 0.00 0.00 0.00 0.00 0.00 0.00 0.01 0.01 0.02 0.01 0.03 0.03 0.00 0.01 0.01 0.01 0.01 0.00 0.01 0.04 0.10 0.21 0.29 0.35 0.33 0.42 0.25 0.29 0.35 0.28 0.19 0.13 0.11 0.07 0.06 0.03 0.01 0.04 0.09 0.18 0.22
0.00 0.00 0.00 0.00 0.00 0.00 0.00 0.00 0.00 0.01 0.02 0.03 0.02 0.06 0.05 0.02 0.04 0.03 0.02 0.01 0.03 0.02 0.08 0.17 0.22 0.31 0.28 0.32 0.29 0.22 0.20 0.22 0.17 0.10 0.06 0.04 0.02 0.02 0.02 0.02 0.05 0.08 0.14
0.00 0.00 0.00 0.00 0.00 0.00 0.00 0.00 0.02 0.02 0.03 0.03 0.03 0.06 0.05 0.09 0.09 0.07 0.05 0.09 0.15 0.15 0.14 0.25 0.26 0.24 0.23 0.19 0.14 0.13 0.14 0.14 0.08 0.07 0.05 0.05 0.02 0.00 0.00 0.00 0.00 0.02 0.04
0.00 0.00 0.00 0.00 0.00 0.00 0.00 0.00 0.00 0.03 0.07 0.07 0.07 0.07 0.12 0.18 0.24 0.20 0.17 0.26 0.23 0.17 0.17 0.16 0.20 0.23 0.20 0.12 0.10 0.07 0.06 0.05 0.04 0.04 0.03 0.03 0.01 0.01 0.00 0.00 0.00 0.00 0.00
0.00 0.00 0.00 0.00 0.00 0.00 0.00 0.00 0.00 0.00 0.01 0.04 0.08 0.11 0.24 0.25 0.26 0.27 0.19 0.19 0.20 0.19 0.17 0.12 0.13 0.17 0.22 0.23 0.22 0.13 0.06 0.04 0.03 0.01 0.01 0.01 0.00 0.01 0.00 0.00 0.00 0.00 0.00
0.01 0.03 0.02 0.02 0.02 0.02 0.01 0.01 0.01 0.03 0.05 0.08 0.11 0.20 0.26 0.29 0.27 0.22 0.17 0.20 0.22 0.28 0.31 0.30 0.26 0.25 0.29 0.36 0.29 0.19 0.09 0.05 0.03 0.01 0.00 0.00 0.00 0.00 0.00 0.00 0.00 0.00 0.00
0.06 0.08 0.11 0.11 0.11 0.11 0.10 0.10 0.11 0.16 0.20 0.22 0.30 0.31 0.25 0.25 0.25 0.23 0.54 0.57 0.34 0.28 0.30 0.37 0.51 0.57 0.48 0.40 0.41 0.44 0.30 0.14 0.03 0.00 0.00 0.00 0.00 0.00 0.00 0.00 0.00 0.00 0.00
0.08 0.12 0.15 0.15 0.15 0.13 0.14 0.16 0.21 0.23 0.26 0.31 0.30 0.27 0.23 0.18 0.17 0.11 0.10 0.46 1.10 1.11 0.71 0.46 0.36 0.37 0.43 0.35 0.39 0.41 0.37 0.27 0.17 0.06 0.01 0.00 0.00 0.00 0.01 0.01 0.01 0.03 0.07
0.06 0.11 0.15 0.16 0.18 0.18 0.16 0.17 0.18 0.27 0.26 0.30 0.31 0.44 0.47 0.31 0.15 0.09 0.06 0.09 0.18 0.53 0.89 0.80 0.56 0.47 0.40 0.33 0.24 0.18 0.21 0.25 0.29 0.28 0.14 0.06 0.05 0.03 0.05 0.07 0.09 0.12 0.14
0.02 0.02 0.05 0.08 0.10 0.10 0.12 0.14 0.17 0.15 0.16 0.15 0.13 0.21 0.17 0.16 0.19 0.16 0.13 0.12 0.12 0.17 0.27 0.46 0.41 0.30 0.34 0.41 0.39 0.35 0.32 0.35 0.28 0.36 0.36 0.22 0.23 0.16 0.12 0.12 0.10 0.11 0.16

GFSSE_prec_precacc24_123.txt.gz
Total_Precipitation_Accumulation
0.02 0.06 0.11 0.17 0.13 0.10 0.04 0.07 0.17 0.28 0.30 0.23 0.05 0.02 0.03 0.00 0.00 0.00 0.00 0.00 0.00 0.00 0.01 0.00 0.00 0.04 0.04 0.05 0.05 0.11 0.16 0.13 0.05 0.02 0.01 0.01 0.03 0.09 0.10 0.10 0.17 0.19 0.23
0.01 0.06 0.12 0.15 0.15 0.12 0.05 0.04 0.07 0.10 0.17 0.25 0.16 0.06 0.04 0.03 0.00 0.00 0.00 0.00 0.00 0.02 0.03 0.04 0.16 0.09 0.04 0.03 0.03 0.08 0.05 0.00 0.00 0.00 0.00 0.00 0.01 0.06 0.09 0.08 0.07 0.02 0.03
0.02 0.08 0.11 0.19 0.20 0.14 0.07 0.06 0.07 0.11 0.16 0.16 0.26 0.28 0.12 0.07 0.01 0.00 0.00 0.00 0.02 0.13 0.24 0.42 0.38 0.07 0.01 0.01 0.02 0.01 0.00 0.00 0.00 0.00 0.00 0.00 0.00 0.01 0.01 0.00 0.00 0.00 0.00
0.02 0.09 0.14 0.23 0.28 0.29 0.16 0.07 0.08 0.09 0.09 0.10 0.11 0.14 0.15 0.11 0.02 0.00 0.00 0.00 0.05 0.25 0.40 0.45 0.29 0.04 0.01 0.00 0.00 0.00 0.00 0.00 0.00 0.00 0.00 0.00 0.00 0.00 0.00 0.00 0.00 0.00 0.00
0.02 0.11 0.16 0.27 0.30 0.33 0.30 0.17 0.09 0.12 0.13 0.09 0.06 0.08 0.09 0.09 0.11 0.08 0.02 0.00 0.05 0.11 0.14 0.25 0.37 0.16 0.05 0.00 0.00 0.00 0.00 0.00 0.00 0.00 0.00 0.00 0.00 0.00 0.00 0.00 0.00 0.00 0.00
0.02 0.10 0.14 0.23 0.27 0.34 0.33 0.22 0.17 0.13 0.12 0.11 0.08 0.11 0.07 0.04 0.07 0.11 0.11 0.05 0.03 0.05 0.07 0.10 0.12 0.06 0.01 0.00 0.00 0.00 0.00 0.00 0.00 0.00 0.00 0.00 0.00 0.00 0.00 0.00 0.00 0.00 0.00
0.01 0.08 0.14 0.17 0.17 0.21 0.28 0.28 0.28 0.28 0.24 0.18 0.15 0.18 0.13 0.07 0.11 0.16 0.15 0.09 0.04 0.03 0.04 0.04 0.07 0.03 0.01 0.00 0.00 0.00 0.00 0.00 0.00 0.00 0.00 0.00 0.00 0.00 0.00 0.00 0.00 0.00 0.00
0.00 0.03 0.12 0.14 0.10 0.10 0.15 0.18 0.22 0.25 0.27 0.23 0.20 0.21 0.16 0.16 0.20 0.26 0.16 0.12 0.07 0.03 0.02 0.02 0.06 0.05 0.02 0.01 0.00 0.00 0.00 0.00 0.00 0.00 0.00 0.00 0.00 0.00 0.00 0.00 0.00 0.00 0.00
0.00 0.00 0.03 0.11 0.11 0.05 0.04 0.03 0.06 0.08 0.09 0.17 0.28 0.22 0.14 0.17 0.17 0.21 0.20 0.17 0.23 0.20 0.13 0.09 0.07 0.08 0.07 0.08 0.03 0.00 0.00 0.00 0.00 0.00 0.00 0.00 0.00 0.00 0.00 0.00 0.00 0.00 0.00
0.00 0.00 0.00 0.02 0.11 0.11 0.08 0.03 0.04 0.09 0.11 0.09 0.05 0.05 0.04 0.02 0.01 0.06 0.07 0.08 0.19 0.24 0.17 0.11 0.09 0.10 0.09 0.08 0.06 0.02 0.00 0.00 0.00 0.00 0.00 0.00 0.00 0.00 0.00 0.01 0.00 0.00 0.00
0.00 0.00 0.00 0.00 0.02 0.07 0.11 0.09 0.05 0.03 0.03 0.02 0.00 0.00 0.01 0.00 0.00 0.00 0.00 0.01 0.03 0.10 0.15 0.12 0.12 0.14 0.12 0.04 0.01 0.00 0.00 0.00 0.00 0.00 0.00 0.00 0.00 0.00 0.00 0.01 0.02 0.00 0.00
0.00 0.00 0.00 0.00 0.00 0.00 0.03 0.07 0.07 0.06 0.02 0.00 0.00 0.00 0.00 0.00 0.00 0.01 0.02 0.01 0.00 0.02 0.05 0.08 0.12 0.10 0.05 0.00 0.00 0.00 0.00 0.00 0.00 0.00 0.00 0.00 0.00 0.00 0.00 0.01 0.02 0.01 0.00
0.00 0.00 0.00 0.00 0.00 0.00 0.00 0.01 0.02 0.04 0.02 0.01 0.01 0.03 0.07 0.02 0.03 0.03 0.01 0.02 0.02 0.00 0.00 0.02 0.05 0.04 0.05 0.04 0.03 0.02 0.00 0.00 0.00 0.00 0.00 0.00 0.00 0.01 0.01 0.01 0.02 0.02 0.01
0.00 0.00 0.00 0.00 0.00 0.00 0.00 0.00 0.01 0.02 0.01 0.01 0.02 0.03 0.03 0.03 0.02 0.00 0.00 0.04 0.11 0.08 0.03 0.05 0.03 0.05 0.12 0.13 0.11 0.07 0.04 0.01 0.00 0.00 0.00 0.00 0.00 0.00 0.01 0.03 0.03 0.03 0.02
0.00 0.00 0.00 0.00 0.00 0.01 0.01 0.00 0.00 0.01 0.03 0.01 0.00 0.00 0.00 0.00 0.00 0.01 0.01 0.05 0.10 0.17 0.15 0.19 0.18 0.20 0.18 0.20 0.17 0.13 0.10 0.09 0.06 0.02 0.00 0.00 0.00 0.00 0.01 0.05 0.06 0.04 0.05
0.00 0.00 0.00 0.00 0.00 0.00 0.00 0.01 0.01 0.01 0.01 0.01 0.01 0.00 0.00 0.00 0.00 0.00 0.00 0.01 0.02 0.06 0.16 0.35 0.38 0.39 0.37 0.32 0.22 0.22 0.15 0.14 0.15 0.15 0.09 0.05 0.02 0.00 0.00 0.06 0.10 0.13 0.10
0.00 0.00 0.00 0.00 0.00 0.00 0.00 0.00 0.01 0.01 0.02 0.01 0.03 0.03 0.00 0.01 0.01 0.01 0.01 0.00 0.00 0.02 0.08 0.17 0.24 0.31 0.32 0.42 0.27 0.31 0.37 0.33 0.27 0.19 0.15 0.07 0.08 0.06 0.03 0.05 0.09 0.17 0.27
0.00 0.00 0.00 0.00 0.00 0.00 0.00 0.00 0.00 0.01 0.02 0.03 0.02 0.06 0.05 0.02 0.04 0.03 0.02 0.01 0.03 0.02 0.04 0.07 0.12 0.18 0.21 0.32 0.31 0.24 0.22 0.26 0.20 0.12 0.08 0.05 0.04 0.05 0.03 0.03 0.06 0.09 0.14
0.00 0.00 0.00 0.00 0.00 0.00 0.00 0.00 0.02 0.02 0.03 0.03 0.03 0.06 0.05 0.09 0.09 0.07 0.04 0.09 0.15 0.14 0.11 0.09 0.12 0.13 0.14 0.21 0.18 0.18 0.19 0.17 0.11 0.09 0.05 0.05 0.02 0.00 0.00 0.00 0.00 0.02 0.04
0.00 0.00 0.00 0.00 0.00 0.00 0.00 0.00 0.00 0.03 0.07 0.07 0.07 0.07 0.12 0.18 0.24 0.20 0.17 0.26 0.21 0.16 0.16 0.15 0.13 0.15 0.17 0.14 0.12 0.11 0.11 0.11 0.09 0.08 0.05 0.03 0.01 0.01 0.00 0.00 0.00 0.00 0.00
0.00 0.00 0.00 0.00 0.00 0.00 0.00 0.00 0.00 0.00 0.01 0.04 0.08 0.11 0.24 0.25 0.26 0.26 0.18 0.17 0.17 0.17 0.16 0.11 0.11 0.16 0.22 0.24 0.24 0.19 0.14 0.13 0.10 0.07 0.04 0.02 0.01 0.01 0.00 0.00 0.00 0.00 0.00
0.01 0.01 0.00 0.00 0.00 0.01 0.01 0.01 0.01 0.03 0.05 0.08 0.11 0.20 0.26 0.29 0.27 0.21 0.16 0.18 0.20 0.26 0.29 0.29 0.24 0.23 0.28 0.36 0.32 0.27 0.16 0.13 0.11 0.06 0.02 0.02 0.00 0.00 0.00 0.00 0.00 0.00 0.00
0.01 0.03 0.05 0.06 0.07 0.09 0.10 0.09 0.11 0.16 0.20 0.22 0.30 0.31 0.25 0.25 0.25 0.21 0.38 0.41 0.29 0.27 0.30 0.36 0.48 0.54 0.47 0.40 0.41 0.45 0.33 0.17 0.07 0.02 0.04 0.04 0.01 0.01 0.00 0.00 0.00 0.00 0.00
0.04 0.07 0.11 0.14 0.15 0.13 0.14 0.16 0.21 0.22 0.26 0.31 0.30 0.27 0.23 0.18 0.17 0.11 0.08 0.30 0.59 0.54 0.42 0.39 0.33 0.33 0.39 0.31 0.38 0.41 0.39 0.29 0.19 0.07 0.02 0.03 0.04 0.04 0.04 0.03 0.02 0.02 0.06
0.04 0.08 0.12 0.14 0.18 0.18 0.16 0.16 0.17 0.26 0.25 0.30 0.31 0.44 0.47 0.31 0.15 0.08 0.05 0.07 0.12 0.19 0.29 0.42 0.38 0.36 0.33 0.30 0.21 0.17 0.19 0.21 0.26 0.26 0.13 0.06 0.04 0.02 0.02 0.04 0.06 0.09 0.12
0.01 0.02 0.05 0.07 0.09 0.08 0.11 0.13 0.15 0.14 0.15 0.14 0.10 0.14 0.13 0.15 0.17 0.12 0.07 0.05 0.05 0.06 0.08 0.08 0.13 0.17 0.25 0.32 0.32 0.29 0.26 0.28 0.23 0.30 0.32 0.17 0.18 0.13 0.10 0.10 0.09 0.09 0.15

GFSSE_prec_precacc24_126.txt.gz
Total_Precipitation_Accumulation
0.02 0.05 0.10 0.22 0.15 0.12 0.08 0.09 0.17 0.28 0.29 0.24 0.06 0.01 0.00 0.00 0.00 0.00 0.00 0.00 0.00 0.00 0.00 0.00 0.00 0.03 0.02 0.05 0.04 0.11 0.15 0.11 0.04 0.03 0.01 0.03 0.07 0.10 0.10 0.10 0.16 0.17 0.21
0.01 0.05 0.11 0.19 0.15 0.14 0.09 0.08 0.07 0.10 0.17 0.27 0.20 0.07 0.02 0.02 0.00 0.00 0.00 0.00 0.00 0.01 0.02 0.04 0.15 0.07 0.03 0.04 0.03 0.08 0.05 0.00 0.00 0.00 0.00 0.00 0.03 0.14 0.15 0.12 0.08 0.02 0.02
0.01 0.06 0.10 0.19 0.17 0.14 0.09 0.08 0.08 0.11 0.16 0.16 0.28 0.29 0.12 0.06 0.00 0.00 0.00 0.00 0.01 0.10 0.24 0.46 0.41 0.07 0.01 0.01 0.02 0.01 0.00 0.00 0.00 0.00 0.00 0.00 0.00 0.03 0.05 0.01 0.00 0.00 0.00
0.00 0.05 0.11 0.21 0.25 0.22 0.14 0.06 0.08 0.10 0.10 0.10 0.13 0.15 0.14 0.11 0.02 0.00 0.00 0.00 0.04 0.21 0.39 0.47 0.33 0.06 0.06 0.00 0.00 0.00 0.00 0.00 0.00 0.00 0.00 0.00 0.00 0.00 0.00 0.00 0.00 0.00 0.00
0.00 0.04 0.13 0.24 0.27 0.32 0.29 0.16 0.09 0.13 0.13 0.10 0.09 0.10 0.10 0.09 0.11 0.07 0.01 0.00 0.02 0.06 0.13 0.25 0.37 0.19 0.10 0.03 0.00 0.00 0.00 0.00 0.00 0.00 0.00 0.00 0.00 0.00 0.00 0.00 0.00 0.00 0.00
0.00 0.02 0.09 0.16 0.22 0.28 0.29 0.17 0.15 0.13 0.12 0.11 0.09 0.14 0.10 0.05 0.13 0.14 0.09 0.05 0.00 0.05 0.07 0.10 0.12 0.06 0.02 0.01 0.00 0.00 0.00 0.00 0.00 0.00 0.00 0.00 0.00 0.00 0.00 0.00 0.00 0.00 0.00
0.00 0.00 0.04 0.09 0.11 0.12 0.17 0.19 0.23 0.24 0.21 0.16 0.13 0.18 0.13 0.08 0.15 0.19 0.16 0.09 0.03 0.03 0.04 0.04 0.07 0.03 0.02 0.00 0.00 0.00 0.00 0.00 0.00 0.00 0.00 0.00 0.00 0.00 0.00 0.00 0.00 0.00 0.00
0.00 0.00 0.01 0.04 0.03 0.04 0.08 0.13 0.16 0.18 0.17 0.15 0.14 0.18 0.14 0.14 0.18 0.23 0.15 0.11 0.06 0.05 0.06 0.06 0.08 0.11 0.06 0.03 0.00 0.00 0.00 0.00 0.00 0.00 0.00 0.00 0.00 0.00 0.00 0.00 0.00 0.00 0.00
0.00 0.00 0.00 0.04 0.03 0.01 0.01 0.02 0.06 0.08 0.09 0.16 0.23 0.17 0.12 0.14 0.13 0.18 0.17 0.13 0.16 0.17 0.15 0.12 0.10 0.13 0.12 0.13 0.08 0.04 0.00 0.00 0.00 0.00 0.00 0.00 0.00 0.00 0.00 0.01 0.00 0.00 0.00
0.00 0.00 0.00 0.00 0.04 0.08 0.08 0.03 0.04 0.09 0.11 0.09 0.05 0.04 0.03 0.02 0.00 0.04 0.05 0.06 0.09 0.18 0.16 0.12 0.11 0.12 0.12 0.12 0.10 0.06 0.00 0.00 0.00 0.00 0.00 0.00 0.00 0.00 0.00 0.01 0.01 0.00 0.00
0.00 0.00 0.00 0.00 0.00 0.04 0.06 0.05 0.03 0.02 0.02 0.02 0.00 0.00 0.01 0.00 0.00 0.00 0.00 0.01 0.02 0.05 0.11 0.12 0.13 0.16 0.14 0.05 0.03 0.01 0.02 0.03 0.01 0.00 0.00 0.00 0.00 0.00 0.00 0.01 0.03 0.02 0.00
0.00 0.00 0.00 0.00 0.00 0.00 0.02 0.03 0.04 0.02 0.01 0.00 0.00 0.00 0.00 0.00 0.00 0.00 0.01 0.00 0.00 0.01 0.02 0.05 0.10 0.12 0.06 0.01 0.01 0.03 0.02 0.02 0.02 0.00 0.00 0.00 0.00 0.00 0.00 0.01 0.02 0.03 0.02
0.00 0.00 0.00 0.00 0.00 0.00 0.00 0.00 0.02 0.03 0.02 0.01 0.01 0.02 0.04 0.02 0.03 0.03 0.01 0.02 0.01 0.00 0.00 0.02 0.05 0.05 0.06 0.06 0.05 0.06 0.03 0.04 0.02 0.00 0.00 0.00 0.00 0.00 0.00 0.01 0.02 0.02 0.02
0.00 0.00 0.00 0.00 0.00 0.00 0.00 0.00 0.01 0.01 0.01 0.01 0.02 0.03 0.03 0.03 0.02 0.00 0.00 0.03 0.10 0.07 0.03 0.05 0.04 0.06 0.14 0.18 0.16 0.12 0.08 0.05 0.03 0.02 0.01 0.00 0.00 0.00 0.01 0.03 0.03 0.03 0.03
0.00 0.00 0.00 0.00 0.00 0.00 0.00 0.00 0.00 0.01 0.03 0.01 0.00 0.00 0.00 0.00 0.00 0.01 0.01 0.04 0.08 0.15 0.15 0.18 0.18 0.20 0.17 0.21 0.20 0.17 0.17 0.18 0.16 0.11 0.06 0.04 0.02 0.00 0.00 0.02 0.05 0.04 0.05
0.00 0.00 0.00 0.00 0.00 0.00 0.00 0.00 0.01 0.01 0.01 0.01 0.01 0.00 0.00 0.00 0.00 0.00 0.00 0.01 0.02 0.06 0.15 0.35 0.38 0.39 0.37 0.32 0.23 0.23 0.16 0.18 0.24 0.26 0.16 0.11 0.15 0.03 0.01 0.06 0.06 0.12 0.11
0.00 0.00 0.00 0.00 0.00 0.00 0.00 0.00 0.01 0.01 0.01 0.01 0.03 0.03 0.00 0.01 0.01 0.01 0.00 0.00 0.00 0.01 0.05 0.15 0.22 0.29 0.29 0.41 0.27 0.32 0.39 0.36 0.30 0.22 0.20 0.11 0.12 0.13 0.12 0.10 0.14 0.32 0.40
0.00 0.00 0.00 0.00 0.00 0.00 0.00 0.00 0.00 0.01 0.01 0.02 0.02 0.06 0.05 0.02 0.04 0.03 0.02 0.01 0.03 0.01 0.01 0.04 0.10 0.17 0.15 0.25 0.28 0.24 0.24 0.29 0.25 0.16 0.12 0.09 0.09 0.10 0.12 0.13 0.09 0.20 0.24
0.00 0.00 0.00 0.00 0.00 0.00 0.00 0.00 0.02 0.02 0.03 0.03 0.03 0.06 0.05 0.09 0.09 0.07 0.04 0.09 0.14 0.13 0.10 0.07 0.09 0.11 0.11 0.17 0.16 0.18 0.20 0.19 0.13 0.15 0.12 0.14 0.09 0.08 0.02 0.04 0.02 0.02 0.04
0.00 0.00 0.00 0.00 0.00 0.00 0.00 0.00 0.00 0.03 0.07 0.07 0.07 0.07 0.12 0.18 0.24 0.20 0.17 0.26 0.21 0.14 0.15 0.13 0.11 0.14 0.15 0.12 0.09 0.11 0.12 0.12 0.12 0.12 0.12 0.12 0.08 0.05 0.03 0.02 0.00 0.00 0.00
0.00 0.00 0.00 0.00 0.00 0.00 0.00 0.00 0.00 0.00 0.01 0.04 0.08 0.11 0.24 0.25 0.26 0.26 0.18 0.17 0.17 0.16 0.15 0.10 0.10 0.15 0.20 0.22 0.23 0.20 0.16 0.13 0.11 0.12 0.12 0.10 0.08 0.05 0.03 0.02 0.02 0.00 0.00
0.00 0.00 0.00 0.00 0.00 0.00 0.00 0.00 0.01 0.03 0.05 0.08 0.11 0.20 0.26 0.29 0.27 0.21 0.16 0.18 0.19 0.25 0.28 0.28 0.22 0.21 0.26 0.35 0.31 0.26 0.18 0.12 0.11 0.07 0.09 0.11 0.12 0.13 0.12 0.05 0.01 0.00 0.00
0.00 0.00 0.02 0.02 0.02 0.03 0.06 0.08 0.11 0.16 0.20 0.22 0.30 0.31 0.25 0.25 0.25 0.21 0.38 0.40 0.28 0.25 0.28 0.36 0.48 0.53 0.45 0.37 0.39 0.45 0.33 0.18 0.08 0.02 0.05 0.08 0.09 0.10 0.12 0.13 0.08 0.04 0.02
0.01 0.02 0.02 0.05 0.06 0.07 0.10 0.16 0.21 0.22 0.26 0.31 0.30 0.27 0.22 0.18 0.16 0.11 0.07 0.28 0.56 0.50 0.38 0.33 0.30 0.30 0.36 0.29 0.36 0.39 0.38 0.29 0.18 0.07 0.02 0.04 0.04 0.04 0.04 0.05 0.04 0.03 0.02
0.01 0.04 0.06 0.07 0.10 0.13 0.15 0.16 0.17 0.25 0.25 0.29 0.31 0.43 0.46 0.31 0.15 0.07 0.03 0.05 0.09 0.17 0.27 0.34 0.27 0.20 0.18 0.21 0.19 0.16 0.17 0.20 0.24 0.21 0.09 0.03 0.02 0.00 0.01 0.01 0.01 0.01 0.04
0.00 0.00 0.02 0.04 0.07 0.07 0.09 0.13 0.14 0.11 0.13 0.13 0.10 0.14 0.13 0.15 0.16 0.11 0.06 0.03 0.03 0.04 0.06 0.06 0.08 0.09 0.10 0.12 0.13 0.14 0.16 0.21 0.19 0.26 0.26 0.13 0.11 0.06 0.02 0.02 0.02 0.03 0.09